<?xml version="1.0" encoding="UTF-8" standalone="no" ?>
<gpx xmlns="http://www.topografix.com/GPX/1/1" xmlns:xsi="http://www.w3.org/2001/XMLSchema-instance" xsi:schemaLocation="http://www.topografix.com/GPX/1/1 http://www.topografix.com/GPX/1/1/gpx.xsd" version="1.1" creator="VisuGPX - https://www.visugpx.com">
  <metadata>
    <name>Tour de porquerolles</name>
    <desc><![CDATA[Tour de porquerolles par le sud, départ port du niel stand up paddle]]></desc>
  </metadata>
  <trk>
    <name><![CDATA[Tour de porquerolles_1]]></name>
    <trkseg>
      <trkpt lat="43.03491" lon="6.12811">
        <ele>1.04</ele>
        <time>2014-05-08T06:22:06.000Z</time>
      </trkpt>
      <trkpt lat="43.03485" lon="6.12813">
        <ele>0.89</ele>
        <time>2014-05-08T06:22:11.000Z</time>
      </trkpt>
      <trkpt lat="43.0348" lon="6.12816">
        <ele>0.73</ele>
        <time>2014-05-08T06:22:16.000Z</time>
      </trkpt>
      <trkpt lat="43.03475" lon="6.12819">
        <ele>0.71</ele>
        <time>2014-05-08T06:22:21.000Z</time>
      </trkpt>
      <trkpt lat="43.03469" lon="6.12823">
        <ele>0.68</ele>
        <time>2014-05-08T06:22:26.000Z</time>
      </trkpt>
      <trkpt lat="43.03464" lon="6.12828">
        <ele>0.66</ele>
        <time>2014-05-08T06:22:31.000Z</time>
      </trkpt>
      <trkpt lat="43.03458" lon="6.12831">
        <ele>0.58</ele>
        <time>2014-05-08T06:22:36.000Z</time>
      </trkpt>
      <trkpt lat="43.03452" lon="6.12834">
        <ele>0.51</ele>
        <time>2014-05-08T06:22:41.000Z</time>
      </trkpt>
      <trkpt lat="43.03446" lon="6.12835">
        <ele>0.43</ele>
        <time>2014-05-08T06:22:46.000Z</time>
      </trkpt>
      <trkpt lat="43.0344" lon="6.12836">
        <ele>0.35</ele>
        <time>2014-05-08T06:22:51.000Z</time>
      </trkpt>
      <trkpt lat="43.03434" lon="6.12837">
        <ele>0.26</ele>
        <time>2014-05-08T06:22:56.000Z</time>
      </trkpt>
      <trkpt lat="43.03428" lon="6.12839">
        <ele>0.17</ele>
        <time>2014-05-08T06:23:01.000Z</time>
      </trkpt>
      <trkpt lat="43.03423" lon="6.12842">
        <ele>0.12</ele>
        <time>2014-05-08T06:23:06.000Z</time>
      </trkpt>
      <trkpt lat="43.03418" lon="6.12844">
        <ele>0.06</ele>
        <time>2014-05-08T06:23:11.000Z</time>
      </trkpt>
      <trkpt lat="43.03412" lon="6.12847">
        <time>2014-05-08T06:23:16.000Z</time>
      </trkpt>
      <trkpt lat="43.03407" lon="6.12852">
        <time>2014-05-08T06:23:21.000Z</time>
      </trkpt>
      <trkpt lat="43.03403" lon="6.12855">
        <time>2014-05-08T06:23:26.000Z</time>
      </trkpt>
      <trkpt lat="43.034" lon="6.12858">
        <time>2014-05-08T06:23:31.000Z</time>
      </trkpt>
      <trkpt lat="43.03396" lon="6.1286">
        <time>2014-05-08T06:23:36.000Z</time>
      </trkpt>
      <trkpt lat="43.03389" lon="6.12861">
        <time>2014-05-08T06:23:41.000Z</time>
      </trkpt>
      <trkpt lat="43.03383" lon="6.12862">
        <time>2014-05-08T06:23:46.000Z</time>
      </trkpt>
      <trkpt lat="43.03376" lon="6.12863">
        <time>2014-05-08T06:23:51.000Z</time>
      </trkpt>
      <trkpt lat="43.03368" lon="6.12867">
        <time>2014-05-08T06:23:56.000Z</time>
      </trkpt>
      <trkpt lat="43.0336" lon="6.12872">
        <time>2014-05-08T06:24:01.000Z</time>
      </trkpt>
      <trkpt lat="43.03353" lon="6.12878">
        <time>2014-05-08T06:24:06.000Z</time>
      </trkpt>
      <trkpt lat="43.03347" lon="6.12883">
        <time>2014-05-08T06:24:11.000Z</time>
      </trkpt>
      <trkpt lat="43.03341" lon="6.12889">
        <time>2014-05-08T06:24:16.000Z</time>
      </trkpt>
      <trkpt lat="43.03334" lon="6.12894">
        <time>2014-05-08T06:24:21.000Z</time>
      </trkpt>
      <trkpt lat="43.03328" lon="6.12897">
        <time>2014-05-08T06:24:26.000Z</time>
      </trkpt>
      <trkpt lat="43.03319" lon="6.12898">
        <time>2014-05-08T06:24:31.000Z</time>
      </trkpt>
      <trkpt lat="43.03311" lon="6.12899">
        <time>2014-05-08T06:24:36.000Z</time>
      </trkpt>
      <trkpt lat="43.033" lon="6.12902">
        <time>2014-05-08T06:24:41.000Z</time>
      </trkpt>
      <trkpt lat="43.03291" lon="6.12905">
        <time>2014-05-08T06:24:46.000Z</time>
      </trkpt>
      <trkpt lat="43.03283" lon="6.12909">
        <time>2014-05-08T06:24:51.000Z</time>
      </trkpt>
      <trkpt lat="43.03276" lon="6.12916">
        <time>2014-05-08T06:24:56.000Z</time>
      </trkpt>
      <trkpt lat="43.03268" lon="6.12923">
        <time>2014-05-08T06:25:01.000Z</time>
      </trkpt>
      <trkpt lat="43.03261" lon="6.12927">
        <time>2014-05-08T06:25:06.000Z</time>
      </trkpt>
      <trkpt lat="43.03253" lon="6.1293">
        <time>2014-05-08T06:25:11.000Z</time>
      </trkpt>
      <trkpt lat="43.03245" lon="6.12931">
        <time>2014-05-08T06:25:16.000Z</time>
      </trkpt>
      <trkpt lat="43.03236" lon="6.12932">
        <time>2014-05-08T06:25:21.000Z</time>
      </trkpt>
      <trkpt lat="43.03228" lon="6.12936">
        <time>2014-05-08T06:25:26.000Z</time>
      </trkpt>
      <trkpt lat="43.03219" lon="6.1294">
        <time>2014-05-08T06:25:31.000Z</time>
      </trkpt>
      <trkpt lat="43.03213" lon="6.12946">
        <time>2014-05-08T06:25:36.000Z</time>
      </trkpt>
      <trkpt lat="43.03206" lon="6.12951">
        <time>2014-05-08T06:25:41.000Z</time>
      </trkpt>
      <trkpt lat="43.032" lon="6.12955">
        <time>2014-05-08T06:25:46.000Z</time>
      </trkpt>
      <trkpt lat="43.03192" lon="6.12957">
        <time>2014-05-08T06:25:51.000Z</time>
      </trkpt>
      <trkpt lat="43.03181" lon="6.12959">
        <time>2014-05-08T06:25:56.000Z</time>
      </trkpt>
      <trkpt lat="43.03172" lon="6.1296">
        <time>2014-05-08T06:26:01.000Z</time>
      </trkpt>
      <trkpt lat="43.03163" lon="6.12962">
        <time>2014-05-08T06:26:06.000Z</time>
      </trkpt>
      <trkpt lat="43.03156" lon="6.12965">
        <time>2014-05-08T06:26:11.000Z</time>
      </trkpt>
      <trkpt lat="43.03145" lon="6.12972">
        <time>2014-05-08T06:26:16.000Z</time>
      </trkpt>
      <trkpt lat="43.03138" lon="6.12977">
        <time>2014-05-08T06:26:21.000Z</time>
      </trkpt>
      <trkpt lat="43.0313" lon="6.12982">
        <time>2014-05-08T06:26:26.000Z</time>
      </trkpt>
      <trkpt lat="43.03121" lon="6.12985">
        <time>2014-05-08T06:26:31.000Z</time>
      </trkpt>
      <trkpt lat="43.03113" lon="6.12985">
        <time>2014-05-08T06:26:36.000Z</time>
      </trkpt>
      <trkpt lat="43.03104" lon="6.12985">
        <time>2014-05-08T06:26:41.000Z</time>
      </trkpt>
      <trkpt lat="43.03096" lon="6.12984">
        <time>2014-05-08T06:26:46.000Z</time>
      </trkpt>
      <trkpt lat="43.03087" lon="6.12984">
        <time>2014-05-08T06:26:51.000Z</time>
      </trkpt>
      <trkpt lat="43.03079" lon="6.12986">
        <time>2014-05-08T06:26:56.000Z</time>
      </trkpt>
      <trkpt lat="43.03073" lon="6.12988">
        <time>2014-05-08T06:27:01.000Z</time>
      </trkpt>
      <trkpt lat="43.03067" lon="6.12991">
        <time>2014-05-08T06:27:06.000Z</time>
      </trkpt>
      <trkpt lat="43.0306" lon="6.12997">
        <time>2014-05-08T06:27:11.000Z</time>
      </trkpt>
      <trkpt lat="43.03052" lon="6.13002">
        <time>2014-05-08T06:27:16.000Z</time>
      </trkpt>
      <trkpt lat="43.03045" lon="6.13006">
        <time>2014-05-08T06:27:21.000Z</time>
      </trkpt>
      <trkpt lat="43.03037" lon="6.13007">
        <time>2014-05-08T06:27:26.000Z</time>
      </trkpt>
      <trkpt lat="43.03028" lon="6.13008">
        <time>2014-05-08T06:27:31.000Z</time>
      </trkpt>
      <trkpt lat="43.0302" lon="6.13006">
        <time>2014-05-08T06:27:36.000Z</time>
      </trkpt>
      <trkpt lat="43.03013" lon="6.13006">
        <time>2014-05-08T06:27:41.000Z</time>
      </trkpt>
      <trkpt lat="43.03004" lon="6.13007">
        <time>2014-05-08T06:27:46.000Z</time>
      </trkpt>
      <trkpt lat="43.02993" lon="6.13012">
        <time>2014-05-08T06:27:51.000Z</time>
      </trkpt>
      <trkpt lat="43.02986" lon="6.13017">
        <time>2014-05-08T06:27:56.000Z</time>
      </trkpt>
      <trkpt lat="43.02978" lon="6.13023">
        <time>2014-05-08T06:28:01.000Z</time>
      </trkpt>
      <trkpt lat="43.02971" lon="6.13031">
        <time>2014-05-08T06:28:06.000Z</time>
      </trkpt>
      <trkpt lat="43.02965" lon="6.13039">
        <time>2014-05-08T06:28:11.000Z</time>
      </trkpt>
      <trkpt lat="43.02958" lon="6.13046">
        <time>2014-05-08T06:28:16.000Z</time>
      </trkpt>
      <trkpt lat="43.02952" lon="6.13049">
        <time>2014-05-08T06:28:21.000Z</time>
      </trkpt>
      <trkpt lat="43.02943" lon="6.13051">
        <time>2014-05-08T06:28:26.000Z</time>
      </trkpt>
      <trkpt lat="43.02933" lon="6.13051">
        <time>2014-05-08T06:28:31.000Z</time>
      </trkpt>
      <trkpt lat="43.02924" lon="6.1305">
        <time>2014-05-08T06:28:36.000Z</time>
      </trkpt>
      <trkpt lat="43.02915" lon="6.13049">
        <time>2014-05-08T06:28:41.000Z</time>
      </trkpt>
      <trkpt lat="43.02906" lon="6.13049">
        <time>2014-05-08T06:28:46.000Z</time>
      </trkpt>
      <trkpt lat="43.02897" lon="6.13053">
        <time>2014-05-08T06:28:51.000Z</time>
      </trkpt>
      <trkpt lat="43.02889" lon="6.13058">
        <time>2014-05-08T06:28:56.000Z</time>
      </trkpt>
      <trkpt lat="43.02881" lon="6.13063">
        <time>2014-05-08T06:29:01.000Z</time>
      </trkpt>
      <trkpt lat="43.02874" lon="6.1307">
        <time>2014-05-08T06:29:06.000Z</time>
      </trkpt>
      <trkpt lat="43.02868" lon="6.13076">
        <time>2014-05-08T06:29:11.000Z</time>
      </trkpt>
      <trkpt lat="43.0286" lon="6.13081">
        <time>2014-05-08T06:29:16.000Z</time>
      </trkpt>
      <trkpt lat="43.02852" lon="6.13085">
        <ele>-0.01</ele>
        <time>2014-05-08T06:29:21.000Z</time>
      </trkpt>
      <trkpt lat="43.02843" lon="6.13087">
        <ele>-0.01</ele>
        <time>2014-05-08T06:29:26.000Z</time>
      </trkpt>
      <trkpt lat="43.02833" lon="6.13086">
        <ele>-0.01</ele>
        <time>2014-05-08T06:29:31.000Z</time>
      </trkpt>
      <trkpt lat="43.02826" lon="6.13085">
        <ele>-0.01</ele>
        <time>2014-05-08T06:29:36.000Z</time>
      </trkpt>
      <trkpt lat="43.02817" lon="6.13087">
        <ele>-0.01</ele>
        <time>2014-05-08T06:29:41.000Z</time>
      </trkpt>
      <trkpt lat="43.02809" lon="6.13091">
        <ele>-0.01</ele>
        <time>2014-05-08T06:29:46.000Z</time>
      </trkpt>
      <trkpt lat="43.028" lon="6.13097">
        <ele>-0.01</ele>
        <time>2014-05-08T06:29:51.000Z</time>
      </trkpt>
      <trkpt lat="43.02793" lon="6.13104">
        <time>2014-05-08T06:29:56.000Z</time>
      </trkpt>
      <trkpt lat="43.02787" lon="6.13111">
        <time>2014-05-08T06:30:01.000Z</time>
      </trkpt>
      <trkpt lat="43.0278" lon="6.13117">
        <time>2014-05-08T06:30:06.000Z</time>
      </trkpt>
      <trkpt lat="43.02772" lon="6.13122">
        <time>2014-05-08T06:30:11.000Z</time>
      </trkpt>
      <trkpt lat="43.02763" lon="6.13124">
        <time>2014-05-08T06:30:16.000Z</time>
      </trkpt>
      <trkpt lat="43.02757" lon="6.13125">
        <time>2014-05-08T06:30:21.000Z</time>
      </trkpt>
      <trkpt lat="43.02747" lon="6.13129">
        <time>2014-05-08T06:30:26.000Z</time>
      </trkpt>
      <trkpt lat="43.02739" lon="6.13134">
        <time>2014-05-08T06:30:31.000Z</time>
      </trkpt>
      <trkpt lat="43.02732" lon="6.13138">
        <time>2014-05-08T06:30:36.000Z</time>
      </trkpt>
      <trkpt lat="43.02723" lon="6.13146">
        <time>2014-05-08T06:30:41.000Z</time>
      </trkpt>
      <trkpt lat="43.02717" lon="6.13152">
        <time>2014-05-08T06:30:46.000Z</time>
      </trkpt>
      <trkpt lat="43.02711" lon="6.13157">
        <time>2014-05-08T06:30:51.000Z</time>
      </trkpt>
      <trkpt lat="43.02705" lon="6.13159">
        <time>2014-05-08T06:30:56.000Z</time>
      </trkpt>
      <trkpt lat="43.02697" lon="6.13162">
        <time>2014-05-08T06:31:01.000Z</time>
      </trkpt>
      <trkpt lat="43.02686" lon="6.13161">
        <time>2014-05-08T06:31:06.000Z</time>
      </trkpt>
      <trkpt lat="43.02677" lon="6.13159">
        <time>2014-05-08T06:31:11.000Z</time>
      </trkpt>
      <trkpt lat="43.02668" lon="6.13154">
        <time>2014-05-08T06:31:16.000Z</time>
      </trkpt>
      <trkpt lat="43.02661" lon="6.13148">
        <time>2014-05-08T06:31:21.000Z</time>
      </trkpt>
      <trkpt lat="43.02654" lon="6.13145">
        <time>2014-05-08T06:31:26.000Z</time>
      </trkpt>
      <trkpt lat="43.02647" lon="6.13143">
        <time>2014-05-08T06:31:31.000Z</time>
      </trkpt>
      <trkpt lat="43.02636" lon="6.13142">
        <time>2014-05-08T06:31:36.000Z</time>
      </trkpt>
      <trkpt lat="43.02627" lon="6.13143">
        <time>2014-05-08T06:31:41.000Z</time>
      </trkpt>
      <trkpt lat="43.02618" lon="6.13145">
        <time>2014-05-08T06:31:46.000Z</time>
      </trkpt>
      <trkpt lat="43.02611" lon="6.13147">
        <time>2014-05-08T06:31:51.000Z</time>
      </trkpt>
      <trkpt lat="43.02602" lon="6.1315">
        <time>2014-05-08T06:31:56.000Z</time>
      </trkpt>
      <trkpt lat="43.02594" lon="6.13156">
        <ele>-0.01</ele>
        <time>2014-05-08T06:32:01.000Z</time>
      </trkpt>
      <trkpt lat="43.02586" lon="6.13163">
        <ele>-0.01</ele>
        <time>2014-05-08T06:32:06.000Z</time>
      </trkpt>
      <trkpt lat="43.0258" lon="6.13169">
        <ele>-0.02</ele>
        <time>2014-05-08T06:32:11.000Z</time>
      </trkpt>
      <trkpt lat="43.02574" lon="6.13177">
        <ele>-0.03</ele>
        <time>2014-05-08T06:32:16.000Z</time>
      </trkpt>
      <trkpt lat="43.02568" lon="6.13187">
        <ele>-0.03</ele>
        <time>2014-05-08T06:32:21.000Z</time>
      </trkpt>
      <trkpt lat="43.02562" lon="6.13199">
        <ele>-0.03</ele>
        <time>2014-05-08T06:32:26.000Z</time>
      </trkpt>
      <trkpt lat="43.02557" lon="6.13207">
        <ele>-0.02</ele>
        <time>2014-05-08T06:32:31.000Z</time>
      </trkpt>
      <trkpt lat="43.02552" lon="6.13215">
        <ele>-0.02</ele>
        <time>2014-05-08T06:32:36.000Z</time>
      </trkpt>
      <trkpt lat="43.02544" lon="6.13222">
        <ele>-0.02</ele>
        <time>2014-05-08T06:32:41.000Z</time>
      </trkpt>
      <trkpt lat="43.02536" lon="6.13226">
        <ele>-0.02</ele>
        <time>2014-05-08T06:32:46.000Z</time>
      </trkpt>
      <trkpt lat="43.02527" lon="6.13229">
        <ele>-0.02</ele>
        <time>2014-05-08T06:32:51.000Z</time>
      </trkpt>
      <trkpt lat="43.02518" lon="6.1323">
        <ele>-0.02</ele>
        <time>2014-05-08T06:32:56.000Z</time>
      </trkpt>
      <trkpt lat="43.02508" lon="6.13229">
        <ele>-0.02</ele>
        <time>2014-05-08T06:33:01.000Z</time>
      </trkpt>
      <trkpt lat="43.02499" lon="6.13228">
        <ele>-0.02</ele>
        <time>2014-05-08T06:33:06.000Z</time>
      </trkpt>
      <trkpt lat="43.02491" lon="6.13229">
        <ele>-0.02</ele>
        <time>2014-05-08T06:33:11.000Z</time>
      </trkpt>
      <trkpt lat="43.02482" lon="6.13231">
        <ele>-0.01</ele>
        <time>2014-05-08T06:33:16.000Z</time>
      </trkpt>
      <trkpt lat="43.02473" lon="6.13236">
        <ele>-0.01</ele>
        <time>2014-05-08T06:33:21.000Z</time>
      </trkpt>
      <trkpt lat="43.02465" lon="6.13241">
        <time>2014-05-08T06:33:26.000Z</time>
      </trkpt>
      <trkpt lat="43.02459" lon="6.13246">
        <time>2014-05-08T06:33:31.000Z</time>
      </trkpt>
      <trkpt lat="43.02451" lon="6.13254">
        <time>2014-05-08T06:33:36.000Z</time>
      </trkpt>
      <trkpt lat="43.02443" lon="6.13265">
        <time>2014-05-08T06:33:41.000Z</time>
      </trkpt>
      <trkpt lat="43.02438" lon="6.13273">
        <time>2014-05-08T06:33:46.000Z</time>
      </trkpt>
      <trkpt lat="43.02432" lon="6.1328">
        <time>2014-05-08T06:33:51.000Z</time>
      </trkpt>
      <trkpt lat="43.02425" lon="6.13286">
        <time>2014-05-08T06:33:56.000Z</time>
      </trkpt>
      <trkpt lat="43.02417" lon="6.1329">
        <time>2014-05-08T06:34:01.000Z</time>
      </trkpt>
      <trkpt lat="43.02408" lon="6.13292">
        <time>2014-05-08T06:34:06.000Z</time>
      </trkpt>
      <trkpt lat="43.024" lon="6.13292">
        <time>2014-05-08T06:34:11.000Z</time>
      </trkpt>
      <trkpt lat="43.02392" lon="6.1329">
        <time>2014-05-08T06:34:16.000Z</time>
      </trkpt>
      <trkpt lat="43.02383" lon="6.13291">
        <time>2014-05-08T06:34:21.000Z</time>
      </trkpt>
      <trkpt lat="43.02373" lon="6.13294">
        <time>2014-05-08T06:34:26.000Z</time>
      </trkpt>
      <trkpt lat="43.02365" lon="6.13299">
        <time>2014-05-08T06:34:31.000Z</time>
      </trkpt>
      <trkpt lat="43.02357" lon="6.13305">
        <time>2014-05-08T06:34:36.000Z</time>
      </trkpt>
      <trkpt lat="43.0235" lon="6.13312">
        <time>2014-05-08T06:34:41.000Z</time>
      </trkpt>
      <trkpt lat="43.02346" lon="6.13318">
        <time>2014-05-08T06:34:46.000Z</time>
      </trkpt>
      <trkpt lat="43.0234" lon="6.13323">
        <time>2014-05-08T06:34:51.000Z</time>
      </trkpt>
      <trkpt lat="43.02336" lon="6.13327">
        <time>2014-05-08T06:34:56.000Z</time>
      </trkpt>
      <trkpt lat="43.02329" lon="6.13332">
        <time>2014-05-08T06:35:01.000Z</time>
      </trkpt>
      <trkpt lat="43.02327" lon="6.13335">
        <time>2014-05-08T06:35:06.000Z</time>
      </trkpt>
      <trkpt lat="43.02322" lon="6.1334">
        <time>2014-05-08T06:35:11.000Z</time>
      </trkpt>
      <trkpt lat="43.02316" lon="6.13345">
        <time>2014-05-08T06:35:16.000Z</time>
      </trkpt>
      <trkpt lat="43.02307" lon="6.13349">
        <time>2014-05-08T06:35:21.000Z</time>
      </trkpt>
      <trkpt lat="43.02298" lon="6.13351">
        <time>2014-05-08T06:35:26.000Z</time>
      </trkpt>
      <trkpt lat="43.02289" lon="6.13352">
        <time>2014-05-08T06:35:31.000Z</time>
      </trkpt>
      <trkpt lat="43.0228" lon="6.13352">
        <time>2014-05-08T06:35:36.000Z</time>
      </trkpt>
      <trkpt lat="43.02272" lon="6.1335">
        <time>2014-05-08T06:35:41.000Z</time>
      </trkpt>
      <trkpt lat="43.02263" lon="6.1335">
        <time>2014-05-08T06:35:46.000Z</time>
      </trkpt>
      <trkpt lat="43.02254" lon="6.13353">
        <time>2014-05-08T06:35:51.000Z</time>
      </trkpt>
      <trkpt lat="43.02245" lon="6.13357">
        <time>2014-05-08T06:35:56.000Z</time>
      </trkpt>
      <trkpt lat="43.02238" lon="6.13364">
        <time>2014-05-08T06:36:01.000Z</time>
      </trkpt>
      <trkpt lat="43.02233" lon="6.1337">
        <time>2014-05-08T06:36:06.000Z</time>
      </trkpt>
      <trkpt lat="43.02227" lon="6.13379">
        <time>2014-05-08T06:36:11.000Z</time>
      </trkpt>
      <trkpt lat="43.02221" lon="6.1339">
        <time>2014-05-08T06:36:16.000Z</time>
      </trkpt>
      <trkpt lat="43.02216" lon="6.13399">
        <time>2014-05-08T06:36:21.000Z</time>
      </trkpt>
      <trkpt lat="43.0221" lon="6.13406">
        <time>2014-05-08T06:36:26.000Z</time>
      </trkpt>
      <trkpt lat="43.02204" lon="6.13412">
        <time>2014-05-08T06:36:31.000Z</time>
      </trkpt>
      <trkpt lat="43.02193" lon="6.13418">
        <time>2014-05-08T06:36:36.000Z</time>
      </trkpt>
      <trkpt lat="43.02183" lon="6.13421">
        <time>2014-05-08T06:36:41.000Z</time>
      </trkpt>
      <trkpt lat="43.02174" lon="6.13422">
        <time>2014-05-08T06:36:46.000Z</time>
      </trkpt>
      <trkpt lat="43.02164" lon="6.1342">
        <time>2014-05-08T06:36:51.000Z</time>
      </trkpt>
      <trkpt lat="43.02155" lon="6.1342">
        <time>2014-05-08T06:36:56.000Z</time>
      </trkpt>
      <trkpt lat="43.02145" lon="6.13422">
        <time>2014-05-08T06:37:01.000Z</time>
      </trkpt>
      <trkpt lat="43.02136" lon="6.13426">
        <time>2014-05-08T06:37:06.000Z</time>
      </trkpt>
      <trkpt lat="43.02127" lon="6.13431">
        <time>2014-05-08T06:37:11.000Z</time>
      </trkpt>
      <trkpt lat="43.02119" lon="6.13438">
        <time>2014-05-08T06:37:16.000Z</time>
      </trkpt>
      <trkpt lat="43.02113" lon="6.13445">
        <time>2014-05-08T06:37:21.000Z</time>
      </trkpt>
      <trkpt lat="43.02106" lon="6.13453">
        <time>2014-05-08T06:37:26.000Z</time>
      </trkpt>
      <trkpt lat="43.021" lon="6.13462">
        <time>2014-05-08T06:37:31.000Z</time>
      </trkpt>
      <trkpt lat="43.02095" lon="6.13473">
        <time>2014-05-08T06:37:36.000Z</time>
      </trkpt>
      <trkpt lat="43.02091" lon="6.13483">
        <time>2014-05-08T06:37:41.000Z</time>
      </trkpt>
      <trkpt lat="43.02087" lon="6.13492">
        <time>2014-05-08T06:37:46.000Z</time>
      </trkpt>
      <trkpt lat="43.02081" lon="6.135">
        <time>2014-05-08T06:37:51.000Z</time>
      </trkpt>
      <trkpt lat="43.02074" lon="6.13507">
        <time>2014-05-08T06:37:56.000Z</time>
      </trkpt>
      <trkpt lat="43.02065" lon="6.13513">
        <time>2014-05-08T06:38:01.000Z</time>
      </trkpt>
      <trkpt lat="43.02056" lon="6.13516">
        <time>2014-05-08T06:38:06.000Z</time>
      </trkpt>
      <trkpt lat="43.02047" lon="6.13519">
        <time>2014-05-08T06:38:11.000Z</time>
      </trkpt>
      <trkpt lat="43.02038" lon="6.1352">
        <time>2014-05-08T06:38:16.000Z</time>
      </trkpt>
      <trkpt lat="43.02029" lon="6.13523">
        <time>2014-05-08T06:38:21.000Z</time>
      </trkpt>
      <trkpt lat="43.0202" lon="6.13528">
        <time>2014-05-08T06:38:26.000Z</time>
      </trkpt>
      <trkpt lat="43.02013" lon="6.13533">
        <time>2014-05-08T06:38:31.000Z</time>
      </trkpt>
      <trkpt lat="43.02005" lon="6.13539">
        <time>2014-05-08T06:38:36.000Z</time>
      </trkpt>
      <trkpt lat="43.02" lon="6.13545">
        <time>2014-05-08T06:38:41.000Z</time>
      </trkpt>
      <trkpt lat="43.01993" lon="6.13553">
        <time>2014-05-08T06:38:46.000Z</time>
      </trkpt>
      <trkpt lat="43.01985" lon="6.13564">
        <time>2014-05-08T06:38:51.000Z</time>
      </trkpt>
      <trkpt lat="43.0198" lon="6.13574">
        <time>2014-05-08T06:38:56.000Z</time>
      </trkpt>
      <trkpt lat="43.01976" lon="6.13584">
        <time>2014-05-08T06:39:01.000Z</time>
      </trkpt>
      <trkpt lat="43.01972" lon="6.13595">
        <time>2014-05-08T06:39:06.000Z</time>
      </trkpt>
      <trkpt lat="43.0197" lon="6.13605">
        <time>2014-05-08T06:39:11.000Z</time>
      </trkpt>
      <trkpt lat="43.01966" lon="6.13614">
        <time>2014-05-08T06:39:16.000Z</time>
      </trkpt>
      <trkpt lat="43.0196" lon="6.13623">
        <time>2014-05-08T06:39:21.000Z</time>
      </trkpt>
      <trkpt lat="43.01952" lon="6.13629">
        <time>2014-05-08T06:39:26.000Z</time>
      </trkpt>
      <trkpt lat="43.01944" lon="6.13634">
        <time>2014-05-08T06:39:31.000Z</time>
      </trkpt>
      <trkpt lat="43.01935" lon="6.13637">
        <time>2014-05-08T06:39:36.000Z</time>
      </trkpt>
      <trkpt lat="43.01927" lon="6.13639">
        <time>2014-05-08T06:39:41.000Z</time>
      </trkpt>
      <trkpt lat="43.01917" lon="6.13642">
        <time>2014-05-08T06:39:46.000Z</time>
      </trkpt>
      <trkpt lat="43.01907" lon="6.13644">
        <time>2014-05-08T06:39:51.000Z</time>
      </trkpt>
      <trkpt lat="43.01899" lon="6.13647">
        <time>2014-05-08T06:39:56.000Z</time>
      </trkpt>
      <trkpt lat="43.0189" lon="6.13653">
        <time>2014-05-08T06:40:01.000Z</time>
      </trkpt>
      <trkpt lat="43.01882" lon="6.1366">
        <time>2014-05-08T06:40:06.000Z</time>
      </trkpt>
      <trkpt lat="43.01873" lon="6.13669">
        <time>2014-05-08T06:40:11.000Z</time>
      </trkpt>
      <trkpt lat="43.01866" lon="6.13678">
        <time>2014-05-08T06:40:16.000Z</time>
      </trkpt>
      <trkpt lat="43.01859" lon="6.13688">
        <time>2014-05-08T06:40:21.000Z</time>
      </trkpt>
      <trkpt lat="43.01853" lon="6.13698">
        <time>2014-05-08T06:40:26.000Z</time>
      </trkpt>
      <trkpt lat="43.01847" lon="6.13707">
        <time>2014-05-08T06:40:31.000Z</time>
      </trkpt>
      <trkpt lat="43.01842" lon="6.13717">
        <time>2014-05-08T06:40:36.000Z</time>
      </trkpt>
      <trkpt lat="43.01839" lon="6.13727">
        <time>2014-05-08T06:40:41.000Z</time>
      </trkpt>
      <trkpt lat="43.01835" lon="6.13737">
        <time>2014-05-08T06:40:46.000Z</time>
      </trkpt>
      <trkpt lat="43.01832" lon="6.13746">
        <time>2014-05-08T06:40:51.000Z</time>
      </trkpt>
      <trkpt lat="43.01827" lon="6.13755">
        <time>2014-05-08T06:40:56.000Z</time>
      </trkpt>
      <trkpt lat="43.0182" lon="6.13763">
        <time>2014-05-08T06:41:01.000Z</time>
      </trkpt>
      <trkpt lat="43.01811" lon="6.13769">
        <time>2014-05-08T06:41:06.000Z</time>
      </trkpt>
      <trkpt lat="43.01803" lon="6.13773">
        <time>2014-05-08T06:41:11.000Z</time>
      </trkpt>
      <trkpt lat="43.01796" lon="6.13775">
        <time>2014-05-08T06:41:16.000Z</time>
      </trkpt>
      <trkpt lat="43.01788" lon="6.13776">
        <time>2014-05-08T06:41:21.000Z</time>
      </trkpt>
      <trkpt lat="43.01778" lon="6.13774">
        <time>2014-05-08T06:41:26.000Z</time>
      </trkpt>
      <trkpt lat="43.01768" lon="6.13775">
        <time>2014-05-08T06:41:31.000Z</time>
      </trkpt>
      <trkpt lat="43.01759" lon="6.13777">
        <time>2014-05-08T06:41:36.000Z</time>
      </trkpt>
      <trkpt lat="43.0175" lon="6.13782">
        <time>2014-05-08T06:41:41.000Z</time>
      </trkpt>
      <trkpt lat="43.01742" lon="6.13787">
        <time>2014-05-08T06:41:46.000Z</time>
      </trkpt>
      <trkpt lat="43.01732" lon="6.13795">
        <time>2014-05-08T06:41:51.000Z</time>
      </trkpt>
      <trkpt lat="43.01724" lon="6.13802">
        <time>2014-05-08T06:41:56.000Z</time>
      </trkpt>
      <trkpt lat="43.01717" lon="6.1381">
        <time>2014-05-08T06:42:01.000Z</time>
      </trkpt>
      <trkpt lat="43.01709" lon="6.13819">
        <time>2014-05-08T06:42:06.000Z</time>
      </trkpt>
      <trkpt lat="43.01702" lon="6.13829">
        <time>2014-05-08T06:42:11.000Z</time>
      </trkpt>
      <trkpt lat="43.01697" lon="6.13839">
        <time>2014-05-08T06:42:16.000Z</time>
      </trkpt>
      <trkpt lat="43.01691" lon="6.13847">
        <time>2014-05-08T06:42:21.000Z</time>
      </trkpt>
      <trkpt lat="43.01682" lon="6.13856">
        <time>2014-05-08T06:42:26.000Z</time>
      </trkpt>
      <trkpt lat="43.01676" lon="6.1386">
        <time>2014-05-08T06:42:31.000Z</time>
      </trkpt>
      <trkpt lat="43.01667" lon="6.13863">
        <time>2014-05-08T06:42:36.000Z</time>
      </trkpt>
      <trkpt lat="43.01658" lon="6.13864">
        <time>2014-05-08T06:42:41.000Z</time>
      </trkpt>
      <trkpt lat="43.01647" lon="6.13865">
        <time>2014-05-08T06:42:46.000Z</time>
      </trkpt>
      <trkpt lat="43.01638" lon="6.13867">
        <ele>-0.01</ele>
        <time>2014-05-08T06:42:51.000Z</time>
      </trkpt>
      <trkpt lat="43.01628" lon="6.13873">
        <ele>-0.02</ele>
        <time>2014-05-08T06:42:56.000Z</time>
      </trkpt>
      <trkpt lat="43.0162" lon="6.1388">
        <ele>-0.02</ele>
        <time>2014-05-08T06:43:01.000Z</time>
      </trkpt>
      <trkpt lat="43.01613" lon="6.13888">
        <ele>-0.03</ele>
        <time>2014-05-08T06:43:06.000Z</time>
      </trkpt>
      <trkpt lat="43.01607" lon="6.13895">
        <ele>-0.04</ele>
        <time>2014-05-08T06:43:11.000Z</time>
      </trkpt>
      <trkpt lat="43.01602" lon="6.13902">
        <ele>-0.05</ele>
        <time>2014-05-08T06:43:16.000Z</time>
      </trkpt>
      <trkpt lat="43.01597" lon="6.1391">
        <ele>-0.05</ele>
        <time>2014-05-08T06:43:21.000Z</time>
      </trkpt>
      <trkpt lat="43.01593" lon="6.1392">
        <ele>-0.06</ele>
        <time>2014-05-08T06:43:26.000Z</time>
      </trkpt>
      <trkpt lat="43.01591" lon="6.13931">
        <ele>-0.06</ele>
        <time>2014-05-08T06:43:31.000Z</time>
      </trkpt>
      <trkpt lat="43.01589" lon="6.13942">
        <ele>-0.06</ele>
        <time>2014-05-08T06:43:36.000Z</time>
      </trkpt>
      <trkpt lat="43.01588" lon="6.13951">
        <ele>-0.06</ele>
        <time>2014-05-08T06:43:41.000Z</time>
      </trkpt>
      <trkpt lat="43.01587" lon="6.13959">
        <ele>-0.07</ele>
        <time>2014-05-08T06:43:46.000Z</time>
      </trkpt>
      <trkpt lat="43.01583" lon="6.13968">
        <ele>-0.08</ele>
        <time>2014-05-08T06:43:51.000Z</time>
      </trkpt>
      <trkpt lat="43.01578" lon="6.13977">
        <ele>-0.09</ele>
        <time>2014-05-08T06:43:56.000Z</time>
      </trkpt>
      <trkpt lat="43.01571" lon="6.13988">
        <ele>-0.09</ele>
        <time>2014-05-08T06:44:01.000Z</time>
      </trkpt>
      <trkpt lat="43.01563" lon="6.13994">
        <ele>-0.1</ele>
        <time>2014-05-08T06:44:06.000Z</time>
      </trkpt>
      <trkpt lat="43.01556" lon="6.14">
        <ele>-0.1</ele>
        <time>2014-05-08T06:44:11.000Z</time>
      </trkpt>
      <trkpt lat="43.01549" lon="6.14007">
        <ele>-0.1</ele>
        <time>2014-05-08T06:44:16.000Z</time>
      </trkpt>
      <trkpt lat="43.01544" lon="6.14012">
        <ele>-0.1</ele>
        <time>2014-05-08T06:44:21.000Z</time>
      </trkpt>
      <trkpt lat="43.01536" lon="6.14022">
        <ele>-0.1</ele>
        <time>2014-05-08T06:44:26.000Z</time>
      </trkpt>
      <trkpt lat="43.0153" lon="6.14031">
        <ele>-0.1</ele>
        <time>2014-05-08T06:44:31.000Z</time>
      </trkpt>
      <trkpt lat="43.01525" lon="6.14041">
        <ele>-0.1</ele>
        <time>2014-05-08T06:44:36.000Z</time>
      </trkpt>
      <trkpt lat="43.01519" lon="6.14052">
        <ele>-0.1</ele>
        <time>2014-05-08T06:44:41.000Z</time>
      </trkpt>
      <trkpt lat="43.01515" lon="6.14062">
        <ele>-0.1</ele>
        <time>2014-05-08T06:44:46.000Z</time>
      </trkpt>
      <trkpt lat="43.01512" lon="6.14072">
        <ele>-0.09</ele>
        <time>2014-05-08T06:44:51.000Z</time>
      </trkpt>
      <trkpt lat="43.01507" lon="6.1408">
        <ele>-0.09</ele>
        <time>2014-05-08T06:44:56.000Z</time>
      </trkpt>
      <trkpt lat="43.01501" lon="6.14087">
        <ele>-0.09</ele>
        <time>2014-05-08T06:45:01.000Z</time>
      </trkpt>
      <trkpt lat="43.01496" lon="6.14094">
        <ele>-0.1</ele>
        <time>2014-05-08T06:45:06.000Z</time>
      </trkpt>
      <trkpt lat="43.01489" lon="6.14104">
        <ele>-0.11</ele>
        <time>2014-05-08T06:45:11.000Z</time>
      </trkpt>
      <trkpt lat="43.01483" lon="6.14114">
        <ele>-0.11</ele>
        <time>2014-05-08T06:45:16.000Z</time>
      </trkpt>
      <trkpt lat="43.01477" lon="6.14127">
        <ele>-0.12</ele>
        <time>2014-05-08T06:45:21.000Z</time>
      </trkpt>
      <trkpt lat="43.01473" lon="6.14139">
        <ele>-0.12</ele>
        <time>2014-05-08T06:45:26.000Z</time>
      </trkpt>
      <trkpt lat="43.01469" lon="6.14149">
        <ele>-0.12</ele>
        <time>2014-05-08T06:45:31.000Z</time>
      </trkpt>
      <trkpt lat="43.01466" lon="6.1416">
        <ele>-0.12</ele>
        <time>2014-05-08T06:45:36.000Z</time>
      </trkpt>
      <trkpt lat="43.01464" lon="6.1417">
        <ele>-0.13</ele>
        <time>2014-05-08T06:45:41.000Z</time>
      </trkpt>
      <trkpt lat="43.01463" lon="6.14179">
        <ele>-0.13</ele>
        <time>2014-05-08T06:45:46.000Z</time>
      </trkpt>
      <trkpt lat="43.01461" lon="6.14186">
        <ele>-0.13</ele>
        <time>2014-05-08T06:45:51.000Z</time>
      </trkpt>
      <trkpt lat="43.01458" lon="6.14195">
        <ele>-0.13</ele>
        <time>2014-05-08T06:45:56.000Z</time>
      </trkpt>
      <trkpt lat="43.01455" lon="6.14204">
        <ele>-0.14</ele>
        <time>2014-05-08T06:46:01.000Z</time>
      </trkpt>
      <trkpt lat="43.01453" lon="6.14213">
        <ele>-0.14</ele>
        <time>2014-05-08T06:46:06.000Z</time>
      </trkpt>
      <trkpt lat="43.01449" lon="6.1422">
        <ele>-0.15</ele>
        <time>2014-05-08T06:46:11.000Z</time>
      </trkpt>
      <trkpt lat="43.01444" lon="6.14227">
        <ele>-0.15</ele>
        <time>2014-05-08T06:46:16.000Z</time>
      </trkpt>
      <trkpt lat="43.01438" lon="6.14235">
        <ele>-0.16</ele>
        <time>2014-05-08T06:46:21.000Z</time>
      </trkpt>
      <trkpt lat="43.01433" lon="6.1424">
        <ele>-0.16</ele>
        <time>2014-05-08T06:46:26.000Z</time>
      </trkpt>
      <trkpt lat="43.0143" lon="6.14247">
        <ele>-0.17</ele>
        <time>2014-05-08T06:46:31.000Z</time>
      </trkpt>
      <trkpt lat="43.01425" lon="6.14256">
        <ele>-0.19</ele>
        <time>2014-05-08T06:46:36.000Z</time>
      </trkpt>
      <trkpt lat="43.01416" lon="6.14264">
        <ele>-0.2</ele>
        <time>2014-05-08T06:46:41.000Z</time>
      </trkpt>
      <trkpt lat="43.01409" lon="6.1427">
        <ele>-0.22</ele>
        <time>2014-05-08T06:46:46.000Z</time>
      </trkpt>
      <trkpt lat="43.01402" lon="6.14279">
        <ele>-0.24</ele>
        <time>2014-05-08T06:46:51.000Z</time>
      </trkpt>
      <trkpt lat="43.01397" lon="6.14288">
        <ele>-0.25</ele>
        <time>2014-05-08T06:46:56.000Z</time>
      </trkpt>
      <trkpt lat="43.01393" lon="6.14297">
        <ele>-0.26</ele>
        <time>2014-05-08T06:47:01.000Z</time>
      </trkpt>
      <trkpt lat="43.01387" lon="6.14304">
        <ele>-0.28</ele>
        <time>2014-05-08T06:47:06.000Z</time>
      </trkpt>
      <trkpt lat="43.0138" lon="6.14311">
        <ele>-0.29</ele>
        <time>2014-05-08T06:47:11.000Z</time>
      </trkpt>
      <trkpt lat="43.01373" lon="6.1432">
        <ele>-0.31</ele>
        <time>2014-05-08T06:47:16.000Z</time>
      </trkpt>
      <trkpt lat="43.01368" lon="6.1433">
        <ele>-0.31</ele>
        <time>2014-05-08T06:47:21.000Z</time>
      </trkpt>
      <trkpt lat="43.01365" lon="6.1434">
        <ele>-0.32</ele>
        <time>2014-05-08T06:47:26.000Z</time>
      </trkpt>
      <trkpt lat="43.01363" lon="6.1435">
        <ele>-0.32</ele>
        <time>2014-05-08T06:47:31.000Z</time>
      </trkpt>
      <trkpt lat="43.01359" lon="6.14356">
        <ele>-0.35</ele>
        <time>2014-05-08T06:47:36.000Z</time>
      </trkpt>
      <trkpt lat="43.01354" lon="6.1436">
        <ele>-0.37</ele>
        <time>2014-05-08T06:47:41.000Z</time>
      </trkpt>
      <trkpt lat="43.01346" lon="6.14366">
        <ele>-0.4</ele>
        <time>2014-05-08T06:47:46.000Z</time>
      </trkpt>
      <trkpt lat="43.01337" lon="6.14371">
        <ele>-0.43</ele>
        <time>2014-05-08T06:47:51.000Z</time>
      </trkpt>
      <trkpt lat="43.01328" lon="6.14379">
        <ele>-0.46</ele>
        <time>2014-05-08T06:47:56.000Z</time>
      </trkpt>
      <trkpt lat="43.0132" lon="6.14388">
        <ele>-0.49</ele>
        <time>2014-05-08T06:48:01.000Z</time>
      </trkpt>
      <trkpt lat="43.01313" lon="6.14399">
        <ele>-0.5</ele>
        <time>2014-05-08T06:48:06.000Z</time>
      </trkpt>
      <trkpt lat="43.01308" lon="6.1441">
        <ele>-0.51</ele>
        <time>2014-05-08T06:48:11.000Z</time>
      </trkpt>
      <trkpt lat="43.01304" lon="6.14421">
        <ele>-0.51</ele>
        <time>2014-05-08T06:48:16.000Z</time>
      </trkpt>
      <trkpt lat="43.013" lon="6.14432">
        <ele>-0.52</ele>
        <time>2014-05-08T06:48:21.000Z</time>
      </trkpt>
      <trkpt lat="43.01295" lon="6.14442">
        <ele>-0.53</ele>
        <time>2014-05-08T06:48:26.000Z</time>
      </trkpt>
      <trkpt lat="43.01289" lon="6.1445">
        <ele>-0.54</ele>
        <time>2014-05-08T06:48:31.000Z</time>
      </trkpt>
      <trkpt lat="43.01283" lon="6.1446">
        <ele>-0.55</ele>
        <time>2014-05-08T06:48:36.000Z</time>
      </trkpt>
      <trkpt lat="43.01279" lon="6.14469">
        <ele>-0.55</ele>
        <time>2014-05-08T06:48:41.000Z</time>
      </trkpt>
      <trkpt lat="43.01275" lon="6.1448">
        <ele>-0.56</ele>
        <time>2014-05-08T06:48:46.000Z</time>
      </trkpt>
      <trkpt lat="43.01272" lon="6.14491">
        <ele>-0.58</ele>
        <time>2014-05-08T06:48:51.000Z</time>
      </trkpt>
      <trkpt lat="43.01267" lon="6.14501">
        <ele>-0.6</ele>
        <time>2014-05-08T06:48:56.000Z</time>
      </trkpt>
      <trkpt lat="43.01263" lon="6.14508">
        <ele>-0.62</ele>
        <time>2014-05-08T06:49:01.000Z</time>
      </trkpt>
      <trkpt lat="43.01258" lon="6.14519">
        <ele>-0.64</ele>
        <time>2014-05-08T06:49:06.000Z</time>
      </trkpt>
      <trkpt lat="43.01253" lon="6.14533">
        <ele>-0.65</ele>
        <time>2014-05-08T06:49:11.000Z</time>
      </trkpt>
      <trkpt lat="43.01248" lon="6.14541">
        <ele>-0.67</ele>
        <time>2014-05-08T06:49:16.000Z</time>
      </trkpt>
      <trkpt lat="43.01243" lon="6.14549">
        <ele>-0.68</ele>
        <time>2014-05-08T06:49:21.000Z</time>
      </trkpt>
      <trkpt lat="43.01238" lon="6.14555">
        <ele>-0.69</ele>
        <time>2014-05-08T06:49:26.000Z</time>
      </trkpt>
      <trkpt lat="43.01232" lon="6.14567">
        <ele>-0.7</ele>
        <time>2014-05-08T06:49:31.000Z</time>
      </trkpt>
      <trkpt lat="43.01227" lon="6.14577">
        <ele>-0.69</ele>
        <time>2014-05-08T06:49:36.000Z</time>
      </trkpt>
      <trkpt lat="43.01225" lon="6.14587">
        <ele>-0.69</ele>
        <time>2014-05-08T06:49:41.000Z</time>
      </trkpt>
      <trkpt lat="43.01222" lon="6.14596">
        <ele>-0.68</ele>
        <time>2014-05-08T06:49:46.000Z</time>
      </trkpt>
      <trkpt lat="43.01221" lon="6.14608">
        <ele>-0.69</ele>
        <time>2014-05-08T06:49:51.000Z</time>
      </trkpt>
      <trkpt lat="43.01218" lon="6.14618">
        <ele>-0.71</ele>
        <time>2014-05-08T06:49:56.000Z</time>
      </trkpt>
      <trkpt lat="43.01213" lon="6.1463">
        <ele>-0.72</ele>
        <time>2014-05-08T06:50:01.000Z</time>
      </trkpt>
      <trkpt lat="43.01206" lon="6.1464">
        <ele>-0.74</ele>
        <time>2014-05-08T06:50:06.000Z</time>
      </trkpt>
      <trkpt lat="43.01199" lon="6.14649">
        <ele>-0.76</ele>
        <time>2014-05-08T06:50:11.000Z</time>
      </trkpt>
      <trkpt lat="43.01195" lon="6.14656">
        <ele>-0.78</ele>
        <time>2014-05-08T06:50:16.000Z</time>
      </trkpt>
      <trkpt lat="43.0119" lon="6.14668">
        <ele>-0.79</ele>
        <time>2014-05-08T06:50:21.000Z</time>
      </trkpt>
      <trkpt lat="43.01185" lon="6.14679">
        <ele>-0.8</ele>
        <time>2014-05-08T06:50:26.000Z</time>
      </trkpt>
      <trkpt lat="43.01182" lon="6.14692">
        <ele>-0.81</ele>
        <time>2014-05-08T06:50:31.000Z</time>
      </trkpt>
      <trkpt lat="43.01177" lon="6.14701">
        <ele>-0.83</ele>
        <time>2014-05-08T06:50:36.000Z</time>
      </trkpt>
      <trkpt lat="43.01171" lon="6.14711">
        <ele>-0.85</ele>
        <time>2014-05-08T06:50:41.000Z</time>
      </trkpt>
      <trkpt lat="43.01164" lon="6.14718">
        <ele>-0.87</ele>
        <time>2014-05-08T06:50:46.000Z</time>
      </trkpt>
      <trkpt lat="43.01156" lon="6.14725">
        <ele>-0.88</ele>
        <time>2014-05-08T06:50:51.000Z</time>
      </trkpt>
      <trkpt lat="43.01149" lon="6.14734">
        <ele>-0.9</ele>
        <time>2014-05-08T06:50:56.000Z</time>
      </trkpt>
      <trkpt lat="43.01143" lon="6.14744">
        <ele>-0.91</ele>
        <time>2014-05-08T06:51:01.000Z</time>
      </trkpt>
      <trkpt lat="43.01138" lon="6.14754">
        <ele>-0.91</ele>
        <time>2014-05-08T06:51:06.000Z</time>
      </trkpt>
      <trkpt lat="43.01133" lon="6.14765">
        <ele>-0.92</ele>
        <time>2014-05-08T06:51:11.000Z</time>
      </trkpt>
      <trkpt lat="43.01129" lon="6.14773">
        <ele>-0.92</ele>
        <time>2014-05-08T06:51:16.000Z</time>
      </trkpt>
      <trkpt lat="43.01125" lon="6.14785">
        <ele>-0.92</ele>
        <time>2014-05-08T06:51:21.000Z</time>
      </trkpt>
      <trkpt lat="43.01123" lon="6.14796">
        <ele>-0.92</ele>
        <time>2014-05-08T06:51:26.000Z</time>
      </trkpt>
      <trkpt lat="43.0112" lon="6.14806">
        <ele>-0.92</ele>
        <time>2014-05-08T06:51:31.000Z</time>
      </trkpt>
      <trkpt lat="43.01116" lon="6.14816">
        <ele>-0.92</ele>
        <time>2014-05-08T06:51:36.000Z</time>
      </trkpt>
      <trkpt lat="43.01111" lon="6.14828">
        <ele>-0.92</ele>
        <time>2014-05-08T06:51:41.000Z</time>
      </trkpt>
      <trkpt lat="43.01109" lon="6.1484">
        <ele>-0.91</ele>
        <time>2014-05-08T06:51:46.000Z</time>
      </trkpt>
      <trkpt lat="43.01103" lon="6.14853">
        <ele>-0.92</ele>
        <time>2014-05-08T06:51:51.000Z</time>
      </trkpt>
      <trkpt lat="43.01097" lon="6.14861">
        <ele>-0.93</ele>
        <time>2014-05-08T06:51:56.000Z</time>
      </trkpt>
      <trkpt lat="43.01092" lon="6.14869">
        <ele>-0.94</ele>
        <time>2014-05-08T06:52:01.000Z</time>
      </trkpt>
      <trkpt lat="43.01086" lon="6.1488">
        <ele>-0.95</ele>
        <time>2014-05-08T06:52:06.000Z</time>
      </trkpt>
      <trkpt lat="43.01082" lon="6.1489">
        <ele>-0.95</ele>
        <time>2014-05-08T06:52:11.000Z</time>
      </trkpt>
      <trkpt lat="43.01078" lon="6.14899">
        <ele>-0.95</ele>
        <time>2014-05-08T06:52:16.000Z</time>
      </trkpt>
      <trkpt lat="43.01075" lon="6.14909">
        <ele>-0.95</ele>
        <time>2014-05-08T06:52:21.000Z</time>
      </trkpt>
      <trkpt lat="43.01072" lon="6.1492">
        <ele>-0.95</ele>
        <time>2014-05-08T06:52:26.000Z</time>
      </trkpt>
      <trkpt lat="43.01068" lon="6.14929">
        <ele>-0.96</ele>
        <time>2014-05-08T06:52:31.000Z</time>
      </trkpt>
      <trkpt lat="43.01061" lon="6.14938">
        <ele>-0.97</ele>
        <time>2014-05-08T06:52:36.000Z</time>
      </trkpt>
      <trkpt lat="43.01054" lon="6.14944">
        <ele>-0.98</ele>
        <time>2014-05-08T06:52:41.000Z</time>
      </trkpt>
      <trkpt lat="43.01048" lon="6.14952">
        <ele>-1</ele>
        <time>2014-05-08T06:52:46.000Z</time>
      </trkpt>
      <trkpt lat="43.01043" lon="6.1496">
        <ele>-0.98</ele>
        <time>2014-05-08T06:52:51.000Z</time>
      </trkpt>
      <trkpt lat="43.01038" lon="6.14972">
        <ele>-0.97</ele>
        <time>2014-05-08T06:52:56.000Z</time>
      </trkpt>
      <trkpt lat="43.01034" lon="6.14982">
        <ele>-0.96</ele>
        <time>2014-05-08T06:53:01.000Z</time>
      </trkpt>
      <trkpt lat="43.01029" lon="6.14996">
        <ele>-0.93</ele>
        <time>2014-05-08T06:53:06.000Z</time>
      </trkpt>
      <trkpt lat="43.01027" lon="6.15008">
        <ele>-0.91</ele>
        <time>2014-05-08T06:53:11.000Z</time>
      </trkpt>
      <trkpt lat="43.01024" lon="6.1502">
        <ele>-0.89</ele>
        <time>2014-05-08T06:53:16.000Z</time>
      </trkpt>
      <trkpt lat="43.01022" lon="6.15032">
        <ele>-0.87</ele>
        <time>2014-05-08T06:53:21.000Z</time>
      </trkpt>
      <trkpt lat="43.01021" lon="6.15043">
        <ele>-0.86</ele>
        <time>2014-05-08T06:53:26.000Z</time>
      </trkpt>
      <trkpt lat="43.01015" lon="6.15053">
        <ele>-0.85</ele>
        <time>2014-05-08T06:53:31.000Z</time>
      </trkpt>
      <trkpt lat="43.01009" lon="6.15062">
        <ele>-0.84</ele>
        <time>2014-05-08T06:53:36.000Z</time>
      </trkpt>
      <trkpt lat="43.01002" lon="6.15069">
        <ele>-0.84</ele>
        <time>2014-05-08T06:53:41.000Z</time>
      </trkpt>
      <trkpt lat="43.00995" lon="6.15075">
        <ele>-0.83</ele>
        <time>2014-05-08T06:53:46.000Z</time>
      </trkpt>
      <trkpt lat="43.00995" lon="6.15075">
        <ele>-0.82</ele>
        <time>2014-05-08T06:53:51.000Z</time>
      </trkpt>
      <trkpt lat="43.00988" lon="6.15089">
        <ele>-0.81</ele>
        <time>2014-05-08T06:53:56.000Z</time>
      </trkpt>
      <trkpt lat="43.00992" lon="6.15087">
        <ele>-0.8</ele>
        <time>2014-05-08T06:54:01.000Z</time>
      </trkpt>
      <trkpt lat="43.00992" lon="6.15087">
        <ele>-0.83</ele>
        <time>2014-05-08T06:54:06.000Z</time>
      </trkpt>
      <trkpt lat="43.00991" lon="6.1509">
        <ele>-0.86</ele>
        <time>2014-05-08T06:54:11.000Z</time>
      </trkpt>
      <trkpt lat="43.00987" lon="6.15065">
        <ele>-0.88</ele>
        <time>2014-05-08T06:54:16.000Z</time>
      </trkpt>
      <trkpt lat="43.00988" lon="6.15061">
        <ele>-0.87</ele>
        <time>2014-05-08T06:54:21.000Z</time>
      </trkpt>
      <trkpt lat="43.00975" lon="6.15063">
        <ele>-0.86</ele>
        <time>2014-05-08T06:54:26.000Z</time>
      </trkpt>
      <trkpt lat="43.00969" lon="6.1507">
        <ele>-0.84</ele>
        <time>2014-05-08T06:54:31.000Z</time>
      </trkpt>
      <trkpt lat="43.00968" lon="6.15086">
        <ele>-0.81</ele>
        <time>2014-05-08T06:54:36.000Z</time>
      </trkpt>
      <trkpt lat="43.00967" lon="6.151">
        <ele>-0.78</ele>
        <time>2014-05-08T06:54:41.000Z</time>
      </trkpt>
      <trkpt lat="43.00967" lon="6.1511">
        <ele>-0.74</ele>
        <time>2014-05-08T06:54:46.000Z</time>
      </trkpt>
      <trkpt lat="43.00966" lon="6.15122">
        <ele>-0.72</ele>
        <time>2014-05-08T06:54:51.000Z</time>
      </trkpt>
      <trkpt lat="43.00966" lon="6.15133">
        <ele>-0.7</ele>
        <time>2014-05-08T06:54:56.000Z</time>
      </trkpt>
      <trkpt lat="43.00961" lon="6.15143">
        <ele>-0.67</ele>
        <time>2014-05-08T06:55:01.000Z</time>
      </trkpt>
      <trkpt lat="43.00957" lon="6.15151">
        <ele>-0.67</ele>
        <time>2014-05-08T06:55:06.000Z</time>
      </trkpt>
      <trkpt lat="43.00954" lon="6.15156">
        <ele>-0.67</ele>
        <time>2014-05-08T06:55:11.000Z</time>
      </trkpt>
      <trkpt lat="43.00954" lon="6.15156">
        <ele>-0.67</ele>
        <time>2014-05-08T06:55:16.000Z</time>
      </trkpt>
      <trkpt lat="43.00945" lon="6.15162">
        <ele>-0.66</ele>
        <time>2014-05-08T06:55:26.000Z</time>
      </trkpt>
      <trkpt lat="43.00944" lon="6.1516">
        <ele>-0.66</ele>
        <time>2014-05-08T06:55:31.000Z</time>
      </trkpt>
      <trkpt lat="43.00941" lon="6.15166">
        <ele>-0.66</ele>
        <time>2014-05-08T06:55:36.000Z</time>
      </trkpt>
      <trkpt lat="43.00936" lon="6.15165">
        <ele>-0.66</ele>
        <time>2014-05-08T06:55:41.000Z</time>
      </trkpt>
      <trkpt lat="43.0093" lon="6.15171">
        <ele>-0.66</ele>
        <time>2014-05-08T06:55:46.000Z</time>
      </trkpt>
      <trkpt lat="43.00924" lon="6.15179">
        <ele>-0.64</ele>
        <time>2014-05-08T06:55:51.000Z</time>
      </trkpt>
      <trkpt lat="43.00919" lon="6.1519">
        <ele>-0.62</ele>
        <time>2014-05-08T06:55:56.000Z</time>
      </trkpt>
      <trkpt lat="43.00915" lon="6.15199">
        <ele>-0.6</ele>
        <time>2014-05-08T06:56:01.000Z</time>
      </trkpt>
      <trkpt lat="43.00912" lon="6.15212">
        <ele>-0.57</ele>
        <time>2014-05-08T06:56:06.000Z</time>
      </trkpt>
      <trkpt lat="43.00911" lon="6.15225">
        <ele>-0.54</ele>
        <time>2014-05-08T06:56:11.000Z</time>
      </trkpt>
      <trkpt lat="43.0091" lon="6.15237">
        <ele>-0.51</ele>
        <time>2014-05-08T06:56:16.000Z</time>
      </trkpt>
      <trkpt lat="43.00909" lon="6.15249">
        <ele>-0.49</ele>
        <time>2014-05-08T06:56:21.000Z</time>
      </trkpt>
      <trkpt lat="43.00911" lon="6.15261">
        <ele>-0.47</ele>
        <time>2014-05-08T06:56:26.000Z</time>
      </trkpt>
      <trkpt lat="43.00908" lon="6.15271">
        <ele>-0.44</ele>
        <time>2014-05-08T06:56:31.000Z</time>
      </trkpt>
      <trkpt lat="43.00904" lon="6.15281">
        <ele>-0.44</ele>
        <time>2014-05-08T06:56:36.000Z</time>
      </trkpt>
      <trkpt lat="43.00897" lon="6.15291">
        <ele>-0.44</ele>
        <time>2014-05-08T06:56:41.000Z</time>
      </trkpt>
      <trkpt lat="43.00891" lon="6.15296">
        <ele>-0.44</ele>
        <time>2014-05-08T06:56:46.000Z</time>
      </trkpt>
      <trkpt lat="43.00884" lon="6.15301">
        <ele>-0.44</ele>
        <time>2014-05-08T06:56:51.000Z</time>
      </trkpt>
      <trkpt lat="43.00874" lon="6.15306">
        <ele>-0.44</ele>
        <time>2014-05-08T06:56:56.000Z</time>
      </trkpt>
      <trkpt lat="43.00865" lon="6.15317">
        <ele>-0.44</ele>
        <time>2014-05-08T06:57:01.000Z</time>
      </trkpt>
      <trkpt lat="43.00859" lon="6.15325">
        <ele>-0.43</ele>
        <time>2014-05-08T06:57:06.000Z</time>
      </trkpt>
      <trkpt lat="43.00854" lon="6.15336">
        <ele>-0.41</ele>
        <time>2014-05-08T06:57:11.000Z</time>
      </trkpt>
      <trkpt lat="43.00849" lon="6.15346">
        <ele>-0.39</ele>
        <time>2014-05-08T06:57:16.000Z</time>
      </trkpt>
      <trkpt lat="43.00846" lon="6.15357">
        <ele>-0.37</ele>
        <time>2014-05-08T06:57:21.000Z</time>
      </trkpt>
      <trkpt lat="43.00844" lon="6.15368">
        <ele>-0.35</ele>
        <time>2014-05-08T06:57:26.000Z</time>
      </trkpt>
      <trkpt lat="43.00844" lon="6.15379">
        <ele>-0.33</ele>
        <time>2014-05-08T06:57:31.000Z</time>
      </trkpt>
      <trkpt lat="43.00841" lon="6.15389">
        <ele>-0.31</ele>
        <time>2014-05-08T06:57:36.000Z</time>
      </trkpt>
      <trkpt lat="43.00838" lon="6.15401">
        <ele>-0.29</ele>
        <time>2014-05-08T06:57:41.000Z</time>
      </trkpt>
      <trkpt lat="43.00829" lon="6.15409">
        <ele>-0.26</ele>
        <time>2014-05-08T06:57:46.000Z</time>
      </trkpt>
      <trkpt lat="43.00823" lon="6.15418">
        <ele>-0.24</ele>
        <time>2014-05-08T06:57:51.000Z</time>
      </trkpt>
      <trkpt lat="43.00819" lon="6.1543">
        <ele>-0.22</ele>
        <time>2014-05-08T06:57:56.000Z</time>
      </trkpt>
      <trkpt lat="43.00817" lon="6.15439">
        <ele>-0.2</ele>
        <time>2014-05-08T06:58:01.000Z</time>
      </trkpt>
      <trkpt lat="43.00814" lon="6.1545">
        <ele>-0.19</ele>
        <time>2014-05-08T06:58:06.000Z</time>
      </trkpt>
      <trkpt lat="43.0081" lon="6.15461">
        <ele>-0.18</ele>
        <time>2014-05-08T06:58:11.000Z</time>
      </trkpt>
      <trkpt lat="43.00806" lon="6.15471">
        <ele>-0.17</ele>
        <time>2014-05-08T06:58:16.000Z</time>
      </trkpt>
      <trkpt lat="43.00799" lon="6.1548">
        <ele>-0.17</ele>
        <time>2014-05-08T06:58:21.000Z</time>
      </trkpt>
      <trkpt lat="43.00793" lon="6.15488">
        <ele>-0.17</ele>
        <time>2014-05-08T06:58:26.000Z</time>
      </trkpt>
      <trkpt lat="43.00785" lon="6.15493">
        <ele>-0.18</ele>
        <time>2014-05-08T06:58:31.000Z</time>
      </trkpt>
      <trkpt lat="43.00777" lon="6.15495">
        <ele>-0.18</ele>
        <time>2014-05-08T06:58:36.000Z</time>
      </trkpt>
      <trkpt lat="43.00767" lon="6.15498">
        <ele>-0.18</ele>
        <time>2014-05-08T06:58:41.000Z</time>
      </trkpt>
      <trkpt lat="43.00759" lon="6.15499">
        <ele>-0.19</ele>
        <time>2014-05-08T06:58:46.000Z</time>
      </trkpt>
      <trkpt lat="43.0075" lon="6.15503">
        <ele>-0.18</ele>
        <time>2014-05-08T06:58:51.000Z</time>
      </trkpt>
      <trkpt lat="43.00744" lon="6.15511">
        <ele>-0.18</ele>
        <time>2014-05-08T06:58:56.000Z</time>
      </trkpt>
      <trkpt lat="43.00738" lon="6.15522">
        <ele>-0.17</ele>
        <time>2014-05-08T06:59:01.000Z</time>
      </trkpt>
      <trkpt lat="43.00732" lon="6.15537">
        <ele>-0.16</ele>
        <time>2014-05-08T06:59:06.000Z</time>
      </trkpt>
      <trkpt lat="43.00729" lon="6.15546">
        <ele>-0.15</ele>
        <time>2014-05-08T06:59:11.000Z</time>
      </trkpt>
      <trkpt lat="43.00726" lon="6.15553">
        <ele>-0.15</ele>
        <time>2014-05-08T06:59:16.000Z</time>
      </trkpt>
      <trkpt lat="43.00723" lon="6.15558">
        <ele>-0.14</ele>
        <time>2014-05-08T06:59:21.000Z</time>
      </trkpt>
      <trkpt lat="43.00715" lon="6.15565">
        <ele>-0.14</ele>
        <time>2014-05-08T06:59:26.000Z</time>
      </trkpt>
      <trkpt lat="43.00707" lon="6.15569">
        <ele>-0.13</ele>
        <time>2014-05-08T06:59:31.000Z</time>
      </trkpt>
      <trkpt lat="43.00696" lon="6.15571">
        <ele>-0.14</ele>
        <time>2014-05-08T06:59:36.000Z</time>
      </trkpt>
      <trkpt lat="43.00691" lon="6.15571">
        <ele>-0.14</ele>
        <time>2014-05-08T06:59:41.000Z</time>
      </trkpt>
      <trkpt lat="43.00682" lon="6.15551">
        <ele>-0.15</ele>
        <time>2014-05-08T06:59:46.000Z</time>
      </trkpt>
      <trkpt lat="43.00685" lon="6.1555">
        <ele>-0.15</ele>
        <time>2014-05-08T06:59:51.000Z</time>
      </trkpt>
      <trkpt lat="43.00686" lon="6.15559">
        <ele>-0.14</ele>
        <time>2014-05-08T06:59:56.000Z</time>
      </trkpt>
      <trkpt lat="43.00684" lon="6.15562">
        <ele>-0.14</ele>
        <time>2014-05-08T07:00:01.000Z</time>
      </trkpt>
      <trkpt lat="43.00682" lon="6.15563">
        <ele>-0.14</ele>
        <time>2014-05-08T07:00:06.000Z</time>
      </trkpt>
      <trkpt lat="43.00681" lon="6.15562">
        <ele>-0.14</ele>
        <time>2014-05-08T07:00:11.000Z</time>
      </trkpt>
      <trkpt lat="43.00671" lon="6.15564">
        <ele>-0.14</ele>
        <time>2014-05-08T07:00:16.000Z</time>
      </trkpt>
      <trkpt lat="43.00664" lon="6.15561">
        <ele>-0.14</ele>
        <time>2014-05-08T07:00:21.000Z</time>
      </trkpt>
      <trkpt lat="43.00657" lon="6.15561">
        <ele>-0.15</ele>
        <time>2014-05-08T07:00:26.000Z</time>
      </trkpt>
      <trkpt lat="43.0065" lon="6.15562">
        <ele>-0.15</ele>
        <time>2014-05-08T07:00:31.000Z</time>
      </trkpt>
      <trkpt lat="43.00644" lon="6.15563">
        <ele>-0.16</ele>
        <time>2014-05-08T07:00:36.000Z</time>
      </trkpt>
      <trkpt lat="43.00642" lon="6.15565">
        <ele>-0.16</ele>
        <time>2014-05-08T07:00:41.000Z</time>
      </trkpt>
      <trkpt lat="43.00631" lon="6.15567">
        <ele>-0.16</ele>
        <time>2014-05-08T07:00:46.000Z</time>
      </trkpt>
      <trkpt lat="43.00624" lon="6.1557">
        <ele>-0.16</ele>
        <time>2014-05-08T07:00:51.000Z</time>
      </trkpt>
      <trkpt lat="43.00617" lon="6.15575">
        <ele>-0.16</ele>
        <time>2014-05-08T07:00:56.000Z</time>
      </trkpt>
      <trkpt lat="43.00614" lon="6.15577">
        <ele>-0.16</ele>
        <time>2014-05-08T07:01:01.000Z</time>
      </trkpt>
      <trkpt lat="43.00608" lon="6.15582">
        <ele>-0.16</ele>
        <time>2014-05-08T07:01:06.000Z</time>
      </trkpt>
      <trkpt lat="43.006" lon="6.1559">
        <ele>-0.16</ele>
        <time>2014-05-08T07:01:11.000Z</time>
      </trkpt>
      <trkpt lat="43.00593" lon="6.15593">
        <ele>-0.16</ele>
        <time>2014-05-08T07:01:16.000Z</time>
      </trkpt>
      <trkpt lat="43.00587" lon="6.15595">
        <ele>-0.16</ele>
        <time>2014-05-08T07:01:21.000Z</time>
      </trkpt>
      <trkpt lat="43.00583" lon="6.15596">
        <ele>-0.16</ele>
        <time>2014-05-08T07:01:26.000Z</time>
      </trkpt>
      <trkpt lat="43.00579" lon="6.15588">
        <ele>-0.17</ele>
        <time>2014-05-08T07:01:36.000Z</time>
      </trkpt>
      <trkpt lat="43.00573" lon="6.15591">
        <ele>-0.16</ele>
        <time>2014-05-08T07:01:41.000Z</time>
      </trkpt>
      <trkpt lat="43.0057" lon="6.15594">
        <ele>-0.16</ele>
        <time>2014-05-08T07:01:46.000Z</time>
      </trkpt>
      <trkpt lat="43.00566" lon="6.15597">
        <ele>-0.16</ele>
        <time>2014-05-08T07:01:51.000Z</time>
      </trkpt>
      <trkpt lat="43.00559" lon="6.15596">
        <ele>-0.17</ele>
        <time>2014-05-08T07:01:56.000Z</time>
      </trkpt>
      <trkpt lat="43.00551" lon="6.15596">
        <ele>-0.17</ele>
        <time>2014-05-08T07:02:01.000Z</time>
      </trkpt>
      <trkpt lat="43.0054" lon="6.15591">
        <ele>-0.18</ele>
        <time>2014-05-08T07:02:06.000Z</time>
      </trkpt>
      <trkpt lat="43.00529" lon="6.15584">
        <ele>-0.18</ele>
        <time>2014-05-08T07:02:11.000Z</time>
      </trkpt>
      <trkpt lat="43.0052" lon="6.15576">
        <ele>-0.19</ele>
        <time>2014-05-08T07:02:16.000Z</time>
      </trkpt>
      <trkpt lat="43.00511" lon="6.15569">
        <ele>-0.19</ele>
        <time>2014-05-08T07:02:21.000Z</time>
      </trkpt>
      <trkpt lat="43.00503" lon="6.15566">
        <ele>-0.2</ele>
        <time>2014-05-08T07:02:26.000Z</time>
      </trkpt>
      <trkpt lat="43.0049" lon="6.15563">
        <ele>-0.2</ele>
        <time>2014-05-08T07:02:31.000Z</time>
      </trkpt>
      <trkpt lat="43.00479" lon="6.15563">
        <ele>-0.2</ele>
        <time>2014-05-08T07:02:36.000Z</time>
      </trkpt>
      <trkpt lat="43.00471" lon="6.15565">
        <ele>-0.2</ele>
        <time>2014-05-08T07:02:41.000Z</time>
      </trkpt>
      <trkpt lat="43.0046" lon="6.15567">
        <ele>-0.2</ele>
        <time>2014-05-08T07:02:46.000Z</time>
      </trkpt>
      <trkpt lat="43.00451" lon="6.15569">
        <ele>-0.19</ele>
        <time>2014-05-08T07:02:51.000Z</time>
      </trkpt>
      <trkpt lat="43.00443" lon="6.15574">
        <ele>-0.19</ele>
        <time>2014-05-08T07:02:56.000Z</time>
      </trkpt>
      <trkpt lat="43.00435" lon="6.15579">
        <ele>-0.18</ele>
        <time>2014-05-08T07:03:01.000Z</time>
      </trkpt>
      <trkpt lat="43.00427" lon="6.15587">
        <ele>-0.17</ele>
        <time>2014-05-08T07:03:06.000Z</time>
      </trkpt>
      <trkpt lat="43.00421" lon="6.15594">
        <ele>-0.17</ele>
        <time>2014-05-08T07:03:11.000Z</time>
      </trkpt>
      <trkpt lat="43.00414" lon="6.15602">
        <ele>-0.16</ele>
        <time>2014-05-08T07:03:16.000Z</time>
      </trkpt>
      <trkpt lat="43.00408" lon="6.15612">
        <ele>-0.15</ele>
        <time>2014-05-08T07:03:21.000Z</time>
      </trkpt>
      <trkpt lat="43.004" lon="6.15622">
        <ele>-0.15</ele>
        <time>2014-05-08T07:03:26.000Z</time>
      </trkpt>
      <trkpt lat="43.00391" lon="6.15628">
        <ele>-0.14</ele>
        <time>2014-05-08T07:03:31.000Z</time>
      </trkpt>
      <trkpt lat="43.00384" lon="6.1563">
        <ele>-0.14</ele>
        <time>2014-05-08T07:03:36.000Z</time>
      </trkpt>
      <trkpt lat="43.00373" lon="6.1563">
        <ele>-0.15</ele>
        <time>2014-05-08T07:03:41.000Z</time>
      </trkpt>
      <trkpt lat="43.00363" lon="6.15627">
        <ele>-0.15</ele>
        <time>2014-05-08T07:03:46.000Z</time>
      </trkpt>
      <trkpt lat="43.00353" lon="6.15624">
        <ele>-0.15</ele>
        <time>2014-05-08T07:03:51.000Z</time>
      </trkpt>
      <trkpt lat="43.00344" lon="6.15621">
        <ele>-0.15</ele>
        <time>2014-05-08T07:03:56.000Z</time>
      </trkpt>
      <trkpt lat="43.00332" lon="6.15618">
        <ele>-0.16</ele>
        <time>2014-05-08T07:04:01.000Z</time>
      </trkpt>
      <trkpt lat="43.00321" lon="6.15619">
        <ele>-0.15</ele>
        <time>2014-05-08T07:04:06.000Z</time>
      </trkpt>
      <trkpt lat="43.00311" lon="6.15622">
        <ele>-0.15</ele>
        <time>2014-05-08T07:04:11.000Z</time>
      </trkpt>
      <trkpt lat="43.00302" lon="6.15626">
        <ele>-0.15</ele>
        <time>2014-05-08T07:04:16.000Z</time>
      </trkpt>
      <trkpt lat="43.00292" lon="6.1563">
        <ele>-0.14</ele>
        <time>2014-05-08T07:04:21.000Z</time>
      </trkpt>
      <trkpt lat="43.00284" lon="6.15635">
        <ele>-0.14</ele>
        <time>2014-05-08T07:04:26.000Z</time>
      </trkpt>
      <trkpt lat="43.00278" lon="6.15639">
        <ele>-0.13</ele>
        <time>2014-05-08T07:04:31.000Z</time>
      </trkpt>
      <trkpt lat="43.00272" lon="6.15645">
        <ele>-0.12</ele>
        <time>2014-05-08T07:04:36.000Z</time>
      </trkpt>
      <trkpt lat="43.00265" lon="6.15656">
        <ele>-0.11</ele>
        <time>2014-05-08T07:04:41.000Z</time>
      </trkpt>
      <trkpt lat="43.00257" lon="6.15667">
        <ele>-0.1</ele>
        <time>2014-05-08T07:04:46.000Z</time>
      </trkpt>
      <trkpt lat="43.00252" lon="6.15676">
        <ele>-0.1</ele>
        <time>2014-05-08T07:04:51.000Z</time>
      </trkpt>
      <trkpt lat="43.00247" lon="6.15682">
        <ele>-0.09</ele>
        <time>2014-05-08T07:04:56.000Z</time>
      </trkpt>
      <trkpt lat="43.00241" lon="6.1569">
        <ele>-0.08</ele>
        <time>2014-05-08T07:05:01.000Z</time>
      </trkpt>
      <trkpt lat="43.00231" lon="6.15697">
        <ele>-0.08</ele>
        <time>2014-05-08T07:05:06.000Z</time>
      </trkpt>
      <trkpt lat="43.00221" lon="6.15701">
        <ele>-0.08</ele>
        <time>2014-05-08T07:05:11.000Z</time>
      </trkpt>
      <trkpt lat="43.00212" lon="6.15701">
        <ele>-0.08</ele>
        <time>2014-05-08T07:05:16.000Z</time>
      </trkpt>
      <trkpt lat="43.00201" lon="6.157">
        <ele>-0.08</ele>
        <time>2014-05-08T07:05:21.000Z</time>
      </trkpt>
      <trkpt lat="43.00192" lon="6.15696">
        <ele>-0.09</ele>
        <time>2014-05-08T07:05:26.000Z</time>
      </trkpt>
      <trkpt lat="43.00183" lon="6.15693">
        <ele>-0.09</ele>
        <time>2014-05-08T07:05:31.000Z</time>
      </trkpt>
      <trkpt lat="43.00174" lon="6.15695">
        <ele>-0.09</ele>
        <time>2014-05-08T07:05:36.000Z</time>
      </trkpt>
      <trkpt lat="43.00164" lon="6.15699">
        <ele>-0.08</ele>
        <time>2014-05-08T07:05:41.000Z</time>
      </trkpt>
      <trkpt lat="43.00157" lon="6.15701">
        <ele>-0.08</ele>
        <time>2014-05-08T07:05:46.000Z</time>
      </trkpt>
      <trkpt lat="43.00148" lon="6.15706">
        <ele>-0.07</ele>
        <time>2014-05-08T07:05:51.000Z</time>
      </trkpt>
      <trkpt lat="43.00139" lon="6.15713">
        <ele>-0.06</ele>
        <time>2014-05-08T07:05:56.000Z</time>
      </trkpt>
      <trkpt lat="43.0013" lon="6.15723">
        <ele>-0.05</ele>
        <time>2014-05-08T07:06:01.000Z</time>
      </trkpt>
      <trkpt lat="43.00123" lon="6.15731">
        <ele>-0.05</ele>
        <time>2014-05-08T07:06:06.000Z</time>
      </trkpt>
      <trkpt lat="43.00117" lon="6.15742">
        <ele>-0.04</ele>
        <time>2014-05-08T07:06:11.000Z</time>
      </trkpt>
      <trkpt lat="43.00111" lon="6.15749">
        <ele>-0.03</ele>
        <time>2014-05-08T07:06:16.000Z</time>
      </trkpt>
      <trkpt lat="43.00103" lon="6.15755">
        <ele>-0.03</ele>
        <time>2014-05-08T07:06:21.000Z</time>
      </trkpt>
      <trkpt lat="43.00093" lon="6.15758">
        <ele>-0.02</ele>
        <time>2014-05-08T07:06:26.000Z</time>
      </trkpt>
      <trkpt lat="43.00082" lon="6.15761">
        <ele>-0.02</ele>
        <time>2014-05-08T07:06:31.000Z</time>
      </trkpt>
      <trkpt lat="43.00072" lon="6.15764">
        <ele>-0.02</ele>
        <time>2014-05-08T07:06:36.000Z</time>
      </trkpt>
      <trkpt lat="43.00062" lon="6.15769">
        <ele>-0.01</ele>
        <time>2014-05-08T07:06:41.000Z</time>
      </trkpt>
      <trkpt lat="43.00055" lon="6.15772">
        <ele>-0.01</ele>
        <time>2014-05-08T07:06:46.000Z</time>
      </trkpt>
      <trkpt lat="43.00046" lon="6.15778">
        <time>2014-05-08T07:06:51.000Z</time>
      </trkpt>
      <trkpt lat="43.00039" lon="6.15787">
        <time>2014-05-08T07:06:56.000Z</time>
      </trkpt>
      <trkpt lat="43.00032" lon="6.15796">
        <time>2014-05-08T07:07:01.000Z</time>
      </trkpt>
      <trkpt lat="43.00027" lon="6.15804">
        <time>2014-05-08T07:07:06.000Z</time>
      </trkpt>
      <trkpt lat="43.00022" lon="6.15813">
        <time>2014-05-08T07:07:11.000Z</time>
      </trkpt>
      <trkpt lat="43.00017" lon="6.15824">
        <time>2014-05-08T07:07:16.000Z</time>
      </trkpt>
      <trkpt lat="43.00012" lon="6.15836">
        <time>2014-05-08T07:07:21.000Z</time>
      </trkpt>
      <trkpt lat="43.00005" lon="6.15846">
        <time>2014-05-08T07:07:26.000Z</time>
      </trkpt>
      <trkpt lat="42.99996" lon="6.15854">
        <time>2014-05-08T07:07:31.000Z</time>
      </trkpt>
      <trkpt lat="42.99987" lon="6.1586">
        <time>2014-05-08T07:07:36.000Z</time>
      </trkpt>
      <trkpt lat="42.99977" lon="6.15864">
        <time>2014-05-08T07:07:41.000Z</time>
      </trkpt>
      <trkpt lat="42.99969" lon="6.15869">
        <time>2014-05-08T07:07:46.000Z</time>
      </trkpt>
      <trkpt lat="42.99961" lon="6.15877">
        <time>2014-05-08T07:07:51.000Z</time>
      </trkpt>
      <trkpt lat="42.99953" lon="6.15886">
        <time>2014-05-08T07:07:56.000Z</time>
      </trkpt>
      <trkpt lat="42.99947" lon="6.15894">
        <time>2014-05-08T07:08:01.000Z</time>
      </trkpt>
      <trkpt lat="42.9994" lon="6.15906">
        <time>2014-05-08T07:08:06.000Z</time>
      </trkpt>
      <trkpt lat="42.99934" lon="6.15916">
        <time>2014-05-08T07:08:11.000Z</time>
      </trkpt>
      <trkpt lat="42.99929" lon="6.15927">
        <time>2014-05-08T07:08:16.000Z</time>
      </trkpt>
      <trkpt lat="42.99925" lon="6.15935">
        <time>2014-05-08T07:08:21.000Z</time>
      </trkpt>
      <trkpt lat="42.99919" lon="6.15943">
        <time>2014-05-08T07:08:26.000Z</time>
      </trkpt>
      <trkpt lat="42.99911" lon="6.1595">
        <time>2014-05-08T07:08:31.000Z</time>
      </trkpt>
      <trkpt lat="42.99899" lon="6.15956">
        <time>2014-05-08T07:08:36.000Z</time>
      </trkpt>
      <trkpt lat="42.99891" lon="6.15956">
        <time>2014-05-08T07:08:41.000Z</time>
      </trkpt>
      <trkpt lat="42.99881" lon="6.15955">
        <time>2014-05-08T07:08:46.000Z</time>
      </trkpt>
      <trkpt lat="42.99871" lon="6.15951">
        <time>2014-05-08T07:08:51.000Z</time>
      </trkpt>
      <trkpt lat="42.99862" lon="6.1595">
        <time>2014-05-08T07:08:56.000Z</time>
      </trkpt>
      <trkpt lat="42.99853" lon="6.15952">
        <time>2014-05-08T07:09:01.000Z</time>
      </trkpt>
      <trkpt lat="42.99845" lon="6.15954">
        <time>2014-05-08T07:09:06.000Z</time>
      </trkpt>
      <trkpt lat="42.99838" lon="6.1596">
        <time>2014-05-08T07:09:11.000Z</time>
      </trkpt>
      <trkpt lat="42.9983" lon="6.15969">
        <time>2014-05-08T07:09:16.000Z</time>
      </trkpt>
      <trkpt lat="42.99823" lon="6.1598">
        <time>2014-05-08T07:09:21.000Z</time>
      </trkpt>
      <trkpt lat="42.99818" lon="6.1599">
        <time>2014-05-08T07:09:26.000Z</time>
      </trkpt>
      <trkpt lat="42.99813" lon="6.16001">
        <time>2014-05-08T07:09:31.000Z</time>
      </trkpt>
      <trkpt lat="42.9981" lon="6.16013">
        <time>2014-05-08T07:09:36.000Z</time>
      </trkpt>
      <trkpt lat="42.99808" lon="6.16022">
        <time>2014-05-08T07:09:41.000Z</time>
      </trkpt>
      <trkpt lat="42.99808" lon="6.16034">
        <time>2014-05-08T07:09:46.000Z</time>
      </trkpt>
      <trkpt lat="42.99807" lon="6.16044">
        <ele>0.03</ele>
        <time>2014-05-08T07:09:51.000Z</time>
      </trkpt>
      <trkpt lat="42.99804" lon="6.16057">
        <ele>0.05</ele>
        <time>2014-05-08T07:09:56.000Z</time>
      </trkpt>
      <trkpt lat="42.998" lon="6.16068">
        <ele>0.08</ele>
        <time>2014-05-08T07:10:01.000Z</time>
      </trkpt>
      <trkpt lat="42.99794" lon="6.16078">
        <ele>0.06</ele>
        <time>2014-05-08T07:10:06.000Z</time>
      </trkpt>
      <trkpt lat="42.99788" lon="6.16086">
        <ele>0.03</ele>
        <time>2014-05-08T07:10:11.000Z</time>
      </trkpt>
      <trkpt lat="42.99781" lon="6.16097">
        <ele>0.01</ele>
        <time>2014-05-08T07:10:16.000Z</time>
      </trkpt>
      <trkpt lat="42.99775" lon="6.16109">
        <ele>0.09</ele>
        <time>2014-05-08T07:10:21.000Z</time>
      </trkpt>
      <trkpt lat="42.9977" lon="6.16121">
        <ele>0.17</ele>
        <time>2014-05-08T07:10:26.000Z</time>
      </trkpt>
      <trkpt lat="42.99768" lon="6.16134">
        <ele>0.25</ele>
        <time>2014-05-08T07:10:31.000Z</time>
      </trkpt>
      <trkpt lat="42.99766" lon="6.16146">
        <ele>0.35</ele>
        <time>2014-05-08T07:10:36.000Z</time>
      </trkpt>
      <trkpt lat="42.99764" lon="6.16158">
        <ele>0.45</ele>
        <time>2014-05-08T07:10:41.000Z</time>
      </trkpt>
      <trkpt lat="42.9976" lon="6.16169">
        <ele>0.55</ele>
        <time>2014-05-08T07:10:46.000Z</time>
      </trkpt>
      <trkpt lat="42.99756" lon="6.16179">
        <ele>0.67</ele>
        <time>2014-05-08T07:10:51.000Z</time>
      </trkpt>
      <trkpt lat="42.9975" lon="6.16187">
        <ele>0.79</ele>
        <time>2014-05-08T07:10:56.000Z</time>
      </trkpt>
      <trkpt lat="42.99745" lon="6.162">
        <ele>0.91</ele>
        <time>2014-05-08T07:11:01.000Z</time>
      </trkpt>
      <trkpt lat="42.99742" lon="6.16213">
        <ele>1.17</ele>
        <time>2014-05-08T07:11:06.000Z</time>
      </trkpt>
      <trkpt lat="42.9974" lon="6.16228">
        <ele>1.42</ele>
        <time>2014-05-08T07:11:11.000Z</time>
      </trkpt>
      <trkpt lat="42.99739" lon="6.1624">
        <ele>1.68</ele>
        <time>2014-05-08T07:11:16.000Z</time>
      </trkpt>
      <trkpt lat="42.99739" lon="6.16251">
        <ele>1.63</ele>
        <time>2014-05-08T07:11:21.000Z</time>
      </trkpt>
      <trkpt lat="42.9974" lon="6.16261">
        <ele>1.58</ele>
        <time>2014-05-08T07:11:26.000Z</time>
      </trkpt>
      <trkpt lat="42.99737" lon="6.16274">
        <ele>1.53</ele>
        <time>2014-05-08T07:11:31.000Z</time>
      </trkpt>
      <trkpt lat="42.99734" lon="6.16285">
        <ele>1.26</ele>
        <time>2014-05-08T07:11:36.000Z</time>
      </trkpt>
      <trkpt lat="42.99732" lon="6.16298">
        <ele>1</ele>
        <time>2014-05-08T07:11:41.000Z</time>
      </trkpt>
      <trkpt lat="42.99728" lon="6.16312">
        <ele>0.73</ele>
        <time>2014-05-08T07:11:46.000Z</time>
      </trkpt>
      <trkpt lat="42.99727" lon="6.16325">
        <ele>0.74</ele>
        <time>2014-05-08T07:11:51.000Z</time>
      </trkpt>
      <trkpt lat="42.99726" lon="6.16338">
        <ele>0.74</ele>
        <time>2014-05-08T07:11:56.000Z</time>
      </trkpt>
      <trkpt lat="42.99729" lon="6.16351">
        <ele>0.75</ele>
        <time>2014-05-08T07:12:01.000Z</time>
      </trkpt>
      <trkpt lat="42.99731" lon="6.16363">
        <ele>0.8</ele>
        <time>2014-05-08T07:12:06.000Z</time>
      </trkpt>
      <trkpt lat="42.99733" lon="6.16372">
        <ele>0.85</ele>
        <time>2014-05-08T07:12:11.000Z</time>
      </trkpt>
      <trkpt lat="42.99735" lon="6.1638">
        <ele>0.9</ele>
        <time>2014-05-08T07:12:16.000Z</time>
      </trkpt>
      <trkpt lat="42.99736" lon="6.16391">
        <ele>0.82</ele>
        <time>2014-05-08T07:12:21.000Z</time>
      </trkpt>
      <trkpt lat="42.99734" lon="6.16404">
        <ele>0.74</ele>
        <time>2014-05-08T07:12:26.000Z</time>
      </trkpt>
      <trkpt lat="42.9973" lon="6.16416">
        <ele>0.66</ele>
        <time>2014-05-08T07:12:31.000Z</time>
      </trkpt>
      <trkpt lat="42.99728" lon="6.16429">
        <ele>0.67</ele>
        <time>2014-05-08T07:12:36.000Z</time>
      </trkpt>
      <trkpt lat="42.99728" lon="6.16444">
        <ele>0.69</ele>
        <time>2014-05-08T07:12:41.000Z</time>
      </trkpt>
      <trkpt lat="42.99728" lon="6.16459">
        <ele>0.7</ele>
        <time>2014-05-08T07:12:46.000Z</time>
      </trkpt>
      <trkpt lat="42.9973" lon="6.1647">
        <ele>0.72</ele>
        <time>2014-05-08T07:12:51.000Z</time>
      </trkpt>
      <trkpt lat="42.99731" lon="6.1648">
        <ele>0.73</ele>
        <time>2014-05-08T07:12:56.000Z</time>
      </trkpt>
      <trkpt lat="42.99735" lon="6.16491">
        <ele>0.75</ele>
        <time>2014-05-08T07:13:01.000Z</time>
      </trkpt>
      <trkpt lat="42.99739" lon="6.16501">
        <ele>0.74</ele>
        <time>2014-05-08T07:13:06.000Z</time>
      </trkpt>
      <trkpt lat="42.99743" lon="6.1651">
        <ele>0.74</ele>
        <time>2014-05-08T07:13:11.000Z</time>
      </trkpt>
      <trkpt lat="42.99747" lon="6.16521">
        <ele>0.73</ele>
        <time>2014-05-08T07:13:16.000Z</time>
      </trkpt>
      <trkpt lat="42.99751" lon="6.16532">
        <ele>0.63</ele>
        <time>2014-05-08T07:13:21.000Z</time>
      </trkpt>
      <trkpt lat="42.99753" lon="6.16546">
        <ele>0.53</ele>
        <time>2014-05-08T07:13:26.000Z</time>
      </trkpt>
      <trkpt lat="42.99754" lon="6.16555">
        <ele>0.43</ele>
        <time>2014-05-08T07:13:31.000Z</time>
      </trkpt>
      <trkpt lat="42.99755" lon="6.16567">
        <ele>0.28</ele>
        <time>2014-05-08T07:13:36.000Z</time>
      </trkpt>
      <trkpt lat="42.99755" lon="6.16579">
        <ele>0.14</ele>
        <time>2014-05-08T07:13:41.000Z</time>
      </trkpt>
      <trkpt lat="42.99758" lon="6.16596">
        <time>2014-05-08T07:13:46.000Z</time>
      </trkpt>
      <trkpt lat="42.99763" lon="6.1661">
        <time>2014-05-08T07:13:51.000Z</time>
      </trkpt>
      <trkpt lat="42.99768" lon="6.16619">
        <ele>0.01</ele>
        <time>2014-05-08T07:13:56.000Z</time>
      </trkpt>
      <trkpt lat="42.99773" lon="6.16632">
        <ele>0.01</ele>
        <time>2014-05-08T07:14:01.000Z</time>
      </trkpt>
      <trkpt lat="42.99776" lon="6.16645">
        <ele>0.01</ele>
        <time>2014-05-08T07:14:06.000Z</time>
      </trkpt>
      <trkpt lat="42.9978" lon="6.16657">
        <time>2014-05-08T07:14:11.000Z</time>
      </trkpt>
      <trkpt lat="42.99785" lon="6.1667">
        <time>2014-05-08T07:14:16.000Z</time>
      </trkpt>
      <trkpt lat="42.99791" lon="6.16679">
        <time>2014-05-08T07:14:21.000Z</time>
      </trkpt>
      <trkpt lat="42.99799" lon="6.16689">
        <time>2014-05-08T07:14:26.000Z</time>
      </trkpt>
      <trkpt lat="42.99806" lon="6.16696">
        <time>2014-05-08T07:14:31.000Z</time>
      </trkpt>
      <trkpt lat="42.99814" lon="6.16704">
        <time>2014-05-08T07:14:36.000Z</time>
      </trkpt>
      <trkpt lat="42.99822" lon="6.16711">
        <time>2014-05-08T07:14:41.000Z</time>
      </trkpt>
      <trkpt lat="42.99829" lon="6.16724">
        <time>2014-05-08T07:14:46.000Z</time>
      </trkpt>
      <trkpt lat="42.99835" lon="6.16732">
        <time>2014-05-08T07:14:51.000Z</time>
      </trkpt>
      <trkpt lat="42.99843" lon="6.1674">
        <time>2014-05-08T07:14:56.000Z</time>
      </trkpt>
      <trkpt lat="42.99852" lon="6.16746">
        <time>2014-05-08T07:15:01.000Z</time>
      </trkpt>
      <trkpt lat="42.9986" lon="6.16752">
        <time>2014-05-08T07:15:06.000Z</time>
      </trkpt>
      <trkpt lat="42.99863" lon="6.16754">
        <time>2014-05-08T07:15:11.000Z</time>
      </trkpt>
      <trkpt lat="42.99868" lon="6.16756">
        <time>2014-05-08T07:15:16.000Z</time>
      </trkpt>
      <trkpt lat="42.99874" lon="6.16759">
        <time>2014-05-08T07:15:21.000Z</time>
      </trkpt>
      <trkpt lat="42.9988" lon="6.16759">
        <time>2014-05-08T07:15:26.000Z</time>
      </trkpt>
      <trkpt lat="42.99887" lon="6.16758">
        <time>2014-05-08T07:15:31.000Z</time>
      </trkpt>
      <trkpt lat="42.99892" lon="6.16754">
        <ele>0.14</ele>
        <time>2014-05-08T07:15:36.000Z</time>
      </trkpt>
      <trkpt lat="42.99898" lon="6.16749">
        <ele>0.28</ele>
        <time>2014-05-08T07:15:41.000Z</time>
      </trkpt>
      <trkpt lat="42.99904" lon="6.1674">
        <ele>0.42</ele>
        <time>2014-05-08T07:15:46.000Z</time>
      </trkpt>
      <trkpt lat="42.99909" lon="6.1673">
        <ele>0.67</ele>
        <time>2014-05-08T07:15:51.000Z</time>
      </trkpt>
      <trkpt lat="42.99912" lon="6.16719">
        <ele>0.93</ele>
        <time>2014-05-08T07:15:56.000Z</time>
      </trkpt>
      <trkpt lat="42.99914" lon="6.16709">
        <ele>1.19</ele>
        <time>2014-05-08T07:16:01.000Z</time>
      </trkpt>
      <trkpt lat="42.99914" lon="6.16703">
        <ele>1.33</ele>
        <time>2014-05-08T07:16:06.000Z</time>
      </trkpt>
      <trkpt lat="42.99914" lon="6.16698">
        <ele>1.47</ele>
        <time>2014-05-08T07:16:11.000Z</time>
      </trkpt>
      <trkpt lat="42.99915" lon="6.16693">
        <ele>1.6</ele>
        <time>2014-05-08T07:16:16.000Z</time>
      </trkpt>
      <trkpt lat="42.99915" lon="6.16689">
        <ele>1.71</ele>
        <time>2014-05-08T07:16:21.000Z</time>
      </trkpt>
      <trkpt lat="42.99914" lon="6.16686">
        <ele>1.81</ele>
        <time>2014-05-08T07:16:26.000Z</time>
      </trkpt>
      <trkpt lat="42.99914" lon="6.16682">
        <ele>1.91</ele>
        <time>2014-05-08T07:16:31.000Z</time>
      </trkpt>
      <trkpt lat="42.99914" lon="6.16678">
        <ele>2.06</ele>
        <time>2014-05-08T07:16:36.000Z</time>
      </trkpt>
      <trkpt lat="42.99915" lon="6.16676">
        <ele>2.21</ele>
        <time>2014-05-08T07:16:41.000Z</time>
      </trkpt>
      <trkpt lat="42.99916" lon="6.16669">
        <ele>2.36</ele>
        <time>2014-05-08T07:16:46.000Z</time>
      </trkpt>
      <trkpt lat="42.99915" lon="6.16667">
        <ele>2.44</ele>
        <time>2014-05-08T07:16:51.000Z</time>
      </trkpt>
      <trkpt lat="42.99914" lon="6.16665">
        <ele>2.53</ele>
        <time>2014-05-08T07:16:56.000Z</time>
      </trkpt>
      <trkpt lat="42.99914" lon="6.16662">
        <ele>2.61</ele>
        <time>2014-05-08T07:17:01.000Z</time>
      </trkpt>
      <trkpt lat="42.99913" lon="6.16662">
        <ele>2.67</ele>
        <time>2014-05-08T07:17:06.000Z</time>
      </trkpt>
      <trkpt lat="42.99914" lon="6.1666">
        <ele>2.73</ele>
        <time>2014-05-08T07:17:11.000Z</time>
      </trkpt>
      <trkpt lat="42.99914" lon="6.16658">
        <ele>2.79</ele>
        <time>2014-05-08T07:17:16.000Z</time>
      </trkpt>
      <trkpt lat="42.99915" lon="6.16656">
        <ele>2.85</ele>
        <time>2014-05-08T07:17:21.000Z</time>
      </trkpt>
      <trkpt lat="42.99917" lon="6.16654">
        <ele>2.9</ele>
        <time>2014-05-08T07:17:26.000Z</time>
      </trkpt>
      <trkpt lat="42.99916" lon="6.16653">
        <ele>2.95</ele>
        <time>2014-05-08T07:17:31.000Z</time>
      </trkpt>
      <trkpt lat="42.99916" lon="6.16652">
        <ele>2.95</ele>
        <time>2014-05-08T07:17:36.000Z</time>
      </trkpt>
      <trkpt lat="42.99917" lon="6.1665">
        <ele>2.94</ele>
        <time>2014-05-08T07:17:41.000Z</time>
      </trkpt>
      <trkpt lat="42.99916" lon="6.16651">
        <ele>2.94</ele>
        <time>2014-05-08T07:17:46.000Z</time>
      </trkpt>
      <trkpt lat="42.99914" lon="6.16653">
        <ele>2.16</ele>
        <time>2014-05-08T07:17:51.000Z</time>
      </trkpt>
      <trkpt lat="42.99918" lon="6.16653">
        <ele>1.38</ele>
        <time>2014-05-08T07:17:56.000Z</time>
      </trkpt>
      <trkpt lat="42.99916" lon="6.16651">
        <ele>0.59</ele>
        <time>2014-05-08T07:18:01.000Z</time>
      </trkpt>
      <trkpt lat="42.99772" lon="6.16786">
        <ele>0.67</ele>
        <time>2014-05-08T07:18:06.000Z</time>
      </trkpt>
      <trkpt lat="42.99765" lon="6.1679">
        <ele>0.75</ele>
        <time>2014-05-08T07:18:11.000Z</time>
      </trkpt>
      <trkpt lat="42.99759" lon="6.16794">
        <ele>0.83</ele>
        <time>2014-05-08T07:18:16.000Z</time>
      </trkpt>
      <trkpt lat="42.99753" lon="6.16802">
        <ele>0.95</ele>
        <time>2014-05-08T07:18:21.000Z</time>
      </trkpt>
      <trkpt lat="42.99748" lon="6.16811">
        <ele>1.07</ele>
        <time>2014-05-08T07:18:26.000Z</time>
      </trkpt>
      <trkpt lat="42.99744" lon="6.1682">
        <ele>1.18</ele>
        <time>2014-05-08T07:18:31.000Z</time>
      </trkpt>
      <trkpt lat="42.99738" lon="6.16827">
        <ele>1.14</ele>
        <time>2014-05-08T07:18:36.000Z</time>
      </trkpt>
      <trkpt lat="42.9973" lon="6.16833">
        <ele>1.09</ele>
        <time>2014-05-08T07:18:41.000Z</time>
      </trkpt>
      <trkpt lat="42.9972" lon="6.16836">
        <ele>1.05</ele>
        <time>2014-05-08T07:18:46.000Z</time>
      </trkpt>
      <trkpt lat="42.99711" lon="6.16836">
        <ele>0.93</ele>
        <time>2014-05-08T07:18:51.000Z</time>
      </trkpt>
      <trkpt lat="42.99701" lon="6.16836">
        <ele>0.8</ele>
        <time>2014-05-08T07:18:56.000Z</time>
      </trkpt>
      <trkpt lat="42.99693" lon="6.16834">
        <ele>0.68</ele>
        <time>2014-05-08T07:19:01.000Z</time>
      </trkpt>
      <trkpt lat="42.99684" lon="6.16835">
        <ele>0.57</ele>
        <time>2014-05-08T07:19:06.000Z</time>
      </trkpt>
      <trkpt lat="42.99675" lon="6.16838">
        <ele>0.45</ele>
        <time>2014-05-08T07:19:11.000Z</time>
      </trkpt>
      <trkpt lat="42.99666" lon="6.16843">
        <ele>0.34</ele>
        <time>2014-05-08T07:19:16.000Z</time>
      </trkpt>
      <trkpt lat="42.9966" lon="6.16849">
        <ele>0.26</ele>
        <time>2014-05-08T07:19:21.000Z</time>
      </trkpt>
      <trkpt lat="42.99654" lon="6.16857">
        <ele>0.18</ele>
        <time>2014-05-08T07:19:26.000Z</time>
      </trkpt>
      <trkpt lat="42.99648" lon="6.16868">
        <ele>0.1</ele>
        <time>2014-05-08T07:19:31.000Z</time>
      </trkpt>
      <trkpt lat="42.99644" lon="6.16878">
        <ele>0.09</ele>
        <time>2014-05-08T07:19:36.000Z</time>
      </trkpt>
      <trkpt lat="42.99641" lon="6.16889">
        <ele>0.07</ele>
        <time>2014-05-08T07:19:41.000Z</time>
      </trkpt>
      <trkpt lat="42.99641" lon="6.16898">
        <ele>0.05</ele>
        <time>2014-05-08T07:19:46.000Z</time>
      </trkpt>
      <trkpt lat="42.99639" lon="6.16906">
        <ele>0.03</ele>
        <time>2014-05-08T07:19:51.000Z</time>
      </trkpt>
      <trkpt lat="42.99635" lon="6.16916">
        <ele>0.02</ele>
        <time>2014-05-08T07:19:56.000Z</time>
      </trkpt>
      <trkpt lat="42.99629" lon="6.16926">
        <time>2014-05-08T07:20:01.000Z</time>
      </trkpt>
      <trkpt lat="42.99622" lon="6.16934">
        <time>2014-05-08T07:20:06.000Z</time>
      </trkpt>
      <trkpt lat="42.99615" lon="6.1694">
        <time>2014-05-08T07:20:11.000Z</time>
      </trkpt>
      <trkpt lat="42.99607" lon="6.16943">
        <time>2014-05-08T07:20:16.000Z</time>
      </trkpt>
      <trkpt lat="42.99599" lon="6.16942">
        <time>2014-05-08T07:20:21.000Z</time>
      </trkpt>
      <trkpt lat="42.99593" lon="6.16941">
        <time>2014-05-08T07:20:26.000Z</time>
      </trkpt>
      <trkpt lat="42.99584" lon="6.16941">
        <time>2014-05-08T07:20:31.000Z</time>
      </trkpt>
      <trkpt lat="42.99576" lon="6.16945">
        <time>2014-05-08T07:20:36.000Z</time>
      </trkpt>
      <trkpt lat="42.99567" lon="6.16951">
        <time>2014-05-08T07:20:41.000Z</time>
      </trkpt>
      <trkpt lat="42.9956" lon="6.16957">
        <time>2014-05-08T07:20:46.000Z</time>
      </trkpt>
      <trkpt lat="42.99553" lon="6.16966">
        <time>2014-05-08T07:20:51.000Z</time>
      </trkpt>
      <trkpt lat="42.99548" lon="6.16977">
        <time>2014-05-08T07:20:56.000Z</time>
      </trkpt>
      <trkpt lat="42.99543" lon="6.16987">
        <time>2014-05-08T07:21:01.000Z</time>
      </trkpt>
      <trkpt lat="42.9954" lon="6.16996">
        <ele>0.02</ele>
        <time>2014-05-08T07:21:06.000Z</time>
      </trkpt>
      <trkpt lat="42.99537" lon="6.17007">
        <ele>0.05</ele>
        <time>2014-05-08T07:21:11.000Z</time>
      </trkpt>
      <trkpt lat="42.99535" lon="6.17019">
        <ele>0.07</ele>
        <time>2014-05-08T07:21:16.000Z</time>
      </trkpt>
      <trkpt lat="42.99533" lon="6.1703">
        <ele>0.11</ele>
        <time>2014-05-08T07:21:21.000Z</time>
      </trkpt>
      <trkpt lat="42.99531" lon="6.1704">
        <ele>0.16</ele>
        <time>2014-05-08T07:21:26.000Z</time>
      </trkpt>
      <trkpt lat="42.99528" lon="6.17051">
        <ele>0.2</ele>
        <time>2014-05-08T07:21:31.000Z</time>
      </trkpt>
      <trkpt lat="42.99523" lon="6.1706">
        <ele>0.15</ele>
        <time>2014-05-08T07:21:36.000Z</time>
      </trkpt>
      <trkpt lat="42.99517" lon="6.17069">
        <ele>0.1</ele>
        <time>2014-05-08T07:21:41.000Z</time>
      </trkpt>
      <trkpt lat="42.99512" lon="6.17075">
        <ele>0.06</ele>
        <time>2014-05-08T07:21:46.000Z</time>
      </trkpt>
      <trkpt lat="42.99504" lon="6.1708">
        <ele>0.04</ele>
        <time>2014-05-08T07:21:51.000Z</time>
      </trkpt>
      <trkpt lat="42.99499" lon="6.17089">
        <ele>0.02</ele>
        <time>2014-05-08T07:21:56.000Z</time>
      </trkpt>
      <trkpt lat="42.99496" lon="6.17099">
        <time>2014-05-08T07:22:01.000Z</time>
      </trkpt>
      <trkpt lat="42.99494" lon="6.17109">
        <time>2014-05-08T07:22:06.000Z</time>
      </trkpt>
      <trkpt lat="42.99492" lon="6.1712">
        <time>2014-05-08T07:22:11.000Z</time>
      </trkpt>
      <trkpt lat="42.99489" lon="6.17131">
        <time>2014-05-08T07:22:16.000Z</time>
      </trkpt>
      <trkpt lat="42.99488" lon="6.17139">
        <ele>0.01</ele>
        <time>2014-05-08T07:22:21.000Z</time>
      </trkpt>
      <trkpt lat="42.9948" lon="6.1715">
        <ele>0.02</ele>
        <time>2014-05-08T07:22:26.000Z</time>
      </trkpt>
      <trkpt lat="42.99474" lon="6.17157">
        <ele>0.03</ele>
        <time>2014-05-08T07:22:31.000Z</time>
      </trkpt>
      <trkpt lat="42.99467" lon="6.17161">
        <ele>0.05</ele>
        <time>2014-05-08T07:22:36.000Z</time>
      </trkpt>
      <trkpt lat="42.99461" lon="6.17165">
        <ele>0.07</ele>
        <time>2014-05-08T07:22:41.000Z</time>
      </trkpt>
      <trkpt lat="42.99454" lon="6.17172">
        <ele>0.09</ele>
        <time>2014-05-08T07:22:46.000Z</time>
      </trkpt>
      <trkpt lat="42.99449" lon="6.1718">
        <ele>0.08</ele>
        <time>2014-05-08T07:22:51.000Z</time>
      </trkpt>
      <trkpt lat="42.99444" lon="6.17189">
        <ele>0.07</ele>
        <time>2014-05-08T07:22:56.000Z</time>
      </trkpt>
      <trkpt lat="42.9944" lon="6.17197">
        <ele>0.06</ele>
        <time>2014-05-08T07:23:01.000Z</time>
      </trkpt>
      <trkpt lat="42.99437" lon="6.17209">
        <ele>0.06</ele>
        <time>2014-05-08T07:23:06.000Z</time>
      </trkpt>
      <trkpt lat="42.99435" lon="6.17221">
        <ele>0.06</ele>
        <time>2014-05-08T07:23:11.000Z</time>
      </trkpt>
      <trkpt lat="42.99434" lon="6.17232">
        <ele>0.06</ele>
        <time>2014-05-08T07:23:16.000Z</time>
      </trkpt>
      <trkpt lat="42.99434" lon="6.17242">
        <ele>0.04</ele>
        <time>2014-05-08T07:23:21.000Z</time>
      </trkpt>
      <trkpt lat="42.99433" lon="6.17251">
        <ele>0.02</ele>
        <time>2014-05-08T07:23:26.000Z</time>
      </trkpt>
      <trkpt lat="42.99432" lon="6.1726">
        <time>2014-05-08T07:23:31.000Z</time>
      </trkpt>
      <trkpt lat="42.99428" lon="6.1727">
        <time>2014-05-08T07:23:36.000Z</time>
      </trkpt>
      <trkpt lat="42.99425" lon="6.17278">
        <time>2014-05-08T07:23:41.000Z</time>
      </trkpt>
      <trkpt lat="42.99421" lon="6.17285">
        <time>2014-05-08T07:23:46.000Z</time>
      </trkpt>
      <trkpt lat="42.99416" lon="6.17293">
        <time>2014-05-08T07:23:51.000Z</time>
      </trkpt>
      <trkpt lat="42.99411" lon="6.17302">
        <time>2014-05-08T07:23:56.000Z</time>
      </trkpt>
      <trkpt lat="42.99409" lon="6.17313">
        <time>2014-05-08T07:24:01.000Z</time>
      </trkpt>
      <trkpt lat="42.99407" lon="6.17324">
        <time>2014-05-08T07:24:06.000Z</time>
      </trkpt>
      <trkpt lat="42.99405" lon="6.17336">
        <time>2014-05-08T07:24:11.000Z</time>
      </trkpt>
      <trkpt lat="42.99405" lon="6.17347">
        <time>2014-05-08T07:24:16.000Z</time>
      </trkpt>
      <trkpt lat="42.99403" lon="6.17358">
        <time>2014-05-08T07:24:21.000Z</time>
      </trkpt>
      <trkpt lat="42.99398" lon="6.17371">
        <time>2014-05-08T07:24:26.000Z</time>
      </trkpt>
      <trkpt lat="42.99393" lon="6.17381">
        <time>2014-05-08T07:24:31.000Z</time>
      </trkpt>
      <trkpt lat="42.9939" lon="6.17388">
        <time>2014-05-08T07:24:36.000Z</time>
      </trkpt>
      <trkpt lat="42.99386" lon="6.174">
        <time>2014-05-08T07:24:41.000Z</time>
      </trkpt>
      <trkpt lat="42.99384" lon="6.1741">
        <time>2014-05-08T07:24:46.000Z</time>
      </trkpt>
      <trkpt lat="42.99382" lon="6.17422">
        <time>2014-05-08T07:24:51.000Z</time>
      </trkpt>
      <trkpt lat="42.99381" lon="6.17432">
        <time>2014-05-08T07:24:56.000Z</time>
      </trkpt>
      <trkpt lat="42.99379" lon="6.17442">
        <time>2014-05-08T07:25:01.000Z</time>
      </trkpt>
      <trkpt lat="42.99373" lon="6.17452">
        <time>2014-05-08T07:25:06.000Z</time>
      </trkpt>
      <trkpt lat="42.99366" lon="6.17461">
        <time>2014-05-08T07:25:11.000Z</time>
      </trkpt>
      <trkpt lat="42.99359" lon="6.17468">
        <time>2014-05-08T07:25:16.000Z</time>
      </trkpt>
      <trkpt lat="42.99353" lon="6.17471">
        <time>2014-05-08T07:25:21.000Z</time>
      </trkpt>
      <trkpt lat="42.99347" lon="6.17478">
        <time>2014-05-08T07:25:26.000Z</time>
      </trkpt>
      <trkpt lat="42.99342" lon="6.17489">
        <time>2014-05-08T07:25:31.000Z</time>
      </trkpt>
      <trkpt lat="42.9934" lon="6.17498">
        <time>2014-05-08T07:25:36.000Z</time>
      </trkpt>
      <trkpt lat="42.99335" lon="6.17512">
        <time>2014-05-08T07:25:41.000Z</time>
      </trkpt>
      <trkpt lat="42.99332" lon="6.17523">
        <time>2014-05-08T07:25:46.000Z</time>
      </trkpt>
      <trkpt lat="42.99328" lon="6.17532">
        <time>2014-05-08T07:25:51.000Z</time>
      </trkpt>
      <trkpt lat="42.99322" lon="6.17541">
        <time>2014-05-08T07:25:56.000Z</time>
      </trkpt>
      <trkpt lat="42.99316" lon="6.17548">
        <time>2014-05-08T07:26:01.000Z</time>
      </trkpt>
      <trkpt lat="42.9931" lon="6.17556">
        <time>2014-05-08T07:26:06.000Z</time>
      </trkpt>
      <trkpt lat="42.99306" lon="6.17566">
        <time>2014-05-08T07:26:11.000Z</time>
      </trkpt>
      <trkpt lat="42.99304" lon="6.17576">
        <time>2014-05-08T07:26:16.000Z</time>
      </trkpt>
      <trkpt lat="42.99302" lon="6.17587">
        <time>2014-05-08T07:26:21.000Z</time>
      </trkpt>
      <trkpt lat="42.99301" lon="6.17598">
        <time>2014-05-08T07:26:26.000Z</time>
      </trkpt>
      <trkpt lat="42.99299" lon="6.17607">
        <time>2014-05-08T07:26:31.000Z</time>
      </trkpt>
      <trkpt lat="42.99294" lon="6.17617">
        <time>2014-05-08T07:26:36.000Z</time>
      </trkpt>
      <trkpt lat="42.99289" lon="6.17624">
        <time>2014-05-08T07:26:41.000Z</time>
      </trkpt>
      <trkpt lat="42.99284" lon="6.1763">
        <time>2014-05-08T07:26:46.000Z</time>
      </trkpt>
      <trkpt lat="42.99278" lon="6.17635">
        <time>2014-05-08T07:26:51.000Z</time>
      </trkpt>
      <trkpt lat="42.99272" lon="6.17643">
        <time>2014-05-08T07:26:56.000Z</time>
      </trkpt>
      <trkpt lat="42.99266" lon="6.17652">
        <time>2014-05-08T07:27:01.000Z</time>
      </trkpt>
      <trkpt lat="42.99261" lon="6.17662">
        <time>2014-05-08T07:27:06.000Z</time>
      </trkpt>
      <trkpt lat="42.99259" lon="6.17672">
        <time>2014-05-08T07:27:11.000Z</time>
      </trkpt>
      <trkpt lat="42.99257" lon="6.17683">
        <time>2014-05-08T07:27:16.000Z</time>
      </trkpt>
      <trkpt lat="42.99253" lon="6.17694">
        <time>2014-05-08T07:27:21.000Z</time>
      </trkpt>
      <trkpt lat="42.99252" lon="6.17695">
        <time>2014-05-08T07:27:26.000Z</time>
      </trkpt>
      <trkpt lat="42.99246" lon="6.17705">
        <time>2014-05-08T07:27:31.000Z</time>
      </trkpt>
      <trkpt lat="42.99247" lon="6.17704">
        <time>2014-05-08T07:27:36.000Z</time>
      </trkpt>
      <trkpt lat="42.99247" lon="6.17706">
        <time>2014-05-08T07:27:41.000Z</time>
      </trkpt>
      <trkpt lat="42.99246" lon="6.17714">
        <time>2014-05-08T07:27:46.000Z</time>
      </trkpt>
      <trkpt lat="42.99243" lon="6.17724">
        <time>2014-05-08T07:27:51.000Z</time>
      </trkpt>
      <trkpt lat="42.99238" lon="6.17732">
        <time>2014-05-08T07:27:56.000Z</time>
      </trkpt>
      <trkpt lat="42.99231" lon="6.17738">
        <time>2014-05-08T07:28:01.000Z</time>
      </trkpt>
      <trkpt lat="42.99225" lon="6.17742">
        <time>2014-05-08T07:28:06.000Z</time>
      </trkpt>
      <trkpt lat="42.9922" lon="6.17745">
        <time>2014-05-08T07:28:11.000Z</time>
      </trkpt>
      <trkpt lat="42.99212" lon="6.17753">
        <time>2014-05-08T07:28:16.000Z</time>
      </trkpt>
      <trkpt lat="42.99207" lon="6.17761">
        <time>2014-05-08T07:28:21.000Z</time>
      </trkpt>
      <trkpt lat="42.99201" lon="6.17769">
        <time>2014-05-08T07:28:26.000Z</time>
      </trkpt>
      <trkpt lat="42.99198" lon="6.1778">
        <time>2014-05-08T07:28:31.000Z</time>
      </trkpt>
      <trkpt lat="42.99197" lon="6.17792">
        <time>2014-05-08T07:28:36.000Z</time>
      </trkpt>
      <trkpt lat="42.99194" lon="6.17801">
        <time>2014-05-08T07:28:41.000Z</time>
      </trkpt>
      <trkpt lat="42.99191" lon="6.17808">
        <time>2014-05-08T07:28:46.000Z</time>
      </trkpt>
      <trkpt lat="42.99191" lon="6.17808">
        <time>2014-05-08T07:28:51.000Z</time>
      </trkpt>
      <trkpt lat="42.99189" lon="6.17815">
        <time>2014-05-08T07:28:56.000Z</time>
      </trkpt>
      <trkpt lat="42.99187" lon="6.17814">
        <time>2014-05-08T07:29:01.000Z</time>
      </trkpt>
      <trkpt lat="42.99184" lon="6.17817">
        <time>2014-05-08T07:29:06.000Z</time>
      </trkpt>
      <trkpt lat="42.99182" lon="6.17824">
        <time>2014-05-08T07:29:11.000Z</time>
      </trkpt>
      <trkpt lat="42.99182" lon="6.17836">
        <time>2014-05-08T07:29:16.000Z</time>
      </trkpt>
      <trkpt lat="42.9918" lon="6.17846">
        <time>2014-05-08T07:29:21.000Z</time>
      </trkpt>
      <trkpt lat="42.99177" lon="6.17855">
        <time>2014-05-08T07:29:26.000Z</time>
      </trkpt>
      <trkpt lat="42.9917" lon="6.17862">
        <time>2014-05-08T07:29:31.000Z</time>
      </trkpt>
      <trkpt lat="42.99163" lon="6.17869">
        <time>2014-05-08T07:29:36.000Z</time>
      </trkpt>
      <trkpt lat="42.99157" lon="6.17874">
        <time>2014-05-08T07:29:41.000Z</time>
      </trkpt>
      <trkpt lat="42.99152" lon="6.17881">
        <time>2014-05-08T07:29:46.000Z</time>
      </trkpt>
      <trkpt lat="42.99147" lon="6.17892">
        <time>2014-05-08T07:29:51.000Z</time>
      </trkpt>
      <trkpt lat="42.99143" lon="6.17903">
        <time>2014-05-08T07:29:56.000Z</time>
      </trkpt>
      <trkpt lat="42.9914" lon="6.17911">
        <time>2014-05-08T07:30:01.000Z</time>
      </trkpt>
      <trkpt lat="42.99139" lon="6.1792">
        <time>2014-05-08T07:30:06.000Z</time>
      </trkpt>
      <trkpt lat="42.99138" lon="6.17928">
        <time>2014-05-08T07:30:11.000Z</time>
      </trkpt>
      <trkpt lat="42.99135" lon="6.17936">
        <time>2014-05-08T07:30:16.000Z</time>
      </trkpt>
      <trkpt lat="42.99131" lon="6.17943">
        <time>2014-05-08T07:30:21.000Z</time>
      </trkpt>
      <trkpt lat="42.99126" lon="6.17946">
        <time>2014-05-08T07:30:26.000Z</time>
      </trkpt>
      <trkpt lat="42.99126" lon="6.17948">
        <time>2014-05-08T07:30:31.000Z</time>
      </trkpt>
      <trkpt lat="42.99126" lon="6.17948">
        <time>2014-05-08T07:30:36.000Z</time>
      </trkpt>
      <trkpt lat="42.99125" lon="6.17948">
        <time>2014-05-08T07:30:41.000Z</time>
      </trkpt>
      <trkpt lat="42.99124" lon="6.17951">
        <time>2014-05-08T07:30:46.000Z</time>
      </trkpt>
      <trkpt lat="42.99124" lon="6.17954">
        <time>2014-05-08T07:30:51.000Z</time>
      </trkpt>
      <trkpt lat="42.99119" lon="6.17958">
        <time>2014-05-08T07:30:56.000Z</time>
      </trkpt>
      <trkpt lat="42.99117" lon="6.17961">
        <time>2014-05-08T07:31:01.000Z</time>
      </trkpt>
      <trkpt lat="42.99113" lon="6.17969">
        <time>2014-05-08T07:31:06.000Z</time>
      </trkpt>
      <trkpt lat="42.9911" lon="6.17978">
        <time>2014-05-08T07:31:11.000Z</time>
      </trkpt>
      <trkpt lat="42.99109" lon="6.17987">
        <time>2014-05-08T07:31:16.000Z</time>
      </trkpt>
      <trkpt lat="42.99108" lon="6.17994">
        <time>2014-05-08T07:31:21.000Z</time>
      </trkpt>
      <trkpt lat="42.99105" lon="6.18002">
        <time>2014-05-08T07:31:26.000Z</time>
      </trkpt>
      <trkpt lat="42.99099" lon="6.18009">
        <time>2014-05-08T07:31:31.000Z</time>
      </trkpt>
      <trkpt lat="42.99094" lon="6.18014">
        <time>2014-05-08T07:31:36.000Z</time>
      </trkpt>
      <trkpt lat="42.99089" lon="6.18017">
        <time>2014-05-08T07:31:41.000Z</time>
      </trkpt>
      <trkpt lat="42.99086" lon="6.18021">
        <time>2014-05-08T07:31:46.000Z</time>
      </trkpt>
      <trkpt lat="42.99084" lon="6.18022">
        <time>2014-05-08T07:31:51.000Z</time>
      </trkpt>
      <trkpt lat="42.99083" lon="6.18025">
        <time>2014-05-08T07:31:56.000Z</time>
      </trkpt>
      <trkpt lat="42.99082" lon="6.18027">
        <time>2014-05-08T07:32:01.000Z</time>
      </trkpt>
      <trkpt lat="42.99079" lon="6.18034">
        <time>2014-05-08T07:32:06.000Z</time>
      </trkpt>
      <trkpt lat="42.99074" lon="6.18043">
        <time>2014-05-08T07:32:11.000Z</time>
      </trkpt>
      <trkpt lat="42.99069" lon="6.18049">
        <time>2014-05-08T07:32:16.000Z</time>
      </trkpt>
      <trkpt lat="42.99062" lon="6.18055">
        <time>2014-05-08T07:32:21.000Z</time>
      </trkpt>
      <trkpt lat="42.99056" lon="6.18061">
        <time>2014-05-08T07:32:26.000Z</time>
      </trkpt>
      <trkpt lat="42.99051" lon="6.1807">
        <time>2014-05-08T07:32:31.000Z</time>
      </trkpt>
      <trkpt lat="42.99046" lon="6.1808">
        <time>2014-05-08T07:32:36.000Z</time>
      </trkpt>
      <trkpt lat="42.99043" lon="6.18091">
        <time>2014-05-08T07:32:41.000Z</time>
      </trkpt>
      <trkpt lat="42.99042" lon="6.18102">
        <time>2014-05-08T07:32:46.000Z</time>
      </trkpt>
      <trkpt lat="42.99041" lon="6.18112">
        <time>2014-05-08T07:32:51.000Z</time>
      </trkpt>
      <trkpt lat="42.99036" lon="6.18122">
        <time>2014-05-08T07:32:56.000Z</time>
      </trkpt>
      <trkpt lat="42.99031" lon="6.18131">
        <time>2014-05-08T07:33:01.000Z</time>
      </trkpt>
      <trkpt lat="42.99027" lon="6.1814">
        <time>2014-05-08T07:33:06.000Z</time>
      </trkpt>
      <trkpt lat="42.99024" lon="6.18152">
        <time>2014-05-08T07:33:11.000Z</time>
      </trkpt>
      <trkpt lat="42.99023" lon="6.18162">
        <time>2014-05-08T07:33:16.000Z</time>
      </trkpt>
      <trkpt lat="42.99021" lon="6.18172">
        <time>2014-05-08T07:33:21.000Z</time>
      </trkpt>
      <trkpt lat="42.99017" lon="6.18182">
        <time>2014-05-08T07:33:26.000Z</time>
      </trkpt>
      <trkpt lat="42.99012" lon="6.1819">
        <time>2014-05-08T07:33:31.000Z</time>
      </trkpt>
      <trkpt lat="42.99005" lon="6.18195">
        <time>2014-05-08T07:33:36.000Z</time>
      </trkpt>
      <trkpt lat="42.98998" lon="6.18199">
        <time>2014-05-08T07:33:41.000Z</time>
      </trkpt>
      <trkpt lat="42.98991" lon="6.18206">
        <time>2014-05-08T07:33:46.000Z</time>
      </trkpt>
      <trkpt lat="42.98985" lon="6.18214">
        <time>2014-05-08T07:33:51.000Z</time>
      </trkpt>
      <trkpt lat="42.9898" lon="6.18223">
        <time>2014-05-08T07:33:56.000Z</time>
      </trkpt>
      <trkpt lat="42.98976" lon="6.18231">
        <time>2014-05-08T07:34:01.000Z</time>
      </trkpt>
      <trkpt lat="42.98973" lon="6.18242">
        <time>2014-05-08T07:34:06.000Z</time>
      </trkpt>
      <trkpt lat="42.98971" lon="6.18252">
        <time>2014-05-08T07:34:11.000Z</time>
      </trkpt>
      <trkpt lat="42.98969" lon="6.18262">
        <time>2014-05-08T07:34:16.000Z</time>
      </trkpt>
      <trkpt lat="42.98966" lon="6.18272">
        <time>2014-05-08T07:34:21.000Z</time>
      </trkpt>
      <trkpt lat="42.9896" lon="6.18281">
        <time>2014-05-08T07:34:26.000Z</time>
      </trkpt>
      <trkpt lat="42.98957" lon="6.18287">
        <time>2014-05-08T07:34:31.000Z</time>
      </trkpt>
      <trkpt lat="42.98953" lon="6.18297">
        <time>2014-05-08T07:34:36.000Z</time>
      </trkpt>
      <trkpt lat="42.98951" lon="6.18309">
        <time>2014-05-08T07:34:41.000Z</time>
      </trkpt>
      <trkpt lat="42.98952" lon="6.1832">
        <time>2014-05-08T07:34:46.000Z</time>
      </trkpt>
      <trkpt lat="42.98952" lon="6.1833">
        <time>2014-05-08T07:34:51.000Z</time>
      </trkpt>
      <trkpt lat="42.98952" lon="6.18341">
        <ele>-0.01</ele>
        <time>2014-05-08T07:34:56.000Z</time>
      </trkpt>
      <trkpt lat="42.98949" lon="6.18351">
        <ele>-0.01</ele>
        <time>2014-05-08T07:35:01.000Z</time>
      </trkpt>
      <trkpt lat="42.98944" lon="6.18359">
        <ele>-0.03</ele>
        <time>2014-05-08T07:35:06.000Z</time>
      </trkpt>
      <trkpt lat="42.98938" lon="6.18365">
        <ele>-0.04</ele>
        <time>2014-05-08T07:35:11.000Z</time>
      </trkpt>
      <trkpt lat="42.98932" lon="6.18369">
        <ele>-0.05</ele>
        <time>2014-05-08T07:35:16.000Z</time>
      </trkpt>
      <trkpt lat="42.98924" lon="6.18372">
        <ele>-0.06</ele>
        <time>2014-05-08T07:35:21.000Z</time>
      </trkpt>
      <trkpt lat="42.98918" lon="6.18378">
        <ele>-0.07</ele>
        <time>2014-05-08T07:35:26.000Z</time>
      </trkpt>
      <trkpt lat="42.98912" lon="6.18387">
        <ele>-0.08</ele>
        <time>2014-05-08T07:35:31.000Z</time>
      </trkpt>
      <trkpt lat="42.98908" lon="6.18398">
        <ele>-0.09</ele>
        <time>2014-05-08T07:35:36.000Z</time>
      </trkpt>
      <trkpt lat="42.98905" lon="6.18409">
        <ele>-0.09</ele>
        <time>2014-05-08T07:35:41.000Z</time>
      </trkpt>
      <trkpt lat="42.98903" lon="6.18419">
        <ele>-0.1</ele>
        <time>2014-05-08T07:35:46.000Z</time>
      </trkpt>
      <trkpt lat="42.98901" lon="6.18429">
        <ele>-0.11</ele>
        <time>2014-05-08T07:35:51.000Z</time>
      </trkpt>
      <trkpt lat="42.98898" lon="6.18437">
        <ele>-0.12</ele>
        <time>2014-05-08T07:35:56.000Z</time>
      </trkpt>
      <trkpt lat="42.98891" lon="6.18447">
        <ele>-0.13</ele>
        <time>2014-05-08T07:36:01.000Z</time>
      </trkpt>
      <trkpt lat="42.98885" lon="6.18452">
        <ele>-0.14</ele>
        <time>2014-05-08T07:36:06.000Z</time>
      </trkpt>
      <trkpt lat="42.98879" lon="6.18458">
        <ele>-0.15</ele>
        <time>2014-05-08T07:36:11.000Z</time>
      </trkpt>
      <trkpt lat="42.98875" lon="6.18467">
        <ele>-0.16</ele>
        <time>2014-05-08T07:36:16.000Z</time>
      </trkpt>
      <trkpt lat="42.98871" lon="6.18479">
        <ele>-0.16</ele>
        <time>2014-05-08T07:36:21.000Z</time>
      </trkpt>
      <trkpt lat="42.98868" lon="6.18491">
        <ele>-0.16</ele>
        <time>2014-05-08T07:36:26.000Z</time>
      </trkpt>
      <trkpt lat="42.98867" lon="6.185">
        <ele>-0.17</ele>
        <time>2014-05-08T07:36:31.000Z</time>
      </trkpt>
      <trkpt lat="42.98864" lon="6.18512">
        <ele>-0.18</ele>
        <time>2014-05-08T07:36:36.000Z</time>
      </trkpt>
      <trkpt lat="42.98858" lon="6.1852">
        <ele>-0.19</ele>
        <time>2014-05-08T07:36:41.000Z</time>
      </trkpt>
      <trkpt lat="42.98851" lon="6.18527">
        <ele>-0.2</ele>
        <time>2014-05-08T07:36:46.000Z</time>
      </trkpt>
      <trkpt lat="42.98846" lon="6.18532">
        <ele>-0.2</ele>
        <time>2014-05-08T07:36:51.000Z</time>
      </trkpt>
      <trkpt lat="42.98839" lon="6.1854">
        <ele>-0.19</ele>
        <time>2014-05-08T07:36:56.000Z</time>
      </trkpt>
      <trkpt lat="42.98834" lon="6.18551">
        <ele>-0.18</ele>
        <time>2014-05-08T07:37:01.000Z</time>
      </trkpt>
      <trkpt lat="42.9883" lon="6.18561">
        <ele>-0.17</ele>
        <time>2014-05-08T07:37:06.000Z</time>
      </trkpt>
      <trkpt lat="42.98827" lon="6.1857">
        <ele>-0.17</ele>
        <time>2014-05-08T07:37:11.000Z</time>
      </trkpt>
      <trkpt lat="42.98823" lon="6.18577">
        <ele>-0.16</ele>
        <time>2014-05-08T07:37:16.000Z</time>
      </trkpt>
      <trkpt lat="42.98817" lon="6.18582">
        <ele>-0.16</ele>
        <time>2014-05-08T07:37:21.000Z</time>
      </trkpt>
      <trkpt lat="42.98812" lon="6.18589">
        <ele>-0.16</ele>
        <time>2014-05-08T07:37:26.000Z</time>
      </trkpt>
      <trkpt lat="42.98807" lon="6.18599">
        <ele>-0.15</ele>
        <time>2014-05-08T07:37:31.000Z</time>
      </trkpt>
      <trkpt lat="42.98802" lon="6.18608">
        <ele>-0.16</ele>
        <time>2014-05-08T07:37:36.000Z</time>
      </trkpt>
      <trkpt lat="42.98797" lon="6.18616">
        <ele>-0.16</ele>
        <time>2014-05-08T07:37:41.000Z</time>
      </trkpt>
      <trkpt lat="42.98791" lon="6.18621">
        <ele>-0.17</ele>
        <time>2014-05-08T07:37:46.000Z</time>
      </trkpt>
      <trkpt lat="42.98785" lon="6.18625">
        <ele>-0.17</ele>
        <time>2014-05-08T07:37:51.000Z</time>
      </trkpt>
      <trkpt lat="42.98779" lon="6.1863">
        <ele>-0.17</ele>
        <time>2014-05-08T07:37:56.000Z</time>
      </trkpt>
      <trkpt lat="42.98775" lon="6.18635">
        <ele>-0.17</ele>
        <time>2014-05-08T07:38:01.000Z</time>
      </trkpt>
      <trkpt lat="42.98774" lon="6.18638">
        <ele>-0.17</ele>
        <time>2014-05-08T07:38:06.000Z</time>
      </trkpt>
      <trkpt lat="42.98773" lon="6.18639">
        <ele>-0.17</ele>
        <time>2014-05-08T07:38:11.000Z</time>
      </trkpt>
      <trkpt lat="42.98773" lon="6.18639">
        <ele>-0.17</ele>
        <time>2014-05-08T07:38:16.000Z</time>
      </trkpt>
      <trkpt lat="42.98775" lon="6.1864">
        <ele>-0.16</ele>
        <time>2014-05-08T07:38:21.000Z</time>
      </trkpt>
      <trkpt lat="42.98776" lon="6.18638">
        <ele>-0.16</ele>
        <time>2014-05-08T07:38:26.000Z</time>
      </trkpt>
      <trkpt lat="42.98777" lon="6.1864">
        <ele>-0.15</ele>
        <time>2014-05-08T07:38:31.000Z</time>
      </trkpt>
      <trkpt lat="42.98778" lon="6.18649">
        <ele>-0.14</ele>
        <time>2014-05-08T07:38:36.000Z</time>
      </trkpt>
      <trkpt lat="42.98779" lon="6.18657">
        <ele>-0.13</ele>
        <time>2014-05-08T07:38:41.000Z</time>
      </trkpt>
      <trkpt lat="42.98777" lon="6.18667">
        <ele>-0.12</ele>
        <time>2014-05-08T07:38:46.000Z</time>
      </trkpt>
      <trkpt lat="42.98772" lon="6.18676">
        <ele>-0.11</ele>
        <time>2014-05-08T07:38:51.000Z</time>
      </trkpt>
      <trkpt lat="42.98766" lon="6.18683">
        <ele>-0.1</ele>
        <time>2014-05-08T07:38:56.000Z</time>
      </trkpt>
      <trkpt lat="42.98759" lon="6.18687">
        <ele>-0.09</ele>
        <time>2014-05-08T07:39:01.000Z</time>
      </trkpt>
      <trkpt lat="42.98753" lon="6.18689">
        <ele>-0.09</ele>
        <time>2014-05-08T07:39:06.000Z</time>
      </trkpt>
      <trkpt lat="42.98746" lon="6.18693">
        <ele>-0.08</ele>
        <time>2014-05-08T07:39:11.000Z</time>
      </trkpt>
      <trkpt lat="42.98741" lon="6.18701">
        <ele>-0.07</ele>
        <time>2014-05-08T07:39:16.000Z</time>
      </trkpt>
      <trkpt lat="42.98737" lon="6.18709">
        <ele>-0.06</ele>
        <time>2014-05-08T07:39:21.000Z</time>
      </trkpt>
      <trkpt lat="42.98734" lon="6.18718">
        <ele>-0.04</ele>
        <time>2014-05-08T07:39:26.000Z</time>
      </trkpt>
      <trkpt lat="42.98732" lon="6.18728">
        <ele>-0.03</ele>
        <time>2014-05-08T07:39:31.000Z</time>
      </trkpt>
      <trkpt lat="42.98729" lon="6.18738">
        <ele>-0.04</ele>
        <time>2014-05-08T07:39:36.000Z</time>
      </trkpt>
      <trkpt lat="42.98723" lon="6.18747">
        <ele>-0.05</ele>
        <time>2014-05-08T07:39:41.000Z</time>
      </trkpt>
      <trkpt lat="42.98717" lon="6.18752">
        <ele>-0.07</ele>
        <time>2014-05-08T07:39:46.000Z</time>
      </trkpt>
      <trkpt lat="42.98711" lon="6.18756">
        <ele>-0.08</ele>
        <time>2014-05-08T07:39:51.000Z</time>
      </trkpt>
      <trkpt lat="42.98701" lon="6.1876">
        <ele>-0.09</ele>
        <time>2014-05-08T07:39:56.000Z</time>
      </trkpt>
      <trkpt lat="42.98695" lon="6.18766">
        <ele>-0.11</ele>
        <time>2014-05-08T07:40:01.000Z</time>
      </trkpt>
      <trkpt lat="42.9869" lon="6.18775">
        <ele>-0.11</ele>
        <time>2014-05-08T07:40:06.000Z</time>
      </trkpt>
      <trkpt lat="42.98686" lon="6.18783">
        <ele>-0.12</ele>
        <time>2014-05-08T07:40:11.000Z</time>
      </trkpt>
      <trkpt lat="42.98683" lon="6.18793">
        <ele>-0.13</ele>
        <time>2014-05-08T07:40:16.000Z</time>
      </trkpt>
      <trkpt lat="42.98678" lon="6.18802">
        <ele>-0.12</ele>
        <time>2014-05-08T07:40:21.000Z</time>
      </trkpt>
      <trkpt lat="42.98672" lon="6.1881">
        <ele>-0.11</ele>
        <time>2014-05-08T07:40:26.000Z</time>
      </trkpt>
      <trkpt lat="42.98665" lon="6.18815">
        <ele>-0.1</ele>
        <time>2014-05-08T07:40:31.000Z</time>
      </trkpt>
      <trkpt lat="42.9866" lon="6.18824">
        <ele>-0.08</ele>
        <time>2014-05-08T07:40:36.000Z</time>
      </trkpt>
      <trkpt lat="42.98655" lon="6.18833">
        <ele>-0.06</ele>
        <time>2014-05-08T07:40:41.000Z</time>
      </trkpt>
      <trkpt lat="42.98652" lon="6.18842">
        <ele>-0.05</ele>
        <time>2014-05-08T07:40:46.000Z</time>
      </trkpt>
      <trkpt lat="42.98645" lon="6.1885">
        <ele>-0.03</ele>
        <time>2014-05-08T07:40:51.000Z</time>
      </trkpt>
      <trkpt lat="42.98639" lon="6.18857">
        <ele>-0.02</ele>
        <time>2014-05-08T07:40:56.000Z</time>
      </trkpt>
      <trkpt lat="42.98635" lon="6.18866">
        <time>2014-05-08T07:41:01.000Z</time>
      </trkpt>
      <trkpt lat="42.98633" lon="6.18875">
        <time>2014-05-08T07:41:06.000Z</time>
      </trkpt>
      <trkpt lat="42.98628" lon="6.18884">
        <time>2014-05-08T07:41:11.000Z</time>
      </trkpt>
      <trkpt lat="42.98622" lon="6.18891">
        <time>2014-05-08T07:41:16.000Z</time>
      </trkpt>
      <trkpt lat="42.98615" lon="6.18894">
        <ele>-0.01</ele>
        <time>2014-05-08T07:41:21.000Z</time>
      </trkpt>
      <trkpt lat="42.98609" lon="6.18898">
        <ele>-0.01</ele>
        <time>2014-05-08T07:41:26.000Z</time>
      </trkpt>
      <trkpt lat="42.98602" lon="6.18905">
        <ele>-0.02</ele>
        <time>2014-05-08T07:41:31.000Z</time>
      </trkpt>
      <trkpt lat="42.98595" lon="6.18912">
        <ele>-0.03</ele>
        <time>2014-05-08T07:41:36.000Z</time>
      </trkpt>
      <trkpt lat="42.98591" lon="6.18921">
        <ele>-0.03</ele>
        <time>2014-05-08T07:41:41.000Z</time>
      </trkpt>
      <trkpt lat="42.98588" lon="6.18932">
        <ele>-0.04</ele>
        <time>2014-05-08T07:41:46.000Z</time>
      </trkpt>
      <trkpt lat="42.98586" lon="6.18944">
        <ele>-0.04</ele>
        <time>2014-05-08T07:41:51.000Z</time>
      </trkpt>
      <trkpt lat="42.98582" lon="6.18956">
        <ele>-0.04</ele>
        <time>2014-05-08T07:41:56.000Z</time>
      </trkpt>
      <trkpt lat="42.98578" lon="6.18965">
        <ele>-0.04</ele>
        <time>2014-05-08T07:42:01.000Z</time>
      </trkpt>
      <trkpt lat="42.98572" lon="6.18972">
        <ele>-0.04</ele>
        <time>2014-05-08T07:42:06.000Z</time>
      </trkpt>
      <trkpt lat="42.98566" lon="6.18976">
        <ele>-0.04</ele>
        <time>2014-05-08T07:42:11.000Z</time>
      </trkpt>
      <trkpt lat="42.98557" lon="6.18979">
        <ele>-0.05</ele>
        <time>2014-05-08T07:42:16.000Z</time>
      </trkpt>
      <trkpt lat="42.9855" lon="6.1898">
        <ele>-0.04</ele>
        <time>2014-05-08T07:42:21.000Z</time>
      </trkpt>
      <trkpt lat="42.98544" lon="6.18983">
        <ele>-0.04</ele>
        <time>2014-05-08T07:42:26.000Z</time>
      </trkpt>
      <trkpt lat="42.98536" lon="6.18989">
        <ele>-0.03</ele>
        <time>2014-05-08T07:42:31.000Z</time>
      </trkpt>
      <trkpt lat="42.9853" lon="6.18996">
        <ele>-0.02</ele>
        <time>2014-05-08T07:42:36.000Z</time>
      </trkpt>
      <trkpt lat="42.98526" lon="6.19002">
        <ele>-0.01</ele>
        <time>2014-05-08T07:42:41.000Z</time>
      </trkpt>
      <trkpt lat="42.98522" lon="6.19012">
        <time>2014-05-08T07:42:46.000Z</time>
      </trkpt>
      <trkpt lat="42.98518" lon="6.19021">
        <time>2014-05-08T07:42:51.000Z</time>
      </trkpt>
      <trkpt lat="42.98514" lon="6.19027">
        <time>2014-05-08T07:42:56.000Z</time>
      </trkpt>
      <trkpt lat="42.98509" lon="6.19032">
        <time>2014-05-08T07:43:01.000Z</time>
      </trkpt>
      <trkpt lat="42.98504" lon="6.19035">
        <time>2014-05-08T07:43:06.000Z</time>
      </trkpt>
      <trkpt lat="42.985" lon="6.19043">
        <time>2014-05-08T07:43:11.000Z</time>
      </trkpt>
      <trkpt lat="42.98496" lon="6.19052">
        <time>2014-05-08T07:43:16.000Z</time>
      </trkpt>
      <trkpt lat="42.9849" lon="6.19061">
        <time>2014-05-08T07:43:21.000Z</time>
      </trkpt>
      <trkpt lat="42.98484" lon="6.19066">
        <time>2014-05-08T07:43:26.000Z</time>
      </trkpt>
      <trkpt lat="42.98475" lon="6.1907">
        <time>2014-05-08T07:43:31.000Z</time>
      </trkpt>
      <trkpt lat="42.98469" lon="6.1907">
        <time>2014-05-08T07:43:36.000Z</time>
      </trkpt>
      <trkpt lat="42.98464" lon="6.19071">
        <time>2014-05-08T07:43:41.000Z</time>
      </trkpt>
      <trkpt lat="42.98456" lon="6.19077">
        <time>2014-05-08T07:43:46.000Z</time>
      </trkpt>
      <trkpt lat="42.98449" lon="6.19084">
        <time>2014-05-08T07:43:51.000Z</time>
      </trkpt>
      <trkpt lat="42.98443" lon="6.19091">
        <time>2014-05-08T07:43:56.000Z</time>
      </trkpt>
      <trkpt lat="42.98437" lon="6.19099">
        <time>2014-05-08T07:44:01.000Z</time>
      </trkpt>
      <trkpt lat="42.98433" lon="6.19106">
        <time>2014-05-08T07:44:06.000Z</time>
      </trkpt>
      <trkpt lat="42.9843" lon="6.19115">
        <time>2014-05-08T07:44:11.000Z</time>
      </trkpt>
      <trkpt lat="42.98427" lon="6.19122">
        <time>2014-05-08T07:44:16.000Z</time>
      </trkpt>
      <trkpt lat="42.98423" lon="6.19128">
        <time>2014-05-08T07:44:21.000Z</time>
      </trkpt>
      <trkpt lat="42.98417" lon="6.19132">
        <time>2014-05-08T07:44:26.000Z</time>
      </trkpt>
      <trkpt lat="42.9841" lon="6.19135">
        <time>2014-05-08T07:44:31.000Z</time>
      </trkpt>
      <trkpt lat="42.98402" lon="6.19141">
        <time>2014-05-08T07:44:36.000Z</time>
      </trkpt>
      <trkpt lat="42.98396" lon="6.19147">
        <time>2014-05-08T07:44:41.000Z</time>
      </trkpt>
      <trkpt lat="42.98391" lon="6.19154">
        <time>2014-05-08T07:44:46.000Z</time>
      </trkpt>
      <trkpt lat="42.98388" lon="6.19159">
        <time>2014-05-08T07:44:51.000Z</time>
      </trkpt>
      <trkpt lat="42.98382" lon="6.19164">
        <time>2014-05-08T07:44:56.000Z</time>
      </trkpt>
      <trkpt lat="42.98376" lon="6.19167">
        <time>2014-05-08T07:45:01.000Z</time>
      </trkpt>
      <trkpt lat="42.98368" lon="6.19174">
        <time>2014-05-08T07:45:06.000Z</time>
      </trkpt>
      <trkpt lat="42.98362" lon="6.1918">
        <time>2014-05-08T07:45:11.000Z</time>
      </trkpt>
      <trkpt lat="42.98358" lon="6.19188">
        <time>2014-05-08T07:45:16.000Z</time>
      </trkpt>
      <trkpt lat="42.98353" lon="6.19196">
        <time>2014-05-08T07:45:21.000Z</time>
      </trkpt>
      <trkpt lat="42.98351" lon="6.19206">
        <time>2014-05-08T07:45:26.000Z</time>
      </trkpt>
      <trkpt lat="42.9835" lon="6.19214">
        <time>2014-05-08T07:45:31.000Z</time>
      </trkpt>
      <trkpt lat="42.98347" lon="6.19225">
        <time>2014-05-08T07:45:36.000Z</time>
      </trkpt>
      <trkpt lat="42.98341" lon="6.19232">
        <time>2014-05-08T07:45:41.000Z</time>
      </trkpt>
      <trkpt lat="42.98336" lon="6.19238">
        <time>2014-05-08T07:45:46.000Z</time>
      </trkpt>
      <trkpt lat="42.98331" lon="6.19246">
        <time>2014-05-08T07:45:51.000Z</time>
      </trkpt>
      <trkpt lat="42.98328" lon="6.19257">
        <time>2014-05-08T07:45:56.000Z</time>
      </trkpt>
      <trkpt lat="42.98324" lon="6.19264">
        <time>2014-05-08T07:46:01.000Z</time>
      </trkpt>
      <trkpt lat="42.98318" lon="6.19269">
        <time>2014-05-08T07:46:06.000Z</time>
      </trkpt>
      <trkpt lat="42.98312" lon="6.19276">
        <time>2014-05-08T07:46:11.000Z</time>
      </trkpt>
      <trkpt lat="42.98307" lon="6.19283">
        <time>2014-05-08T07:46:16.000Z</time>
      </trkpt>
      <trkpt lat="42.983" lon="6.19294">
        <time>2014-05-08T07:46:21.000Z</time>
      </trkpt>
      <trkpt lat="42.98296" lon="6.19304">
        <time>2014-05-08T07:46:26.000Z</time>
      </trkpt>
      <trkpt lat="42.98293" lon="6.19311">
        <time>2014-05-08T07:46:31.000Z</time>
      </trkpt>
      <trkpt lat="42.98291" lon="6.19319">
        <time>2014-05-08T07:46:36.000Z</time>
      </trkpt>
      <trkpt lat="42.98289" lon="6.19325">
        <time>2014-05-08T07:46:41.000Z</time>
      </trkpt>
      <trkpt lat="42.98285" lon="6.1933">
        <time>2014-05-08T07:46:46.000Z</time>
      </trkpt>
      <trkpt lat="42.9828" lon="6.19334">
        <time>2014-05-08T07:46:51.000Z</time>
      </trkpt>
      <trkpt lat="42.98273" lon="6.19337">
        <time>2014-05-08T07:46:56.000Z</time>
      </trkpt>
      <trkpt lat="42.98267" lon="6.1934">
        <time>2014-05-08T07:47:01.000Z</time>
      </trkpt>
      <trkpt lat="42.98262" lon="6.19344">
        <time>2014-05-08T07:47:06.000Z</time>
      </trkpt>
      <trkpt lat="42.98256" lon="6.19353">
        <time>2014-05-08T07:47:11.000Z</time>
      </trkpt>
      <trkpt lat="42.98252" lon="6.1936">
        <time>2014-05-08T07:47:16.000Z</time>
      </trkpt>
      <trkpt lat="42.98249" lon="6.19369">
        <time>2014-05-08T07:47:21.000Z</time>
      </trkpt>
      <trkpt lat="42.98246" lon="6.19378">
        <time>2014-05-08T07:47:26.000Z</time>
      </trkpt>
      <trkpt lat="42.98244" lon="6.19385">
        <time>2014-05-08T07:47:31.000Z</time>
      </trkpt>
      <trkpt lat="42.98243" lon="6.1939">
        <time>2014-05-08T07:47:36.000Z</time>
      </trkpt>
      <trkpt lat="42.98239" lon="6.194">
        <time>2014-05-08T07:47:41.000Z</time>
      </trkpt>
      <trkpt lat="42.98235" lon="6.19406">
        <time>2014-05-08T07:47:46.000Z</time>
      </trkpt>
      <trkpt lat="42.98229" lon="6.19411">
        <time>2014-05-08T07:47:51.000Z</time>
      </trkpt>
      <trkpt lat="42.98224" lon="6.19414">
        <time>2014-05-08T07:47:56.000Z</time>
      </trkpt>
      <trkpt lat="42.98219" lon="6.1942">
        <time>2014-05-08T07:48:01.000Z</time>
      </trkpt>
      <trkpt lat="42.98216" lon="6.19428">
        <time>2014-05-08T07:48:06.000Z</time>
      </trkpt>
      <trkpt lat="42.98215" lon="6.19438">
        <time>2014-05-08T07:48:11.000Z</time>
      </trkpt>
      <trkpt lat="42.98214" lon="6.19448">
        <time>2014-05-08T07:48:16.000Z</time>
      </trkpt>
      <trkpt lat="42.98213" lon="6.19454">
        <time>2014-05-08T07:48:21.000Z</time>
      </trkpt>
      <trkpt lat="42.9821" lon="6.19463">
        <time>2014-05-08T07:48:26.000Z</time>
      </trkpt>
      <trkpt lat="42.98206" lon="6.19469">
        <time>2014-05-08T07:48:31.000Z</time>
      </trkpt>
      <trkpt lat="42.98205" lon="6.19472">
        <time>2014-05-08T07:48:36.000Z</time>
      </trkpt>
      <trkpt lat="42.98205" lon="6.19472">
        <time>2014-05-08T07:48:41.000Z</time>
      </trkpt>
      <trkpt lat="42.98203" lon="6.19473">
        <time>2014-05-08T07:48:51.000Z</time>
      </trkpt>
      <trkpt lat="42.98203" lon="6.19469">
        <time>2014-05-08T07:48:56.000Z</time>
      </trkpt>
      <trkpt lat="42.98202" lon="6.19469">
        <time>2014-05-08T07:49:01.000Z</time>
      </trkpt>
      <trkpt lat="42.98201" lon="6.19473">
        <time>2014-05-08T07:49:06.000Z</time>
      </trkpt>
      <trkpt lat="42.98199" lon="6.19482">
        <time>2014-05-08T07:49:11.000Z</time>
      </trkpt>
      <trkpt lat="42.98195" lon="6.19493">
        <time>2014-05-08T07:49:16.000Z</time>
      </trkpt>
      <trkpt lat="42.98195" lon="6.19499">
        <time>2014-05-08T07:49:21.000Z</time>
      </trkpt>
      <trkpt lat="42.98192" lon="6.19507">
        <time>2014-05-08T07:49:26.000Z</time>
      </trkpt>
      <trkpt lat="42.9819" lon="6.19511">
        <time>2014-05-08T07:49:31.000Z</time>
      </trkpt>
      <trkpt lat="42.98189" lon="6.19518">
        <time>2014-05-08T07:49:36.000Z</time>
      </trkpt>
      <trkpt lat="42.9819" lon="6.19526">
        <time>2014-05-08T07:49:41.000Z</time>
      </trkpt>
      <trkpt lat="42.98191" lon="6.19533">
        <time>2014-05-08T07:49:46.000Z</time>
      </trkpt>
      <trkpt lat="42.9819" lon="6.19539">
        <time>2014-05-08T07:49:51.000Z</time>
      </trkpt>
      <trkpt lat="42.98187" lon="6.19549">
        <time>2014-05-08T07:49:56.000Z</time>
      </trkpt>
      <trkpt lat="42.98182" lon="6.19555">
        <time>2014-05-08T07:50:01.000Z</time>
      </trkpt>
      <trkpt lat="42.98178" lon="6.19563">
        <time>2014-05-08T07:50:06.000Z</time>
      </trkpt>
      <trkpt lat="42.98175" lon="6.19571">
        <time>2014-05-08T07:50:11.000Z</time>
      </trkpt>
      <trkpt lat="42.98172" lon="6.19581">
        <time>2014-05-08T07:50:16.000Z</time>
      </trkpt>
      <trkpt lat="42.98172" lon="6.1959">
        <time>2014-05-08T07:50:21.000Z</time>
      </trkpt>
      <trkpt lat="42.98172" lon="6.19596">
        <time>2014-05-08T07:50:26.000Z</time>
      </trkpt>
      <trkpt lat="42.98173" lon="6.19604">
        <time>2014-05-08T07:50:31.000Z</time>
      </trkpt>
      <trkpt lat="42.98173" lon="6.19612">
        <time>2014-05-08T07:50:36.000Z</time>
      </trkpt>
      <trkpt lat="42.98169" lon="6.1962">
        <time>2014-05-08T07:50:41.000Z</time>
      </trkpt>
      <trkpt lat="42.98165" lon="6.19626">
        <time>2014-05-08T07:50:46.000Z</time>
      </trkpt>
      <trkpt lat="42.98161" lon="6.19633">
        <time>2014-05-08T07:50:51.000Z</time>
      </trkpt>
      <trkpt lat="42.98158" lon="6.19643">
        <time>2014-05-08T07:50:56.000Z</time>
      </trkpt>
      <trkpt lat="42.98157" lon="6.19652">
        <time>2014-05-08T07:51:01.000Z</time>
      </trkpt>
      <trkpt lat="42.98156" lon="6.1966">
        <time>2014-05-08T07:51:06.000Z</time>
      </trkpt>
      <trkpt lat="42.98156" lon="6.19669">
        <time>2014-05-08T07:51:11.000Z</time>
      </trkpt>
      <trkpt lat="42.98157" lon="6.19679">
        <time>2014-05-08T07:51:16.000Z</time>
      </trkpt>
      <trkpt lat="42.98156" lon="6.19689">
        <ele>0.03</ele>
        <time>2014-05-08T07:51:21.000Z</time>
      </trkpt>
      <trkpt lat="42.98151" lon="6.19697">
        <ele>0.05</ele>
        <time>2014-05-08T07:51:26.000Z</time>
      </trkpt>
      <trkpt lat="42.9815" lon="6.19705">
        <ele>0.08</ele>
        <time>2014-05-08T07:51:31.000Z</time>
      </trkpt>
      <trkpt lat="42.98149" lon="6.19714">
        <ele>0.13</ele>
        <time>2014-05-08T07:51:36.000Z</time>
      </trkpt>
      <trkpt lat="42.98149" lon="6.19725">
        <ele>0.17</ele>
        <time>2014-05-08T07:51:41.000Z</time>
      </trkpt>
      <trkpt lat="42.9815" lon="6.19734">
        <ele>0.22</ele>
        <time>2014-05-08T07:51:46.000Z</time>
      </trkpt>
      <trkpt lat="42.9815" lon="6.19742">
        <ele>0.22</ele>
        <time>2014-05-08T07:51:51.000Z</time>
      </trkpt>
      <trkpt lat="42.98147" lon="6.1975">
        <ele>0.22</ele>
        <time>2014-05-08T07:51:56.000Z</time>
      </trkpt>
      <trkpt lat="42.98144" lon="6.19756">
        <ele>0.22</ele>
        <time>2014-05-08T07:52:01.000Z</time>
      </trkpt>
      <trkpt lat="42.98143" lon="6.1976">
        <ele>0.15</ele>
        <time>2014-05-08T07:52:06.000Z</time>
      </trkpt>
      <trkpt lat="42.98139" lon="6.19764">
        <ele>0.07</ele>
        <time>2014-05-08T07:52:11.000Z</time>
      </trkpt>
      <trkpt lat="42.98133" lon="6.19767">
        <time>2014-05-08T07:52:16.000Z</time>
      </trkpt>
      <trkpt lat="42.98127" lon="6.19771">
        <time>2014-05-08T07:52:21.000Z</time>
      </trkpt>
      <trkpt lat="42.98122" lon="6.19773">
        <time>2014-05-08T07:52:26.000Z</time>
      </trkpt>
      <trkpt lat="42.98115" lon="6.19779">
        <time>2014-05-08T07:52:31.000Z</time>
      </trkpt>
      <trkpt lat="42.98111" lon="6.19786">
        <time>2014-05-08T07:52:36.000Z</time>
      </trkpt>
      <trkpt lat="42.98107" lon="6.19794">
        <time>2014-05-08T07:52:41.000Z</time>
      </trkpt>
      <trkpt lat="42.98105" lon="6.19802">
        <time>2014-05-08T07:52:46.000Z</time>
      </trkpt>
      <trkpt lat="42.98104" lon="6.19812">
        <time>2014-05-08T07:52:51.000Z</time>
      </trkpt>
      <trkpt lat="42.98104" lon="6.1982">
        <time>2014-05-08T07:52:56.000Z</time>
      </trkpt>
      <trkpt lat="42.98104" lon="6.19829">
        <time>2014-05-08T07:53:01.000Z</time>
      </trkpt>
      <trkpt lat="42.98106" lon="6.19838">
        <time>2014-05-08T07:53:06.000Z</time>
      </trkpt>
      <trkpt lat="42.98106" lon="6.19845">
        <time>2014-05-08T07:53:11.000Z</time>
      </trkpt>
      <trkpt lat="42.98106" lon="6.19853">
        <time>2014-05-08T07:53:16.000Z</time>
      </trkpt>
      <trkpt lat="42.98105" lon="6.19861">
        <time>2014-05-08T07:53:21.000Z</time>
      </trkpt>
      <trkpt lat="42.98102" lon="6.19869">
        <time>2014-05-08T07:53:26.000Z</time>
      </trkpt>
      <trkpt lat="42.98097" lon="6.19875">
        <time>2014-05-08T07:53:31.000Z</time>
      </trkpt>
      <trkpt lat="42.98093" lon="6.19883">
        <ele>0.02</ele>
        <time>2014-05-08T07:53:36.000Z</time>
      </trkpt>
      <trkpt lat="42.98091" lon="6.19894">
        <ele>0.05</ele>
        <time>2014-05-08T07:53:41.000Z</time>
      </trkpt>
      <trkpt lat="42.9809" lon="6.19904">
        <ele>0.07</ele>
        <time>2014-05-08T07:53:46.000Z</time>
      </trkpt>
      <trkpt lat="42.98091" lon="6.19914">
        <ele>0.16</ele>
        <time>2014-05-08T07:53:51.000Z</time>
      </trkpt>
      <trkpt lat="42.98093" lon="6.19924">
        <ele>0.26</ele>
        <time>2014-05-08T07:53:56.000Z</time>
      </trkpt>
      <trkpt lat="42.98097" lon="6.19934">
        <ele>0.35</ele>
        <time>2014-05-08T07:54:01.000Z</time>
      </trkpt>
      <trkpt lat="42.981" lon="6.19942">
        <ele>0.43</ele>
        <time>2014-05-08T07:54:06.000Z</time>
      </trkpt>
      <trkpt lat="42.98102" lon="6.19951">
        <ele>0.51</ele>
        <time>2014-05-08T07:54:11.000Z</time>
      </trkpt>
      <trkpt lat="42.98102" lon="6.19961">
        <ele>0.6</ele>
        <time>2014-05-08T07:54:16.000Z</time>
      </trkpt>
      <trkpt lat="42.98099" lon="6.19971">
        <ele>0.5</ele>
        <time>2014-05-08T07:54:21.000Z</time>
      </trkpt>
      <trkpt lat="42.98096" lon="6.1998">
        <ele>0.4</ele>
        <time>2014-05-08T07:54:26.000Z</time>
      </trkpt>
      <trkpt lat="42.98093" lon="6.19988">
        <ele>0.31</ele>
        <time>2014-05-08T07:54:31.000Z</time>
      </trkpt>
      <trkpt lat="42.98092" lon="6.19998">
        <ele>0.24</ele>
        <time>2014-05-08T07:54:36.000Z</time>
      </trkpt>
      <trkpt lat="42.98092" lon="6.20011">
        <ele>0.17</ele>
        <time>2014-05-08T07:54:41.000Z</time>
      </trkpt>
      <trkpt lat="42.98094" lon="6.20022">
        <ele>0.1</ele>
        <time>2014-05-08T07:54:46.000Z</time>
      </trkpt>
      <trkpt lat="42.98095" lon="6.20029">
        <ele>0.09</ele>
        <time>2014-05-08T07:54:51.000Z</time>
      </trkpt>
      <trkpt lat="42.98095" lon="6.20029">
        <ele>0.09</ele>
        <time>2014-05-08T07:54:56.000Z</time>
      </trkpt>
      <trkpt lat="42.98097" lon="6.20029">
        <ele>0.09</ele>
        <time>2014-05-08T07:55:01.000Z</time>
      </trkpt>
      <trkpt lat="42.98097" lon="6.20031">
        <ele>0.06</ele>
        <time>2014-05-08T07:55:06.000Z</time>
      </trkpt>
      <trkpt lat="42.98097" lon="6.20034">
        <ele>0.03</ele>
        <time>2014-05-08T07:55:11.000Z</time>
      </trkpt>
      <trkpt lat="42.98097" lon="6.20039">
        <time>2014-05-08T07:55:16.000Z</time>
      </trkpt>
      <trkpt lat="42.98099" lon="6.20044">
        <time>2014-05-08T07:55:21.000Z</time>
      </trkpt>
      <trkpt lat="42.981" lon="6.20054">
        <time>2014-05-08T07:55:26.000Z</time>
      </trkpt>
      <trkpt lat="42.981" lon="6.20061">
        <time>2014-05-08T07:55:31.000Z</time>
      </trkpt>
      <trkpt lat="42.981" lon="6.20065">
        <time>2014-05-08T07:55:36.000Z</time>
      </trkpt>
      <trkpt lat="42.98101" lon="6.20072">
        <time>2014-05-08T07:55:41.000Z</time>
      </trkpt>
      <trkpt lat="42.98101" lon="6.2008">
        <time>2014-05-08T07:55:46.000Z</time>
      </trkpt>
      <trkpt lat="42.981" lon="6.2009">
        <time>2014-05-08T07:55:51.000Z</time>
      </trkpt>
      <trkpt lat="42.98099" lon="6.20099">
        <time>2014-05-08T07:55:56.000Z</time>
      </trkpt>
      <trkpt lat="42.98098" lon="6.20108">
        <time>2014-05-08T07:56:01.000Z</time>
      </trkpt>
      <trkpt lat="42.981" lon="6.20116">
        <time>2014-05-08T07:56:06.000Z</time>
      </trkpt>
      <trkpt lat="42.98103" lon="6.20127">
        <time>2014-05-08T07:56:11.000Z</time>
      </trkpt>
      <trkpt lat="42.98102" lon="6.20136">
        <time>2014-05-08T07:56:16.000Z</time>
      </trkpt>
      <trkpt lat="42.981" lon="6.20146">
        <time>2014-05-08T07:56:21.000Z</time>
      </trkpt>
      <trkpt lat="42.981" lon="6.20157">
        <time>2014-05-08T07:56:26.000Z</time>
      </trkpt>
      <trkpt lat="42.981" lon="6.20167">
        <time>2014-05-08T07:56:31.000Z</time>
      </trkpt>
      <trkpt lat="42.98103" lon="6.20176">
        <time>2014-05-08T07:56:36.000Z</time>
      </trkpt>
      <trkpt lat="42.98105" lon="6.20186">
        <time>2014-05-08T07:56:41.000Z</time>
      </trkpt>
      <trkpt lat="42.98108" lon="6.20195">
        <time>2014-05-08T07:56:46.000Z</time>
      </trkpt>
      <trkpt lat="42.98108" lon="6.20204">
        <time>2014-05-08T07:56:51.000Z</time>
      </trkpt>
      <trkpt lat="42.98107" lon="6.20214">
        <time>2014-05-08T07:56:56.000Z</time>
      </trkpt>
      <trkpt lat="42.98105" lon="6.20224">
        <time>2014-05-08T07:57:01.000Z</time>
      </trkpt>
      <trkpt lat="42.98105" lon="6.20235">
        <time>2014-05-08T07:57:06.000Z</time>
      </trkpt>
      <trkpt lat="42.98107" lon="6.20245">
        <time>2014-05-08T07:57:11.000Z</time>
      </trkpt>
      <trkpt lat="42.98109" lon="6.20256">
        <time>2014-05-08T07:57:16.000Z</time>
      </trkpt>
      <trkpt lat="42.98111" lon="6.20266">
        <time>2014-05-08T07:57:21.000Z</time>
      </trkpt>
      <trkpt lat="42.98113" lon="6.20278">
        <time>2014-05-08T07:57:26.000Z</time>
      </trkpt>
      <trkpt lat="42.98116" lon="6.20285">
        <time>2014-05-08T07:57:31.000Z</time>
      </trkpt>
      <trkpt lat="42.98118" lon="6.20292">
        <time>2014-05-08T07:57:36.000Z</time>
      </trkpt>
      <trkpt lat="42.98118" lon="6.20304">
        <time>2014-05-08T07:57:41.000Z</time>
      </trkpt>
      <trkpt lat="42.98116" lon="6.20314">
        <time>2014-05-08T07:57:46.000Z</time>
      </trkpt>
      <trkpt lat="42.98115" lon="6.20324">
        <time>2014-05-08T07:57:51.000Z</time>
      </trkpt>
      <trkpt lat="42.98115" lon="6.20333">
        <time>2014-05-08T07:57:56.000Z</time>
      </trkpt>
      <trkpt lat="42.98119" lon="6.20346">
        <time>2014-05-08T07:58:01.000Z</time>
      </trkpt>
      <trkpt lat="42.98123" lon="6.20356">
        <ele>0.14</ele>
        <time>2014-05-08T07:58:06.000Z</time>
      </trkpt>
      <trkpt lat="42.98128" lon="6.20364">
        <ele>0.28</ele>
        <time>2014-05-08T07:58:11.000Z</time>
      </trkpt>
      <trkpt lat="42.98132" lon="6.20373">
        <ele>0.42</ele>
        <time>2014-05-08T07:58:16.000Z</time>
      </trkpt>
      <trkpt lat="42.98134" lon="6.20381">
        <ele>0.46</ele>
        <time>2014-05-08T07:58:21.000Z</time>
      </trkpt>
      <trkpt lat="42.98135" lon="6.20392">
        <ele>0.5</ele>
        <time>2014-05-08T07:58:26.000Z</time>
      </trkpt>
      <trkpt lat="42.98135" lon="6.204">
        <ele>0.54</ele>
        <time>2014-05-08T07:58:31.000Z</time>
      </trkpt>
      <trkpt lat="42.98136" lon="6.20409">
        <ele>0.61</ele>
        <time>2014-05-08T07:58:36.000Z</time>
      </trkpt>
      <trkpt lat="42.98135" lon="6.20418">
        <ele>0.68</ele>
        <time>2014-05-08T07:58:41.000Z</time>
      </trkpt>
      <trkpt lat="42.98137" lon="6.20428">
        <ele>0.74</ele>
        <time>2014-05-08T07:58:46.000Z</time>
      </trkpt>
      <trkpt lat="42.98139" lon="6.20437">
        <ele>0.94</ele>
        <time>2014-05-08T07:58:51.000Z</time>
      </trkpt>
      <trkpt lat="42.98142" lon="6.20446">
        <ele>1.13</ele>
        <time>2014-05-08T07:58:56.000Z</time>
      </trkpt>
      <trkpt lat="42.98146" lon="6.20454">
        <ele>1.33</ele>
        <time>2014-05-08T07:59:01.000Z</time>
      </trkpt>
      <trkpt lat="42.98149" lon="6.20461">
        <ele>1.37</ele>
        <time>2014-05-08T07:59:06.000Z</time>
      </trkpt>
      <trkpt lat="42.98152" lon="6.2047">
        <ele>1.42</ele>
        <time>2014-05-08T07:59:11.000Z</time>
      </trkpt>
      <trkpt lat="42.98153" lon="6.20479">
        <ele>1.46</ele>
        <time>2014-05-08T07:59:16.000Z</time>
      </trkpt>
      <trkpt lat="42.98151" lon="6.20489">
        <ele>1.59</ele>
        <time>2014-05-08T07:59:21.000Z</time>
      </trkpt>
      <trkpt lat="42.98152" lon="6.20498">
        <ele>1.72</ele>
        <time>2014-05-08T07:59:26.000Z</time>
      </trkpt>
      <trkpt lat="42.98156" lon="6.20507">
        <ele>1.84</ele>
        <time>2014-05-08T07:59:31.000Z</time>
      </trkpt>
      <trkpt lat="42.98158" lon="6.20516">
        <ele>2.1</ele>
        <time>2014-05-08T07:59:36.000Z</time>
      </trkpt>
      <trkpt lat="42.98161" lon="6.20525">
        <ele>2.36</ele>
        <time>2014-05-08T07:59:41.000Z</time>
      </trkpt>
      <trkpt lat="42.98166" lon="6.20532">
        <ele>2.62</ele>
        <time>2014-05-08T07:59:46.000Z</time>
      </trkpt>
      <trkpt lat="42.98168" lon="6.2054">
        <ele>2.67</ele>
        <time>2014-05-08T07:59:51.000Z</time>
      </trkpt>
      <trkpt lat="42.9817" lon="6.20549">
        <ele>2.71</ele>
        <time>2014-05-08T07:59:56.000Z</time>
      </trkpt>
      <trkpt lat="42.98169" lon="6.20557">
        <ele>2.76</ele>
        <time>2014-05-08T08:00:01.000Z</time>
      </trkpt>
      <trkpt lat="42.98167" lon="6.20564">
        <ele>2.94</ele>
        <time>2014-05-08T08:00:06.000Z</time>
      </trkpt>
      <trkpt lat="42.98167" lon="6.20573">
        <ele>3.12</ele>
        <time>2014-05-08T08:00:11.000Z</time>
      </trkpt>
      <trkpt lat="42.98169" lon="6.20584">
        <ele>3.29</ele>
        <time>2014-05-08T08:00:16.000Z</time>
      </trkpt>
      <trkpt lat="42.98172" lon="6.20592">
        <ele>3.5</ele>
        <time>2014-05-08T08:00:21.000Z</time>
      </trkpt>
      <trkpt lat="42.98175" lon="6.206">
        <ele>3.7</ele>
        <time>2014-05-08T08:00:26.000Z</time>
      </trkpt>
      <trkpt lat="42.98179" lon="6.20608">
        <ele>3.9</ele>
        <time>2014-05-08T08:00:31.000Z</time>
      </trkpt>
      <trkpt lat="42.98184" lon="6.20614">
        <ele>4.11</ele>
        <time>2014-05-08T08:00:36.000Z</time>
      </trkpt>
      <trkpt lat="42.98188" lon="6.2062">
        <ele>4.33</ele>
        <time>2014-05-08T08:00:41.000Z</time>
      </trkpt>
      <trkpt lat="42.98193" lon="6.20624">
        <ele>4.54</ele>
        <time>2014-05-08T08:00:46.000Z</time>
      </trkpt>
      <trkpt lat="42.98195" lon="6.20625">
        <ele>4.8</ele>
        <time>2014-05-08T08:00:51.000Z</time>
      </trkpt>
      <trkpt lat="42.98196" lon="6.20625">
        <ele>5.07</ele>
        <time>2014-05-08T08:00:56.000Z</time>
      </trkpt>
      <trkpt lat="42.98198" lon="6.20628">
        <ele>5.33</ele>
        <time>2014-05-08T08:01:01.000Z</time>
      </trkpt>
      <trkpt lat="42.982" lon="6.20632">
        <ele>5.49</ele>
        <time>2014-05-08T08:01:06.000Z</time>
      </trkpt>
      <trkpt lat="42.98202" lon="6.20635">
        <ele>5.64</ele>
        <time>2014-05-08T08:01:11.000Z</time>
      </trkpt>
      <trkpt lat="42.98203" lon="6.20636">
        <ele>5.8</ele>
        <time>2014-05-08T08:01:16.000Z</time>
      </trkpt>
      <trkpt lat="42.98203" lon="6.20637">
        <ele>5.68</ele>
        <time>2014-05-08T08:01:21.000Z</time>
      </trkpt>
      <trkpt lat="42.98201" lon="6.20638">
        <ele>5.56</ele>
        <time>2014-05-08T08:01:26.000Z</time>
      </trkpt>
      <trkpt lat="42.98201" lon="6.20638">
        <ele>5.44</ele>
        <time>2014-05-08T08:01:31.000Z</time>
      </trkpt>
      <trkpt lat="42.98202" lon="6.2064">
        <ele>5.52</ele>
        <time>2014-05-08T08:01:36.000Z</time>
      </trkpt>
      <trkpt lat="42.98202" lon="6.20643">
        <ele>5.6</ele>
        <time>2014-05-08T08:01:41.000Z</time>
      </trkpt>
      <trkpt lat="42.98204" lon="6.20647">
        <ele>5.69</ele>
        <time>2014-05-08T08:01:46.000Z</time>
      </trkpt>
      <trkpt lat="42.98204" lon="6.20646">
        <ele>5.67</ele>
        <time>2014-05-08T08:01:51.000Z</time>
      </trkpt>
      <trkpt lat="42.98205" lon="6.20645">
        <ele>5.64</ele>
        <time>2014-05-08T08:01:56.000Z</time>
      </trkpt>
      <trkpt lat="42.98205" lon="6.20646">
        <ele>5.62</ele>
        <time>2014-05-08T08:02:01.000Z</time>
      </trkpt>
      <trkpt lat="42.98204" lon="6.20647">
        <ele>5.85</ele>
        <time>2014-05-08T08:02:06.000Z</time>
      </trkpt>
      <trkpt lat="42.98205" lon="6.20647">
        <ele>6.08</ele>
        <time>2014-05-08T08:02:11.000Z</time>
      </trkpt>
      <trkpt lat="42.98205" lon="6.20648">
        <ele>6.31</ele>
        <time>2014-05-08T08:02:16.000Z</time>
      </trkpt>
      <trkpt lat="42.98208" lon="6.2065">
        <ele>6.37</ele>
        <time>2014-05-08T08:02:21.000Z</time>
      </trkpt>
      <trkpt lat="42.98208" lon="6.20652">
        <ele>6.43</ele>
        <time>2014-05-08T08:02:26.000Z</time>
      </trkpt>
      <trkpt lat="42.98208" lon="6.20654">
        <ele>6.49</ele>
        <time>2014-05-08T08:02:31.000Z</time>
      </trkpt>
      <trkpt lat="42.9821" lon="6.20655">
        <ele>6.45</ele>
        <time>2014-05-08T08:02:36.000Z</time>
      </trkpt>
      <trkpt lat="42.9821" lon="6.20654">
        <ele>6.41</ele>
        <time>2014-05-08T08:02:41.000Z</time>
      </trkpt>
      <trkpt lat="42.98207" lon="6.20653">
        <ele>6.36</ele>
        <time>2014-05-08T08:02:46.000Z</time>
      </trkpt>
      <trkpt lat="42.98209" lon="6.20653">
        <ele>6.74</ele>
        <time>2014-05-08T08:02:51.000Z</time>
      </trkpt>
      <trkpt lat="42.98213" lon="6.20654">
        <ele>7.12</ele>
        <time>2014-05-08T08:02:56.000Z</time>
      </trkpt>
      <trkpt lat="42.98216" lon="6.20658">
        <ele>7.5</ele>
        <time>2014-05-08T08:03:01.000Z</time>
      </trkpt>
      <trkpt lat="42.98218" lon="6.20661">
        <ele>7.5</ele>
        <time>2014-05-08T08:03:06.000Z</time>
      </trkpt>
      <trkpt lat="42.9822" lon="6.20663">
        <ele>7.49</ele>
        <time>2014-05-08T08:03:11.000Z</time>
      </trkpt>
      <trkpt lat="42.98222" lon="6.20668">
        <ele>7.49</ele>
        <time>2014-05-08T08:03:16.000Z</time>
      </trkpt>
      <trkpt lat="42.98224" lon="6.20675">
        <ele>7.51</ele>
        <time>2014-05-08T08:03:21.000Z</time>
      </trkpt>
      <trkpt lat="42.98227" lon="6.20682">
        <ele>7.53</ele>
        <time>2014-05-08T08:03:26.000Z</time>
      </trkpt>
      <trkpt lat="42.98232" lon="6.20688">
        <ele>7.55</ele>
        <time>2014-05-08T08:03:31.000Z</time>
      </trkpt>
      <trkpt lat="42.98237" lon="6.20695">
        <ele>7.15</ele>
        <time>2014-05-08T08:03:36.000Z</time>
      </trkpt>
      <trkpt lat="42.98243" lon="6.20703">
        <ele>6.74</ele>
        <time>2014-05-08T08:03:41.000Z</time>
      </trkpt>
      <trkpt lat="42.98246" lon="6.20712">
        <ele>6.33</ele>
        <time>2014-05-08T08:03:46.000Z</time>
      </trkpt>
      <trkpt lat="42.98248" lon="6.20721">
        <ele>5.72</ele>
        <time>2014-05-08T08:03:51.000Z</time>
      </trkpt>
      <trkpt lat="42.98248" lon="6.20731">
        <ele>5.12</ele>
        <time>2014-05-08T08:03:56.000Z</time>
      </trkpt>
      <trkpt lat="42.98249" lon="6.20741">
        <ele>4.52</ele>
        <time>2014-05-08T08:04:01.000Z</time>
      </trkpt>
      <trkpt lat="42.9825" lon="6.20754">
        <ele>4.23</ele>
        <time>2014-05-08T08:04:06.000Z</time>
      </trkpt>
      <trkpt lat="42.98253" lon="6.20764">
        <ele>3.94</ele>
        <time>2014-05-08T08:04:11.000Z</time>
      </trkpt>
      <trkpt lat="42.98258" lon="6.20774">
        <ele>3.66</ele>
        <time>2014-05-08T08:04:16.000Z</time>
      </trkpt>
      <trkpt lat="42.98262" lon="6.20784">
        <ele>4.37</ele>
        <time>2014-05-08T08:04:21.000Z</time>
      </trkpt>
      <trkpt lat="42.98268" lon="6.20792">
        <ele>5.08</ele>
        <time>2014-05-08T08:04:26.000Z</time>
      </trkpt>
      <trkpt lat="42.98274" lon="6.20796">
        <ele>5.79</ele>
        <time>2014-05-08T08:04:31.000Z</time>
      </trkpt>
      <trkpt lat="42.98279" lon="6.20802">
        <ele>5.91</ele>
        <time>2014-05-08T08:04:36.000Z</time>
      </trkpt>
      <trkpt lat="42.98284" lon="6.2081">
        <ele>6.03</ele>
        <time>2014-05-08T08:04:41.000Z</time>
      </trkpt>
      <trkpt lat="42.98288" lon="6.20819">
        <ele>6.15</ele>
        <time>2014-05-08T08:04:46.000Z</time>
      </trkpt>
      <trkpt lat="42.98291" lon="6.20829">
        <ele>6.16</ele>
        <time>2014-05-08T08:04:51.000Z</time>
      </trkpt>
      <trkpt lat="42.98296" lon="6.20838">
        <ele>6.18</ele>
        <time>2014-05-08T08:04:56.000Z</time>
      </trkpt>
      <trkpt lat="42.983" lon="6.20843">
        <ele>6.19</ele>
        <time>2014-05-08T08:05:01.000Z</time>
      </trkpt>
      <trkpt lat="42.98308" lon="6.20852">
        <ele>5.7</ele>
        <time>2014-05-08T08:05:06.000Z</time>
      </trkpt>
      <trkpt lat="42.98313" lon="6.2086">
        <ele>5.21</ele>
        <time>2014-05-08T08:05:11.000Z</time>
      </trkpt>
      <trkpt lat="42.98317" lon="6.20869">
        <ele>4.71</ele>
        <time>2014-05-08T08:05:16.000Z</time>
      </trkpt>
      <trkpt lat="42.9832" lon="6.20879">
        <ele>4.14</ele>
        <time>2014-05-08T08:05:21.000Z</time>
      </trkpt>
      <trkpt lat="42.98324" lon="6.2089">
        <ele>3.56</ele>
        <time>2014-05-08T08:05:26.000Z</time>
      </trkpt>
      <trkpt lat="42.9833" lon="6.20898">
        <ele>2.99</ele>
        <time>2014-05-08T08:05:31.000Z</time>
      </trkpt>
      <trkpt lat="42.98335" lon="6.20906">
        <ele>2.75</ele>
        <time>2014-05-08T08:05:36.000Z</time>
      </trkpt>
      <trkpt lat="42.98341" lon="6.20913">
        <ele>2.51</ele>
        <time>2014-05-08T08:05:41.000Z</time>
      </trkpt>
      <trkpt lat="42.98347" lon="6.20918">
        <ele>2.28</ele>
        <time>2014-05-08T08:05:46.000Z</time>
      </trkpt>
      <trkpt lat="42.98356" lon="6.20921">
        <ele>1.73</ele>
        <time>2014-05-08T08:05:51.000Z</time>
      </trkpt>
      <trkpt lat="42.98363" lon="6.20923">
        <ele>1.18</ele>
        <time>2014-05-08T08:05:56.000Z</time>
      </trkpt>
      <trkpt lat="42.98371" lon="6.20929">
        <ele>0.63</ele>
        <time>2014-05-08T08:06:01.000Z</time>
      </trkpt>
      <trkpt lat="42.98378" lon="6.20938">
        <ele>0.58</ele>
        <time>2014-05-08T08:06:06.000Z</time>
      </trkpt>
      <trkpt lat="42.98384" lon="6.20946">
        <ele>0.53</ele>
        <time>2014-05-08T08:06:11.000Z</time>
      </trkpt>
      <trkpt lat="42.98389" lon="6.20955">
        <ele>0.48</ele>
        <time>2014-05-08T08:06:16.000Z</time>
      </trkpt>
      <trkpt lat="42.98392" lon="6.20965">
        <ele>0.37</ele>
        <time>2014-05-08T08:06:21.000Z</time>
      </trkpt>
      <trkpt lat="42.98395" lon="6.20975">
        <ele>0.25</ele>
        <time>2014-05-08T08:06:26.000Z</time>
      </trkpt>
      <trkpt lat="42.98399" lon="6.20985">
        <ele>0.14</ele>
        <time>2014-05-08T08:06:31.000Z</time>
      </trkpt>
      <trkpt lat="42.98405" lon="6.20993">
        <ele>0.1</ele>
        <time>2014-05-08T08:06:36.000Z</time>
      </trkpt>
      <trkpt lat="42.98411" lon="6.20999">
        <ele>0.05</ele>
        <time>2014-05-08T08:06:41.000Z</time>
      </trkpt>
      <trkpt lat="42.98419" lon="6.21004">
        <time>2014-05-08T08:06:46.000Z</time>
      </trkpt>
      <trkpt lat="42.98427" lon="6.21008">
        <time>2014-05-08T08:06:51.000Z</time>
      </trkpt>
      <trkpt lat="42.98432" lon="6.21011">
        <time>2014-05-08T08:06:56.000Z</time>
      </trkpt>
      <trkpt lat="42.98439" lon="6.21022">
        <time>2014-05-08T08:07:01.000Z</time>
      </trkpt>
      <trkpt lat="42.98443" lon="6.21027">
        <time>2014-05-08T08:07:06.000Z</time>
      </trkpt>
      <trkpt lat="42.98446" lon="6.21031">
        <time>2014-05-08T08:07:11.000Z</time>
      </trkpt>
      <trkpt lat="42.98449" lon="6.21039">
        <time>2014-05-08T08:07:16.000Z</time>
      </trkpt>
      <trkpt lat="42.98454" lon="6.21048">
        <ele>0.06</ele>
        <time>2014-05-08T08:07:21.000Z</time>
      </trkpt>
      <trkpt lat="42.98459" lon="6.21057">
        <ele>0.12</ele>
        <time>2014-05-08T08:07:26.000Z</time>
      </trkpt>
      <trkpt lat="42.98464" lon="6.21063">
        <ele>0.17</ele>
        <time>2014-05-08T08:07:31.000Z</time>
      </trkpt>
      <trkpt lat="42.98473" lon="6.2107">
        <ele>0.36</ele>
        <time>2014-05-08T08:07:36.000Z</time>
      </trkpt>
      <trkpt lat="42.98478" lon="6.21078">
        <ele>0.54</ele>
        <time>2014-05-08T08:07:41.000Z</time>
      </trkpt>
      <trkpt lat="42.98483" lon="6.21089">
        <ele>0.72</ele>
        <time>2014-05-08T08:07:46.000Z</time>
      </trkpt>
      <trkpt lat="42.98488" lon="6.211">
        <ele>0.81</ele>
        <time>2014-05-08T08:07:51.000Z</time>
      </trkpt>
      <trkpt lat="42.98495" lon="6.21109">
        <ele>0.91</ele>
        <time>2014-05-08T08:07:56.000Z</time>
      </trkpt>
      <trkpt lat="42.98501" lon="6.21116">
        <ele>1</ele>
        <time>2014-05-08T08:08:01.000Z</time>
      </trkpt>
      <trkpt lat="42.98509" lon="6.21122">
        <ele>0.95</ele>
        <time>2014-05-08T08:08:06.000Z</time>
      </trkpt>
      <trkpt lat="42.98516" lon="6.21128">
        <ele>0.9</ele>
        <time>2014-05-08T08:08:11.000Z</time>
      </trkpt>
      <trkpt lat="42.98523" lon="6.21134">
        <ele>0.85</ele>
        <time>2014-05-08T08:08:16.000Z</time>
      </trkpt>
      <trkpt lat="42.98529" lon="6.21141">
        <ele>0.98</ele>
        <time>2014-05-08T08:08:21.000Z</time>
      </trkpt>
      <trkpt lat="42.98534" lon="6.21152">
        <ele>1.11</ele>
        <time>2014-05-08T08:08:26.000Z</time>
      </trkpt>
      <trkpt lat="42.98538" lon="6.2116">
        <ele>1.24</ele>
        <time>2014-05-08T08:08:31.000Z</time>
      </trkpt>
      <trkpt lat="42.98546" lon="6.21169">
        <ele>1.66</ele>
        <time>2014-05-08T08:08:36.000Z</time>
      </trkpt>
      <trkpt lat="42.98552" lon="6.21173">
        <ele>2.07</ele>
        <time>2014-05-08T08:08:41.000Z</time>
      </trkpt>
      <trkpt lat="42.98559" lon="6.21177">
        <ele>2.48</ele>
        <time>2014-05-08T08:08:46.000Z</time>
      </trkpt>
      <trkpt lat="42.98566" lon="6.21185">
        <ele>2.35</ele>
        <time>2014-05-08T08:08:51.000Z</time>
      </trkpt>
      <trkpt lat="42.98571" lon="6.21196">
        <ele>2.21</ele>
        <time>2014-05-08T08:08:56.000Z</time>
      </trkpt>
      <trkpt lat="42.98575" lon="6.21208">
        <ele>2.07</ele>
        <time>2014-05-08T08:09:01.000Z</time>
      </trkpt>
      <trkpt lat="42.98577" lon="6.21219">
        <ele>2.03</ele>
        <time>2014-05-08T08:09:06.000Z</time>
      </trkpt>
      <trkpt lat="42.98579" lon="6.2123">
        <ele>1.99</ele>
        <time>2014-05-08T08:09:11.000Z</time>
      </trkpt>
      <trkpt lat="42.98583" lon="6.21241">
        <ele>1.96</ele>
        <time>2014-05-08T08:09:16.000Z</time>
      </trkpt>
      <trkpt lat="42.98587" lon="6.21252">
        <ele>1.98</ele>
        <time>2014-05-08T08:09:21.000Z</time>
      </trkpt>
      <trkpt lat="42.98593" lon="6.21262">
        <ele>2</ele>
        <time>2014-05-08T08:09:26.000Z</time>
      </trkpt>
      <trkpt lat="42.98599" lon="6.2127">
        <ele>2.03</ele>
        <time>2014-05-08T08:09:31.000Z</time>
      </trkpt>
      <trkpt lat="42.98608" lon="6.21279">
        <ele>2.45</ele>
        <time>2014-05-08T08:09:36.000Z</time>
      </trkpt>
      <trkpt lat="42.98614" lon="6.21283">
        <ele>2.88</ele>
        <time>2014-05-08T08:09:41.000Z</time>
      </trkpt>
      <trkpt lat="42.98621" lon="6.21288">
        <ele>3.3</ele>
        <time>2014-05-08T08:09:46.000Z</time>
      </trkpt>
      <trkpt lat="42.98629" lon="6.21293">
        <ele>3.02</ele>
        <time>2014-05-08T08:09:51.000Z</time>
      </trkpt>
      <trkpt lat="42.98635" lon="6.21301">
        <ele>2.74</ele>
        <time>2014-05-08T08:09:56.000Z</time>
      </trkpt>
      <trkpt lat="42.9864" lon="6.2131">
        <ele>2.46</ele>
        <time>2014-05-08T08:10:01.000Z</time>
      </trkpt>
      <trkpt lat="42.98645" lon="6.21321">
        <ele>1.89</ele>
        <time>2014-05-08T08:10:06.000Z</time>
      </trkpt>
      <trkpt lat="42.98648" lon="6.21331">
        <ele>1.31</ele>
        <time>2014-05-08T08:10:11.000Z</time>
      </trkpt>
      <trkpt lat="42.98653" lon="6.21341">
        <ele>0.73</ele>
        <time>2014-05-08T08:10:16.000Z</time>
      </trkpt>
      <trkpt lat="42.98657" lon="6.21351">
        <ele>0.82</ele>
        <time>2014-05-08T08:10:21.000Z</time>
      </trkpt>
      <trkpt lat="42.98663" lon="6.21359">
        <ele>0.9</ele>
        <time>2014-05-08T08:10:26.000Z</time>
      </trkpt>
      <trkpt lat="42.9867" lon="6.21365">
        <ele>0.99</ele>
        <time>2014-05-08T08:10:31.000Z</time>
      </trkpt>
      <trkpt lat="42.98675" lon="6.2137">
        <ele>1.19</ele>
        <time>2014-05-08T08:10:36.000Z</time>
      </trkpt>
      <trkpt lat="42.98678" lon="6.21371">
        <ele>1.39</ele>
        <time>2014-05-08T08:10:41.000Z</time>
      </trkpt>
      <trkpt lat="42.98681" lon="6.21372">
        <ele>1.58</ele>
        <time>2014-05-08T08:10:46.000Z</time>
      </trkpt>
      <trkpt lat="42.98683" lon="6.21374">
        <ele>1.63</ele>
        <time>2014-05-08T08:10:51.000Z</time>
      </trkpt>
      <trkpt lat="42.98684" lon="6.21378">
        <ele>1.69</ele>
        <time>2014-05-08T08:10:56.000Z</time>
      </trkpt>
      <trkpt lat="42.98686" lon="6.21378">
        <ele>1.74</ele>
        <time>2014-05-08T08:11:01.000Z</time>
      </trkpt>
      <trkpt lat="42.98685" lon="6.21379">
        <ele>1.74</ele>
        <time>2014-05-08T08:11:06.000Z</time>
      </trkpt>
      <trkpt lat="42.98684" lon="6.21379">
        <ele>1.74</ele>
        <time>2014-05-08T08:11:11.000Z</time>
      </trkpt>
      <trkpt lat="42.98684" lon="6.2138">
        <ele>1.74</ele>
        <time>2014-05-08T08:11:16.000Z</time>
      </trkpt>
      <trkpt lat="42.98685" lon="6.21379">
        <ele>1.79</ele>
        <time>2014-05-08T08:11:21.000Z</time>
      </trkpt>
      <trkpt lat="42.98686" lon="6.2138">
        <ele>1.84</ele>
        <time>2014-05-08T08:11:26.000Z</time>
      </trkpt>
      <trkpt lat="42.98687" lon="6.21383">
        <ele>1.89</ele>
        <time>2014-05-08T08:11:31.000Z</time>
      </trkpt>
      <trkpt lat="42.98687" lon="6.21384">
        <ele>2.07</ele>
        <time>2014-05-08T08:11:36.000Z</time>
      </trkpt>
      <trkpt lat="42.98689" lon="6.21384">
        <ele>2.24</ele>
        <time>2014-05-08T08:11:41.000Z</time>
      </trkpt>
      <trkpt lat="42.98693" lon="6.21385">
        <ele>2.42</ele>
        <time>2014-05-08T08:11:46.000Z</time>
      </trkpt>
      <trkpt lat="42.98694" lon="6.21386">
        <ele>2.57</ele>
        <time>2014-05-08T08:11:51.000Z</time>
      </trkpt>
      <trkpt lat="42.98697" lon="6.21388">
        <ele>2.72</ele>
        <time>2014-05-08T08:11:56.000Z</time>
      </trkpt>
      <trkpt lat="42.987" lon="6.21393">
        <ele>2.87</ele>
        <time>2014-05-08T08:12:01.000Z</time>
      </trkpt>
      <trkpt lat="42.98702" lon="6.21396">
        <ele>2.91</ele>
        <time>2014-05-08T08:12:06.000Z</time>
      </trkpt>
      <trkpt lat="42.98705" lon="6.21399">
        <ele>2.94</ele>
        <time>2014-05-08T08:12:11.000Z</time>
      </trkpt>
      <trkpt lat="42.98705" lon="6.214">
        <ele>2.98</ele>
        <time>2014-05-08T08:12:16.000Z</time>
      </trkpt>
      <trkpt lat="42.98706" lon="6.21404">
        <ele>3.01</ele>
        <time>2014-05-08T08:12:21.000Z</time>
      </trkpt>
      <trkpt lat="42.98708" lon="6.21407">
        <ele>3.03</ele>
        <time>2014-05-08T08:12:26.000Z</time>
      </trkpt>
      <trkpt lat="42.9871" lon="6.21409">
        <ele>3.06</ele>
        <time>2014-05-08T08:12:31.000Z</time>
      </trkpt>
      <trkpt lat="42.98711" lon="6.21414">
        <ele>2.98</ele>
        <time>2014-05-08T08:12:36.000Z</time>
      </trkpt>
      <trkpt lat="42.98714" lon="6.21422">
        <ele>2.9</ele>
        <time>2014-05-08T08:12:41.000Z</time>
      </trkpt>
      <trkpt lat="42.98721" lon="6.21428">
        <ele>2.82</ele>
        <time>2014-05-08T08:12:46.000Z</time>
      </trkpt>
      <trkpt lat="42.98725" lon="6.21437">
        <ele>2.4</ele>
        <time>2014-05-08T08:12:51.000Z</time>
      </trkpt>
      <trkpt lat="42.98729" lon="6.21447">
        <ele>1.99</ele>
        <time>2014-05-08T08:12:56.000Z</time>
      </trkpt>
      <trkpt lat="42.98732" lon="6.21458">
        <ele>1.57</ele>
        <time>2014-05-08T08:13:01.000Z</time>
      </trkpt>
      <trkpt lat="42.98734" lon="6.21469">
        <ele>1.27</ele>
        <time>2014-05-08T08:13:06.000Z</time>
      </trkpt>
      <trkpt lat="42.98734" lon="6.2148">
        <ele>0.97</ele>
        <time>2014-05-08T08:13:11.000Z</time>
      </trkpt>
      <trkpt lat="42.98737" lon="6.21492">
        <ele>0.67</ele>
        <time>2014-05-08T08:13:16.000Z</time>
      </trkpt>
      <trkpt lat="42.9874" lon="6.21503">
        <ele>0.56</ele>
        <time>2014-05-08T08:13:21.000Z</time>
      </trkpt>
      <trkpt lat="42.98747" lon="6.21511">
        <ele>0.46</ele>
        <time>2014-05-08T08:13:26.000Z</time>
      </trkpt>
      <trkpt lat="42.98752" lon="6.21519">
        <ele>0.35</ele>
        <time>2014-05-08T08:13:31.000Z</time>
      </trkpt>
      <trkpt lat="42.98758" lon="6.21528">
        <ele>0.23</ele>
        <time>2014-05-08T08:13:36.000Z</time>
      </trkpt>
      <trkpt lat="42.98761" lon="6.21539">
        <ele>0.12</ele>
        <time>2014-05-08T08:13:41.000Z</time>
      </trkpt>
      <trkpt lat="42.98762" lon="6.2155">
        <time>2014-05-08T08:13:46.000Z</time>
      </trkpt>
      <trkpt lat="42.98763" lon="6.21562">
        <time>2014-05-08T08:13:51.000Z</time>
      </trkpt>
      <trkpt lat="42.98764" lon="6.21573">
        <time>2014-05-08T08:13:56.000Z</time>
      </trkpt>
      <trkpt lat="42.98768" lon="6.21584">
        <time>2014-05-08T08:14:01.000Z</time>
      </trkpt>
      <trkpt lat="42.98772" lon="6.21594">
        <time>2014-05-08T08:14:06.000Z</time>
      </trkpt>
      <trkpt lat="42.98778" lon="6.21603">
        <time>2014-05-08T08:14:11.000Z</time>
      </trkpt>
      <trkpt lat="42.98785" lon="6.21611">
        <time>2014-05-08T08:14:16.000Z</time>
      </trkpt>
      <trkpt lat="42.9879" lon="6.2162">
        <time>2014-05-08T08:14:21.000Z</time>
      </trkpt>
      <trkpt lat="42.98794" lon="6.2163">
        <time>2014-05-08T08:14:26.000Z</time>
      </trkpt>
      <trkpt lat="42.98798" lon="6.2164">
        <time>2014-05-08T08:14:31.000Z</time>
      </trkpt>
      <trkpt lat="42.98803" lon="6.21649">
        <time>2014-05-08T08:14:36.000Z</time>
      </trkpt>
      <trkpt lat="42.98809" lon="6.21658">
        <time>2014-05-08T08:14:41.000Z</time>
      </trkpt>
      <trkpt lat="42.98818" lon="6.21666">
        <time>2014-05-08T08:14:46.000Z</time>
      </trkpt>
      <trkpt lat="42.98825" lon="6.21672">
        <time>2014-05-08T08:14:51.000Z</time>
      </trkpt>
      <trkpt lat="42.98832" lon="6.21678">
        <time>2014-05-08T08:14:56.000Z</time>
      </trkpt>
      <trkpt lat="42.98838" lon="6.21688">
        <time>2014-05-08T08:15:01.000Z</time>
      </trkpt>
      <trkpt lat="42.98843" lon="6.21699">
        <time>2014-05-08T08:15:06.000Z</time>
      </trkpt>
      <trkpt lat="42.98846" lon="6.21709">
        <time>2014-05-08T08:15:11.000Z</time>
      </trkpt>
      <trkpt lat="42.98849" lon="6.2172">
        <time>2014-05-08T08:15:16.000Z</time>
      </trkpt>
      <trkpt lat="42.98851" lon="6.21731">
        <time>2014-05-08T08:15:21.000Z</time>
      </trkpt>
      <trkpt lat="42.98853" lon="6.21742">
        <time>2014-05-08T08:15:26.000Z</time>
      </trkpt>
      <trkpt lat="42.98857" lon="6.21753">
        <time>2014-05-08T08:15:31.000Z</time>
      </trkpt>
      <trkpt lat="42.98863" lon="6.21761">
        <time>2014-05-08T08:15:36.000Z</time>
      </trkpt>
      <trkpt lat="42.98868" lon="6.2177">
        <time>2014-05-08T08:15:41.000Z</time>
      </trkpt>
      <trkpt lat="42.98871" lon="6.21781">
        <time>2014-05-08T08:15:46.000Z</time>
      </trkpt>
      <trkpt lat="42.98873" lon="6.21792">
        <time>2014-05-08T08:15:51.000Z</time>
      </trkpt>
      <trkpt lat="42.98875" lon="6.21805">
        <time>2014-05-08T08:15:56.000Z</time>
      </trkpt>
      <trkpt lat="42.98878" lon="6.21816">
        <time>2014-05-08T08:16:01.000Z</time>
      </trkpt>
      <trkpt lat="42.98882" lon="6.21827">
        <ele>0.06</ele>
        <time>2014-05-08T08:16:06.000Z</time>
      </trkpt>
      <trkpt lat="42.98886" lon="6.21837">
        <ele>0.12</ele>
        <time>2014-05-08T08:16:11.000Z</time>
      </trkpt>
      <trkpt lat="42.98889" lon="6.21849">
        <ele>0.19</ele>
        <time>2014-05-08T08:16:16.000Z</time>
      </trkpt>
      <trkpt lat="42.9889" lon="6.2186">
        <ele>0.4</ele>
        <time>2014-05-08T08:16:21.000Z</time>
      </trkpt>
      <trkpt lat="42.98895" lon="6.2187">
        <ele>0.62</ele>
        <time>2014-05-08T08:16:26.000Z</time>
      </trkpt>
      <trkpt lat="42.98898" lon="6.21878">
        <ele>0.83</ele>
        <time>2014-05-08T08:16:31.000Z</time>
      </trkpt>
      <trkpt lat="42.98902" lon="6.21889">
        <ele>1.08</ele>
        <time>2014-05-08T08:16:36.000Z</time>
      </trkpt>
      <trkpt lat="42.98907" lon="6.21899">
        <ele>1.32</ele>
        <time>2014-05-08T08:16:41.000Z</time>
      </trkpt>
      <trkpt lat="42.9891" lon="6.21909">
        <ele>1.56</ele>
        <time>2014-05-08T08:16:46.000Z</time>
      </trkpt>
      <trkpt lat="42.98913" lon="6.21922">
        <ele>1.77</ele>
        <time>2014-05-08T08:16:51.000Z</time>
      </trkpt>
      <trkpt lat="42.98915" lon="6.21933">
        <ele>1.99</ele>
        <time>2014-05-08T08:16:56.000Z</time>
      </trkpt>
      <trkpt lat="42.98917" lon="6.21944">
        <ele>2.2</ele>
        <time>2014-05-08T08:17:01.000Z</time>
      </trkpt>
      <trkpt lat="42.98921" lon="6.21955">
        <ele>2.39</ele>
        <time>2014-05-08T08:17:06.000Z</time>
      </trkpt>
      <trkpt lat="42.98926" lon="6.21964">
        <ele>2.58</ele>
        <time>2014-05-08T08:17:11.000Z</time>
      </trkpt>
      <trkpt lat="42.9893" lon="6.21973">
        <ele>2.78</ele>
        <time>2014-05-08T08:17:16.000Z</time>
      </trkpt>
      <trkpt lat="42.98933" lon="6.21984">
        <ele>2.74</ele>
        <time>2014-05-08T08:17:21.000Z</time>
      </trkpt>
      <trkpt lat="42.98935" lon="6.21995">
        <ele>2.7</ele>
        <time>2014-05-08T08:17:26.000Z</time>
      </trkpt>
      <trkpt lat="42.98936" lon="6.22006">
        <ele>2.65</ele>
        <time>2014-05-08T08:17:31.000Z</time>
      </trkpt>
      <trkpt lat="42.98938" lon="6.22017">
        <ele>2.79</ele>
        <time>2014-05-08T08:17:36.000Z</time>
      </trkpt>
      <trkpt lat="42.98943" lon="6.22027">
        <ele>2.93</ele>
        <time>2014-05-08T08:17:41.000Z</time>
      </trkpt>
      <trkpt lat="42.98948" lon="6.22036">
        <ele>3.06</ele>
        <time>2014-05-08T08:17:46.000Z</time>
      </trkpt>
      <trkpt lat="42.98955" lon="6.22043">
        <ele>2.97</ele>
        <time>2014-05-08T08:17:51.000Z</time>
      </trkpt>
      <trkpt lat="42.98962" lon="6.22052">
        <ele>2.89</ele>
        <time>2014-05-08T08:17:56.000Z</time>
      </trkpt>
      <trkpt lat="42.98965" lon="6.22062">
        <ele>2.8</ele>
        <time>2014-05-08T08:18:01.000Z</time>
      </trkpt>
      <trkpt lat="42.98968" lon="6.22071">
        <ele>2.41</ele>
        <time>2014-05-08T08:18:06.000Z</time>
      </trkpt>
      <trkpt lat="42.9897" lon="6.22081">
        <ele>2.03</ele>
        <time>2014-05-08T08:18:11.000Z</time>
      </trkpt>
      <trkpt lat="42.98971" lon="6.2209">
        <ele>1.64</ele>
        <time>2014-05-08T08:18:16.000Z</time>
      </trkpt>
      <trkpt lat="42.98971" lon="6.221">
        <ele>1.39</ele>
        <time>2014-05-08T08:18:21.000Z</time>
      </trkpt>
      <trkpt lat="42.98972" lon="6.22112">
        <ele>1.15</ele>
        <time>2014-05-08T08:18:26.000Z</time>
      </trkpt>
      <trkpt lat="42.98973" lon="6.22124">
        <ele>0.9</ele>
        <time>2014-05-08T08:18:31.000Z</time>
      </trkpt>
      <trkpt lat="42.98977" lon="6.22135">
        <ele>0.7</ele>
        <time>2014-05-08T08:18:36.000Z</time>
      </trkpt>
      <trkpt lat="42.98981" lon="6.22144">
        <ele>0.5</ele>
        <time>2014-05-08T08:18:41.000Z</time>
      </trkpt>
      <trkpt lat="42.98986" lon="6.22154">
        <ele>0.29</ele>
        <time>2014-05-08T08:18:46.000Z</time>
      </trkpt>
      <trkpt lat="42.98993" lon="6.22161">
        <ele>0.2</ele>
        <time>2014-05-08T08:18:51.000Z</time>
      </trkpt>
      <trkpt lat="42.99" lon="6.22165">
        <ele>0.1</ele>
        <time>2014-05-08T08:18:56.000Z</time>
      </trkpt>
      <trkpt lat="42.99007" lon="6.22169">
        <time>2014-05-08T08:19:01.000Z</time>
      </trkpt>
      <trkpt lat="42.99013" lon="6.22174">
        <time>2014-05-08T08:19:06.000Z</time>
      </trkpt>
      <trkpt lat="42.99019" lon="6.22182">
        <time>2014-05-08T08:19:11.000Z</time>
      </trkpt>
      <trkpt lat="42.99023" lon="6.22189">
        <time>2014-05-08T08:19:16.000Z</time>
      </trkpt>
      <trkpt lat="42.99026" lon="6.22193">
        <time>2014-05-08T08:19:21.000Z</time>
      </trkpt>
      <trkpt lat="42.99028" lon="6.22195">
        <time>2014-05-08T08:19:26.000Z</time>
      </trkpt>
      <trkpt lat="42.99028" lon="6.22198">
        <time>2014-05-08T08:19:31.000Z</time>
      </trkpt>
      <trkpt lat="42.99028" lon="6.22199">
        <time>2014-05-08T08:19:36.000Z</time>
      </trkpt>
      <trkpt lat="42.99028" lon="6.222">
        <time>2014-05-08T08:19:41.000Z</time>
      </trkpt>
      <trkpt lat="42.99029" lon="6.22201">
        <time>2014-05-08T08:19:46.000Z</time>
      </trkpt>
      <trkpt lat="42.9903" lon="6.22202">
        <time>2014-05-08T08:19:51.000Z</time>
      </trkpt>
      <trkpt lat="42.9903" lon="6.22202">
        <time>2014-05-08T08:19:56.000Z</time>
      </trkpt>
      <trkpt lat="42.99031" lon="6.22201">
        <time>2014-05-08T08:20:01.000Z</time>
      </trkpt>
      <trkpt lat="42.99033" lon="6.22201">
        <time>2014-05-08T08:20:06.000Z</time>
      </trkpt>
      <trkpt lat="42.99034" lon="6.222">
        <time>2014-05-08T08:20:11.000Z</time>
      </trkpt>
      <trkpt lat="42.99036" lon="6.22201">
        <time>2014-05-08T08:20:16.000Z</time>
      </trkpt>
      <trkpt lat="42.99036" lon="6.22205">
        <time>2014-05-08T08:20:21.000Z</time>
      </trkpt>
      <trkpt lat="42.99037" lon="6.2221">
        <time>2014-05-08T08:20:26.000Z</time>
      </trkpt>
      <trkpt lat="42.99037" lon="6.22216">
        <time>2014-05-08T08:20:31.000Z</time>
      </trkpt>
      <trkpt lat="42.99039" lon="6.22221">
        <time>2014-05-08T08:20:36.000Z</time>
      </trkpt>
      <trkpt lat="42.99043" lon="6.22225">
        <time>2014-05-08T08:20:41.000Z</time>
      </trkpt>
      <trkpt lat="42.99047" lon="6.22229">
        <time>2014-05-08T08:20:46.000Z</time>
      </trkpt>
      <trkpt lat="42.9905" lon="6.22234">
        <time>2014-05-08T08:20:51.000Z</time>
      </trkpt>
      <trkpt lat="42.99051" lon="6.22238">
        <time>2014-05-08T08:20:56.000Z</time>
      </trkpt>
      <trkpt lat="42.99054" lon="6.22243">
        <time>2014-05-08T08:21:01.000Z</time>
      </trkpt>
      <trkpt lat="42.99055" lon="6.22246">
        <time>2014-05-08T08:21:06.000Z</time>
      </trkpt>
      <trkpt lat="42.9906" lon="6.2225">
        <time>2014-05-08T08:21:11.000Z</time>
      </trkpt>
      <trkpt lat="42.99064" lon="6.22252">
        <time>2014-05-08T08:21:16.000Z</time>
      </trkpt>
      <trkpt lat="42.99067" lon="6.22253">
        <time>2014-05-08T08:21:21.000Z</time>
      </trkpt>
      <trkpt lat="42.99071" lon="6.22256">
        <time>2014-05-08T08:21:26.000Z</time>
      </trkpt>
      <trkpt lat="42.99075" lon="6.2226">
        <time>2014-05-08T08:21:31.000Z</time>
      </trkpt>
      <trkpt lat="42.99079" lon="6.22268">
        <time>2014-05-08T08:21:36.000Z</time>
      </trkpt>
      <trkpt lat="42.99082" lon="6.22277">
        <time>2014-05-08T08:21:41.000Z</time>
      </trkpt>
      <trkpt lat="42.99085" lon="6.22287">
        <time>2014-05-08T08:21:46.000Z</time>
      </trkpt>
      <trkpt lat="42.99086" lon="6.22297">
        <time>2014-05-08T08:21:51.000Z</time>
      </trkpt>
      <trkpt lat="42.99091" lon="6.22307">
        <time>2014-05-08T08:21:56.000Z</time>
      </trkpt>
      <trkpt lat="42.99097" lon="6.22315">
        <time>2014-05-08T08:22:01.000Z</time>
      </trkpt>
      <trkpt lat="42.99102" lon="6.22322">
        <time>2014-05-08T08:22:06.000Z</time>
      </trkpt>
      <trkpt lat="42.99109" lon="6.22328">
        <time>2014-05-08T08:22:11.000Z</time>
      </trkpt>
      <trkpt lat="42.99117" lon="6.22331">
        <time>2014-05-08T08:22:16.000Z</time>
      </trkpt>
      <trkpt lat="42.99125" lon="6.22333">
        <time>2014-05-08T08:22:21.000Z</time>
      </trkpt>
      <trkpt lat="42.99131" lon="6.22333">
        <time>2014-05-08T08:22:26.000Z</time>
      </trkpt>
      <trkpt lat="42.99137" lon="6.22334">
        <time>2014-05-08T08:22:31.000Z</time>
      </trkpt>
      <trkpt lat="42.99143" lon="6.22334">
        <time>2014-05-08T08:22:36.000Z</time>
      </trkpt>
      <trkpt lat="42.99148" lon="6.22333">
        <ele>2</ele>
        <time>2014-05-08T08:22:41.000Z</time>
      </trkpt>
      <trkpt lat="42.99151" lon="6.22331">
        <ele>2</ele>
        <time>2014-05-08T08:22:46.000Z</time>
      </trkpt>
      <trkpt lat="42.99155" lon="6.22332">
        <ele>1.03</ele>
        <time>2014-05-08T08:22:51.000Z</time>
      </trkpt>
      <trkpt lat="42.99161" lon="6.22334">
        <ele>2.06</ele>
        <time>2014-05-08T08:22:56.000Z</time>
      </trkpt>
      <trkpt lat="42.99168" lon="6.22338">
        <ele>3.08</ele>
        <time>2014-05-08T08:23:01.000Z</time>
      </trkpt>
      <trkpt lat="42.99173" lon="6.22345">
        <ele>3.62</ele>
        <time>2014-05-08T08:23:06.000Z</time>
      </trkpt>
      <trkpt lat="42.99178" lon="6.22353">
        <ele>4.16</ele>
        <time>2014-05-08T08:23:11.000Z</time>
      </trkpt>
      <trkpt lat="42.99182" lon="6.22358">
        <ele>4.7</ele>
        <time>2014-05-08T08:23:16.000Z</time>
      </trkpt>
      <trkpt lat="42.99184" lon="6.22362">
        <ele>5.22</ele>
        <time>2014-05-08T08:23:21.000Z</time>
      </trkpt>
      <trkpt lat="42.99188" lon="6.22362">
        <ele>5.74</ele>
        <time>2014-05-08T08:23:26.000Z</time>
      </trkpt>
      <trkpt lat="42.99193" lon="6.22362">
        <ele>6.25</ele>
        <time>2014-05-08T08:23:31.000Z</time>
      </trkpt>
      <trkpt lat="42.99193" lon="6.22363">
        <ele>6.63</ele>
        <time>2014-05-08T08:23:36.000Z</time>
      </trkpt>
      <trkpt lat="42.99195" lon="6.22363">
        <ele>7</ele>
        <time>2014-05-08T08:23:41.000Z</time>
      </trkpt>
      <trkpt lat="42.99202" lon="6.22364">
        <ele>7.38</ele>
        <time>2014-05-08T08:23:46.000Z</time>
      </trkpt>
      <trkpt lat="42.992" lon="6.22365">
        <ele>7.84</ele>
        <time>2014-05-08T08:23:51.000Z</time>
      </trkpt>
      <trkpt lat="42.99207" lon="6.22363">
        <ele>8.3</ele>
        <time>2014-05-08T08:23:56.000Z</time>
      </trkpt>
      <trkpt lat="42.99209" lon="6.2236">
        <ele>8.76</ele>
        <time>2014-05-08T08:24:01.000Z</time>
      </trkpt>
      <trkpt lat="42.99207" lon="6.22358">
        <ele>8.37</ele>
        <time>2014-05-08T08:24:06.000Z</time>
      </trkpt>
      <trkpt lat="42.99205" lon="6.2236">
        <ele>7.97</ele>
        <time>2014-05-08T08:24:11.000Z</time>
      </trkpt>
      <trkpt lat="42.99201" lon="6.22362">
        <ele>7.57</ele>
        <time>2014-05-08T08:24:16.000Z</time>
      </trkpt>
      <trkpt lat="42.99203" lon="6.22371">
        <ele>8.17</ele>
        <time>2014-05-08T08:24:21.000Z</time>
      </trkpt>
      <trkpt lat="42.99208" lon="6.2238">
        <ele>8.77</ele>
        <time>2014-05-08T08:24:26.000Z</time>
      </trkpt>
      <trkpt lat="42.99213" lon="6.22387">
        <ele>9.36</ele>
        <time>2014-05-08T08:24:31.000Z</time>
      </trkpt>
      <trkpt lat="42.99218" lon="6.22393">
        <ele>9.52</ele>
        <time>2014-05-08T08:24:36.000Z</time>
      </trkpt>
      <trkpt lat="42.99222" lon="6.224">
        <ele>9.67</ele>
        <time>2014-05-08T08:24:41.000Z</time>
      </trkpt>
      <trkpt lat="42.99225" lon="6.22406">
        <ele>9.83</ele>
        <time>2014-05-08T08:24:46.000Z</time>
      </trkpt>
      <trkpt lat="42.99224" lon="6.22411">
        <ele>8.44</ele>
        <time>2014-05-08T08:24:51.000Z</time>
      </trkpt>
      <trkpt lat="42.99216" lon="6.22416">
        <ele>7.06</ele>
        <time>2014-05-08T08:24:56.000Z</time>
      </trkpt>
      <trkpt lat="42.99206" lon="6.22427">
        <ele>5.67</ele>
        <time>2014-05-08T08:25:01.000Z</time>
      </trkpt>
      <trkpt lat="42.99199" lon="6.22438">
        <ele>4.9</ele>
        <time>2014-05-08T08:25:06.000Z</time>
      </trkpt>
      <trkpt lat="42.99193" lon="6.2245">
        <ele>4.14</ele>
        <time>2014-05-08T08:25:11.000Z</time>
      </trkpt>
      <trkpt lat="42.99187" lon="6.22461">
        <ele>3.37</ele>
        <time>2014-05-08T08:25:16.000Z</time>
      </trkpt>
      <trkpt lat="42.99184" lon="6.2247">
        <ele>3.16</ele>
        <time>2014-05-08T08:25:21.000Z</time>
      </trkpt>
      <trkpt lat="42.99181" lon="6.22479">
        <ele>2.96</ele>
        <time>2014-05-08T08:25:26.000Z</time>
      </trkpt>
      <trkpt lat="42.9918" lon="6.2249">
        <ele>2.76</ele>
        <time>2014-05-08T08:25:31.000Z</time>
      </trkpt>
      <trkpt lat="42.99182" lon="6.22503">
        <ele>2.67</ele>
        <time>2014-05-08T08:25:36.000Z</time>
      </trkpt>
      <trkpt lat="42.99183" lon="6.22514">
        <ele>2.58</ele>
        <time>2014-05-08T08:25:41.000Z</time>
      </trkpt>
      <trkpt lat="42.99185" lon="6.22525">
        <ele>2.49</ele>
        <time>2014-05-08T08:25:46.000Z</time>
      </trkpt>
      <trkpt lat="42.99183" lon="6.22536">
        <ele>2.47</ele>
        <time>2014-05-08T08:25:51.000Z</time>
      </trkpt>
      <trkpt lat="42.99175" lon="6.2254">
        <ele>2.45</ele>
        <time>2014-05-08T08:25:56.000Z</time>
      </trkpt>
      <trkpt lat="42.99181" lon="6.22541">
        <ele>2.43</ele>
        <time>2014-05-08T08:26:01.000Z</time>
      </trkpt>
      <trkpt lat="42.99183" lon="6.22542">
        <ele>2.34</ele>
        <time>2014-05-08T08:26:06.000Z</time>
      </trkpt>
      <trkpt lat="42.99183" lon="6.22546">
        <ele>2.25</ele>
        <time>2014-05-08T08:26:11.000Z</time>
      </trkpt>
      <trkpt lat="42.99183" lon="6.22554">
        <ele>2.17</ele>
        <time>2014-05-08T08:26:16.000Z</time>
      </trkpt>
      <trkpt lat="42.99183" lon="6.22565">
        <ele>2.22</ele>
        <time>2014-05-08T08:26:21.000Z</time>
      </trkpt>
      <trkpt lat="42.99186" lon="6.22576">
        <ele>2.27</ele>
        <time>2014-05-08T08:26:26.000Z</time>
      </trkpt>
      <trkpt lat="42.99188" lon="6.22585">
        <ele>2.33</ele>
        <time>2014-05-08T08:26:31.000Z</time>
      </trkpt>
      <trkpt lat="42.99191" lon="6.22596">
        <ele>2.14</ele>
        <time>2014-05-08T08:26:36.000Z</time>
      </trkpt>
      <trkpt lat="42.99191" lon="6.22607">
        <ele>1.96</ele>
        <time>2014-05-08T08:26:41.000Z</time>
      </trkpt>
      <trkpt lat="42.9919" lon="6.22618">
        <ele>1.77</ele>
        <time>2014-05-08T08:26:46.000Z</time>
      </trkpt>
      <trkpt lat="42.9919" lon="6.2263">
        <ele>1.78</ele>
        <time>2014-05-08T08:26:51.000Z</time>
      </trkpt>
      <trkpt lat="42.99191" lon="6.22641">
        <ele>1.8</ele>
        <time>2014-05-08T08:26:56.000Z</time>
      </trkpt>
      <trkpt lat="42.99192" lon="6.22651">
        <ele>1.82</ele>
        <time>2014-05-08T08:27:01.000Z</time>
      </trkpt>
      <trkpt lat="42.99195" lon="6.22663">
        <ele>2.12</ele>
        <time>2014-05-08T08:27:06.000Z</time>
      </trkpt>
      <trkpt lat="42.99201" lon="6.22672">
        <ele>2.42</ele>
        <time>2014-05-08T08:27:11.000Z</time>
      </trkpt>
      <trkpt lat="42.99204" lon="6.22683">
        <ele>2.72</ele>
        <time>2014-05-08T08:27:16.000Z</time>
      </trkpt>
      <trkpt lat="42.99207" lon="6.22696">
        <ele>2.77</ele>
        <time>2014-05-08T08:27:21.000Z</time>
      </trkpt>
      <trkpt lat="42.99209" lon="6.22708">
        <ele>2.82</ele>
        <time>2014-05-08T08:27:26.000Z</time>
      </trkpt>
      <trkpt lat="42.99208" lon="6.22721">
        <ele>2.88</ele>
        <time>2014-05-08T08:27:31.000Z</time>
      </trkpt>
      <trkpt lat="42.99208" lon="6.22733">
        <ele>2.87</ele>
        <time>2014-05-08T08:27:36.000Z</time>
      </trkpt>
      <trkpt lat="42.9921" lon="6.22745">
        <ele>2.86</ele>
        <time>2014-05-08T08:27:41.000Z</time>
      </trkpt>
      <trkpt lat="42.99212" lon="6.22758">
        <ele>2.85</ele>
        <time>2014-05-08T08:27:46.000Z</time>
      </trkpt>
      <trkpt lat="42.99216" lon="6.22769">
        <ele>3.38</ele>
        <time>2014-05-08T08:27:51.000Z</time>
      </trkpt>
      <trkpt lat="42.99221" lon="6.22779">
        <ele>3.9</ele>
        <time>2014-05-08T08:27:56.000Z</time>
      </trkpt>
      <trkpt lat="42.99228" lon="6.22788">
        <ele>4.43</ele>
        <time>2014-05-08T08:28:01.000Z</time>
      </trkpt>
      <trkpt lat="42.99232" lon="6.22795">
        <ele>4.09</ele>
        <time>2014-05-08T08:28:06.000Z</time>
      </trkpt>
      <trkpt lat="42.99236" lon="6.22808">
        <ele>3.75</ele>
        <time>2014-05-08T08:28:11.000Z</time>
      </trkpt>
      <trkpt lat="42.99237" lon="6.22821">
        <ele>3.41</ele>
        <time>2014-05-08T08:28:16.000Z</time>
      </trkpt>
      <trkpt lat="42.99237" lon="6.22834">
        <ele>3.1</ele>
        <time>2014-05-08T08:28:21.000Z</time>
      </trkpt>
      <trkpt lat="42.99236" lon="6.22845">
        <ele>2.79</ele>
        <time>2014-05-08T08:28:26.000Z</time>
      </trkpt>
      <trkpt lat="42.99236" lon="6.22856">
        <ele>2.47</ele>
        <time>2014-05-08T08:28:31.000Z</time>
      </trkpt>
      <trkpt lat="42.9924" lon="6.22868">
        <ele>2.56</ele>
        <time>2014-05-08T08:28:36.000Z</time>
      </trkpt>
      <trkpt lat="42.99244" lon="6.22881">
        <ele>2.64</ele>
        <time>2014-05-08T08:28:41.000Z</time>
      </trkpt>
      <trkpt lat="42.99247" lon="6.22892">
        <ele>2.73</ele>
        <time>2014-05-08T08:28:46.000Z</time>
      </trkpt>
      <trkpt lat="42.99252" lon="6.22903">
        <ele>2.38</ele>
        <time>2014-05-08T08:28:51.000Z</time>
      </trkpt>
      <trkpt lat="42.99256" lon="6.22914">
        <ele>2.04</ele>
        <time>2014-05-08T08:28:56.000Z</time>
      </trkpt>
      <trkpt lat="42.9926" lon="6.22926">
        <ele>1.69</ele>
        <time>2014-05-08T08:29:01.000Z</time>
      </trkpt>
      <trkpt lat="42.99261" lon="6.22939">
        <ele>1.36</ele>
        <time>2014-05-08T08:29:06.000Z</time>
      </trkpt>
      <trkpt lat="42.99262" lon="6.22953">
        <ele>1.02</ele>
        <time>2014-05-08T08:29:11.000Z</time>
      </trkpt>
      <trkpt lat="42.99264" lon="6.22963">
        <ele>0.69</ele>
        <time>2014-05-08T08:29:16.000Z</time>
      </trkpt>
      <trkpt lat="42.99269" lon="6.22975">
        <ele>0.46</ele>
        <time>2014-05-08T08:29:21.000Z</time>
      </trkpt>
      <trkpt lat="42.99274" lon="6.22987">
        <ele>0.23</ele>
        <time>2014-05-08T08:29:26.000Z</time>
      </trkpt>
      <trkpt lat="42.9928" lon="6.22996">
        <time>2014-05-08T08:29:31.000Z</time>
      </trkpt>
      <trkpt lat="42.99285" lon="6.23004">
        <ele>0.12</ele>
        <time>2014-05-08T08:29:36.000Z</time>
      </trkpt>
      <trkpt lat="42.99289" lon="6.23014">
        <ele>0.25</ele>
        <time>2014-05-08T08:29:41.000Z</time>
      </trkpt>
      <trkpt lat="42.99294" lon="6.23025">
        <ele>0.37</ele>
        <time>2014-05-08T08:29:46.000Z</time>
      </trkpt>
      <trkpt lat="42.99298" lon="6.23038">
        <ele>0.33</ele>
        <time>2014-05-08T08:29:51.000Z</time>
      </trkpt>
      <trkpt lat="42.993" lon="6.2305">
        <ele>0.28</ele>
        <time>2014-05-08T08:29:56.000Z</time>
      </trkpt>
      <trkpt lat="42.99299" lon="6.23062">
        <ele>0.24</ele>
        <time>2014-05-08T08:30:01.000Z</time>
      </trkpt>
      <trkpt lat="42.99298" lon="6.23073">
        <ele>0.26</ele>
        <time>2014-05-08T08:30:06.000Z</time>
      </trkpt>
      <trkpt lat="42.99299" lon="6.23086">
        <ele>0.27</ele>
        <time>2014-05-08T08:30:11.000Z</time>
      </trkpt>
      <trkpt lat="42.993" lon="6.23098">
        <ele>0.29</ele>
        <time>2014-05-08T08:30:16.000Z</time>
      </trkpt>
      <trkpt lat="42.99304" lon="6.23109">
        <ele>0.31</ele>
        <time>2014-05-08T08:30:21.000Z</time>
      </trkpt>
      <trkpt lat="42.99308" lon="6.2312">
        <ele>0.32</ele>
        <time>2014-05-08T08:30:26.000Z</time>
      </trkpt>
      <trkpt lat="42.99314" lon="6.2313">
        <ele>0.34</ele>
        <time>2014-05-08T08:30:31.000Z</time>
      </trkpt>
      <trkpt lat="42.9932" lon="6.23139">
        <ele>0.33</ele>
        <time>2014-05-08T08:30:36.000Z</time>
      </trkpt>
      <trkpt lat="42.99326" lon="6.23148">
        <ele>0.32</ele>
        <time>2014-05-08T08:30:41.000Z</time>
      </trkpt>
      <trkpt lat="42.99331" lon="6.23155">
        <ele>0.31</ele>
        <time>2014-05-08T08:30:46.000Z</time>
      </trkpt>
      <trkpt lat="42.99335" lon="6.23165">
        <ele>0.21</ele>
        <time>2014-05-08T08:30:51.000Z</time>
      </trkpt>
      <trkpt lat="42.99339" lon="6.23178">
        <ele>0.1</ele>
        <time>2014-05-08T08:30:56.000Z</time>
      </trkpt>
      <trkpt lat="42.99341" lon="6.23191">
        <time>2014-05-08T08:31:01.000Z</time>
      </trkpt>
      <trkpt lat="42.99341" lon="6.23204">
        <time>2014-05-08T08:31:06.000Z</time>
      </trkpt>
      <trkpt lat="42.99341" lon="6.23217">
        <time>2014-05-08T08:31:11.000Z</time>
      </trkpt>
      <trkpt lat="42.99343" lon="6.2323">
        <time>2014-05-08T08:31:16.000Z</time>
      </trkpt>
      <trkpt lat="42.99348" lon="6.23241">
        <time>2014-05-08T08:31:21.000Z</time>
      </trkpt>
      <trkpt lat="42.99353" lon="6.23252">
        <time>2014-05-08T08:31:26.000Z</time>
      </trkpt>
      <trkpt lat="42.99359" lon="6.23262">
        <time>2014-05-08T08:31:31.000Z</time>
      </trkpt>
      <trkpt lat="42.99365" lon="6.23276">
        <time>2014-05-08T08:31:36.000Z</time>
      </trkpt>
      <trkpt lat="42.99365" lon="6.23282">
        <time>2014-05-08T08:31:41.000Z</time>
      </trkpt>
      <trkpt lat="42.99368" lon="6.23296">
        <time>2014-05-08T08:31:46.000Z</time>
      </trkpt>
      <trkpt lat="42.99369" lon="6.23308">
        <time>2014-05-08T08:31:51.000Z</time>
      </trkpt>
      <trkpt lat="42.99369" lon="6.23317">
        <time>2014-05-08T08:31:56.000Z</time>
      </trkpt>
      <trkpt lat="42.9937" lon="6.23332">
        <time>2014-05-08T08:32:01.000Z</time>
      </trkpt>
      <trkpt lat="42.99373" lon="6.23344">
        <time>2014-05-08T08:32:06.000Z</time>
      </trkpt>
      <trkpt lat="42.99379" lon="6.23355">
        <time>2014-05-08T08:32:11.000Z</time>
      </trkpt>
      <trkpt lat="42.99383" lon="6.23366">
        <time>2014-05-08T08:32:16.000Z</time>
      </trkpt>
      <trkpt lat="42.99387" lon="6.23379">
        <ele>0.01</ele>
        <time>2014-05-08T08:32:21.000Z</time>
      </trkpt>
      <trkpt lat="42.99387" lon="6.23391">
        <ele>0.03</ele>
        <time>2014-05-08T08:32:26.000Z</time>
      </trkpt>
      <trkpt lat="42.99386" lon="6.23403">
        <ele>0.04</ele>
        <time>2014-05-08T08:32:31.000Z</time>
      </trkpt>
      <trkpt lat="42.99385" lon="6.23415">
        <ele>0.13</ele>
        <time>2014-05-08T08:32:36.000Z</time>
      </trkpt>
      <trkpt lat="42.99386" lon="6.23428">
        <ele>0.22</ele>
        <time>2014-05-08T08:32:41.000Z</time>
      </trkpt>
      <trkpt lat="42.9939" lon="6.23441">
        <ele>0.32</ele>
        <time>2014-05-08T08:32:46.000Z</time>
      </trkpt>
      <trkpt lat="42.99394" lon="6.23452">
        <ele>0.44</ele>
        <time>2014-05-08T08:32:51.000Z</time>
      </trkpt>
      <trkpt lat="42.994" lon="6.23462">
        <ele>0.57</ele>
        <time>2014-05-08T08:32:56.000Z</time>
      </trkpt>
      <trkpt lat="42.99405" lon="6.2347">
        <ele>0.7</ele>
        <time>2014-05-08T08:33:01.000Z</time>
      </trkpt>
      <trkpt lat="42.9941" lon="6.23479">
        <ele>0.73</ele>
        <time>2014-05-08T08:33:06.000Z</time>
      </trkpt>
      <trkpt lat="42.99413" lon="6.23491">
        <ele>0.76</ele>
        <time>2014-05-08T08:33:11.000Z</time>
      </trkpt>
      <trkpt lat="42.99415" lon="6.23504">
        <ele>0.79</ele>
        <time>2014-05-08T08:33:16.000Z</time>
      </trkpt>
      <trkpt lat="42.99416" lon="6.23515">
        <ele>0.77</ele>
        <time>2014-05-08T08:33:21.000Z</time>
      </trkpt>
      <trkpt lat="42.99416" lon="6.23529">
        <ele>0.74</ele>
        <time>2014-05-08T08:33:26.000Z</time>
      </trkpt>
      <trkpt lat="42.99418" lon="6.23543">
        <ele>0.72</ele>
        <time>2014-05-08T08:33:31.000Z</time>
      </trkpt>
      <trkpt lat="42.99421" lon="6.23554">
        <ele>0.64</ele>
        <time>2014-05-08T08:33:36.000Z</time>
      </trkpt>
      <trkpt lat="42.99425" lon="6.23565">
        <ele>0.56</ele>
        <time>2014-05-08T08:33:41.000Z</time>
      </trkpt>
      <trkpt lat="42.99429" lon="6.23576">
        <ele>0.48</ele>
        <time>2014-05-08T08:33:46.000Z</time>
      </trkpt>
      <trkpt lat="42.99434" lon="6.23587">
        <ele>0.44</ele>
        <time>2014-05-08T08:33:51.000Z</time>
      </trkpt>
      <trkpt lat="42.99436" lon="6.23601">
        <ele>0.4</ele>
        <time>2014-05-08T08:33:56.000Z</time>
      </trkpt>
      <trkpt lat="42.99438" lon="6.23613">
        <ele>0.36</ele>
        <time>2014-05-08T08:34:01.000Z</time>
      </trkpt>
      <trkpt lat="42.99441" lon="6.23626">
        <ele>0.35</ele>
        <time>2014-05-08T08:34:06.000Z</time>
      </trkpt>
      <trkpt lat="42.99447" lon="6.23639">
        <ele>0.34</ele>
        <time>2014-05-08T08:34:11.000Z</time>
      </trkpt>
      <trkpt lat="42.99451" lon="6.23647">
        <ele>0.34</ele>
        <time>2014-05-08T08:34:16.000Z</time>
      </trkpt>
      <trkpt lat="42.99454" lon="6.23657">
        <ele>0.23</ele>
        <time>2014-05-08T08:34:21.000Z</time>
      </trkpt>
      <trkpt lat="42.99456" lon="6.23669">
        <ele>0.11</ele>
        <time>2014-05-08T08:34:26.000Z</time>
      </trkpt>
      <trkpt lat="42.99456" lon="6.23678">
        <time>2014-05-08T08:34:31.000Z</time>
      </trkpt>
      <trkpt lat="42.99456" lon="6.23691">
        <time>2014-05-08T08:34:36.000Z</time>
      </trkpt>
      <trkpt lat="42.99456" lon="6.23701">
        <time>2014-05-08T08:34:41.000Z</time>
      </trkpt>
      <trkpt lat="42.99458" lon="6.23716">
        <time>2014-05-08T08:34:46.000Z</time>
      </trkpt>
      <trkpt lat="42.9946" lon="6.23729">
        <time>2014-05-08T08:34:51.000Z</time>
      </trkpt>
      <trkpt lat="42.99464" lon="6.23742">
        <time>2014-05-08T08:34:56.000Z</time>
      </trkpt>
      <trkpt lat="42.99468" lon="6.23754">
        <time>2014-05-08T08:35:01.000Z</time>
      </trkpt>
      <trkpt lat="42.99471" lon="6.23764">
        <time>2014-05-08T08:35:06.000Z</time>
      </trkpt>
      <trkpt lat="42.99473" lon="6.23776">
        <time>2014-05-08T08:35:11.000Z</time>
      </trkpt>
      <trkpt lat="42.99473" lon="6.23789">
        <time>2014-05-08T08:35:16.000Z</time>
      </trkpt>
      <trkpt lat="42.99472" lon="6.23802">
        <time>2014-05-08T08:35:21.000Z</time>
      </trkpt>
      <trkpt lat="42.99469" lon="6.23814">
        <time>2014-05-08T08:35:26.000Z</time>
      </trkpt>
      <trkpt lat="42.99468" lon="6.23825">
        <time>2014-05-08T08:35:31.000Z</time>
      </trkpt>
      <trkpt lat="42.99468" lon="6.23837">
        <time>2014-05-08T08:35:36.000Z</time>
      </trkpt>
      <trkpt lat="42.99468" lon="6.2385">
        <time>2014-05-08T08:35:41.000Z</time>
      </trkpt>
      <trkpt lat="42.99469" lon="6.23861">
        <time>2014-05-08T08:35:46.000Z</time>
      </trkpt>
      <trkpt lat="42.99473" lon="6.23873">
        <time>2014-05-08T08:35:51.000Z</time>
      </trkpt>
      <trkpt lat="42.99477" lon="6.23886">
        <time>2014-05-08T08:35:56.000Z</time>
      </trkpt>
      <trkpt lat="42.99481" lon="6.23897">
        <time>2014-05-08T08:36:01.000Z</time>
      </trkpt>
      <trkpt lat="42.99483" lon="6.2391">
        <time>2014-05-08T08:36:06.000Z</time>
      </trkpt>
      <trkpt lat="42.99485" lon="6.23922">
        <time>2014-05-08T08:36:11.000Z</time>
      </trkpt>
      <trkpt lat="42.99486" lon="6.23934">
        <time>2014-05-08T08:36:16.000Z</time>
      </trkpt>
      <trkpt lat="42.99489" lon="6.23946">
        <time>2014-05-08T08:36:21.000Z</time>
      </trkpt>
      <trkpt lat="42.99491" lon="6.23959">
        <time>2014-05-08T08:36:26.000Z</time>
      </trkpt>
      <trkpt lat="42.99494" lon="6.2397">
        <time>2014-05-08T08:36:31.000Z</time>
      </trkpt>
      <trkpt lat="42.99498" lon="6.23981">
        <time>2014-05-08T08:36:36.000Z</time>
      </trkpt>
      <trkpt lat="42.99501" lon="6.23991">
        <time>2014-05-08T08:36:41.000Z</time>
      </trkpt>
      <trkpt lat="42.99504" lon="6.24006">
        <time>2014-05-08T08:36:46.000Z</time>
      </trkpt>
      <trkpt lat="42.99504" lon="6.24016">
        <time>2014-05-08T08:36:51.000Z</time>
      </trkpt>
      <trkpt lat="42.99502" lon="6.24028">
        <time>2014-05-08T08:36:56.000Z</time>
      </trkpt>
      <trkpt lat="42.99499" lon="6.2404">
        <time>2014-05-08T08:37:01.000Z</time>
      </trkpt>
      <trkpt lat="42.99499" lon="6.24051">
        <time>2014-05-08T08:37:06.000Z</time>
      </trkpt>
      <trkpt lat="42.99501" lon="6.24066">
        <time>2014-05-08T08:37:11.000Z</time>
      </trkpt>
      <trkpt lat="42.99504" lon="6.24079">
        <time>2014-05-08T08:37:16.000Z</time>
      </trkpt>
      <trkpt lat="42.99508" lon="6.2409">
        <time>2014-05-08T08:37:21.000Z</time>
      </trkpt>
      <trkpt lat="42.99513" lon="6.24101">
        <time>2014-05-08T08:37:26.000Z</time>
      </trkpt>
      <trkpt lat="42.99517" lon="6.2411">
        <time>2014-05-08T08:37:31.000Z</time>
      </trkpt>
      <trkpt lat="42.99522" lon="6.2412">
        <time>2014-05-08T08:37:36.000Z</time>
      </trkpt>
      <trkpt lat="42.99523" lon="6.24133">
        <time>2014-05-08T08:37:41.000Z</time>
      </trkpt>
      <trkpt lat="42.99525" lon="6.24145">
        <time>2014-05-08T08:37:46.000Z</time>
      </trkpt>
      <trkpt lat="42.99526" lon="6.24159">
        <time>2014-05-08T08:37:51.000Z</time>
      </trkpt>
      <trkpt lat="42.99524" lon="6.24171">
        <time>2014-05-08T08:37:56.000Z</time>
      </trkpt>
      <trkpt lat="42.99523" lon="6.24182">
        <time>2014-05-08T08:38:01.000Z</time>
      </trkpt>
      <trkpt lat="42.99523" lon="6.24195">
        <time>2014-05-08T08:38:06.000Z</time>
      </trkpt>
      <trkpt lat="42.99525" lon="6.24208">
        <time>2014-05-08T08:38:11.000Z</time>
      </trkpt>
      <trkpt lat="42.9953" lon="6.2422">
        <time>2014-05-08T08:38:16.000Z</time>
      </trkpt>
      <trkpt lat="42.99534" lon="6.2423">
        <time>2014-05-08T08:38:21.000Z</time>
      </trkpt>
      <trkpt lat="42.9954" lon="6.2424">
        <time>2014-05-08T08:38:26.000Z</time>
      </trkpt>
      <trkpt lat="42.99546" lon="6.24251">
        <time>2014-05-08T08:38:31.000Z</time>
      </trkpt>
      <trkpt lat="42.99548" lon="6.24264">
        <time>2014-05-08T08:38:36.000Z</time>
      </trkpt>
      <trkpt lat="42.99553" lon="6.24276">
        <time>2014-05-08T08:38:41.000Z</time>
      </trkpt>
      <trkpt lat="42.99558" lon="6.24287">
        <time>2014-05-08T08:38:46.000Z</time>
      </trkpt>
      <trkpt lat="42.99564" lon="6.24297">
        <time>2014-05-08T08:38:51.000Z</time>
      </trkpt>
      <trkpt lat="42.99568" lon="6.24309">
        <time>2014-05-08T08:38:56.000Z</time>
      </trkpt>
      <trkpt lat="42.99571" lon="6.24321">
        <time>2014-05-08T08:39:01.000Z</time>
      </trkpt>
      <trkpt lat="42.99574" lon="6.24333">
        <time>2014-05-08T08:39:06.000Z</time>
      </trkpt>
      <trkpt lat="42.99578" lon="6.24345">
        <time>2014-05-08T08:39:11.000Z</time>
      </trkpt>
      <trkpt lat="42.99585" lon="6.24356">
        <time>2014-05-08T08:39:16.000Z</time>
      </trkpt>
      <trkpt lat="42.99589" lon="6.24367">
        <time>2014-05-08T08:39:21.000Z</time>
      </trkpt>
      <trkpt lat="42.99591" lon="6.24378">
        <time>2014-05-08T08:39:26.000Z</time>
      </trkpt>
      <trkpt lat="42.99591" lon="6.2439">
        <time>2014-05-08T08:39:31.000Z</time>
      </trkpt>
      <trkpt lat="42.99594" lon="6.24404">
        <time>2014-05-08T08:39:36.000Z</time>
      </trkpt>
      <trkpt lat="42.996" lon="6.24415">
        <time>2014-05-08T08:39:41.000Z</time>
      </trkpt>
      <trkpt lat="42.99605" lon="6.24425">
        <time>2014-05-08T08:39:46.000Z</time>
      </trkpt>
      <trkpt lat="42.99609" lon="6.24431">
        <time>2014-05-08T08:39:51.000Z</time>
      </trkpt>
      <trkpt lat="42.99616" lon="6.24444">
        <time>2014-05-08T08:39:56.000Z</time>
      </trkpt>
      <trkpt lat="42.99614" lon="6.24434">
        <time>2014-05-08T08:40:01.000Z</time>
      </trkpt>
      <trkpt lat="42.99613" lon="6.2444">
        <time>2014-05-08T08:40:06.000Z</time>
      </trkpt>
      <trkpt lat="42.9961" lon="6.24441">
        <time>2014-05-08T08:40:11.000Z</time>
      </trkpt>
      <trkpt lat="42.99611" lon="6.24444">
        <time>2014-05-08T08:40:16.000Z</time>
      </trkpt>
      <trkpt lat="42.99613" lon="6.24447">
        <time>2014-05-08T08:40:21.000Z</time>
      </trkpt>
      <trkpt lat="42.99613" lon="6.2445">
        <time>2014-05-08T08:40:26.000Z</time>
      </trkpt>
      <trkpt lat="42.99614" lon="6.24451">
        <time>2014-05-08T08:40:31.000Z</time>
      </trkpt>
      <trkpt lat="42.99615" lon="6.24453">
        <time>2014-05-08T08:40:36.000Z</time>
      </trkpt>
      <trkpt lat="42.99616" lon="6.24454">
        <time>2014-05-08T08:40:41.000Z</time>
      </trkpt>
      <trkpt lat="42.99617" lon="6.24455">
        <time>2014-05-08T08:40:46.000Z</time>
      </trkpt>
      <trkpt lat="42.99618" lon="6.24456">
        <time>2014-05-08T08:40:51.000Z</time>
      </trkpt>
      <trkpt lat="42.99619" lon="6.24459">
        <time>2014-05-08T08:40:56.000Z</time>
      </trkpt>
      <trkpt lat="42.9962" lon="6.24461">
        <time>2014-05-08T08:41:01.000Z</time>
      </trkpt>
      <trkpt lat="42.99621" lon="6.2447">
        <time>2014-05-08T08:41:06.000Z</time>
      </trkpt>
      <trkpt lat="42.99622" lon="6.24476">
        <time>2014-05-08T08:41:11.000Z</time>
      </trkpt>
      <trkpt lat="42.99622" lon="6.2448">
        <time>2014-05-08T08:41:16.000Z</time>
      </trkpt>
      <trkpt lat="42.99623" lon="6.24483">
        <time>2014-05-08T08:41:21.000Z</time>
      </trkpt>
      <trkpt lat="42.99624" lon="6.24485">
        <time>2014-05-08T08:41:26.000Z</time>
      </trkpt>
      <trkpt lat="42.99626" lon="6.24488">
        <time>2014-05-08T08:41:31.000Z</time>
      </trkpt>
      <trkpt lat="42.99627" lon="6.24493">
        <time>2014-05-08T08:41:36.000Z</time>
      </trkpt>
      <trkpt lat="42.99627" lon="6.24499">
        <time>2014-05-08T08:41:41.000Z</time>
      </trkpt>
      <trkpt lat="42.99627" lon="6.2451">
        <time>2014-05-08T08:41:46.000Z</time>
      </trkpt>
      <trkpt lat="42.99627" lon="6.24521">
        <time>2014-05-08T08:41:51.000Z</time>
      </trkpt>
      <trkpt lat="42.99629" lon="6.24537">
        <time>2014-05-08T08:41:56.000Z</time>
      </trkpt>
      <trkpt lat="42.99632" lon="6.24547">
        <ele>0.01</ele>
        <time>2014-05-08T08:42:01.000Z</time>
      </trkpt>
      <trkpt lat="42.99637" lon="6.24557">
        <ele>0.12</ele>
        <time>2014-05-08T08:42:06.000Z</time>
      </trkpt>
      <trkpt lat="42.99642" lon="6.24566">
        <ele>0.22</ele>
        <time>2014-05-08T08:42:11.000Z</time>
      </trkpt>
      <trkpt lat="42.99648" lon="6.24574">
        <ele>0.33</ele>
        <time>2014-05-08T08:42:16.000Z</time>
      </trkpt>
      <trkpt lat="42.99654" lon="6.24584">
        <ele>0.48</ele>
        <time>2014-05-08T08:42:21.000Z</time>
      </trkpt>
      <trkpt lat="42.99658" lon="6.24595">
        <ele>0.63</ele>
        <time>2014-05-08T08:42:26.000Z</time>
      </trkpt>
      <trkpt lat="42.99659" lon="6.24608">
        <ele>0.77</ele>
        <time>2014-05-08T08:42:31.000Z</time>
      </trkpt>
      <trkpt lat="42.99659" lon="6.24619">
        <ele>1.02</ele>
        <time>2014-05-08T08:42:36.000Z</time>
      </trkpt>
      <trkpt lat="42.99663" lon="6.24632">
        <ele>1.27</ele>
        <time>2014-05-08T08:42:41.000Z</time>
      </trkpt>
      <trkpt lat="42.99667" lon="6.24644">
        <ele>1.52</ele>
        <time>2014-05-08T08:42:46.000Z</time>
      </trkpt>
      <trkpt lat="42.99672" lon="6.24655">
        <ele>1.77</ele>
        <time>2014-05-08T08:42:51.000Z</time>
      </trkpt>
      <trkpt lat="42.99678" lon="6.24664">
        <ele>2.03</ele>
        <time>2014-05-08T08:42:56.000Z</time>
      </trkpt>
      <trkpt lat="42.99684" lon="6.24673">
        <ele>2.28</ele>
        <time>2014-05-08T08:43:01.000Z</time>
      </trkpt>
      <trkpt lat="42.99689" lon="6.24683">
        <ele>2.48</ele>
        <time>2014-05-08T08:43:06.000Z</time>
      </trkpt>
      <trkpt lat="42.99694" lon="6.24694">
        <ele>2.69</ele>
        <time>2014-05-08T08:43:11.000Z</time>
      </trkpt>
      <trkpt lat="42.99698" lon="6.24705">
        <ele>2.89</ele>
        <time>2014-05-08T08:43:16.000Z</time>
      </trkpt>
      <trkpt lat="42.99705" lon="6.24715">
        <ele>3.56</ele>
        <time>2014-05-08T08:43:21.000Z</time>
      </trkpt>
      <trkpt lat="42.99712" lon="6.24722">
        <ele>4.23</ele>
        <time>2014-05-08T08:43:26.000Z</time>
      </trkpt>
      <trkpt lat="42.99719" lon="6.2473">
        <ele>4.9</ele>
        <time>2014-05-08T08:43:31.000Z</time>
      </trkpt>
      <trkpt lat="42.99722" lon="6.24742">
        <ele>4.82</ele>
        <time>2014-05-08T08:43:36.000Z</time>
      </trkpt>
      <trkpt lat="42.99724" lon="6.24754">
        <ele>4.73</ele>
        <time>2014-05-08T08:43:41.000Z</time>
      </trkpt>
      <trkpt lat="42.99724" lon="6.24768">
        <ele>4.65</ele>
        <time>2014-05-08T08:43:46.000Z</time>
      </trkpt>
      <trkpt lat="42.99729" lon="6.2478">
        <ele>5.01</ele>
        <time>2014-05-08T08:43:51.000Z</time>
      </trkpt>
      <trkpt lat="42.99736" lon="6.24791">
        <ele>5.37</ele>
        <time>2014-05-08T08:43:56.000Z</time>
      </trkpt>
      <trkpt lat="42.99743" lon="6.248">
        <ele>5.73</ele>
        <time>2014-05-08T08:44:01.000Z</time>
      </trkpt>
      <trkpt lat="42.99752" lon="6.24807">
        <ele>5.61</ele>
        <time>2014-05-08T08:44:06.000Z</time>
      </trkpt>
      <trkpt lat="42.99758" lon="6.24814">
        <ele>5.5</ele>
        <time>2014-05-08T08:44:11.000Z</time>
      </trkpt>
      <trkpt lat="42.99763" lon="6.2482">
        <ele>5.39</ele>
        <time>2014-05-08T08:44:16.000Z</time>
      </trkpt>
      <trkpt lat="42.99765" lon="6.24832">
        <ele>4.61</ele>
        <time>2014-05-08T08:44:21.000Z</time>
      </trkpt>
      <trkpt lat="42.99765" lon="6.24845">
        <ele>3.84</ele>
        <time>2014-05-08T08:44:26.000Z</time>
      </trkpt>
      <trkpt lat="42.99765" lon="6.2486">
        <ele>3.07</ele>
        <time>2014-05-08T08:44:31.000Z</time>
      </trkpt>
      <trkpt lat="42.99764" lon="6.24871">
        <ele>2.5</ele>
        <time>2014-05-08T08:44:36.000Z</time>
      </trkpt>
      <trkpt lat="42.99763" lon="6.24883">
        <ele>1.93</ele>
        <time>2014-05-08T08:44:41.000Z</time>
      </trkpt>
      <trkpt lat="42.99765" lon="6.24896">
        <ele>1.36</ele>
        <time>2014-05-08T08:44:46.000Z</time>
      </trkpt>
      <trkpt lat="42.99768" lon="6.24908">
        <ele>1.48</ele>
        <time>2014-05-08T08:44:51.000Z</time>
      </trkpt>
      <trkpt lat="42.99772" lon="6.24919">
        <ele>1.6</ele>
        <time>2014-05-08T08:44:56.000Z</time>
      </trkpt>
      <trkpt lat="42.99778" lon="6.24926">
        <ele>1.71</ele>
        <time>2014-05-08T08:45:01.000Z</time>
      </trkpt>
      <trkpt lat="42.99784" lon="6.24934">
        <ele>1.98</ele>
        <time>2014-05-08T08:45:06.000Z</time>
      </trkpt>
      <trkpt lat="42.99791" lon="6.24942">
        <ele>2.24</ele>
        <time>2014-05-08T08:45:11.000Z</time>
      </trkpt>
      <trkpt lat="42.99797" lon="6.24951">
        <ele>2.5</ele>
        <time>2014-05-08T08:45:16.000Z</time>
      </trkpt>
      <trkpt lat="42.99804" lon="6.24959">
        <ele>2.57</ele>
        <time>2014-05-08T08:45:21.000Z</time>
      </trkpt>
      <trkpt lat="42.99811" lon="6.24967">
        <ele>2.63</ele>
        <time>2014-05-08T08:45:26.000Z</time>
      </trkpt>
      <trkpt lat="42.9982" lon="6.24974">
        <ele>2.69</ele>
        <time>2014-05-08T08:45:31.000Z</time>
      </trkpt>
      <trkpt lat="42.99827" lon="6.2498">
        <ele>3.08</ele>
        <time>2014-05-08T08:45:36.000Z</time>
      </trkpt>
      <trkpt lat="42.99834" lon="6.24983">
        <ele>3.47</ele>
        <time>2014-05-08T08:45:41.000Z</time>
      </trkpt>
      <trkpt lat="42.99842" lon="6.2499">
        <ele>3.86</ele>
        <time>2014-05-08T08:45:46.000Z</time>
      </trkpt>
      <trkpt lat="42.9985" lon="6.24998">
        <ele>4.55</ele>
        <time>2014-05-08T08:45:51.000Z</time>
      </trkpt>
      <trkpt lat="42.99857" lon="6.25006">
        <ele>5.24</ele>
        <time>2014-05-08T08:45:56.000Z</time>
      </trkpt>
      <trkpt lat="42.99864" lon="6.25012">
        <ele>5.93</ele>
        <time>2014-05-08T08:46:01.000Z</time>
      </trkpt>
      <trkpt lat="42.99872" lon="6.25017">
        <ele>5.88</ele>
        <time>2014-05-08T08:46:06.000Z</time>
      </trkpt>
      <trkpt lat="42.99879" lon="6.25024">
        <ele>5.82</ele>
        <time>2014-05-08T08:46:11.000Z</time>
      </trkpt>
      <trkpt lat="42.99884" lon="6.25031">
        <ele>5.77</ele>
        <time>2014-05-08T08:46:16.000Z</time>
      </trkpt>
      <trkpt lat="42.99886" lon="6.25035">
        <ele>5.87</ele>
        <time>2014-05-08T08:46:21.000Z</time>
      </trkpt>
      <trkpt lat="42.99893" lon="6.2504">
        <ele>5.97</ele>
        <time>2014-05-08T08:46:26.000Z</time>
      </trkpt>
      <trkpt lat="42.999" lon="6.25044">
        <ele>6.08</ele>
        <time>2014-05-08T08:46:31.000Z</time>
      </trkpt>
      <trkpt lat="42.99909" lon="6.25046">
        <ele>6.12</ele>
        <time>2014-05-08T08:46:36.000Z</time>
      </trkpt>
      <trkpt lat="42.99914" lon="6.25049">
        <ele>6.17</ele>
        <time>2014-05-08T08:46:41.000Z</time>
      </trkpt>
      <trkpt lat="42.99917" lon="6.25048">
        <ele>6.21</ele>
        <time>2014-05-08T08:46:46.000Z</time>
      </trkpt>
      <trkpt lat="42.99921" lon="6.2505">
        <ele>6.39</ele>
        <time>2014-05-08T08:46:51.000Z</time>
      </trkpt>
      <trkpt lat="42.99926" lon="6.25051">
        <ele>6.56</ele>
        <time>2014-05-08T08:46:56.000Z</time>
      </trkpt>
      <trkpt lat="42.99931" lon="6.25052">
        <ele>6.74</ele>
        <time>2014-05-08T08:47:01.000Z</time>
      </trkpt>
      <trkpt lat="42.99936" lon="6.25052">
        <ele>6.9</ele>
        <time>2014-05-08T08:47:06.000Z</time>
      </trkpt>
      <trkpt lat="42.99939" lon="6.25051">
        <ele>7.06</ele>
        <time>2014-05-08T08:47:11.000Z</time>
      </trkpt>
      <trkpt lat="42.99942" lon="6.25051">
        <ele>7.21</ele>
        <time>2014-05-08T08:47:16.000Z</time>
      </trkpt>
      <trkpt lat="42.99945" lon="6.25052">
        <ele>7.42</ele>
        <time>2014-05-08T08:47:21.000Z</time>
      </trkpt>
      <trkpt lat="42.9995" lon="6.25052">
        <ele>7.63</ele>
        <time>2014-05-08T08:47:26.000Z</time>
      </trkpt>
      <trkpt lat="42.99956" lon="6.25053">
        <ele>7.84</ele>
        <time>2014-05-08T08:47:31.000Z</time>
      </trkpt>
      <trkpt lat="42.99962" lon="6.25054">
        <ele>7.84</ele>
        <time>2014-05-08T08:47:36.000Z</time>
      </trkpt>
      <trkpt lat="42.99966" lon="6.25056">
        <ele>7.84</ele>
        <time>2014-05-08T08:47:41.000Z</time>
      </trkpt>
      <trkpt lat="42.99971" lon="6.25059">
        <ele>7.84</ele>
        <time>2014-05-08T08:47:46.000Z</time>
      </trkpt>
      <trkpt lat="42.99973" lon="6.25061">
        <ele>7.75</ele>
        <time>2014-05-08T08:47:51.000Z</time>
      </trkpt>
      <trkpt lat="42.99974" lon="6.25063">
        <ele>7.65</ele>
        <time>2014-05-08T08:47:56.000Z</time>
      </trkpt>
      <trkpt lat="42.99977" lon="6.25065">
        <ele>7.56</ele>
        <time>2014-05-08T08:48:01.000Z</time>
      </trkpt>
      <trkpt lat="42.99979" lon="6.25067">
        <ele>7.24</ele>
        <time>2014-05-08T08:48:06.000Z</time>
      </trkpt>
      <trkpt lat="42.99981" lon="6.2507">
        <ele>6.92</ele>
        <time>2014-05-08T08:48:11.000Z</time>
      </trkpt>
      <trkpt lat="42.99983" lon="6.25074">
        <ele>6.59</ele>
        <time>2014-05-08T08:48:16.000Z</time>
      </trkpt>
      <trkpt lat="42.99986" lon="6.25077">
        <ele>6.32</ele>
        <time>2014-05-08T08:48:21.000Z</time>
      </trkpt>
      <trkpt lat="42.99989" lon="6.2508">
        <ele>6.04</ele>
        <time>2014-05-08T08:48:26.000Z</time>
      </trkpt>
      <trkpt lat="42.99992" lon="6.25083">
        <ele>5.77</ele>
        <time>2014-05-08T08:48:31.000Z</time>
      </trkpt>
      <trkpt lat="42.99995" lon="6.25084">
        <ele>5.28</ele>
        <time>2014-05-08T08:48:36.000Z</time>
      </trkpt>
      <trkpt lat="42.99998" lon="6.25086">
        <ele>4.8</ele>
        <time>2014-05-08T08:48:41.000Z</time>
      </trkpt>
      <trkpt lat="43.00003" lon="6.2509">
        <ele>4.32</ele>
        <time>2014-05-08T08:48:46.000Z</time>
      </trkpt>
      <trkpt lat="43.00009" lon="6.25098">
        <ele>3.91</ele>
        <time>2014-05-08T08:48:51.000Z</time>
      </trkpt>
      <trkpt lat="43.00016" lon="6.25104">
        <ele>3.5</ele>
        <time>2014-05-08T08:48:56.000Z</time>
      </trkpt>
      <trkpt lat="43.00023" lon="6.25108">
        <ele>3.09</ele>
        <time>2014-05-08T08:49:01.000Z</time>
      </trkpt>
      <trkpt lat="43.00029" lon="6.2511">
        <ele>3.15</ele>
        <time>2014-05-08T08:49:06.000Z</time>
      </trkpt>
      <trkpt lat="43.00036" lon="6.25111">
        <ele>3.21</ele>
        <time>2014-05-08T08:49:11.000Z</time>
      </trkpt>
      <trkpt lat="43.0004" lon="6.25111">
        <ele>3.27</ele>
        <time>2014-05-08T08:49:16.000Z</time>
      </trkpt>
      <trkpt lat="43.00044" lon="6.25108">
        <ele>3.09</ele>
        <time>2014-05-08T08:49:21.000Z</time>
      </trkpt>
      <trkpt lat="43.00049" lon="6.25105">
        <ele>2.91</ele>
        <time>2014-05-08T08:49:26.000Z</time>
      </trkpt>
      <trkpt lat="43.00058" lon="6.25107">
        <ele>2.73</ele>
        <time>2014-05-08T08:49:31.000Z</time>
      </trkpt>
      <trkpt lat="43.00068" lon="6.25109">
        <ele>2.5</ele>
        <time>2014-05-08T08:49:36.000Z</time>
      </trkpt>
      <trkpt lat="43.00077" lon="6.25113">
        <ele>2.26</ele>
        <time>2014-05-08T08:49:41.000Z</time>
      </trkpt>
      <trkpt lat="43.0008" lon="6.25115">
        <ele>2.03</ele>
        <time>2014-05-08T08:49:46.000Z</time>
      </trkpt>
      <trkpt lat="43.00084" lon="6.25115">
        <ele>1.94</ele>
        <time>2014-05-08T08:49:51.000Z</time>
      </trkpt>
      <trkpt lat="43.00089" lon="6.25114">
        <ele>1.85</ele>
        <time>2014-05-08T08:49:56.000Z</time>
      </trkpt>
      <trkpt lat="43.00095" lon="6.25113">
        <ele>1.77</ele>
        <time>2014-05-08T08:50:01.000Z</time>
      </trkpt>
      <trkpt lat="43.00102" lon="6.25114">
        <ele>1.45</ele>
        <time>2014-05-08T08:50:06.000Z</time>
      </trkpt>
      <trkpt lat="43.00111" lon="6.25117">
        <ele>1.13</ele>
        <time>2014-05-08T08:50:11.000Z</time>
      </trkpt>
      <trkpt lat="43.00119" lon="6.2512">
        <ele>0.82</ele>
        <time>2014-05-08T08:50:16.000Z</time>
      </trkpt>
      <trkpt lat="43.00129" lon="6.25124">
        <ele>0.68</ele>
        <time>2014-05-08T08:50:21.000Z</time>
      </trkpt>
      <trkpt lat="43.00138" lon="6.25129">
        <ele>0.55</ele>
        <time>2014-05-08T08:50:26.000Z</time>
      </trkpt>
      <trkpt lat="43.00146" lon="6.25131">
        <ele>0.42</ele>
        <time>2014-05-08T08:50:31.000Z</time>
      </trkpt>
      <trkpt lat="43.00154" lon="6.2513">
        <ele>0.36</ele>
        <time>2014-05-08T08:50:36.000Z</time>
      </trkpt>
      <trkpt lat="43.00159" lon="6.25129">
        <ele>0.3</ele>
        <time>2014-05-08T08:50:41.000Z</time>
      </trkpt>
      <trkpt lat="43.00169" lon="6.25125">
        <ele>0.21</ele>
        <time>2014-05-08T08:50:51.000Z</time>
      </trkpt>
      <trkpt lat="43.0017" lon="6.25132">
        <ele>0.19</ele>
        <time>2014-05-08T08:50:56.000Z</time>
      </trkpt>
      <trkpt lat="43.00172" lon="6.25131">
        <ele>0.17</ele>
        <time>2014-05-08T08:51:01.000Z</time>
      </trkpt>
      <trkpt lat="43.00173" lon="6.25133">
        <ele>0.11</ele>
        <time>2014-05-08T08:51:06.000Z</time>
      </trkpt>
      <trkpt lat="43.00174" lon="6.25134">
        <ele>0.06</ele>
        <time>2014-05-08T08:51:11.000Z</time>
      </trkpt>
      <trkpt lat="43.00181" lon="6.25131">
        <time>2014-05-08T08:51:16.000Z</time>
      </trkpt>
      <trkpt lat="43.00187" lon="6.25126">
        <ele>0.06</ele>
        <time>2014-05-08T08:51:21.000Z</time>
      </trkpt>
      <trkpt lat="43.00193" lon="6.25121">
        <ele>0.13</ele>
        <time>2014-05-08T08:51:26.000Z</time>
      </trkpt>
      <trkpt lat="43.002" lon="6.25118">
        <ele>0.19</ele>
        <time>2014-05-08T08:51:31.000Z</time>
      </trkpt>
      <trkpt lat="43.00205" lon="6.25113">
        <ele>0.28</ele>
        <time>2014-05-08T08:51:36.000Z</time>
      </trkpt>
      <trkpt lat="43.00212" lon="6.25107">
        <ele>0.36</ele>
        <time>2014-05-08T08:51:41.000Z</time>
      </trkpt>
      <trkpt lat="43.00217" lon="6.25098">
        <ele>0.44</ele>
        <time>2014-05-08T08:51:46.000Z</time>
      </trkpt>
      <trkpt lat="43.00223" lon="6.2509">
        <ele>0.38</ele>
        <time>2014-05-08T08:51:51.000Z</time>
      </trkpt>
      <trkpt lat="43.00229" lon="6.25082">
        <ele>0.32</ele>
        <time>2014-05-08T08:51:56.000Z</time>
      </trkpt>
      <trkpt lat="43.00237" lon="6.25075">
        <ele>0.25</ele>
        <time>2014-05-08T08:52:01.000Z</time>
      </trkpt>
      <trkpt lat="43.00244" lon="6.2507">
        <ele>0.23</ele>
        <time>2014-05-08T08:52:06.000Z</time>
      </trkpt>
      <trkpt lat="43.0025" lon="6.25061">
        <ele>0.22</ele>
        <time>2014-05-08T08:52:11.000Z</time>
      </trkpt>
      <trkpt lat="43.00256" lon="6.25055">
        <ele>0.2</ele>
        <time>2014-05-08T08:52:16.000Z</time>
      </trkpt>
      <trkpt lat="43.00263" lon="6.25049">
        <ele>0.42</ele>
        <time>2014-05-08T08:52:21.000Z</time>
      </trkpt>
      <trkpt lat="43.00267" lon="6.25041">
        <ele>0.64</ele>
        <time>2014-05-08T08:52:26.000Z</time>
      </trkpt>
      <trkpt lat="43.00272" lon="6.25034">
        <ele>0.86</ele>
        <time>2014-05-08T08:52:31.000Z</time>
      </trkpt>
      <trkpt lat="43.00281" lon="6.25027">
        <ele>0.92</ele>
        <time>2014-05-08T08:52:36.000Z</time>
      </trkpt>
      <trkpt lat="43.00292" lon="6.2502">
        <ele>0.98</ele>
        <time>2014-05-08T08:52:41.000Z</time>
      </trkpt>
      <trkpt lat="43.00303" lon="6.25011">
        <ele>1.04</ele>
        <time>2014-05-08T08:52:46.000Z</time>
      </trkpt>
      <trkpt lat="43.0031" lon="6.25002">
        <ele>1.03</ele>
        <time>2014-05-08T08:52:51.000Z</time>
      </trkpt>
      <trkpt lat="43.00315" lon="6.24996">
        <ele>1.02</ele>
        <time>2014-05-08T08:52:56.000Z</time>
      </trkpt>
      <trkpt lat="43.00318" lon="6.2499">
        <ele>1.01</ele>
        <time>2014-05-08T08:53:01.000Z</time>
      </trkpt>
      <trkpt lat="43.00325" lon="6.24986">
        <ele>1.44</ele>
        <time>2014-05-08T08:53:06.000Z</time>
      </trkpt>
      <trkpt lat="43.00331" lon="6.24982">
        <ele>1.86</ele>
        <time>2014-05-08T08:53:11.000Z</time>
      </trkpt>
      <trkpt lat="43.00336" lon="6.24978">
        <ele>2.28</ele>
        <time>2014-05-08T08:53:16.000Z</time>
      </trkpt>
      <trkpt lat="43.00339" lon="6.24974">
        <ele>2.68</ele>
        <time>2014-05-08T08:53:21.000Z</time>
      </trkpt>
      <trkpt lat="43.00341" lon="6.24971">
        <ele>3.08</ele>
        <time>2014-05-08T08:53:26.000Z</time>
      </trkpt>
      <trkpt lat="43.00344" lon="6.24968">
        <ele>3.48</ele>
        <time>2014-05-08T08:53:31.000Z</time>
      </trkpt>
      <trkpt lat="43.0035" lon="6.24963">
        <ele>2.96</ele>
        <time>2014-05-08T08:53:36.000Z</time>
      </trkpt>
      <trkpt lat="43.00356" lon="6.24956">
        <ele>2.43</ele>
        <time>2014-05-08T08:53:41.000Z</time>
      </trkpt>
      <trkpt lat="43.00365" lon="6.24996">
        <ele>1.9</ele>
        <time>2014-05-08T08:53:46.000Z</time>
      </trkpt>
      <trkpt lat="43.00365" lon="6.24998">
        <ele>1.91</ele>
        <time>2014-05-08T08:53:51.000Z</time>
      </trkpt>
      <trkpt lat="43.00365" lon="6.25">
        <ele>1.91</ele>
        <time>2014-05-08T08:53:56.000Z</time>
      </trkpt>
      <trkpt lat="43.00366" lon="6.25003">
        <ele>1.92</ele>
        <time>2014-05-08T08:54:01.000Z</time>
      </trkpt>
      <trkpt lat="43.00371" lon="6.25003">
        <ele>1.97</ele>
        <time>2014-05-08T08:54:06.000Z</time>
      </trkpt>
      <trkpt lat="43.00373" lon="6.25004">
        <ele>2.03</ele>
        <time>2014-05-08T08:54:11.000Z</time>
      </trkpt>
      <trkpt lat="43.00375" lon="6.25004">
        <ele>2.08</ele>
        <time>2014-05-08T08:54:16.000Z</time>
      </trkpt>
      <trkpt lat="43.00377" lon="6.25003">
        <ele>1.8</ele>
        <time>2014-05-08T08:54:21.000Z</time>
      </trkpt>
      <trkpt lat="43.00375" lon="6.25009">
        <ele>1.53</ele>
        <time>2014-05-08T08:54:26.000Z</time>
      </trkpt>
      <trkpt lat="43.00371" lon="6.25018">
        <ele>1.25</ele>
        <time>2014-05-08T08:54:31.000Z</time>
      </trkpt>
      <trkpt lat="43.00366" lon="6.25027">
        <ele>0.98</ele>
        <time>2014-05-08T08:54:36.000Z</time>
      </trkpt>
      <trkpt lat="43.00361" lon="6.25036">
        <ele>0.72</ele>
        <time>2014-05-08T08:54:41.000Z</time>
      </trkpt>
      <trkpt lat="43.00357" lon="6.25044">
        <ele>0.45</ele>
        <time>2014-05-08T08:54:46.000Z</time>
      </trkpt>
      <trkpt lat="43.00354" lon="6.25053">
        <ele>0.47</ele>
        <time>2014-05-08T08:54:51.000Z</time>
      </trkpt>
      <trkpt lat="43.00353" lon="6.25059">
        <ele>0.48</ele>
        <time>2014-05-08T08:54:56.000Z</time>
      </trkpt>
      <trkpt lat="43.00355" lon="6.25064">
        <ele>0.5</ele>
        <time>2014-05-08T08:55:01.000Z</time>
      </trkpt>
      <trkpt lat="43.00358" lon="6.25066">
        <ele>0.48</ele>
        <time>2014-05-08T08:55:06.000Z</time>
      </trkpt>
      <trkpt lat="43.00358" lon="6.2507">
        <ele>0.47</ele>
        <time>2014-05-08T08:55:11.000Z</time>
      </trkpt>
      <trkpt lat="43.00357" lon="6.25075">
        <ele>0.45</ele>
        <time>2014-05-08T08:55:16.000Z</time>
      </trkpt>
      <trkpt lat="43.00355" lon="6.25082">
        <ele>0.44</ele>
        <time>2014-05-08T08:55:21.000Z</time>
      </trkpt>
      <trkpt lat="43.00352" lon="6.25088">
        <ele>0.43</ele>
        <time>2014-05-08T08:55:26.000Z</time>
      </trkpt>
      <trkpt lat="43.00351" lon="6.25095">
        <ele>0.42</ele>
        <time>2014-05-08T08:55:31.000Z</time>
      </trkpt>
      <trkpt lat="43.00352" lon="6.25102">
        <ele>0.37</ele>
        <time>2014-05-08T08:55:36.000Z</time>
      </trkpt>
      <trkpt lat="43.00352" lon="6.25107">
        <ele>0.33</ele>
        <time>2014-05-08T08:55:41.000Z</time>
      </trkpt>
      <trkpt lat="43.00349" lon="6.25112">
        <ele>0.28</ele>
        <time>2014-05-08T08:55:46.000Z</time>
      </trkpt>
      <trkpt lat="43.00343" lon="6.25118">
        <ele>0.29</ele>
        <time>2014-05-08T08:55:51.000Z</time>
      </trkpt>
      <trkpt lat="43.00343" lon="6.25121">
        <ele>0.3</ele>
        <time>2014-05-08T08:55:56.000Z</time>
      </trkpt>
      <trkpt lat="43.00344" lon="6.25124">
        <ele>0.31</ele>
        <time>2014-05-08T08:56:01.000Z</time>
      </trkpt>
      <trkpt lat="43.00345" lon="6.25127">
        <ele>0.3</ele>
        <time>2014-05-08T08:56:06.000Z</time>
      </trkpt>
      <trkpt lat="43.00345" lon="6.25132">
        <ele>0.29</ele>
        <time>2014-05-08T08:56:11.000Z</time>
      </trkpt>
      <trkpt lat="43.00344" lon="6.25136">
        <ele>0.29</ele>
        <time>2014-05-08T08:56:16.000Z</time>
      </trkpt>
      <trkpt lat="43.00343" lon="6.2514">
        <ele>0.29</ele>
        <time>2014-05-08T08:56:21.000Z</time>
      </trkpt>
      <trkpt lat="43.00343" lon="6.25143">
        <ele>0.29</ele>
        <time>2014-05-08T08:56:26.000Z</time>
      </trkpt>
      <trkpt lat="43.00342" lon="6.25146">
        <ele>0.3</ele>
        <time>2014-05-08T08:56:31.000Z</time>
      </trkpt>
      <trkpt lat="43.00344" lon="6.25149">
        <ele>0.28</ele>
        <time>2014-05-08T08:56:36.000Z</time>
      </trkpt>
      <trkpt lat="43.00344" lon="6.25151">
        <ele>0.26</ele>
        <time>2014-05-08T08:56:41.000Z</time>
      </trkpt>
      <trkpt lat="43.00342" lon="6.25154">
        <ele>0.25</ele>
        <time>2014-05-08T08:56:46.000Z</time>
      </trkpt>
      <trkpt lat="43.0034" lon="6.25159">
        <ele>0.26</ele>
        <time>2014-05-08T08:56:51.000Z</time>
      </trkpt>
      <trkpt lat="43.0034" lon="6.25166">
        <ele>0.28</ele>
        <time>2014-05-08T08:56:56.000Z</time>
      </trkpt>
      <trkpt lat="43.00343" lon="6.2517">
        <ele>0.3</ele>
        <time>2014-05-08T08:57:01.000Z</time>
      </trkpt>
      <trkpt lat="43.00344" lon="6.25175">
        <ele>0.29</ele>
        <time>2014-05-08T08:57:06.000Z</time>
      </trkpt>
      <trkpt lat="43.00345" lon="6.2518">
        <ele>0.28</ele>
        <time>2014-05-08T08:57:11.000Z</time>
      </trkpt>
      <trkpt lat="43.00343" lon="6.25184">
        <ele>0.27</ele>
        <time>2014-05-08T08:57:16.000Z</time>
      </trkpt>
      <trkpt lat="43.00342" lon="6.25186">
        <ele>0.26</ele>
        <time>2014-05-08T08:57:21.000Z</time>
      </trkpt>
      <trkpt lat="43.0034" lon="6.25186">
        <ele>0.25</ele>
        <time>2014-05-08T08:57:26.000Z</time>
      </trkpt>
      <trkpt lat="43.00339" lon="6.25191">
        <ele>0.25</ele>
        <time>2014-05-08T08:57:31.000Z</time>
      </trkpt>
      <trkpt lat="43.0034" lon="6.25189">
        <ele>0.26</ele>
        <time>2014-05-08T08:57:36.000Z</time>
      </trkpt>
      <trkpt lat="43.00343" lon="6.25188">
        <ele>0.28</ele>
        <time>2014-05-08T08:57:41.000Z</time>
      </trkpt>
      <trkpt lat="43.00345" lon="6.25192">
        <ele>0.3</ele>
        <time>2014-05-08T08:57:46.000Z</time>
      </trkpt>
      <trkpt lat="43.00347" lon="6.25199">
        <ele>0.27</ele>
        <time>2014-05-08T08:57:51.000Z</time>
      </trkpt>
      <trkpt lat="43.00346" lon="6.25207">
        <ele>0.24</ele>
        <time>2014-05-08T08:57:56.000Z</time>
      </trkpt>
      <trkpt lat="43.00348" lon="6.25215">
        <ele>0.21</ele>
        <time>2014-05-08T08:58:01.000Z</time>
      </trkpt>
      <trkpt lat="43.0035" lon="6.25222">
        <ele>0.18</ele>
        <time>2014-05-08T08:58:06.000Z</time>
      </trkpt>
      <trkpt lat="43.00352" lon="6.25229">
        <ele>0.16</ele>
        <time>2014-05-08T08:58:11.000Z</time>
      </trkpt>
      <trkpt lat="43.00354" lon="6.25235">
        <ele>0.13</ele>
        <time>2014-05-08T08:58:16.000Z</time>
      </trkpt>
      <trkpt lat="43.00358" lon="6.25242">
        <ele>0.09</ele>
        <time>2014-05-08T08:58:21.000Z</time>
      </trkpt>
      <trkpt lat="43.00361" lon="6.25249">
        <ele>0.04</ele>
        <time>2014-05-08T08:58:26.000Z</time>
      </trkpt>
      <trkpt lat="43.00363" lon="6.25258">
        <time>2014-05-08T08:58:31.000Z</time>
      </trkpt>
      <trkpt lat="43.00366" lon="6.25267">
        <time>2014-05-08T08:58:36.000Z</time>
      </trkpt>
      <trkpt lat="43.00369" lon="6.25273">
        <time>2014-05-08T08:58:41.000Z</time>
      </trkpt>
      <trkpt lat="43.00374" lon="6.2528">
        <time>2014-05-08T08:58:46.000Z</time>
      </trkpt>
      <trkpt lat="43.00381" lon="6.25285">
        <time>2014-05-08T08:58:51.000Z</time>
      </trkpt>
      <trkpt lat="43.00388" lon="6.25288">
        <time>2014-05-08T08:58:56.000Z</time>
      </trkpt>
      <trkpt lat="43.00396" lon="6.2529">
        <time>2014-05-08T08:59:01.000Z</time>
      </trkpt>
      <trkpt lat="43.00404" lon="6.25289">
        <time>2014-05-08T08:59:06.000Z</time>
      </trkpt>
      <trkpt lat="43.00412" lon="6.25287">
        <time>2014-05-08T08:59:11.000Z</time>
      </trkpt>
      <trkpt lat="43.00419" lon="6.25284">
        <time>2014-05-08T08:59:16.000Z</time>
      </trkpt>
      <trkpt lat="43.00427" lon="6.25283">
        <time>2014-05-08T08:59:21.000Z</time>
      </trkpt>
      <trkpt lat="43.00434" lon="6.25282">
        <time>2014-05-08T08:59:26.000Z</time>
      </trkpt>
      <trkpt lat="43.00442" lon="6.25285">
        <time>2014-05-08T08:59:31.000Z</time>
      </trkpt>
      <trkpt lat="43.00449" lon="6.25288">
        <time>2014-05-08T08:59:36.000Z</time>
      </trkpt>
      <trkpt lat="43.00457" lon="6.25289">
        <time>2014-05-08T08:59:41.000Z</time>
      </trkpt>
      <trkpt lat="43.00465" lon="6.25288">
        <time>2014-05-08T08:59:46.000Z</time>
      </trkpt>
      <trkpt lat="43.00473" lon="6.25285">
        <time>2014-05-08T08:59:51.000Z</time>
      </trkpt>
      <trkpt lat="43.00478" lon="6.25281">
        <time>2014-05-08T08:59:56.000Z</time>
      </trkpt>
      <trkpt lat="43.00483" lon="6.25276">
        <time>2014-05-08T09:00:01.000Z</time>
      </trkpt>
      <trkpt lat="43.00489" lon="6.25272">
        <time>2014-05-08T09:00:06.000Z</time>
      </trkpt>
      <trkpt lat="43.00501" lon="6.25273">
        <time>2014-05-08T09:00:11.000Z</time>
      </trkpt>
      <trkpt lat="43.0051" lon="6.25274">
        <time>2014-05-08T09:00:16.000Z</time>
      </trkpt>
      <trkpt lat="43.00519" lon="6.25278">
        <time>2014-05-08T09:00:21.000Z</time>
      </trkpt>
      <trkpt lat="43.00528" lon="6.25282">
        <time>2014-05-08T09:00:26.000Z</time>
      </trkpt>
      <trkpt lat="43.00536" lon="6.25287">
        <time>2014-05-08T09:00:31.000Z</time>
      </trkpt>
      <trkpt lat="43.00544" lon="6.2529">
        <time>2014-05-08T09:00:36.000Z</time>
      </trkpt>
      <trkpt lat="43.00554" lon="6.2529">
        <time>2014-05-08T09:00:41.000Z</time>
      </trkpt>
      <trkpt lat="43.00562" lon="6.25288">
        <time>2014-05-08T09:00:46.000Z</time>
      </trkpt>
      <trkpt lat="43.00571" lon="6.25284">
        <time>2014-05-08T09:00:51.000Z</time>
      </trkpt>
      <trkpt lat="43.00578" lon="6.25278">
        <time>2014-05-08T09:00:56.000Z</time>
      </trkpt>
      <trkpt lat="43.00586" lon="6.25274">
        <time>2014-05-08T09:01:01.000Z</time>
      </trkpt>
      <trkpt lat="43.00594" lon="6.25272">
        <time>2014-05-08T09:01:06.000Z</time>
      </trkpt>
      <trkpt lat="43.00601" lon="6.2527">
        <time>2014-05-08T09:01:11.000Z</time>
      </trkpt>
      <trkpt lat="43.00608" lon="6.25269">
        <time>2014-05-08T09:01:16.000Z</time>
      </trkpt>
      <trkpt lat="43.00616" lon="6.25267">
        <time>2014-05-08T09:01:21.000Z</time>
      </trkpt>
      <trkpt lat="43.00625" lon="6.25262">
        <time>2014-05-08T09:01:26.000Z</time>
      </trkpt>
      <trkpt lat="43.00633" lon="6.25259">
        <time>2014-05-08T09:01:31.000Z</time>
      </trkpt>
      <trkpt lat="43.00641" lon="6.25257">
        <time>2014-05-08T09:01:36.000Z</time>
      </trkpt>
      <trkpt lat="43.00649" lon="6.25257">
        <time>2014-05-08T09:01:41.000Z</time>
      </trkpt>
      <trkpt lat="43.00657" lon="6.25256">
        <time>2014-05-08T09:01:46.000Z</time>
      </trkpt>
      <trkpt lat="43.00665" lon="6.25254">
        <time>2014-05-08T09:01:51.000Z</time>
      </trkpt>
      <trkpt lat="43.00671" lon="6.25248">
        <time>2014-05-08T09:01:56.000Z</time>
      </trkpt>
      <trkpt lat="43.00679" lon="6.25244">
        <time>2014-05-08T09:02:01.000Z</time>
      </trkpt>
      <trkpt lat="43.00688" lon="6.25241">
        <time>2014-05-08T09:02:06.000Z</time>
      </trkpt>
      <trkpt lat="43.00695" lon="6.25238">
        <time>2014-05-08T09:02:11.000Z</time>
      </trkpt>
      <trkpt lat="43.00703" lon="6.25237">
        <time>2014-05-08T09:02:16.000Z</time>
      </trkpt>
      <trkpt lat="43.00711" lon="6.25237">
        <time>2014-05-08T09:02:21.000Z</time>
      </trkpt>
      <trkpt lat="43.00719" lon="6.25238">
        <time>2014-05-08T09:02:26.000Z</time>
      </trkpt>
      <trkpt lat="43.00726" lon="6.25237">
        <time>2014-05-08T09:02:31.000Z</time>
      </trkpt>
      <trkpt lat="43.00734" lon="6.25234">
        <time>2014-05-08T09:02:36.000Z</time>
      </trkpt>
      <trkpt lat="43.00742" lon="6.25232">
        <time>2014-05-08T09:02:41.000Z</time>
      </trkpt>
      <trkpt lat="43.00752" lon="6.25232">
        <time>2014-05-08T09:02:46.000Z</time>
      </trkpt>
      <trkpt lat="43.00761" lon="6.25233">
        <time>2014-05-08T09:02:51.000Z</time>
      </trkpt>
      <trkpt lat="43.0077" lon="6.25233">
        <time>2014-05-08T09:02:56.000Z</time>
      </trkpt>
      <trkpt lat="43.00777" lon="6.25227">
        <time>2014-05-08T09:03:01.000Z</time>
      </trkpt>
      <trkpt lat="43.00784" lon="6.25221">
        <time>2014-05-08T09:03:06.000Z</time>
      </trkpt>
      <trkpt lat="43.00791" lon="6.25216">
        <time>2014-05-08T09:03:11.000Z</time>
      </trkpt>
      <trkpt lat="43.00801" lon="6.25213">
        <time>2014-05-08T09:03:16.000Z</time>
      </trkpt>
      <trkpt lat="43.00809" lon="6.25211">
        <time>2014-05-08T09:03:21.000Z</time>
      </trkpt>
      <trkpt lat="43.00818" lon="6.2521">
        <time>2014-05-08T09:03:26.000Z</time>
      </trkpt>
      <trkpt lat="43.00826" lon="6.2521">
        <time>2014-05-08T09:03:31.000Z</time>
      </trkpt>
      <trkpt lat="43.00834" lon="6.25211">
        <time>2014-05-08T09:03:36.000Z</time>
      </trkpt>
      <trkpt lat="43.00843" lon="6.25208">
        <time>2014-05-08T09:03:41.000Z</time>
      </trkpt>
      <trkpt lat="43.00851" lon="6.25203">
        <time>2014-05-08T09:03:46.000Z</time>
      </trkpt>
      <trkpt lat="43.00858" lon="6.25199">
        <time>2014-05-08T09:03:51.000Z</time>
      </trkpt>
      <trkpt lat="43.00866" lon="6.25196">
        <time>2014-05-08T09:03:56.000Z</time>
      </trkpt>
      <trkpt lat="43.00877" lon="6.25194">
        <time>2014-05-08T09:04:01.000Z</time>
      </trkpt>
      <trkpt lat="43.00884" lon="6.25193">
        <time>2014-05-08T09:04:06.000Z</time>
      </trkpt>
      <trkpt lat="43.00892" lon="6.25192">
        <time>2014-05-08T09:04:11.000Z</time>
      </trkpt>
      <trkpt lat="43.009" lon="6.2519">
        <time>2014-05-08T09:04:16.000Z</time>
      </trkpt>
      <trkpt lat="43.00908" lon="6.25187">
        <time>2014-05-08T09:04:21.000Z</time>
      </trkpt>
      <trkpt lat="43.00915" lon="6.25183">
        <time>2014-05-08T09:04:26.000Z</time>
      </trkpt>
      <trkpt lat="43.00923" lon="6.25181">
        <time>2014-05-08T09:04:31.000Z</time>
      </trkpt>
      <trkpt lat="43.00932" lon="6.25179">
        <time>2014-05-08T09:04:36.000Z</time>
      </trkpt>
      <trkpt lat="43.00941" lon="6.25179">
        <time>2014-05-08T09:04:41.000Z</time>
      </trkpt>
      <trkpt lat="43.00947" lon="6.25179">
        <time>2014-05-08T09:04:46.000Z</time>
      </trkpt>
      <trkpt lat="43.00947" lon="6.25179">
        <time>2014-05-08T09:04:51.000Z</time>
      </trkpt>
      <trkpt lat="43.00955" lon="6.25183">
        <time>2014-05-08T09:04:56.000Z</time>
      </trkpt>
      <trkpt lat="43.00954" lon="6.25177">
        <time>2014-05-08T09:05:01.000Z</time>
      </trkpt>
      <trkpt lat="43.00954" lon="6.25176">
        <time>2014-05-08T09:05:06.000Z</time>
      </trkpt>
      <trkpt lat="43.00963" lon="6.25175">
        <time>2014-05-08T09:05:11.000Z</time>
      </trkpt>
      <trkpt lat="43.00971" lon="6.25172">
        <time>2014-05-08T09:05:16.000Z</time>
      </trkpt>
      <trkpt lat="43.00981" lon="6.2517">
        <time>2014-05-08T09:05:21.000Z</time>
      </trkpt>
      <trkpt lat="43.00989" lon="6.2517">
        <time>2014-05-08T09:05:26.000Z</time>
      </trkpt>
      <trkpt lat="43.00997" lon="6.25173">
        <time>2014-05-08T09:05:31.000Z</time>
      </trkpt>
      <trkpt lat="43.01006" lon="6.25177">
        <time>2014-05-08T09:05:36.000Z</time>
      </trkpt>
      <trkpt lat="43.01016" lon="6.25179">
        <time>2014-05-08T09:05:41.000Z</time>
      </trkpt>
      <trkpt lat="43.01026" lon="6.25178">
        <time>2014-05-08T09:05:46.000Z</time>
      </trkpt>
      <trkpt lat="43.01036" lon="6.25175">
        <time>2014-05-08T09:05:51.000Z</time>
      </trkpt>
      <trkpt lat="43.01044" lon="6.2517">
        <time>2014-05-08T09:05:56.000Z</time>
      </trkpt>
      <trkpt lat="43.01053" lon="6.25165">
        <time>2014-05-08T09:06:01.000Z</time>
      </trkpt>
      <trkpt lat="43.01063" lon="6.25162">
        <time>2014-05-08T09:06:06.000Z</time>
      </trkpt>
      <trkpt lat="43.01072" lon="6.25161">
        <time>2014-05-08T09:06:11.000Z</time>
      </trkpt>
      <trkpt lat="43.01082" lon="6.2516">
        <time>2014-05-08T09:06:16.000Z</time>
      </trkpt>
      <trkpt lat="43.01091" lon="6.25161">
        <time>2014-05-08T09:06:21.000Z</time>
      </trkpt>
      <trkpt lat="43.011" lon="6.25161">
        <time>2014-05-08T09:06:26.000Z</time>
      </trkpt>
      <trkpt lat="43.0111" lon="6.25157">
        <time>2014-05-08T09:06:31.000Z</time>
      </trkpt>
      <trkpt lat="43.01119" lon="6.25152">
        <time>2014-05-08T09:06:36.000Z</time>
      </trkpt>
      <trkpt lat="43.01128" lon="6.25146">
        <time>2014-05-08T09:06:41.000Z</time>
      </trkpt>
      <trkpt lat="43.01137" lon="6.25144">
        <time>2014-05-08T09:06:46.000Z</time>
      </trkpt>
      <trkpt lat="43.01147" lon="6.25144">
        <time>2014-05-08T09:06:51.000Z</time>
      </trkpt>
      <trkpt lat="43.01157" lon="6.25145">
        <time>2014-05-08T09:06:56.000Z</time>
      </trkpt>
      <trkpt lat="43.01165" lon="6.25145">
        <time>2014-05-08T09:07:01.000Z</time>
      </trkpt>
      <trkpt lat="43.01174" lon="6.25142">
        <time>2014-05-08T09:07:06.000Z</time>
      </trkpt>
      <trkpt lat="43.01182" lon="6.25139">
        <time>2014-05-08T09:07:11.000Z</time>
      </trkpt>
      <trkpt lat="43.0119" lon="6.25135">
        <time>2014-05-08T09:07:16.000Z</time>
      </trkpt>
      <trkpt lat="43.012" lon="6.25135">
        <time>2014-05-08T09:07:21.000Z</time>
      </trkpt>
      <trkpt lat="43.01209" lon="6.25135">
        <time>2014-05-08T09:07:26.000Z</time>
      </trkpt>
      <trkpt lat="43.01219" lon="6.25135">
        <time>2014-05-08T09:07:31.000Z</time>
      </trkpt>
      <trkpt lat="43.01228" lon="6.25131">
        <time>2014-05-08T09:07:36.000Z</time>
      </trkpt>
      <trkpt lat="43.01235" lon="6.25127">
        <time>2014-05-08T09:07:41.000Z</time>
      </trkpt>
      <trkpt lat="43.01244" lon="6.2512">
        <time>2014-05-08T09:07:46.000Z</time>
      </trkpt>
      <trkpt lat="43.01252" lon="6.25114">
        <time>2014-05-08T09:07:51.000Z</time>
      </trkpt>
      <trkpt lat="43.01262" lon="6.25108">
        <time>2014-05-08T09:07:56.000Z</time>
      </trkpt>
      <trkpt lat="43.01272" lon="6.25105">
        <time>2014-05-08T09:08:01.000Z</time>
      </trkpt>
      <trkpt lat="43.01281" lon="6.25102">
        <time>2014-05-08T09:08:06.000Z</time>
      </trkpt>
      <trkpt lat="43.01291" lon="6.25102">
        <time>2014-05-08T09:08:11.000Z</time>
      </trkpt>
      <trkpt lat="43.013" lon="6.25102">
        <time>2014-05-08T09:08:16.000Z</time>
      </trkpt>
      <trkpt lat="43.0131" lon="6.25098">
        <time>2014-05-08T09:08:21.000Z</time>
      </trkpt>
      <trkpt lat="43.01318" lon="6.25095">
        <time>2014-05-08T09:08:26.000Z</time>
      </trkpt>
      <trkpt lat="43.01328" lon="6.2509">
        <time>2014-05-08T09:08:31.000Z</time>
      </trkpt>
      <trkpt lat="43.01336" lon="6.25084">
        <time>2014-05-08T09:08:36.000Z</time>
      </trkpt>
      <trkpt lat="43.01345" lon="6.25081">
        <time>2014-05-08T09:08:41.000Z</time>
      </trkpt>
      <trkpt lat="43.01355" lon="6.2508">
        <time>2014-05-08T09:08:46.000Z</time>
      </trkpt>
      <trkpt lat="43.01366" lon="6.25082">
        <time>2014-05-08T09:08:51.000Z</time>
      </trkpt>
      <trkpt lat="43.01376" lon="6.25083">
        <time>2014-05-08T09:08:56.000Z</time>
      </trkpt>
      <trkpt lat="43.01383" lon="6.25081">
        <time>2014-05-08T09:09:01.000Z</time>
      </trkpt>
      <trkpt lat="43.01392" lon="6.25077">
        <time>2014-05-08T09:09:06.000Z</time>
      </trkpt>
      <trkpt lat="43.01402" lon="6.25069">
        <time>2014-05-08T09:09:11.000Z</time>
      </trkpt>
      <trkpt lat="43.0141" lon="6.25064">
        <time>2014-05-08T09:09:16.000Z</time>
      </trkpt>
      <trkpt lat="43.0142" lon="6.2506">
        <time>2014-05-08T09:09:21.000Z</time>
      </trkpt>
      <trkpt lat="43.01428" lon="6.25057">
        <time>2014-05-08T09:09:26.000Z</time>
      </trkpt>
      <trkpt lat="43.01437" lon="6.25058">
        <time>2014-05-08T09:09:31.000Z</time>
      </trkpt>
      <trkpt lat="43.01449" lon="6.25058">
        <time>2014-05-08T09:09:36.000Z</time>
      </trkpt>
      <trkpt lat="43.01459" lon="6.25056">
        <time>2014-05-08T09:09:41.000Z</time>
      </trkpt>
      <trkpt lat="43.01467" lon="6.25051">
        <time>2014-05-08T09:09:46.000Z</time>
      </trkpt>
      <trkpt lat="43.01475" lon="6.25046">
        <time>2014-05-08T09:09:51.000Z</time>
      </trkpt>
      <trkpt lat="43.01484" lon="6.2504">
        <time>2014-05-08T09:09:56.000Z</time>
      </trkpt>
      <trkpt lat="43.01491" lon="6.25033">
        <time>2014-05-08T09:10:01.000Z</time>
      </trkpt>
      <trkpt lat="43.01499" lon="6.25029">
        <time>2014-05-08T09:10:06.000Z</time>
      </trkpt>
      <trkpt lat="43.01508" lon="6.25025">
        <time>2014-05-08T09:10:11.000Z</time>
      </trkpt>
      <trkpt lat="43.01516" lon="6.25024">
        <time>2014-05-08T09:10:16.000Z</time>
      </trkpt>
      <trkpt lat="43.01525" lon="6.25025">
        <time>2014-05-08T09:10:21.000Z</time>
      </trkpt>
      <trkpt lat="43.01533" lon="6.25026">
        <time>2014-05-08T09:10:26.000Z</time>
      </trkpt>
      <trkpt lat="43.01542" lon="6.25028">
        <time>2014-05-08T09:10:31.000Z</time>
      </trkpt>
      <trkpt lat="43.01551" lon="6.25028">
        <time>2014-05-08T09:10:36.000Z</time>
      </trkpt>
      <trkpt lat="43.01561" lon="6.25025">
        <time>2014-05-08T09:10:41.000Z</time>
      </trkpt>
      <trkpt lat="43.0157" lon="6.25021">
        <time>2014-05-08T09:10:46.000Z</time>
      </trkpt>
      <trkpt lat="43.01579" lon="6.25015">
        <time>2014-05-08T09:10:51.000Z</time>
      </trkpt>
      <trkpt lat="43.01587" lon="6.25008">
        <time>2014-05-08T09:10:56.000Z</time>
      </trkpt>
      <trkpt lat="43.01597" lon="6.25005">
        <time>2014-05-08T09:11:01.000Z</time>
      </trkpt>
      <trkpt lat="43.01607" lon="6.25002">
        <time>2014-05-08T09:11:06.000Z</time>
      </trkpt>
      <trkpt lat="43.01617" lon="6.25001">
        <time>2014-05-08T09:11:11.000Z</time>
      </trkpt>
      <trkpt lat="43.01628" lon="6.25003">
        <time>2014-05-08T09:11:16.000Z</time>
      </trkpt>
      <trkpt lat="43.01637" lon="6.25004">
        <time>2014-05-08T09:11:21.000Z</time>
      </trkpt>
      <trkpt lat="43.01646" lon="6.25005">
        <time>2014-05-08T09:11:26.000Z</time>
      </trkpt>
      <trkpt lat="43.01655" lon="6.25003">
        <time>2014-05-08T09:11:31.000Z</time>
      </trkpt>
      <trkpt lat="43.01664" lon="6.25001">
        <time>2014-05-08T09:11:36.000Z</time>
      </trkpt>
      <trkpt lat="43.01672" lon="6.24995">
        <time>2014-05-08T09:11:41.000Z</time>
      </trkpt>
      <trkpt lat="43.01681" lon="6.24987">
        <time>2014-05-08T09:11:46.000Z</time>
      </trkpt>
      <trkpt lat="43.01689" lon="6.24978">
        <time>2014-05-08T09:11:51.000Z</time>
      </trkpt>
      <trkpt lat="43.01696" lon="6.24969">
        <time>2014-05-08T09:11:56.000Z</time>
      </trkpt>
      <trkpt lat="43.01704" lon="6.24961">
        <time>2014-05-08T09:12:01.000Z</time>
      </trkpt>
      <trkpt lat="43.01712" lon="6.24954">
        <time>2014-05-08T09:12:06.000Z</time>
      </trkpt>
      <trkpt lat="43.0172" lon="6.24947">
        <time>2014-05-08T09:12:11.000Z</time>
      </trkpt>
      <trkpt lat="43.01729" lon="6.24941">
        <time>2014-05-08T09:12:16.000Z</time>
      </trkpt>
      <trkpt lat="43.01739" lon="6.24938">
        <time>2014-05-08T09:12:21.000Z</time>
      </trkpt>
      <trkpt lat="43.01748" lon="6.24934">
        <time>2014-05-08T09:12:26.000Z</time>
      </trkpt>
      <trkpt lat="43.01758" lon="6.2493">
        <time>2014-05-08T09:12:31.000Z</time>
      </trkpt>
      <trkpt lat="43.01765" lon="6.24925">
        <time>2014-05-08T09:12:36.000Z</time>
      </trkpt>
      <trkpt lat="43.01773" lon="6.24926">
        <time>2014-05-08T09:12:41.000Z</time>
      </trkpt>
      <trkpt lat="43.01783" lon="6.2493">
        <time>2014-05-08T09:12:46.000Z</time>
      </trkpt>
      <trkpt lat="43.0179" lon="6.24934">
        <time>2014-05-08T09:12:51.000Z</time>
      </trkpt>
      <trkpt lat="43.01799" lon="6.24939">
        <time>2014-05-08T09:12:56.000Z</time>
      </trkpt>
      <trkpt lat="43.01806" lon="6.24942">
        <time>2014-05-08T09:13:01.000Z</time>
      </trkpt>
      <trkpt lat="43.01817" lon="6.24942">
        <time>2014-05-08T09:13:06.000Z</time>
      </trkpt>
      <trkpt lat="43.01827" lon="6.24939">
        <time>2014-05-08T09:13:11.000Z</time>
      </trkpt>
      <trkpt lat="43.01838" lon="6.24935">
        <time>2014-05-08T09:13:16.000Z</time>
      </trkpt>
      <trkpt lat="43.01847" lon="6.24927">
        <time>2014-05-08T09:13:21.000Z</time>
      </trkpt>
      <trkpt lat="43.01856" lon="6.24918">
        <time>2014-05-08T09:13:26.000Z</time>
      </trkpt>
      <trkpt lat="43.01863" lon="6.24909">
        <time>2014-05-08T09:13:31.000Z</time>
      </trkpt>
      <trkpt lat="43.01872" lon="6.24903">
        <time>2014-05-08T09:13:36.000Z</time>
      </trkpt>
      <trkpt lat="43.0188" lon="6.24897">
        <time>2014-05-08T09:13:41.000Z</time>
      </trkpt>
      <trkpt lat="43.0189" lon="6.24892">
        <time>2014-05-08T09:13:46.000Z</time>
      </trkpt>
      <trkpt lat="43.019" lon="6.24888">
        <time>2014-05-08T09:13:51.000Z</time>
      </trkpt>
      <trkpt lat="43.01909" lon="6.24882">
        <time>2014-05-08T09:13:56.000Z</time>
      </trkpt>
      <trkpt lat="43.01917" lon="6.24874">
        <time>2014-05-08T09:14:01.000Z</time>
      </trkpt>
      <trkpt lat="43.01925" lon="6.24865">
        <ele>0.04</ele>
        <time>2014-05-08T09:14:06.000Z</time>
      </trkpt>
      <trkpt lat="43.0193" lon="6.24857">
        <ele>0.08</ele>
        <time>2014-05-08T09:14:11.000Z</time>
      </trkpt>
      <trkpt lat="43.01937" lon="6.24848">
        <ele>0.12</ele>
        <time>2014-05-08T09:14:16.000Z</time>
      </trkpt>
      <trkpt lat="43.01947" lon="6.24836">
        <ele>0.08</ele>
        <time>2014-05-08T09:14:21.000Z</time>
      </trkpt>
      <trkpt lat="43.01957" lon="6.24829">
        <ele>0.04</ele>
        <time>2014-05-08T09:14:26.000Z</time>
      </trkpt>
      <trkpt lat="43.01967" lon="6.24823">
        <time>2014-05-08T09:14:31.000Z</time>
      </trkpt>
      <trkpt lat="43.01977" lon="6.24819">
        <time>2014-05-08T09:14:36.000Z</time>
      </trkpt>
      <trkpt lat="43.01986" lon="6.24813">
        <time>2014-05-08T09:14:41.000Z</time>
      </trkpt>
      <trkpt lat="43.01995" lon="6.24805">
        <time>2014-05-08T09:14:46.000Z</time>
      </trkpt>
      <trkpt lat="43.02003" lon="6.24797">
        <ele>0.02</ele>
        <time>2014-05-08T09:14:51.000Z</time>
      </trkpt>
      <trkpt lat="43.02011" lon="6.24787">
        <ele>0.05</ele>
        <time>2014-05-08T09:14:56.000Z</time>
      </trkpt>
      <trkpt lat="43.02016" lon="6.24776">
        <ele>0.07</ele>
        <time>2014-05-08T09:15:01.000Z</time>
      </trkpt>
      <trkpt lat="43.02026" lon="6.24767">
        <ele>0.05</ele>
        <time>2014-05-08T09:15:06.000Z</time>
      </trkpt>
      <trkpt lat="43.02035" lon="6.24758">
        <ele>0.02</ele>
        <time>2014-05-08T09:15:11.000Z</time>
      </trkpt>
      <trkpt lat="43.02045" lon="6.24751">
        <time>2014-05-08T09:15:16.000Z</time>
      </trkpt>
      <trkpt lat="43.02054" lon="6.24746">
        <time>2014-05-08T09:15:21.000Z</time>
      </trkpt>
      <trkpt lat="43.02062" lon="6.24743">
        <time>2014-05-08T09:15:26.000Z</time>
      </trkpt>
      <trkpt lat="43.02073" lon="6.24742">
        <time>2014-05-08T09:15:31.000Z</time>
      </trkpt>
      <trkpt lat="43.02082" lon="6.24737">
        <time>2014-05-08T09:15:36.000Z</time>
      </trkpt>
      <trkpt lat="43.02095" lon="6.24729">
        <time>2014-05-08T09:15:41.000Z</time>
      </trkpt>
      <trkpt lat="43.02103" lon="6.24722">
        <time>2014-05-08T09:15:46.000Z</time>
      </trkpt>
      <trkpt lat="43.0211" lon="6.24711">
        <time>2014-05-08T09:15:51.000Z</time>
      </trkpt>
      <trkpt lat="43.02117" lon="6.24701">
        <time>2014-05-08T09:15:56.000Z</time>
      </trkpt>
      <trkpt lat="43.02127" lon="6.24694">
        <time>2014-05-08T09:16:01.000Z</time>
      </trkpt>
      <trkpt lat="43.02135" lon="6.2469">
        <time>2014-05-08T09:16:06.000Z</time>
      </trkpt>
      <trkpt lat="43.02145" lon="6.24682">
        <time>2014-05-08T09:16:11.000Z</time>
      </trkpt>
      <trkpt lat="43.02156" lon="6.24675">
        <time>2014-05-08T09:16:16.000Z</time>
      </trkpt>
      <trkpt lat="43.02165" lon="6.24666">
        <time>2014-05-08T09:16:21.000Z</time>
      </trkpt>
      <trkpt lat="43.02172" lon="6.24658">
        <time>2014-05-08T09:16:26.000Z</time>
      </trkpt>
      <trkpt lat="43.0218" lon="6.24648">
        <time>2014-05-08T09:16:31.000Z</time>
      </trkpt>
      <trkpt lat="43.02185" lon="6.24636">
        <time>2014-05-08T09:16:36.000Z</time>
      </trkpt>
      <trkpt lat="43.0219" lon="6.24625">
        <time>2014-05-08T09:16:41.000Z</time>
      </trkpt>
      <trkpt lat="43.02195" lon="6.24615">
        <time>2014-05-08T09:16:46.000Z</time>
      </trkpt>
      <trkpt lat="43.02202" lon="6.24605">
        <time>2014-05-08T09:16:51.000Z</time>
      </trkpt>
      <trkpt lat="43.02211" lon="6.24597">
        <time>2014-05-08T09:16:56.000Z</time>
      </trkpt>
      <trkpt lat="43.02221" lon="6.24589">
        <time>2014-05-08T09:17:01.000Z</time>
      </trkpt>
      <trkpt lat="43.02229" lon="6.24581">
        <time>2014-05-08T09:17:06.000Z</time>
      </trkpt>
      <trkpt lat="43.02237" lon="6.24572">
        <time>2014-05-08T09:17:11.000Z</time>
      </trkpt>
      <trkpt lat="43.02244" lon="6.24561">
        <time>2014-05-08T09:17:16.000Z</time>
      </trkpt>
      <trkpt lat="43.02251" lon="6.24549">
        <time>2014-05-08T09:17:21.000Z</time>
      </trkpt>
      <trkpt lat="43.02258" lon="6.24539">
        <time>2014-05-08T09:17:26.000Z</time>
      </trkpt>
      <trkpt lat="43.02266" lon="6.2453">
        <time>2014-05-08T09:17:31.000Z</time>
      </trkpt>
      <trkpt lat="43.02276" lon="6.24523">
        <time>2014-05-08T09:17:36.000Z</time>
      </trkpt>
      <trkpt lat="43.02285" lon="6.24517">
        <time>2014-05-08T09:17:41.000Z</time>
      </trkpt>
      <trkpt lat="43.02295" lon="6.24512">
        <time>2014-05-08T09:17:46.000Z</time>
      </trkpt>
      <trkpt lat="43.02303" lon="6.24504">
        <time>2014-05-08T09:17:51.000Z</time>
      </trkpt>
      <trkpt lat="43.0231" lon="6.24495">
        <time>2014-05-08T09:17:56.000Z</time>
      </trkpt>
      <trkpt lat="43.02316" lon="6.24488">
        <time>2014-05-08T09:18:01.000Z</time>
      </trkpt>
      <trkpt lat="43.02324" lon="6.24481">
        <time>2014-05-08T09:18:06.000Z</time>
      </trkpt>
      <trkpt lat="43.02333" lon="6.24475">
        <time>2014-05-08T09:18:11.000Z</time>
      </trkpt>
      <trkpt lat="43.02343" lon="6.24469">
        <time>2014-05-08T09:18:16.000Z</time>
      </trkpt>
      <trkpt lat="43.02354" lon="6.24467">
        <time>2014-05-08T09:18:21.000Z</time>
      </trkpt>
      <trkpt lat="43.02363" lon="6.24463">
        <time>2014-05-08T09:18:26.000Z</time>
      </trkpt>
      <trkpt lat="43.02372" lon="6.24456">
        <time>2014-05-08T09:18:31.000Z</time>
      </trkpt>
      <trkpt lat="43.0238" lon="6.24448">
        <time>2014-05-08T09:18:36.000Z</time>
      </trkpt>
      <trkpt lat="43.02388" lon="6.24439">
        <time>2014-05-08T09:18:41.000Z</time>
      </trkpt>
      <trkpt lat="43.02395" lon="6.24431">
        <time>2014-05-08T09:18:46.000Z</time>
      </trkpt>
      <trkpt lat="43.02402" lon="6.24425">
        <time>2014-05-08T09:18:51.000Z</time>
      </trkpt>
      <trkpt lat="43.02412" lon="6.24417">
        <time>2014-05-08T09:18:56.000Z</time>
      </trkpt>
      <trkpt lat="43.02422" lon="6.24413">
        <time>2014-05-08T09:19:01.000Z</time>
      </trkpt>
      <trkpt lat="43.02432" lon="6.24412">
        <time>2014-05-08T09:19:06.000Z</time>
      </trkpt>
      <trkpt lat="43.02442" lon="6.24408">
        <time>2014-05-08T09:19:11.000Z</time>
      </trkpt>
      <trkpt lat="43.02451" lon="6.24403">
        <time>2014-05-08T09:19:16.000Z</time>
      </trkpt>
      <trkpt lat="43.02458" lon="6.24398">
        <time>2014-05-08T09:19:21.000Z</time>
      </trkpt>
      <trkpt lat="43.02467" lon="6.24391">
        <time>2014-05-08T09:19:26.000Z</time>
      </trkpt>
      <trkpt lat="43.02475" lon="6.24383">
        <time>2014-05-08T09:19:31.000Z</time>
      </trkpt>
      <trkpt lat="43.02486" lon="6.24375">
        <time>2014-05-08T09:19:36.000Z</time>
      </trkpt>
      <trkpt lat="43.02496" lon="6.24372">
        <time>2014-05-08T09:19:41.000Z</time>
      </trkpt>
      <trkpt lat="43.02505" lon="6.24369">
        <time>2014-05-08T09:19:46.000Z</time>
      </trkpt>
      <trkpt lat="43.02515" lon="6.24368">
        <time>2014-05-08T09:19:51.000Z</time>
      </trkpt>
      <trkpt lat="43.02525" lon="6.24371">
        <time>2014-05-08T09:19:56.000Z</time>
      </trkpt>
      <trkpt lat="43.02535" lon="6.2437">
        <time>2014-05-08T09:20:01.000Z</time>
      </trkpt>
      <trkpt lat="43.02546" lon="6.24368">
        <time>2014-05-08T09:20:06.000Z</time>
      </trkpt>
      <trkpt lat="43.02555" lon="6.24364">
        <time>2014-05-08T09:20:11.000Z</time>
      </trkpt>
      <trkpt lat="43.02564" lon="6.24358">
        <time>2014-05-08T09:20:16.000Z</time>
      </trkpt>
      <trkpt lat="43.02573" lon="6.2435">
        <time>2014-05-08T09:20:21.000Z</time>
      </trkpt>
      <trkpt lat="43.02582" lon="6.24344">
        <time>2014-05-08T09:20:26.000Z</time>
      </trkpt>
      <trkpt lat="43.0259" lon="6.24337">
        <time>2014-05-08T09:20:31.000Z</time>
      </trkpt>
      <trkpt lat="43.02598" lon="6.24333">
        <time>2014-05-08T09:20:36.000Z</time>
      </trkpt>
      <trkpt lat="43.02608" lon="6.24331">
        <time>2014-05-08T09:20:41.000Z</time>
      </trkpt>
      <trkpt lat="43.02616" lon="6.24329">
        <time>2014-05-08T09:20:46.000Z</time>
      </trkpt>
      <trkpt lat="43.02628" lon="6.24329">
        <time>2014-05-08T09:20:51.000Z</time>
      </trkpt>
      <trkpt lat="43.02636" lon="6.24328">
        <time>2014-05-08T09:20:56.000Z</time>
      </trkpt>
      <trkpt lat="43.02646" lon="6.24325">
        <time>2014-05-08T09:21:01.000Z</time>
      </trkpt>
      <trkpt lat="43.02655" lon="6.24319">
        <time>2014-05-08T09:21:06.000Z</time>
      </trkpt>
      <trkpt lat="43.02663" lon="6.24312">
        <time>2014-05-08T09:21:11.000Z</time>
      </trkpt>
      <trkpt lat="43.0267" lon="6.24303">
        <time>2014-05-08T09:21:16.000Z</time>
      </trkpt>
      <trkpt lat="43.02674" lon="6.24293">
        <time>2014-05-08T09:21:21.000Z</time>
      </trkpt>
      <trkpt lat="43.02677" lon="6.24281">
        <time>2014-05-08T09:21:26.000Z</time>
      </trkpt>
      <trkpt lat="43.02678" lon="6.24271">
        <time>2014-05-08T09:21:31.000Z</time>
      </trkpt>
      <trkpt lat="43.0268" lon="6.24263">
        <time>2014-05-08T09:21:36.000Z</time>
      </trkpt>
      <trkpt lat="43.02679" lon="6.24255">
        <time>2014-05-08T09:21:41.000Z</time>
      </trkpt>
      <trkpt lat="43.02679" lon="6.24249">
        <ele>3</ele>
        <time>2014-05-08T09:21:46.000Z</time>
      </trkpt>
      <trkpt lat="43.02679" lon="6.24244">
        <ele>3</ele>
        <time>2014-05-08T09:21:51.000Z</time>
      </trkpt>
      <trkpt lat="43.02679" lon="6.24241">
        <ele>3</ele>
        <time>2014-05-08T09:21:56.000Z</time>
      </trkpt>
      <trkpt lat="43.02679" lon="6.24235">
        <ele>3</ele>
        <time>2014-05-08T09:22:01.000Z</time>
      </trkpt>
      <trkpt lat="43.0268" lon="6.24228">
        <ele>3</ele>
        <time>2014-05-08T09:22:06.000Z</time>
      </trkpt>
      <trkpt lat="43.02682" lon="6.2422">
        <ele>3</ele>
        <time>2014-05-08T09:22:11.000Z</time>
      </trkpt>
      <trkpt lat="43.02682" lon="6.24212">
        <ele>3</ele>
        <time>2014-05-08T09:22:16.000Z</time>
      </trkpt>
      <trkpt lat="43.02682" lon="6.24204">
        <ele>3</ele>
        <time>2014-05-08T09:22:21.000Z</time>
      </trkpt>
      <trkpt lat="43.02684" lon="6.24197">
        <ele>3</ele>
        <time>2014-05-08T09:22:26.000Z</time>
      </trkpt>
      <trkpt lat="43.02686" lon="6.24193">
        <time>2014-05-08T09:22:31.000Z</time>
      </trkpt>
      <trkpt lat="43.02685" lon="6.24189">
        <time>2014-05-08T09:22:36.000Z</time>
      </trkpt>
      <trkpt lat="43.02684" lon="6.24185">
        <time>2014-05-08T09:22:41.000Z</time>
      </trkpt>
      <trkpt lat="43.02682" lon="6.2418">
        <time>2014-05-08T09:22:46.000Z</time>
      </trkpt>
      <trkpt lat="43.02679" lon="6.24175">
        <time>2014-05-08T09:22:51.000Z</time>
      </trkpt>
      <trkpt lat="43.02677" lon="6.2417">
        <time>2014-05-08T09:22:56.000Z</time>
      </trkpt>
      <trkpt lat="43.02675" lon="6.24166">
        <time>2014-05-08T09:23:01.000Z</time>
      </trkpt>
      <trkpt lat="43.02673" lon="6.24164">
        <time>2014-05-08T09:23:06.000Z</time>
      </trkpt>
      <trkpt lat="43.02673" lon="6.24162">
        <time>2014-05-08T09:23:11.000Z</time>
      </trkpt>
      <trkpt lat="43.02671" lon="6.2416">
        <time>2014-05-08T09:23:16.000Z</time>
      </trkpt>
      <trkpt lat="43.02671" lon="6.24157">
        <time>2014-05-08T09:23:21.000Z</time>
      </trkpt>
      <trkpt lat="43.02669" lon="6.24151">
        <time>2014-05-08T09:23:26.000Z</time>
      </trkpt>
      <trkpt lat="43.02666" lon="6.24148">
        <time>2014-05-08T09:23:31.000Z</time>
      </trkpt>
      <trkpt lat="43.02663" lon="6.24142">
        <ele>0.01</ele>
        <time>2014-05-08T09:23:36.000Z</time>
      </trkpt>
      <trkpt lat="43.0266" lon="6.24139">
        <ele>0.03</ele>
        <time>2014-05-08T09:23:41.000Z</time>
      </trkpt>
      <trkpt lat="43.02657" lon="6.24137">
        <ele>0.04</ele>
        <time>2014-05-08T09:23:46.000Z</time>
      </trkpt>
      <trkpt lat="43.02656" lon="6.24136">
        <ele>0.06</ele>
        <time>2014-05-08T09:23:51.000Z</time>
      </trkpt>
      <trkpt lat="43.02654" lon="6.24131">
        <ele>0.09</ele>
        <time>2014-05-08T09:23:56.000Z</time>
      </trkpt>
      <trkpt lat="43.02653" lon="6.24125">
        <ele>0.12</ele>
        <time>2014-05-08T09:24:01.000Z</time>
      </trkpt>
      <trkpt lat="43.0265" lon="6.24119">
        <ele>0.14</ele>
        <time>2014-05-08T09:24:06.000Z</time>
      </trkpt>
      <trkpt lat="43.02648" lon="6.24114">
        <ele>0.16</ele>
        <time>2014-05-08T09:24:11.000Z</time>
      </trkpt>
      <trkpt lat="43.02647" lon="6.24109">
        <ele>0.19</ele>
        <time>2014-05-08T09:24:16.000Z</time>
      </trkpt>
      <trkpt lat="43.02645" lon="6.24108">
        <ele>0.21</ele>
        <time>2014-05-08T09:24:21.000Z</time>
      </trkpt>
      <trkpt lat="43.02644" lon="6.24106">
        <ele>0.23</ele>
        <time>2014-05-08T09:24:26.000Z</time>
      </trkpt>
      <trkpt lat="43.02643" lon="6.24097">
        <ele>0.25</ele>
        <time>2014-05-08T09:24:31.000Z</time>
      </trkpt>
      <trkpt lat="43.0264" lon="6.24088">
        <ele>0.27</ele>
        <time>2014-05-08T09:24:36.000Z</time>
      </trkpt>
      <trkpt lat="43.02636" lon="6.24081">
        <ele>0.29</ele>
        <time>2014-05-08T09:24:41.000Z</time>
      </trkpt>
      <trkpt lat="43.0263" lon="6.24073">
        <ele>0.31</ele>
        <time>2014-05-08T09:24:46.000Z</time>
      </trkpt>
      <trkpt lat="43.02625" lon="6.24067">
        <ele>0.29</ele>
        <time>2014-05-08T09:24:51.000Z</time>
      </trkpt>
      <trkpt lat="43.02619" lon="6.24061">
        <ele>0.28</ele>
        <time>2014-05-08T09:24:56.000Z</time>
      </trkpt>
      <trkpt lat="43.02614" lon="6.24055">
        <ele>0.26</ele>
        <time>2014-05-08T09:25:01.000Z</time>
      </trkpt>
      <trkpt lat="43.02608" lon="6.24048">
        <ele>0.2</ele>
        <time>2014-05-08T09:25:06.000Z</time>
      </trkpt>
      <trkpt lat="43.02602" lon="6.2404">
        <ele>0.14</ele>
        <time>2014-05-08T09:25:11.000Z</time>
      </trkpt>
      <trkpt lat="43.02596" lon="6.2403">
        <ele>0.09</ele>
        <time>2014-05-08T09:25:16.000Z</time>
      </trkpt>
      <trkpt lat="43.02589" lon="6.24022">
        <ele>0.74</ele>
        <time>2014-05-08T09:25:21.000Z</time>
      </trkpt>
      <trkpt lat="43.02581" lon="6.24014">
        <ele>1.39</ele>
        <time>2014-05-08T09:25:26.000Z</time>
      </trkpt>
      <trkpt lat="43.02574" lon="6.24006">
        <ele>2.05</ele>
        <time>2014-05-08T09:25:31.000Z</time>
      </trkpt>
      <trkpt lat="43.02568" lon="6.23999">
        <ele>2.12</ele>
        <time>2014-05-08T09:25:36.000Z</time>
      </trkpt>
      <trkpt lat="43.02562" lon="6.2399">
        <ele>2.2</ele>
        <time>2014-05-08T09:25:41.000Z</time>
      </trkpt>
      <trkpt lat="43.02559" lon="6.23979">
        <ele>2.27</ele>
        <time>2014-05-08T09:25:46.000Z</time>
      </trkpt>
      <trkpt lat="43.02556" lon="6.23965">
        <ele>2.27</ele>
        <time>2014-05-08T09:25:51.000Z</time>
      </trkpt>
      <trkpt lat="43.02552" lon="6.23952">
        <ele>2.26</ele>
        <time>2014-05-08T09:25:56.000Z</time>
      </trkpt>
      <trkpt lat="43.02545" lon="6.23941">
        <ele>2.26</ele>
        <time>2014-05-08T09:26:01.000Z</time>
      </trkpt>
      <trkpt lat="43.02538" lon="6.23933">
        <ele>2.28</ele>
        <time>2014-05-08T09:26:06.000Z</time>
      </trkpt>
      <trkpt lat="43.02531" lon="6.23926">
        <ele>2.3</ele>
        <time>2014-05-08T09:26:11.000Z</time>
      </trkpt>
      <trkpt lat="43.02523" lon="6.23917">
        <ele>2.32</ele>
        <time>2014-05-08T09:26:16.000Z</time>
      </trkpt>
      <trkpt lat="43.02516" lon="6.23911">
        <ele>2.09</ele>
        <time>2014-05-08T09:26:21.000Z</time>
      </trkpt>
      <trkpt lat="43.02511" lon="6.23905">
        <ele>1.86</ele>
        <time>2014-05-08T09:26:26.000Z</time>
      </trkpt>
      <trkpt lat="43.02503" lon="6.23896">
        <ele>1.63</ele>
        <time>2014-05-08T09:26:31.000Z</time>
      </trkpt>
      <trkpt lat="43.02498" lon="6.23885">
        <ele>1.41</ele>
        <time>2014-05-08T09:26:36.000Z</time>
      </trkpt>
      <trkpt lat="43.02493" lon="6.23872">
        <ele>1.2</ele>
        <time>2014-05-08T09:26:41.000Z</time>
      </trkpt>
      <trkpt lat="43.02488" lon="6.2386">
        <ele>0.98</ele>
        <time>2014-05-08T09:26:46.000Z</time>
      </trkpt>
      <trkpt lat="43.02482" lon="6.23849">
        <ele>0.8</ele>
        <time>2014-05-08T09:26:51.000Z</time>
      </trkpt>
      <trkpt lat="43.02477" lon="6.23842">
        <ele>0.63</ele>
        <time>2014-05-08T09:26:56.000Z</time>
      </trkpt>
      <trkpt lat="43.02472" lon="6.23836">
        <ele>0.45</ele>
        <time>2014-05-08T09:27:01.000Z</time>
      </trkpt>
      <trkpt lat="43.02467" lon="6.2383">
        <ele>0.3</ele>
        <time>2014-05-08T09:27:06.000Z</time>
      </trkpt>
      <trkpt lat="43.02461" lon="6.23823">
        <ele>0.15</ele>
        <time>2014-05-08T09:27:11.000Z</time>
      </trkpt>
      <trkpt lat="43.02454" lon="6.23815">
        <time>2014-05-08T09:27:16.000Z</time>
      </trkpt>
      <trkpt lat="43.02448" lon="6.23804">
        <time>2014-05-08T09:27:21.000Z</time>
      </trkpt>
      <trkpt lat="43.02443" lon="6.23797">
        <time>2014-05-08T09:27:26.000Z</time>
      </trkpt>
      <trkpt lat="43.02438" lon="6.23788">
        <time>2014-05-08T09:27:31.000Z</time>
      </trkpt>
      <trkpt lat="43.02433" lon="6.23777">
        <time>2014-05-08T09:27:36.000Z</time>
      </trkpt>
      <trkpt lat="43.02425" lon="6.23769">
        <time>2014-05-08T09:27:41.000Z</time>
      </trkpt>
      <trkpt lat="43.02418" lon="6.23762">
        <time>2014-05-08T09:27:46.000Z</time>
      </trkpt>
      <trkpt lat="43.02411" lon="6.23757">
        <time>2014-05-08T09:27:51.000Z</time>
      </trkpt>
      <trkpt lat="43.02404" lon="6.23747">
        <time>2014-05-08T09:27:56.000Z</time>
      </trkpt>
      <trkpt lat="43.02398" lon="6.23737">
        <time>2014-05-08T09:28:01.000Z</time>
      </trkpt>
      <trkpt lat="43.02394" lon="6.23727">
        <time>2014-05-08T09:28:06.000Z</time>
      </trkpt>
      <trkpt lat="43.02388" lon="6.23719">
        <time>2014-05-08T09:28:11.000Z</time>
      </trkpt>
      <trkpt lat="43.0238" lon="6.23711">
        <time>2014-05-08T09:28:16.000Z</time>
      </trkpt>
      <trkpt lat="43.02374" lon="6.23705">
        <time>2014-05-08T09:28:21.000Z</time>
      </trkpt>
      <trkpt lat="43.02365" lon="6.23699">
        <time>2014-05-08T09:28:26.000Z</time>
      </trkpt>
      <trkpt lat="43.02358" lon="6.23695">
        <time>2014-05-08T09:28:31.000Z</time>
      </trkpt>
      <trkpt lat="43.02348" lon="6.23691">
        <time>2014-05-08T09:28:36.000Z</time>
      </trkpt>
      <trkpt lat="43.0234" lon="6.23684">
        <time>2014-05-08T09:28:41.000Z</time>
      </trkpt>
      <trkpt lat="43.02332" lon="6.23676">
        <time>2014-05-08T09:28:46.000Z</time>
      </trkpt>
      <trkpt lat="43.02325" lon="6.23665">
        <time>2014-05-08T09:28:51.000Z</time>
      </trkpt>
      <trkpt lat="43.0232" lon="6.23654">
        <time>2014-05-08T09:28:56.000Z</time>
      </trkpt>
      <trkpt lat="43.02312" lon="6.23644">
        <time>2014-05-08T09:29:01.000Z</time>
      </trkpt>
      <trkpt lat="43.02304" lon="6.23636">
        <time>2014-05-08T09:29:06.000Z</time>
      </trkpt>
      <trkpt lat="43.02296" lon="6.23629">
        <time>2014-05-08T09:29:11.000Z</time>
      </trkpt>
      <trkpt lat="43.02288" lon="6.23624">
        <time>2014-05-08T09:29:16.000Z</time>
      </trkpt>
      <trkpt lat="43.02281" lon="6.23619">
        <time>2014-05-08T09:29:21.000Z</time>
      </trkpt>
      <trkpt lat="43.02274" lon="6.23611">
        <time>2014-05-08T09:29:26.000Z</time>
      </trkpt>
      <trkpt lat="43.02268" lon="6.23601">
        <time>2014-05-08T09:29:31.000Z</time>
      </trkpt>
      <trkpt lat="43.02262" lon="6.23592">
        <time>2014-05-08T09:29:36.000Z</time>
      </trkpt>
      <trkpt lat="43.02256" lon="6.23586">
        <time>2014-05-08T09:29:41.000Z</time>
      </trkpt>
      <trkpt lat="43.02248" lon="6.23578">
        <time>2014-05-08T09:29:46.000Z</time>
      </trkpt>
      <trkpt lat="43.02242" lon="6.23572">
        <time>2014-05-08T09:29:51.000Z</time>
      </trkpt>
      <trkpt lat="43.02234" lon="6.23566">
        <time>2014-05-08T09:29:56.000Z</time>
      </trkpt>
      <trkpt lat="43.02226" lon="6.23561">
        <time>2014-05-08T09:30:01.000Z</time>
      </trkpt>
      <trkpt lat="43.02219" lon="6.23554">
        <time>2014-05-08T09:30:06.000Z</time>
      </trkpt>
      <trkpt lat="43.02213" lon="6.23545">
        <time>2014-05-08T09:30:11.000Z</time>
      </trkpt>
      <trkpt lat="43.02207" lon="6.23536">
        <time>2014-05-08T09:30:16.000Z</time>
      </trkpt>
      <trkpt lat="43.022" lon="6.23528">
        <time>2014-05-08T09:30:21.000Z</time>
      </trkpt>
      <trkpt lat="43.02192" lon="6.23522">
        <time>2014-05-08T09:30:26.000Z</time>
      </trkpt>
      <trkpt lat="43.02185" lon="6.23516">
        <time>2014-05-08T09:30:31.000Z</time>
      </trkpt>
      <trkpt lat="43.02177" lon="6.23511">
        <time>2014-05-08T09:30:36.000Z</time>
      </trkpt>
      <trkpt lat="43.02171" lon="6.23506">
        <time>2014-05-08T09:30:41.000Z</time>
      </trkpt>
      <trkpt lat="43.02166" lon="6.23501">
        <time>2014-05-08T09:30:46.000Z</time>
      </trkpt>
      <trkpt lat="43.02163" lon="6.23496">
        <time>2014-05-08T09:30:51.000Z</time>
      </trkpt>
      <trkpt lat="43.0216" lon="6.23492">
        <time>2014-05-08T09:30:56.000Z</time>
      </trkpt>
      <trkpt lat="43.02157" lon="6.23488">
        <time>2014-05-08T09:31:01.000Z</time>
      </trkpt>
      <trkpt lat="43.02155" lon="6.23484">
        <time>2014-05-08T09:31:06.000Z</time>
      </trkpt>
      <trkpt lat="43.02153" lon="6.23482">
        <time>2014-05-08T09:31:11.000Z</time>
      </trkpt>
      <trkpt lat="43.02152" lon="6.23479">
        <time>2014-05-08T09:31:16.000Z</time>
      </trkpt>
      <trkpt lat="43.0215" lon="6.23477">
        <time>2014-05-08T09:31:21.000Z</time>
      </trkpt>
      <trkpt lat="43.02149" lon="6.23474">
        <time>2014-05-08T09:31:26.000Z</time>
      </trkpt>
      <trkpt lat="43.02147" lon="6.2347">
        <time>2014-05-08T09:31:31.000Z</time>
      </trkpt>
      <trkpt lat="43.02144" lon="6.23464">
        <time>2014-05-08T09:31:36.000Z</time>
      </trkpt>
      <trkpt lat="43.02141" lon="6.23458">
        <time>2014-05-08T09:31:41.000Z</time>
      </trkpt>
      <trkpt lat="43.02138" lon="6.23454">
        <time>2014-05-08T09:31:46.000Z</time>
      </trkpt>
      <trkpt lat="43.02136" lon="6.23449">
        <time>2014-05-08T09:31:51.000Z</time>
      </trkpt>
      <trkpt lat="43.02134" lon="6.23444">
        <time>2014-05-08T09:31:56.000Z</time>
      </trkpt>
      <trkpt lat="43.02133" lon="6.23441">
        <time>2014-05-08T09:32:01.000Z</time>
      </trkpt>
      <trkpt lat="43.02131" lon="6.23438">
        <time>2014-05-08T09:32:06.000Z</time>
      </trkpt>
      <trkpt lat="43.0213" lon="6.23435">
        <time>2014-05-08T09:32:11.000Z</time>
      </trkpt>
      <trkpt lat="43.02128" lon="6.23434">
        <time>2014-05-08T09:32:16.000Z</time>
      </trkpt>
      <trkpt lat="43.02126" lon="6.23433">
        <time>2014-05-08T09:32:21.000Z</time>
      </trkpt>
      <trkpt lat="43.02123" lon="6.23431">
        <time>2014-05-08T09:32:26.000Z</time>
      </trkpt>
      <trkpt lat="43.02122" lon="6.23429">
        <time>2014-05-08T09:32:31.000Z</time>
      </trkpt>
      <trkpt lat="43.02121" lon="6.23425">
        <time>2014-05-08T09:32:36.000Z</time>
      </trkpt>
      <trkpt lat="43.0212" lon="6.23424">
        <time>2014-05-08T09:32:41.000Z</time>
      </trkpt>
      <trkpt lat="43.02117" lon="6.23421">
        <time>2014-05-08T09:32:46.000Z</time>
      </trkpt>
      <trkpt lat="43.02114" lon="6.2342">
        <time>2014-05-08T09:32:51.000Z</time>
      </trkpt>
      <trkpt lat="43.02111" lon="6.23415">
        <time>2014-05-08T09:32:56.000Z</time>
      </trkpt>
      <trkpt lat="43.0211" lon="6.23413">
        <time>2014-05-08T09:33:01.000Z</time>
      </trkpt>
      <trkpt lat="43.02109" lon="6.23411">
        <time>2014-05-08T09:33:06.000Z</time>
      </trkpt>
      <trkpt lat="43.02108" lon="6.23407">
        <time>2014-05-08T09:33:11.000Z</time>
      </trkpt>
      <trkpt lat="43.02105" lon="6.23407">
        <time>2014-05-08T09:33:16.000Z</time>
      </trkpt>
      <trkpt lat="43.02104" lon="6.2341">
        <time>2014-05-08T09:33:21.000Z</time>
      </trkpt>
      <trkpt lat="43.02103" lon="6.23409">
        <time>2014-05-08T09:33:26.000Z</time>
      </trkpt>
      <trkpt lat="43.02103" lon="6.23406">
        <time>2014-05-08T09:33:31.000Z</time>
      </trkpt>
      <trkpt lat="43.021" lon="6.23403">
        <time>2014-05-08T09:33:36.000Z</time>
      </trkpt>
      <trkpt lat="43.02097" lon="6.23401">
        <time>2014-05-08T09:33:41.000Z</time>
      </trkpt>
      <trkpt lat="43.02093" lon="6.23396">
        <time>2014-05-08T09:33:46.000Z</time>
      </trkpt>
      <trkpt lat="43.02089" lon="6.23391">
        <time>2014-05-08T09:33:51.000Z</time>
      </trkpt>
      <trkpt lat="43.02085" lon="6.23388">
        <time>2014-05-08T09:33:56.000Z</time>
      </trkpt>
      <trkpt lat="43.02082" lon="6.23384">
        <time>2014-05-08T09:34:01.000Z</time>
      </trkpt>
      <trkpt lat="43.0208" lon="6.23379">
        <time>2014-05-08T09:34:06.000Z</time>
      </trkpt>
      <trkpt lat="43.02076" lon="6.23377">
        <time>2014-05-08T09:34:11.000Z</time>
      </trkpt>
      <trkpt lat="43.02074" lon="6.23374">
        <time>2014-05-08T09:34:16.000Z</time>
      </trkpt>
      <trkpt lat="43.02072" lon="6.23367">
        <time>2014-05-08T09:34:21.000Z</time>
      </trkpt>
      <trkpt lat="43.02067" lon="6.2336">
        <time>2014-05-08T09:34:26.000Z</time>
      </trkpt>
      <trkpt lat="43.02061" lon="6.23354">
        <time>2014-05-08T09:34:31.000Z</time>
      </trkpt>
      <trkpt lat="43.02055" lon="6.23346">
        <time>2014-05-08T09:34:36.000Z</time>
      </trkpt>
      <trkpt lat="43.02051" lon="6.23338">
        <time>2014-05-08T09:34:41.000Z</time>
      </trkpt>
      <trkpt lat="43.02047" lon="6.2333">
        <time>2014-05-08T09:34:46.000Z</time>
      </trkpt>
      <trkpt lat="43.02044" lon="6.23322">
        <time>2014-05-08T09:34:51.000Z</time>
      </trkpt>
      <trkpt lat="43.02039" lon="6.23314">
        <time>2014-05-08T09:34:56.000Z</time>
      </trkpt>
      <trkpt lat="43.02033" lon="6.23307">
        <time>2014-05-08T09:35:01.000Z</time>
      </trkpt>
      <trkpt lat="43.02028" lon="6.23298">
        <time>2014-05-08T09:35:06.000Z</time>
      </trkpt>
      <trkpt lat="43.02024" lon="6.2329">
        <time>2014-05-08T09:35:11.000Z</time>
      </trkpt>
      <trkpt lat="43.02022" lon="6.23285">
        <time>2014-05-08T09:35:16.000Z</time>
      </trkpt>
      <trkpt lat="43.02019" lon="6.23282">
        <time>2014-05-08T09:35:21.000Z</time>
      </trkpt>
      <trkpt lat="43.02017" lon="6.23281">
        <time>2014-05-08T09:35:26.000Z</time>
      </trkpt>
      <trkpt lat="43.02013" lon="6.23281">
        <time>2014-05-08T09:35:31.000Z</time>
      </trkpt>
      <trkpt lat="43.02009" lon="6.23282">
        <time>2014-05-08T09:35:36.000Z</time>
      </trkpt>
      <trkpt lat="43.02005" lon="6.23285">
        <time>2014-05-08T09:35:41.000Z</time>
      </trkpt>
      <trkpt lat="43.02002" lon="6.23283">
        <time>2014-05-08T09:35:46.000Z</time>
      </trkpt>
      <trkpt lat="43.01998" lon="6.23278">
        <time>2014-05-08T09:35:51.000Z</time>
      </trkpt>
      <trkpt lat="43.01996" lon="6.23273">
        <time>2014-05-08T09:35:56.000Z</time>
      </trkpt>
      <trkpt lat="43.01994" lon="6.23268">
        <time>2014-05-08T09:36:01.000Z</time>
      </trkpt>
      <trkpt lat="43.01992" lon="6.23264">
        <time>2014-05-08T09:36:06.000Z</time>
      </trkpt>
      <trkpt lat="43.01989" lon="6.23265">
        <time>2014-05-08T09:36:11.000Z</time>
      </trkpt>
      <trkpt lat="43.01985" lon="6.23265">
        <time>2014-05-08T09:36:16.000Z</time>
      </trkpt>
      <trkpt lat="43.01982" lon="6.23264">
        <time>2014-05-08T09:36:21.000Z</time>
      </trkpt>
      <trkpt lat="43.0198" lon="6.2326">
        <time>2014-05-08T09:36:26.000Z</time>
      </trkpt>
      <trkpt lat="43.01978" lon="6.23253">
        <time>2014-05-08T09:36:31.000Z</time>
      </trkpt>
      <trkpt lat="43.01977" lon="6.2325">
        <time>2014-05-08T09:36:36.000Z</time>
      </trkpt>
      <trkpt lat="43.01975" lon="6.23246">
        <time>2014-05-08T09:36:41.000Z</time>
      </trkpt>
      <trkpt lat="43.01973" lon="6.23242">
        <time>2014-05-08T09:36:46.000Z</time>
      </trkpt>
      <trkpt lat="43.01971" lon="6.23238">
        <time>2014-05-08T09:36:51.000Z</time>
      </trkpt>
      <trkpt lat="43.01969" lon="6.23229">
        <time>2014-05-08T09:36:56.000Z</time>
      </trkpt>
      <trkpt lat="43.01966" lon="6.23217">
        <time>2014-05-08T09:37:01.000Z</time>
      </trkpt>
      <trkpt lat="43.01964" lon="6.23204">
        <time>2014-05-08T09:37:06.000Z</time>
      </trkpt>
      <trkpt lat="43.01961" lon="6.23192">
        <time>2014-05-08T09:37:11.000Z</time>
      </trkpt>
      <trkpt lat="43.01957" lon="6.2318">
        <time>2014-05-08T09:37:16.000Z</time>
      </trkpt>
      <trkpt lat="43.01953" lon="6.23172">
        <time>2014-05-08T09:37:21.000Z</time>
      </trkpt>
      <trkpt lat="43.01949" lon="6.23164">
        <time>2014-05-08T09:37:26.000Z</time>
      </trkpt>
      <trkpt lat="43.01943" lon="6.23155">
        <time>2014-05-08T09:37:31.000Z</time>
      </trkpt>
      <trkpt lat="43.01937" lon="6.23146">
        <time>2014-05-08T09:37:36.000Z</time>
      </trkpt>
      <trkpt lat="43.01933" lon="6.23132">
        <time>2014-05-08T09:37:41.000Z</time>
      </trkpt>
      <trkpt lat="43.01929" lon="6.23117">
        <time>2014-05-08T09:37:46.000Z</time>
      </trkpt>
      <trkpt lat="43.01926" lon="6.23106">
        <time>2014-05-08T09:37:51.000Z</time>
      </trkpt>
      <trkpt lat="43.0192" lon="6.23094">
        <time>2014-05-08T09:37:56.000Z</time>
      </trkpt>
      <trkpt lat="43.01915" lon="6.23085">
        <time>2014-05-08T09:38:01.000Z</time>
      </trkpt>
      <trkpt lat="43.01911" lon="6.23073">
        <time>2014-05-08T09:38:06.000Z</time>
      </trkpt>
      <trkpt lat="43.01908" lon="6.23061">
        <time>2014-05-08T09:38:11.000Z</time>
      </trkpt>
      <trkpt lat="43.01902" lon="6.23048">
        <time>2014-05-08T09:38:16.000Z</time>
      </trkpt>
      <trkpt lat="43.01898" lon="6.23038">
        <time>2014-05-08T09:38:21.000Z</time>
      </trkpt>
      <trkpt lat="43.01892" lon="6.23028">
        <time>2014-05-08T09:38:26.000Z</time>
      </trkpt>
      <trkpt lat="43.01886" lon="6.2302">
        <time>2014-05-08T09:38:31.000Z</time>
      </trkpt>
      <trkpt lat="43.0188" lon="6.23011">
        <time>2014-05-08T09:38:36.000Z</time>
      </trkpt>
      <trkpt lat="43.01875" lon="6.23002">
        <time>2014-05-08T09:38:41.000Z</time>
      </trkpt>
      <trkpt lat="43.0187" lon="6.2299">
        <time>2014-05-08T09:38:46.000Z</time>
      </trkpt>
      <trkpt lat="43.01867" lon="6.22979">
        <time>2014-05-08T09:38:51.000Z</time>
      </trkpt>
      <trkpt lat="43.01865" lon="6.22963">
        <time>2014-05-08T09:38:56.000Z</time>
      </trkpt>
      <trkpt lat="43.01864" lon="6.22948">
        <time>2014-05-08T09:39:01.000Z</time>
      </trkpt>
      <trkpt lat="43.01864" lon="6.22935">
        <time>2014-05-08T09:39:06.000Z</time>
      </trkpt>
      <trkpt lat="43.01862" lon="6.22923">
        <time>2014-05-08T09:39:11.000Z</time>
      </trkpt>
      <trkpt lat="43.01859" lon="6.2291">
        <time>2014-05-08T09:39:16.000Z</time>
      </trkpt>
      <trkpt lat="43.01855" lon="6.22899">
        <time>2014-05-08T09:39:21.000Z</time>
      </trkpt>
      <trkpt lat="43.01851" lon="6.22891">
        <time>2014-05-08T09:39:26.000Z</time>
      </trkpt>
      <trkpt lat="43.01845" lon="6.22879">
        <time>2014-05-08T09:39:31.000Z</time>
      </trkpt>
      <trkpt lat="43.0184" lon="6.22869">
        <time>2014-05-08T09:39:36.000Z</time>
      </trkpt>
      <trkpt lat="43.01836" lon="6.22857">
        <time>2014-05-08T09:39:41.000Z</time>
      </trkpt>
      <trkpt lat="43.01834" lon="6.22844">
        <time>2014-05-08T09:39:46.000Z</time>
      </trkpt>
      <trkpt lat="43.01831" lon="6.22832">
        <time>2014-05-08T09:39:51.000Z</time>
      </trkpt>
      <trkpt lat="43.01827" lon="6.2282">
        <time>2014-05-08T09:39:56.000Z</time>
      </trkpt>
      <trkpt lat="43.01822" lon="6.22813">
        <time>2014-05-08T09:40:01.000Z</time>
      </trkpt>
      <trkpt lat="43.01816" lon="6.22804">
        <time>2014-05-08T09:40:06.000Z</time>
      </trkpt>
      <trkpt lat="43.0181" lon="6.22794">
        <time>2014-05-08T09:40:11.000Z</time>
      </trkpt>
      <trkpt lat="43.01806" lon="6.22782">
        <time>2014-05-08T09:40:16.000Z</time>
      </trkpt>
      <trkpt lat="43.01803" lon="6.22767">
        <time>2014-05-08T09:40:21.000Z</time>
      </trkpt>
      <trkpt lat="43.018" lon="6.22755">
        <time>2014-05-08T09:40:26.000Z</time>
      </trkpt>
      <trkpt lat="43.01795" lon="6.22742">
        <time>2014-05-08T09:40:31.000Z</time>
      </trkpt>
      <trkpt lat="43.01793" lon="6.22732">
        <time>2014-05-08T09:40:36.000Z</time>
      </trkpt>
      <trkpt lat="43.01788" lon="6.22722">
        <time>2014-05-08T09:40:41.000Z</time>
      </trkpt>
      <trkpt lat="43.01782" lon="6.22713">
        <time>2014-05-08T09:40:46.000Z</time>
      </trkpt>
      <trkpt lat="43.01776" lon="6.22704">
        <time>2014-05-08T09:40:51.000Z</time>
      </trkpt>
      <trkpt lat="43.0177" lon="6.22696">
        <time>2014-05-08T09:40:56.000Z</time>
      </trkpt>
      <trkpt lat="43.01764" lon="6.22688">
        <time>2014-05-08T09:41:01.000Z</time>
      </trkpt>
      <trkpt lat="43.01759" lon="6.22677">
        <time>2014-05-08T09:41:06.000Z</time>
      </trkpt>
      <trkpt lat="43.01756" lon="6.22665">
        <time>2014-05-08T09:41:11.000Z</time>
      </trkpt>
      <trkpt lat="43.01754" lon="6.22656">
        <time>2014-05-08T09:41:16.000Z</time>
      </trkpt>
      <trkpt lat="43.01751" lon="6.22643">
        <time>2014-05-08T09:41:21.000Z</time>
      </trkpt>
      <trkpt lat="43.01747" lon="6.22631">
        <time>2014-05-08T09:41:26.000Z</time>
      </trkpt>
      <trkpt lat="43.01741" lon="6.22618">
        <time>2014-05-08T09:41:31.000Z</time>
      </trkpt>
      <trkpt lat="43.01735" lon="6.22608">
        <time>2014-05-08T09:41:36.000Z</time>
      </trkpt>
      <trkpt lat="43.0173" lon="6.22596">
        <time>2014-05-08T09:41:41.000Z</time>
      </trkpt>
      <trkpt lat="43.01727" lon="6.22583">
        <time>2014-05-08T09:41:46.000Z</time>
      </trkpt>
      <trkpt lat="43.01725" lon="6.22569">
        <time>2014-05-08T09:41:51.000Z</time>
      </trkpt>
      <trkpt lat="43.01721" lon="6.22557">
        <time>2014-05-08T09:41:56.000Z</time>
      </trkpt>
      <trkpt lat="43.01717" lon="6.22545">
        <time>2014-05-08T09:42:01.000Z</time>
      </trkpt>
      <trkpt lat="43.01714" lon="6.22532">
        <time>2014-05-08T09:42:06.000Z</time>
      </trkpt>
      <trkpt lat="43.01711" lon="6.22518">
        <time>2014-05-08T09:42:11.000Z</time>
      </trkpt>
      <trkpt lat="43.0171" lon="6.22504">
        <time>2014-05-08T09:42:16.000Z</time>
      </trkpt>
      <trkpt lat="43.01708" lon="6.2249">
        <time>2014-05-08T09:42:21.000Z</time>
      </trkpt>
      <trkpt lat="43.01705" lon="6.22479">
        <time>2014-05-08T09:42:26.000Z</time>
      </trkpt>
      <trkpt lat="43.01702" lon="6.22468">
        <time>2014-05-08T09:42:31.000Z</time>
      </trkpt>
      <trkpt lat="43.01701" lon="6.22457">
        <time>2014-05-08T09:42:36.000Z</time>
      </trkpt>
      <trkpt lat="43.01699" lon="6.22444">
        <time>2014-05-08T09:42:41.000Z</time>
      </trkpt>
      <trkpt lat="43.01697" lon="6.22431">
        <time>2014-05-08T09:42:46.000Z</time>
      </trkpt>
      <trkpt lat="43.01693" lon="6.22418">
        <time>2014-05-08T09:42:51.000Z</time>
      </trkpt>
      <trkpt lat="43.01687" lon="6.22407">
        <time>2014-05-08T09:42:56.000Z</time>
      </trkpt>
      <trkpt lat="43.01684" lon="6.22394">
        <time>2014-05-08T09:43:01.000Z</time>
      </trkpt>
      <trkpt lat="43.01681" lon="6.22382">
        <time>2014-05-08T09:43:06.000Z</time>
      </trkpt>
      <trkpt lat="43.0168" lon="6.22368">
        <time>2014-05-08T09:43:11.000Z</time>
      </trkpt>
      <trkpt lat="43.01677" lon="6.22355">
        <time>2014-05-08T09:43:16.000Z</time>
      </trkpt>
      <trkpt lat="43.01671" lon="6.22343">
        <time>2014-05-08T09:43:21.000Z</time>
      </trkpt>
      <trkpt lat="43.01666" lon="6.22332">
        <time>2014-05-08T09:43:26.000Z</time>
      </trkpt>
      <trkpt lat="43.01662" lon="6.22319">
        <time>2014-05-08T09:43:31.000Z</time>
      </trkpt>
      <trkpt lat="43.01658" lon="6.22306">
        <time>2014-05-08T09:43:36.000Z</time>
      </trkpt>
      <trkpt lat="43.01655" lon="6.22293">
        <time>2014-05-08T09:43:41.000Z</time>
      </trkpt>
      <trkpt lat="43.0165" lon="6.22281">
        <time>2014-05-08T09:43:46.000Z</time>
      </trkpt>
      <trkpt lat="43.01646" lon="6.22273">
        <time>2014-05-08T09:43:51.000Z</time>
      </trkpt>
      <trkpt lat="43.01638" lon="6.22263">
        <time>2014-05-08T09:43:56.000Z</time>
      </trkpt>
      <trkpt lat="43.01633" lon="6.22253">
        <time>2014-05-08T09:44:01.000Z</time>
      </trkpt>
      <trkpt lat="43.01626" lon="6.22241">
        <time>2014-05-08T09:44:06.000Z</time>
      </trkpt>
      <trkpt lat="43.01622" lon="6.22229">
        <time>2014-05-08T09:44:11.000Z</time>
      </trkpt>
      <trkpt lat="43.01619" lon="6.22219">
        <time>2014-05-08T09:44:16.000Z</time>
      </trkpt>
      <trkpt lat="43.01614" lon="6.22211">
        <time>2014-05-08T09:44:21.000Z</time>
      </trkpt>
      <trkpt lat="43.01611" lon="6.22201">
        <time>2014-05-08T09:44:26.000Z</time>
      </trkpt>
      <trkpt lat="43.01607" lon="6.22189">
        <time>2014-05-08T09:44:31.000Z</time>
      </trkpt>
      <trkpt lat="43.01603" lon="6.22179">
        <time>2014-05-08T09:44:36.000Z</time>
      </trkpt>
      <trkpt lat="43.01596" lon="6.22168">
        <time>2014-05-08T09:44:41.000Z</time>
      </trkpt>
      <trkpt lat="43.0159" lon="6.2216">
        <time>2014-05-08T09:44:46.000Z</time>
      </trkpt>
      <trkpt lat="43.01585" lon="6.22151">
        <time>2014-05-08T09:44:51.000Z</time>
      </trkpt>
      <trkpt lat="43.0158" lon="6.2214">
        <time>2014-05-08T09:44:56.000Z</time>
      </trkpt>
      <trkpt lat="43.01576" lon="6.22128">
        <time>2014-05-08T09:45:01.000Z</time>
      </trkpt>
      <trkpt lat="43.01572" lon="6.22117">
        <time>2014-05-08T09:45:06.000Z</time>
      </trkpt>
      <trkpt lat="43.01568" lon="6.22108">
        <time>2014-05-08T09:45:11.000Z</time>
      </trkpt>
      <trkpt lat="43.01563" lon="6.22097">
        <time>2014-05-08T09:45:16.000Z</time>
      </trkpt>
      <trkpt lat="43.01558" lon="6.22086">
        <time>2014-05-08T09:45:21.000Z</time>
      </trkpt>
      <trkpt lat="43.01553" lon="6.22073">
        <time>2014-05-08T09:45:26.000Z</time>
      </trkpt>
      <trkpt lat="43.0155" lon="6.2206">
        <time>2014-05-08T09:45:31.000Z</time>
      </trkpt>
      <trkpt lat="43.01547" lon="6.22048">
        <time>2014-05-08T09:45:36.000Z</time>
      </trkpt>
      <trkpt lat="43.01545" lon="6.22037">
        <time>2014-05-08T09:45:41.000Z</time>
      </trkpt>
      <trkpt lat="43.01541" lon="6.22025">
        <time>2014-05-08T09:45:46.000Z</time>
      </trkpt>
      <trkpt lat="43.01536" lon="6.22014">
        <time>2014-05-08T09:45:51.000Z</time>
      </trkpt>
      <trkpt lat="43.0153" lon="6.22003">
        <time>2014-05-08T09:45:56.000Z</time>
      </trkpt>
      <trkpt lat="43.01524" lon="6.21994">
        <time>2014-05-08T09:46:01.000Z</time>
      </trkpt>
      <trkpt lat="43.0152" lon="6.21982">
        <time>2014-05-08T09:46:06.000Z</time>
      </trkpt>
      <trkpt lat="43.01516" lon="6.2197">
        <time>2014-05-08T09:46:11.000Z</time>
      </trkpt>
      <trkpt lat="43.01513" lon="6.21958">
        <time>2014-05-08T09:46:16.000Z</time>
      </trkpt>
      <trkpt lat="43.01509" lon="6.21945">
        <time>2014-05-08T09:46:21.000Z</time>
      </trkpt>
      <trkpt lat="43.01504" lon="6.21937">
        <time>2014-05-08T09:46:26.000Z</time>
      </trkpt>
      <trkpt lat="43.01498" lon="6.21928">
        <time>2014-05-08T09:46:31.000Z</time>
      </trkpt>
      <trkpt lat="43.01491" lon="6.21919">
        <time>2014-05-08T09:46:36.000Z</time>
      </trkpt>
      <trkpt lat="43.01485" lon="6.21909">
        <time>2014-05-08T09:46:41.000Z</time>
      </trkpt>
      <trkpt lat="43.01479" lon="6.21902">
        <time>2014-05-08T09:46:46.000Z</time>
      </trkpt>
      <trkpt lat="43.01474" lon="6.2189">
        <time>2014-05-08T09:46:51.000Z</time>
      </trkpt>
      <trkpt lat="43.0147" lon="6.21877">
        <time>2014-05-08T09:46:56.000Z</time>
      </trkpt>
      <trkpt lat="43.01468" lon="6.21864">
        <time>2014-05-08T09:47:01.000Z</time>
      </trkpt>
      <trkpt lat="43.01465" lon="6.21851">
        <time>2014-05-08T09:47:06.000Z</time>
      </trkpt>
      <trkpt lat="43.01461" lon="6.21839">
        <time>2014-05-08T09:47:11.000Z</time>
      </trkpt>
      <trkpt lat="43.01456" lon="6.21828">
        <time>2014-05-08T09:47:16.000Z</time>
      </trkpt>
      <trkpt lat="43.0145" lon="6.21819">
        <time>2014-05-08T09:47:21.000Z</time>
      </trkpt>
      <trkpt lat="43.01445" lon="6.21809">
        <time>2014-05-08T09:47:26.000Z</time>
      </trkpt>
      <trkpt lat="43.01442" lon="6.21798">
        <time>2014-05-08T09:47:31.000Z</time>
      </trkpt>
      <trkpt lat="43.01439" lon="6.2179">
        <time>2014-05-08T09:47:36.000Z</time>
      </trkpt>
      <trkpt lat="43.01435" lon="6.21782">
        <time>2014-05-08T09:47:41.000Z</time>
      </trkpt>
      <trkpt lat="43.01433" lon="6.21778">
        <time>2014-05-08T09:47:46.000Z</time>
      </trkpt>
      <trkpt lat="43.01431" lon="6.21773">
        <time>2014-05-08T09:47:51.000Z</time>
      </trkpt>
      <trkpt lat="43.01428" lon="6.21764">
        <time>2014-05-08T09:47:56.000Z</time>
      </trkpt>
      <trkpt lat="43.01426" lon="6.21753">
        <time>2014-05-08T09:48:01.000Z</time>
      </trkpt>
      <trkpt lat="43.01424" lon="6.21744">
        <ele>0.07</ele>
        <time>2014-05-08T09:48:06.000Z</time>
      </trkpt>
      <trkpt lat="43.01419" lon="6.21734">
        <ele>0.14</ele>
        <time>2014-05-08T09:48:11.000Z</time>
      </trkpt>
      <trkpt lat="43.01413" lon="6.21725">
        <ele>0.21</ele>
        <time>2014-05-08T09:48:16.000Z</time>
      </trkpt>
      <trkpt lat="43.01408" lon="6.21718">
        <ele>0.29</ele>
        <time>2014-05-08T09:48:21.000Z</time>
      </trkpt>
      <trkpt lat="43.01402" lon="6.21711">
        <ele>0.37</ele>
        <time>2014-05-08T09:48:26.000Z</time>
      </trkpt>
      <trkpt lat="43.01396" lon="6.21704">
        <ele>0.45</ele>
        <time>2014-05-08T09:48:31.000Z</time>
      </trkpt>
      <trkpt lat="43.01391" lon="6.21698">
        <ele>0.47</ele>
        <time>2014-05-08T09:48:36.000Z</time>
      </trkpt>
      <trkpt lat="43.01385" lon="6.21686">
        <ele>0.5</ele>
        <time>2014-05-08T09:48:41.000Z</time>
      </trkpt>
      <trkpt lat="43.01379" lon="6.21678">
        <ele>0.52</ele>
        <time>2014-05-08T09:48:46.000Z</time>
      </trkpt>
      <trkpt lat="43.01372" lon="6.21669">
        <ele>0.51</ele>
        <time>2014-05-08T09:48:51.000Z</time>
      </trkpt>
      <trkpt lat="43.01364" lon="6.21662">
        <ele>0.5</ele>
        <time>2014-05-08T09:48:56.000Z</time>
      </trkpt>
      <trkpt lat="43.01357" lon="6.21658">
        <ele>0.49</ele>
        <time>2014-05-08T09:49:01.000Z</time>
      </trkpt>
      <trkpt lat="43.0135" lon="6.21654">
        <ele>0.42</ele>
        <time>2014-05-08T09:49:06.000Z</time>
      </trkpt>
      <trkpt lat="43.01343" lon="6.21648">
        <ele>0.34</ele>
        <time>2014-05-08T09:49:11.000Z</time>
      </trkpt>
      <trkpt lat="43.01337" lon="6.21642">
        <ele>0.27</ele>
        <time>2014-05-08T09:49:16.000Z</time>
      </trkpt>
      <trkpt lat="43.01335" lon="6.21639">
        <ele>0.26</ele>
        <time>2014-05-08T09:49:21.000Z</time>
      </trkpt>
      <trkpt lat="43.01335" lon="6.21638">
        <ele>0.26</ele>
        <time>2014-05-08T09:49:26.000Z</time>
      </trkpt>
      <trkpt lat="43.01334" lon="6.21638">
        <ele>0.26</ele>
        <time>2014-05-08T09:49:31.000Z</time>
      </trkpt>
      <trkpt lat="43.01334" lon="6.21638">
        <ele>0.24</ele>
        <time>2014-05-08T09:49:36.000Z</time>
      </trkpt>
      <trkpt lat="43.01333" lon="6.21638">
        <ele>0.22</ele>
        <time>2014-05-08T09:49:41.000Z</time>
      </trkpt>
      <trkpt lat="43.01331" lon="6.21637">
        <ele>0.2</ele>
        <time>2014-05-08T09:49:46.000Z</time>
      </trkpt>
      <trkpt lat="43.0133" lon="6.21634">
        <ele>0.18</ele>
        <time>2014-05-08T09:49:51.000Z</time>
      </trkpt>
      <trkpt lat="43.01329" lon="6.21632">
        <ele>0.16</ele>
        <time>2014-05-08T09:49:56.000Z</time>
      </trkpt>
      <trkpt lat="43.01329" lon="6.21631">
        <ele>0.14</ele>
        <time>2014-05-08T09:50:01.000Z</time>
      </trkpt>
      <trkpt lat="43.01328" lon="6.2163">
        <ele>0.13</ele>
        <time>2014-05-08T09:50:06.000Z</time>
      </trkpt>
      <trkpt lat="43.01328" lon="6.21629">
        <ele>0.11</ele>
        <time>2014-05-08T09:50:11.000Z</time>
      </trkpt>
      <trkpt lat="43.01328" lon="6.21628">
        <ele>0.1</ele>
        <time>2014-05-08T09:50:16.000Z</time>
      </trkpt>
      <trkpt lat="43.01328" lon="6.21627">
        <ele>0.09</ele>
        <time>2014-05-08T09:50:21.000Z</time>
      </trkpt>
      <trkpt lat="43.01328" lon="6.21627">
        <ele>0.08</ele>
        <time>2014-05-08T09:50:26.000Z</time>
      </trkpt>
      <trkpt lat="43.01328" lon="6.21626">
        <ele>0.06</ele>
        <time>2014-05-08T09:50:31.000Z</time>
      </trkpt>
      <trkpt lat="43.01328" lon="6.21625">
        <ele>0.06</ele>
        <time>2014-05-08T09:50:36.000Z</time>
      </trkpt>
      <trkpt lat="43.01328" lon="6.21624">
        <ele>0.06</ele>
        <time>2014-05-08T09:50:41.000Z</time>
      </trkpt>
      <trkpt lat="43.01328" lon="6.21624">
        <ele>0.06</ele>
        <time>2014-05-08T09:50:46.000Z</time>
      </trkpt>
      <trkpt lat="43.01328" lon="6.21624">
        <ele>0.06</ele>
        <time>2014-05-08T09:50:51.000Z</time>
      </trkpt>
      <trkpt lat="43.01327" lon="6.21623">
        <ele>0.06</ele>
        <time>2014-05-08T09:50:56.000Z</time>
      </trkpt>
      <trkpt lat="43.01326" lon="6.21624">
        <ele>0.06</ele>
        <time>2014-05-08T09:51:01.000Z</time>
      </trkpt>
      <trkpt lat="43.01326" lon="6.21624">
        <ele>0.06</ele>
        <time>2014-05-08T09:51:06.000Z</time>
      </trkpt>
      <trkpt lat="43.01325" lon="6.21624">
        <ele>0.06</ele>
        <time>2014-05-08T09:51:11.000Z</time>
      </trkpt>
      <trkpt lat="43.01325" lon="6.21624">
        <ele>0.06</ele>
        <time>2014-05-08T09:51:16.000Z</time>
      </trkpt>
      <trkpt lat="43.01324" lon="6.21624">
        <ele>0.06</ele>
        <time>2014-05-08T09:51:21.000Z</time>
      </trkpt>
      <trkpt lat="43.01325" lon="6.21624">
        <ele>0.06</ele>
        <time>2014-05-08T09:51:26.000Z</time>
      </trkpt>
      <trkpt lat="43.01325" lon="6.21624">
        <ele>0.06</ele>
        <time>2014-05-08T09:51:31.000Z</time>
      </trkpt>
      <trkpt lat="43.01325" lon="6.21624">
        <ele>0.05</ele>
        <time>2014-05-08T09:51:36.000Z</time>
      </trkpt>
      <trkpt lat="43.01325" lon="6.21624">
        <ele>0.05</ele>
        <time>2014-05-08T09:51:41.000Z</time>
      </trkpt>
      <trkpt lat="43.01324" lon="6.21624">
        <ele>0.04</ele>
        <time>2014-05-08T09:51:46.000Z</time>
      </trkpt>
      <trkpt lat="43.01324" lon="6.21623">
        <ele>0.04</ele>
        <time>2014-05-08T09:51:51.000Z</time>
      </trkpt>
      <trkpt lat="43.01324" lon="6.21623">
        <ele>0.04</ele>
        <time>2014-05-08T09:51:56.000Z</time>
      </trkpt>
      <trkpt lat="43.01324" lon="6.21623">
        <ele>0.03</ele>
        <time>2014-05-08T09:52:01.000Z</time>
      </trkpt>
      <trkpt lat="43.01324" lon="6.21623">
        <ele>0.02</ele>
        <time>2014-05-08T09:52:06.000Z</time>
      </trkpt>
      <trkpt lat="43.01324" lon="6.21621">
        <ele>0.01</ele>
        <time>2014-05-08T09:52:11.000Z</time>
      </trkpt>
      <trkpt lat="43.01324" lon="6.21621">
        <time>2014-05-08T09:52:16.000Z</time>
      </trkpt>
      <trkpt lat="43.01324" lon="6.2162">
        <time>2014-05-08T09:52:21.000Z</time>
      </trkpt>
      <trkpt lat="43.01323" lon="6.2162">
        <time>2014-05-08T09:52:26.000Z</time>
      </trkpt>
      <trkpt lat="43.01324" lon="6.21618">
        <time>2014-05-08T09:52:31.000Z</time>
      </trkpt>
      <trkpt lat="43.01324" lon="6.21618">
        <time>2014-05-08T09:52:36.000Z</time>
      </trkpt>
      <trkpt lat="43.01323" lon="6.21618">
        <time>2014-05-08T09:52:41.000Z</time>
      </trkpt>
      <trkpt lat="43.01323" lon="6.21617">
        <time>2014-05-08T09:52:46.000Z</time>
      </trkpt>
      <trkpt lat="43.01322" lon="6.21617">
        <time>2014-05-08T09:52:51.000Z</time>
      </trkpt>
      <trkpt lat="43.01322" lon="6.21617">
        <time>2014-05-08T09:52:56.000Z</time>
      </trkpt>
      <trkpt lat="43.01322" lon="6.21617">
        <time>2014-05-08T09:53:01.000Z</time>
      </trkpt>
      <trkpt lat="43.01322" lon="6.21617">
        <time>2014-05-08T09:53:06.000Z</time>
      </trkpt>
      <trkpt lat="43.01321" lon="6.21617">
        <time>2014-05-08T09:53:11.000Z</time>
      </trkpt>
      <trkpt lat="43.01321" lon="6.21616">
        <time>2014-05-08T09:53:16.000Z</time>
      </trkpt>
      <trkpt lat="43.00906" lon="6.21162">
        <time>2014-05-08T09:53:21.000Z</time>
      </trkpt>
      <trkpt lat="43.00905" lon="6.21155">
        <time>2014-05-08T09:53:26.000Z</time>
      </trkpt>
      <trkpt lat="43.00902" lon="6.21148">
        <time>2014-05-08T09:53:31.000Z</time>
      </trkpt>
      <trkpt lat="43.00899" lon="6.21141">
        <time>2014-05-08T09:53:36.000Z</time>
      </trkpt>
      <trkpt lat="43.00894" lon="6.21131">
        <time>2014-05-08T09:53:41.000Z</time>
      </trkpt>
      <trkpt lat="43.00892" lon="6.21123">
        <time>2014-05-08T09:53:46.000Z</time>
      </trkpt>
      <trkpt lat="43.0089" lon="6.21113">
        <time>2014-05-08T09:53:51.000Z</time>
      </trkpt>
      <trkpt lat="43.00889" lon="6.21103">
        <time>2014-05-08T09:53:56.000Z</time>
      </trkpt>
      <trkpt lat="43.00889" lon="6.21092">
        <time>2014-05-08T09:54:01.000Z</time>
      </trkpt>
      <trkpt lat="43.00889" lon="6.2108">
        <time>2014-05-08T09:54:06.000Z</time>
      </trkpt>
      <trkpt lat="43.00887" lon="6.2107">
        <time>2014-05-08T09:54:11.000Z</time>
      </trkpt>
      <trkpt lat="43.00886" lon="6.21061">
        <time>2014-05-08T09:54:16.000Z</time>
      </trkpt>
      <trkpt lat="43.00885" lon="6.21051">
        <time>2014-05-08T09:54:21.000Z</time>
      </trkpt>
      <trkpt lat="43.00885" lon="6.21041">
        <time>2014-05-08T09:54:26.000Z</time>
      </trkpt>
      <trkpt lat="43.00886" lon="6.2103">
        <time>2014-05-08T09:54:31.000Z</time>
      </trkpt>
      <trkpt lat="43.00886" lon="6.2102">
        <time>2014-05-08T09:54:36.000Z</time>
      </trkpt>
      <trkpt lat="43.00884" lon="6.21009">
        <time>2014-05-08T09:54:41.000Z</time>
      </trkpt>
      <trkpt lat="43.00881" lon="6.21002">
        <time>2014-05-08T09:54:46.000Z</time>
      </trkpt>
      <trkpt lat="43.0088" lon="6.20995">
        <time>2014-05-08T09:54:51.000Z</time>
      </trkpt>
      <trkpt lat="43.00881" lon="6.20983">
        <time>2014-05-08T09:54:56.000Z</time>
      </trkpt>
      <trkpt lat="43.00882" lon="6.20973">
        <time>2014-05-08T09:55:01.000Z</time>
      </trkpt>
      <trkpt lat="43.00884" lon="6.20962">
        <time>2014-05-08T09:55:06.000Z</time>
      </trkpt>
      <trkpt lat="43.00885" lon="6.20951">
        <time>2014-05-08T09:55:11.000Z</time>
      </trkpt>
      <trkpt lat="43.00887" lon="6.20943">
        <time>2014-05-08T09:55:16.000Z</time>
      </trkpt>
      <trkpt lat="43.00889" lon="6.20932">
        <time>2014-05-08T09:55:21.000Z</time>
      </trkpt>
      <trkpt lat="43.0089" lon="6.20922">
        <time>2014-05-08T09:55:26.000Z</time>
      </trkpt>
      <trkpt lat="43.00892" lon="6.20912">
        <time>2014-05-08T09:55:31.000Z</time>
      </trkpt>
      <trkpt lat="43.00897" lon="6.20903">
        <time>2014-05-08T09:55:36.000Z</time>
      </trkpt>
      <trkpt lat="43.009" lon="6.20894">
        <time>2014-05-08T09:55:41.000Z</time>
      </trkpt>
      <trkpt lat="43.00903" lon="6.20883">
        <time>2014-05-08T09:55:46.000Z</time>
      </trkpt>
      <trkpt lat="43.00904" lon="6.20872">
        <time>2014-05-08T09:55:51.000Z</time>
      </trkpt>
      <trkpt lat="43.00905" lon="6.20863">
        <time>2014-05-08T09:55:56.000Z</time>
      </trkpt>
      <trkpt lat="43.00905" lon="6.20856">
        <time>2014-05-08T09:56:01.000Z</time>
      </trkpt>
      <trkpt lat="43.00906" lon="6.20849">
        <time>2014-05-08T09:56:06.000Z</time>
      </trkpt>
      <trkpt lat="43.00907" lon="6.20845">
        <time>2014-05-08T09:56:11.000Z</time>
      </trkpt>
      <trkpt lat="43.0091" lon="6.20834">
        <time>2014-05-08T09:56:16.000Z</time>
      </trkpt>
      <trkpt lat="43.00913" lon="6.20823">
        <time>2014-05-08T09:56:21.000Z</time>
      </trkpt>
      <trkpt lat="43.00914" lon="6.20812">
        <time>2014-05-08T09:56:26.000Z</time>
      </trkpt>
      <trkpt lat="43.00914" lon="6.20803">
        <time>2014-05-08T09:56:31.000Z</time>
      </trkpt>
      <trkpt lat="43.00913" lon="6.2079">
        <time>2014-05-08T09:56:36.000Z</time>
      </trkpt>
      <trkpt lat="43.00913" lon="6.2078">
        <time>2014-05-08T09:56:41.000Z</time>
      </trkpt>
      <trkpt lat="43.00914" lon="6.20769">
        <time>2014-05-08T09:56:46.000Z</time>
      </trkpt>
      <trkpt lat="43.00917" lon="6.20758">
        <time>2014-05-08T09:56:51.000Z</time>
      </trkpt>
      <trkpt lat="43.00921" lon="6.20747">
        <time>2014-05-08T09:56:56.000Z</time>
      </trkpt>
      <trkpt lat="43.00927" lon="6.20738">
        <time>2014-05-08T09:57:01.000Z</time>
      </trkpt>
      <trkpt lat="43.0093" lon="6.20731">
        <time>2014-05-08T09:57:06.000Z</time>
      </trkpt>
      <trkpt lat="43.00934" lon="6.20724">
        <time>2014-05-08T09:57:11.000Z</time>
      </trkpt>
      <trkpt lat="43.0094" lon="6.20715">
        <time>2014-05-08T09:57:16.000Z</time>
      </trkpt>
      <trkpt lat="43.00944" lon="6.20706">
        <time>2014-05-08T09:57:21.000Z</time>
      </trkpt>
      <trkpt lat="43.00946" lon="6.20698">
        <time>2014-05-08T09:57:26.000Z</time>
      </trkpt>
      <trkpt lat="43.00948" lon="6.20692">
        <time>2014-05-08T09:57:31.000Z</time>
      </trkpt>
      <trkpt lat="43.00949" lon="6.2069">
        <time>2014-05-08T09:57:36.000Z</time>
      </trkpt>
      <trkpt lat="43.00949" lon="6.20689">
        <time>2014-05-08T09:57:41.000Z</time>
      </trkpt>
      <trkpt lat="43.00949" lon="6.20689">
        <time>2014-05-08T09:57:46.000Z</time>
      </trkpt>
      <trkpt lat="43.00948" lon="6.20689">
        <time>2014-05-08T09:57:51.000Z</time>
      </trkpt>
      <trkpt lat="43.00949" lon="6.20689">
        <time>2014-05-08T09:57:56.000Z</time>
      </trkpt>
      <trkpt lat="43.0095" lon="6.20691">
        <time>2014-05-08T09:58:01.000Z</time>
      </trkpt>
      <trkpt lat="43.00952" lon="6.20692">
        <time>2014-05-08T09:58:06.000Z</time>
      </trkpt>
      <trkpt lat="43.00954" lon="6.20693">
        <time>2014-05-08T09:58:11.000Z</time>
      </trkpt>
      <trkpt lat="43.00954" lon="6.20694">
        <time>2014-05-08T09:58:16.000Z</time>
      </trkpt>
      <trkpt lat="43.00953" lon="6.20693">
        <time>2014-05-08T09:58:21.000Z</time>
      </trkpt>
      <trkpt lat="43.00953" lon="6.20691">
        <time>2014-05-08T09:58:26.000Z</time>
      </trkpt>
      <trkpt lat="43.00952" lon="6.20689">
        <time>2014-05-08T09:58:31.000Z</time>
      </trkpt>
      <trkpt lat="43.00952" lon="6.20688">
        <time>2014-05-08T09:58:36.000Z</time>
      </trkpt>
      <trkpt lat="43.00953" lon="6.20687">
        <time>2014-05-08T09:58:41.000Z</time>
      </trkpt>
      <trkpt lat="43.00953" lon="6.20686">
        <time>2014-05-08T09:58:46.000Z</time>
      </trkpt>
      <trkpt lat="43.00952" lon="6.20684">
        <time>2014-05-08T09:58:51.000Z</time>
      </trkpt>
      <trkpt lat="43.00952" lon="6.20681">
        <time>2014-05-08T09:58:56.000Z</time>
      </trkpt>
      <trkpt lat="43.00953" lon="6.20679">
        <time>2014-05-08T09:59:01.000Z</time>
      </trkpt>
      <trkpt lat="43.00953" lon="6.20676">
        <time>2014-05-08T09:59:06.000Z</time>
      </trkpt>
      <trkpt lat="43.00953" lon="6.20676">
        <time>2014-05-08T09:59:11.000Z</time>
      </trkpt>
      <trkpt lat="43.00951" lon="6.20673">
        <time>2014-05-08T09:59:16.000Z</time>
      </trkpt>
      <trkpt lat="43.00952" lon="6.20671">
        <time>2014-05-08T09:59:21.000Z</time>
      </trkpt>
      <trkpt lat="43.00953" lon="6.2067">
        <time>2014-05-08T09:59:26.000Z</time>
      </trkpt>
      <trkpt lat="43.00952" lon="6.20672">
        <time>2014-05-08T09:59:31.000Z</time>
      </trkpt>
      <trkpt lat="43.00952" lon="6.20669">
        <time>2014-05-08T09:59:36.000Z</time>
      </trkpt>
      <trkpt lat="43.00951" lon="6.20669">
        <time>2014-05-08T09:59:41.000Z</time>
      </trkpt>
      <trkpt lat="43.00947" lon="6.20666">
        <time>2014-05-08T09:59:46.000Z</time>
      </trkpt>
      <trkpt lat="43.00944" lon="6.2066">
        <time>2014-05-08T09:59:51.000Z</time>
      </trkpt>
      <trkpt lat="43.00944" lon="6.20669">
        <time>2014-05-08T09:59:56.000Z</time>
      </trkpt>
      <trkpt lat="43.00945" lon="6.2067">
        <time>2014-05-08T10:00:01.000Z</time>
      </trkpt>
      <trkpt lat="43.00949" lon="6.2066">
        <time>2014-05-08T10:00:06.000Z</time>
      </trkpt>
      <trkpt lat="43.00946" lon="6.20663">
        <time>2014-05-08T10:00:11.000Z</time>
      </trkpt>
      <trkpt lat="43.00948" lon="6.20666">
        <time>2014-05-08T10:00:16.000Z</time>
      </trkpt>
      <trkpt lat="43.00946" lon="6.20666">
        <time>2014-05-08T10:00:21.000Z</time>
      </trkpt>
      <trkpt lat="43.00946" lon="6.20665">
        <time>2014-05-08T10:00:26.000Z</time>
      </trkpt>
      <trkpt lat="43.00941" lon="6.20667">
        <time>2014-05-08T10:00:41.000Z</time>
      </trkpt>
      <trkpt lat="43.00941" lon="6.20667">
        <time>2014-05-08T10:00:46.000Z</time>
      </trkpt>
      <trkpt lat="43.0094" lon="6.20672">
        <time>2014-05-08T10:01:01.000Z</time>
      </trkpt>
      <trkpt lat="43.00938" lon="6.20672">
        <time>2014-05-08T10:01:06.000Z</time>
      </trkpt>
      <trkpt lat="43.00936" lon="6.20671">
        <time>2014-05-08T10:01:11.000Z</time>
      </trkpt>
      <trkpt lat="43.00937" lon="6.2067">
        <time>2014-05-08T10:01:16.000Z</time>
      </trkpt>
      <trkpt lat="43.00938" lon="6.2067">
        <time>2014-05-08T10:01:21.000Z</time>
      </trkpt>
      <trkpt lat="43.00938" lon="6.20669">
        <time>2014-05-08T10:01:26.000Z</time>
      </trkpt>
      <trkpt lat="43.00937" lon="6.2067">
        <time>2014-05-08T10:01:31.000Z</time>
      </trkpt>
      <trkpt lat="43.00936" lon="6.20669">
        <time>2014-05-08T10:01:36.000Z</time>
      </trkpt>
      <trkpt lat="43.00934" lon="6.20669">
        <time>2014-05-08T10:01:41.000Z</time>
      </trkpt>
      <trkpt lat="43.00935" lon="6.20668">
        <time>2014-05-08T10:01:46.000Z</time>
      </trkpt>
      <trkpt lat="43.00935" lon="6.2067">
        <time>2014-05-08T10:01:51.000Z</time>
      </trkpt>
      <trkpt lat="43.00933" lon="6.20671">
        <time>2014-05-08T10:01:56.000Z</time>
      </trkpt>
      <trkpt lat="43.00932" lon="6.20673">
        <time>2014-05-08T10:02:01.000Z</time>
      </trkpt>
      <trkpt lat="43.0093" lon="6.20675">
        <time>2014-05-08T10:02:06.000Z</time>
      </trkpt>
      <trkpt lat="43.0093" lon="6.20676">
        <time>2014-05-08T10:02:11.000Z</time>
      </trkpt>
      <trkpt lat="43.00928" lon="6.20676">
        <time>2014-05-08T10:02:16.000Z</time>
      </trkpt>
      <trkpt lat="43.00924" lon="6.20675">
        <time>2014-05-08T10:02:21.000Z</time>
      </trkpt>
      <trkpt lat="43.00921" lon="6.20673">
        <time>2014-05-08T10:02:26.000Z</time>
      </trkpt>
      <trkpt lat="43.00917" lon="6.2067">
        <time>2014-05-08T10:02:31.000Z</time>
      </trkpt>
      <trkpt lat="43.00912" lon="6.20668">
        <time>2014-05-08T10:02:36.000Z</time>
      </trkpt>
      <trkpt lat="43.00906" lon="6.20667">
        <time>2014-05-08T10:02:41.000Z</time>
      </trkpt>
      <trkpt lat="43.00902" lon="6.20667">
        <time>2014-05-08T10:02:46.000Z</time>
      </trkpt>
      <trkpt lat="43.00899" lon="6.20664">
        <time>2014-05-08T10:02:51.000Z</time>
      </trkpt>
      <trkpt lat="43.00896" lon="6.20662">
        <time>2014-05-08T10:02:56.000Z</time>
      </trkpt>
      <trkpt lat="43.00894" lon="6.2066">
        <time>2014-05-08T10:03:01.000Z</time>
      </trkpt>
      <trkpt lat="43.00894" lon="6.2066">
        <time>2014-05-08T10:03:06.000Z</time>
      </trkpt>
      <trkpt lat="43.00889" lon="6.20649">
        <time>2014-05-08T10:03:21.000Z</time>
      </trkpt>
      <trkpt lat="43.00885" lon="6.20648">
        <time>2014-05-08T10:03:26.000Z</time>
      </trkpt>
      <trkpt lat="43.00883" lon="6.20643">
        <time>2014-05-08T10:03:31.000Z</time>
      </trkpt>
      <trkpt lat="43.0088" lon="6.2064">
        <time>2014-05-08T10:03:36.000Z</time>
      </trkpt>
      <trkpt lat="43.00877" lon="6.20634">
        <time>2014-05-08T10:03:41.000Z</time>
      </trkpt>
      <trkpt lat="43.00873" lon="6.20626">
        <time>2014-05-08T10:03:46.000Z</time>
      </trkpt>
      <trkpt lat="43.00866" lon="6.20616">
        <time>2014-05-08T10:03:51.000Z</time>
      </trkpt>
      <trkpt lat="43.0086" lon="6.20608">
        <time>2014-05-08T10:03:56.000Z</time>
      </trkpt>
      <trkpt lat="43.00848" lon="6.20601">
        <time>2014-05-08T10:04:01.000Z</time>
      </trkpt>
      <trkpt lat="43.0084" lon="6.20596">
        <time>2014-05-08T10:04:06.000Z</time>
      </trkpt>
      <trkpt lat="43.00826" lon="6.20586">
        <time>2014-05-08T10:04:11.000Z</time>
      </trkpt>
      <trkpt lat="43.00817" lon="6.20578">
        <time>2014-05-08T10:04:16.000Z</time>
      </trkpt>
      <trkpt lat="43.00808" lon="6.20572">
        <time>2014-05-08T10:04:21.000Z</time>
      </trkpt>
      <trkpt lat="43.00803" lon="6.20569">
        <time>2014-05-08T10:04:26.000Z</time>
      </trkpt>
      <trkpt lat="43.00798" lon="6.20567">
        <time>2014-05-08T10:04:31.000Z</time>
      </trkpt>
      <trkpt lat="43.00796" lon="6.20559">
        <time>2014-05-08T10:04:36.000Z</time>
      </trkpt>
      <trkpt lat="43.00794" lon="6.20551">
        <time>2014-05-08T10:04:41.000Z</time>
      </trkpt>
      <trkpt lat="43.00792" lon="6.20543">
        <time>2014-05-08T10:04:46.000Z</time>
      </trkpt>
      <trkpt lat="43.00792" lon="6.20537">
        <time>2014-05-08T10:04:51.000Z</time>
      </trkpt>
      <trkpt lat="43.00793" lon="6.20533">
        <time>2014-05-08T10:04:56.000Z</time>
      </trkpt>
      <trkpt lat="43.00799" lon="6.20529">
        <time>2014-05-08T10:05:01.000Z</time>
      </trkpt>
      <trkpt lat="43.00805" lon="6.20526">
        <time>2014-05-08T10:05:06.000Z</time>
      </trkpt>
      <trkpt lat="43.00814" lon="6.20527">
        <time>2014-05-08T10:05:11.000Z</time>
      </trkpt>
      <trkpt lat="43.00824" lon="6.20532">
        <time>2014-05-08T10:05:16.000Z</time>
      </trkpt>
      <trkpt lat="43.00832" lon="6.20537">
        <time>2014-05-08T10:05:21.000Z</time>
      </trkpt>
      <trkpt lat="43.00837" lon="6.20539">
        <time>2014-05-08T10:05:26.000Z</time>
      </trkpt>
      <trkpt lat="43.00841" lon="6.20538">
        <time>2014-05-08T10:05:31.000Z</time>
      </trkpt>
      <trkpt lat="43.00845" lon="6.20535">
        <time>2014-05-08T10:05:36.000Z</time>
      </trkpt>
      <trkpt lat="43.00847" lon="6.20533">
        <time>2014-05-08T10:05:41.000Z</time>
      </trkpt>
      <trkpt lat="43.00848" lon="6.20531">
        <time>2014-05-08T10:05:46.000Z</time>
      </trkpt>
      <trkpt lat="43.00849" lon="6.20528">
        <time>2014-05-08T10:05:51.000Z</time>
      </trkpt>
      <trkpt lat="43.0085" lon="6.20528">
        <time>2014-05-08T10:05:56.000Z</time>
      </trkpt>
      <trkpt lat="43.0085" lon="6.20524">
        <time>2014-05-08T10:06:01.000Z</time>
      </trkpt>
      <trkpt lat="43.00849" lon="6.20522">
        <time>2014-05-08T10:06:06.000Z</time>
      </trkpt>
      <trkpt lat="43.00849" lon="6.2052">
        <time>2014-05-08T10:06:11.000Z</time>
      </trkpt>
      <trkpt lat="43.00848" lon="6.20518">
        <time>2014-05-08T10:06:16.000Z</time>
      </trkpt>
      <trkpt lat="43.00848" lon="6.20515">
        <time>2014-05-08T10:06:21.000Z</time>
      </trkpt>
      <trkpt lat="43.00848" lon="6.20513">
        <time>2014-05-08T10:06:26.000Z</time>
      </trkpt>
      <trkpt lat="43.00847" lon="6.20512">
        <time>2014-05-08T10:06:31.000Z</time>
      </trkpt>
      <trkpt lat="43.00847" lon="6.20512">
        <time>2014-05-08T10:06:36.000Z</time>
      </trkpt>
      <trkpt lat="43.00847" lon="6.20511">
        <time>2014-05-08T10:06:41.000Z</time>
      </trkpt>
      <trkpt lat="43.00846" lon="6.20511">
        <time>2014-05-08T10:06:46.000Z</time>
      </trkpt>
      <trkpt lat="43.00845" lon="6.20511">
        <time>2014-05-08T10:06:51.000Z</time>
      </trkpt>
      <trkpt lat="43.00844" lon="6.20511">
        <time>2014-05-08T10:06:56.000Z</time>
      </trkpt>
      <trkpt lat="43.00844" lon="6.20511">
        <time>2014-05-08T10:07:01.000Z</time>
      </trkpt>
      <trkpt lat="43.00843" lon="6.2051">
        <time>2014-05-08T10:07:06.000Z</time>
      </trkpt>
      <trkpt lat="43.00842" lon="6.2051">
        <time>2014-05-08T10:07:11.000Z</time>
      </trkpt>
      <trkpt lat="43.00842" lon="6.20508">
        <time>2014-05-08T10:07:16.000Z</time>
      </trkpt>
      <trkpt lat="43.00841" lon="6.20508">
        <time>2014-05-08T10:07:21.000Z</time>
      </trkpt>
      <trkpt lat="43.0084" lon="6.20507">
        <time>2014-05-08T10:07:26.000Z</time>
      </trkpt>
      <trkpt lat="43.00839" lon="6.20506">
        <time>2014-05-08T10:07:31.000Z</time>
      </trkpt>
      <trkpt lat="43.00839" lon="6.20505">
        <time>2014-05-08T10:07:36.000Z</time>
      </trkpt>
      <trkpt lat="43.00839" lon="6.20505">
        <time>2014-05-08T10:07:41.000Z</time>
      </trkpt>
      <trkpt lat="43.00838" lon="6.20504">
        <time>2014-05-08T10:07:46.000Z</time>
      </trkpt>
      <trkpt lat="43.00838" lon="6.20502">
        <time>2014-05-08T10:07:51.000Z</time>
      </trkpt>
      <trkpt lat="43.00837" lon="6.20502">
        <time>2014-05-08T10:07:56.000Z</time>
      </trkpt>
      <trkpt lat="43.00836" lon="6.20502">
        <time>2014-05-08T10:08:01.000Z</time>
      </trkpt>
      <trkpt lat="43.00836" lon="6.20501">
        <time>2014-05-08T10:08:06.000Z</time>
      </trkpt>
      <trkpt lat="43.00835" lon="6.205">
        <time>2014-05-08T10:08:11.000Z</time>
      </trkpt>
      <trkpt lat="43.00834" lon="6.205">
        <time>2014-05-08T10:08:16.000Z</time>
      </trkpt>
      <trkpt lat="43.00833" lon="6.20499">
        <time>2014-05-08T10:08:21.000Z</time>
      </trkpt>
      <trkpt lat="43.00832" lon="6.20499">
        <time>2014-05-08T10:08:26.000Z</time>
      </trkpt>
      <trkpt lat="43.00832" lon="6.20498">
        <time>2014-05-08T10:08:31.000Z</time>
      </trkpt>
      <trkpt lat="43.00831" lon="6.20497">
        <time>2014-05-08T10:08:36.000Z</time>
      </trkpt>
      <trkpt lat="43.0083" lon="6.20497">
        <time>2014-05-08T10:08:41.000Z</time>
      </trkpt>
      <trkpt lat="43.0083" lon="6.20497">
        <time>2014-05-08T10:08:46.000Z</time>
      </trkpt>
      <trkpt lat="43.00829" lon="6.20497">
        <time>2014-05-08T10:08:51.000Z</time>
      </trkpt>
      <trkpt lat="43.00828" lon="6.20496">
        <time>2014-05-08T10:08:56.000Z</time>
      </trkpt>
      <trkpt lat="43.00828" lon="6.20496">
        <time>2014-05-08T10:09:01.000Z</time>
      </trkpt>
      <trkpt lat="43.00827" lon="6.20496">
        <time>2014-05-08T10:09:06.000Z</time>
      </trkpt>
      <trkpt lat="43.00826" lon="6.20497">
        <time>2014-05-08T10:09:21.000Z</time>
      </trkpt>
      <trkpt lat="43.00825" lon="6.20497">
        <time>2014-05-08T10:09:26.000Z</time>
      </trkpt>
      <trkpt lat="43.00824" lon="6.20497">
        <time>2014-05-08T10:09:31.000Z</time>
      </trkpt>
      <trkpt lat="43.00824" lon="6.20497">
        <time>2014-05-08T10:09:36.000Z</time>
      </trkpt>
      <trkpt lat="43.00823" lon="6.20497">
        <time>2014-05-08T10:09:41.000Z</time>
      </trkpt>
      <trkpt lat="43.00823" lon="6.20495">
        <time>2014-05-08T10:09:46.000Z</time>
      </trkpt>
      <trkpt lat="43.00619" lon="6.20123">
        <time>2014-05-08T10:09:51.000Z</time>
      </trkpt>
      <trkpt lat="43.00616" lon="6.20118">
        <time>2014-05-08T10:09:56.000Z</time>
      </trkpt>
      <trkpt lat="43.00612" lon="6.20111">
        <time>2014-05-08T10:10:01.000Z</time>
      </trkpt>
      <trkpt lat="43.00607" lon="6.20099">
        <time>2014-05-08T10:10:06.000Z</time>
      </trkpt>
      <trkpt lat="43.00603" lon="6.20088">
        <time>2014-05-08T10:10:11.000Z</time>
      </trkpt>
      <trkpt lat="43.006" lon="6.20077">
        <time>2014-05-08T10:10:16.000Z</time>
      </trkpt>
      <trkpt lat="43.00597" lon="6.20066">
        <time>2014-05-08T10:10:21.000Z</time>
      </trkpt>
      <trkpt lat="43.00595" lon="6.20056">
        <time>2014-05-08T10:10:26.000Z</time>
      </trkpt>
      <trkpt lat="43.00594" lon="6.20046">
        <time>2014-05-08T10:10:31.000Z</time>
      </trkpt>
      <trkpt lat="43.00594" lon="6.20036">
        <time>2014-05-08T10:10:36.000Z</time>
      </trkpt>
      <trkpt lat="43.00594" lon="6.20026">
        <time>2014-05-08T10:10:41.000Z</time>
      </trkpt>
      <trkpt lat="43.00593" lon="6.20015">
        <time>2014-05-08T10:10:46.000Z</time>
      </trkpt>
      <trkpt lat="43.0059" lon="6.20005">
        <time>2014-05-08T10:10:51.000Z</time>
      </trkpt>
      <trkpt lat="43.00589" lon="6.19998">
        <time>2014-05-08T10:10:56.000Z</time>
      </trkpt>
      <trkpt lat="43.00587" lon="6.19989">
        <time>2014-05-08T10:11:01.000Z</time>
      </trkpt>
      <trkpt lat="43.00587" lon="6.1998">
        <time>2014-05-08T10:11:06.000Z</time>
      </trkpt>
      <trkpt lat="43.00586" lon="6.19969">
        <time>2014-05-08T10:11:11.000Z</time>
      </trkpt>
      <trkpt lat="43.00585" lon="6.19961">
        <time>2014-05-08T10:11:16.000Z</time>
      </trkpt>
      <trkpt lat="43.00583" lon="6.19952">
        <time>2014-05-08T10:11:21.000Z</time>
      </trkpt>
      <trkpt lat="43.00581" lon="6.19944">
        <time>2014-05-08T10:11:26.000Z</time>
      </trkpt>
      <trkpt lat="43.00578" lon="6.19931">
        <time>2014-05-08T10:11:31.000Z</time>
      </trkpt>
      <trkpt lat="43.00577" lon="6.19921">
        <time>2014-05-08T10:11:36.000Z</time>
      </trkpt>
      <trkpt lat="43.00576" lon="6.19911">
        <time>2014-05-08T10:11:41.000Z</time>
      </trkpt>
      <trkpt lat="43.00574" lon="6.19902">
        <time>2014-05-08T10:11:46.000Z</time>
      </trkpt>
      <trkpt lat="43.0057" lon="6.19891">
        <time>2014-05-08T10:11:51.000Z</time>
      </trkpt>
      <trkpt lat="43.00565" lon="6.19882">
        <time>2014-05-08T10:11:56.000Z</time>
      </trkpt>
      <trkpt lat="43.00561" lon="6.1987">
        <time>2014-05-08T10:12:01.000Z</time>
      </trkpt>
      <trkpt lat="43.00558" lon="6.19857">
        <time>2014-05-08T10:12:06.000Z</time>
      </trkpt>
      <trkpt lat="43.00556" lon="6.19845">
        <time>2014-05-08T10:12:11.000Z</time>
      </trkpt>
      <trkpt lat="43.00555" lon="6.19836">
        <time>2014-05-08T10:12:16.000Z</time>
      </trkpt>
      <trkpt lat="43.00555" lon="6.19825">
        <time>2014-05-08T10:12:21.000Z</time>
      </trkpt>
      <trkpt lat="43.00555" lon="6.19811">
        <time>2014-05-08T10:12:26.000Z</time>
      </trkpt>
      <trkpt lat="43.00556" lon="6.19799">
        <time>2014-05-08T10:12:31.000Z</time>
      </trkpt>
      <trkpt lat="43.00557" lon="6.19788">
        <time>2014-05-08T10:12:36.000Z</time>
      </trkpt>
      <trkpt lat="43.00559" lon="6.19776">
        <time>2014-05-08T10:12:41.000Z</time>
      </trkpt>
      <trkpt lat="43.00559" lon="6.19768">
        <time>2014-05-08T10:12:46.000Z</time>
      </trkpt>
      <trkpt lat="43.00558" lon="6.19763">
        <time>2014-05-08T10:12:51.000Z</time>
      </trkpt>
      <trkpt lat="43.00557" lon="6.19755">
        <time>2014-05-08T10:12:56.000Z</time>
      </trkpt>
      <trkpt lat="43.00558" lon="6.19746">
        <time>2014-05-08T10:13:01.000Z</time>
      </trkpt>
      <trkpt lat="43.0056" lon="6.19736">
        <time>2014-05-08T10:13:06.000Z</time>
      </trkpt>
      <trkpt lat="43.00562" lon="6.19726">
        <time>2014-05-08T10:13:11.000Z</time>
      </trkpt>
      <trkpt lat="43.00565" lon="6.19717">
        <time>2014-05-08T10:13:16.000Z</time>
      </trkpt>
      <trkpt lat="43.00569" lon="6.19706">
        <time>2014-05-08T10:13:21.000Z</time>
      </trkpt>
      <trkpt lat="43.00574" lon="6.19697">
        <time>2014-05-08T10:13:26.000Z</time>
      </trkpt>
      <trkpt lat="43.00575" lon="6.19688">
        <time>2014-05-08T10:13:31.000Z</time>
      </trkpt>
      <trkpt lat="43.00577" lon="6.19676">
        <time>2014-05-08T10:13:36.000Z</time>
      </trkpt>
      <trkpt lat="43.00577" lon="6.19665">
        <time>2014-05-08T10:13:41.000Z</time>
      </trkpt>
      <trkpt lat="43.0058" lon="6.19651">
        <time>2014-05-08T10:13:46.000Z</time>
      </trkpt>
      <trkpt lat="43.00582" lon="6.19639">
        <time>2014-05-08T10:13:51.000Z</time>
      </trkpt>
      <trkpt lat="43.00586" lon="6.19629">
        <time>2014-05-08T10:13:56.000Z</time>
      </trkpt>
      <trkpt lat="43.00588" lon="6.19618">
        <time>2014-05-08T10:14:01.000Z</time>
      </trkpt>
      <trkpt lat="43.00589" lon="6.19606">
        <time>2014-05-08T10:14:06.000Z</time>
      </trkpt>
      <trkpt lat="43.00589" lon="6.19596">
        <time>2014-05-08T10:14:11.000Z</time>
      </trkpt>
      <trkpt lat="43.0059" lon="6.19584">
        <time>2014-05-08T10:14:16.000Z</time>
      </trkpt>
      <trkpt lat="43.00592" lon="6.19572">
        <time>2014-05-08T10:14:21.000Z</time>
      </trkpt>
      <trkpt lat="43.00595" lon="6.19562">
        <time>2014-05-08T10:14:26.000Z</time>
      </trkpt>
      <trkpt lat="43.00599" lon="6.19551">
        <time>2014-05-08T10:14:31.000Z</time>
      </trkpt>
      <trkpt lat="43.00603" lon="6.19541">
        <time>2014-05-08T10:14:36.000Z</time>
      </trkpt>
      <trkpt lat="43.00608" lon="6.19531">
        <time>2014-05-08T10:14:41.000Z</time>
      </trkpt>
      <trkpt lat="43.00613" lon="6.19522">
        <time>2014-05-08T10:14:46.000Z</time>
      </trkpt>
      <trkpt lat="43.00617" lon="6.19516">
        <time>2014-05-08T10:14:51.000Z</time>
      </trkpt>
      <trkpt lat="43.00622" lon="6.19508">
        <time>2014-05-08T10:14:56.000Z</time>
      </trkpt>
      <trkpt lat="43.00626" lon="6.19495">
        <time>2014-05-08T10:15:01.000Z</time>
      </trkpt>
      <trkpt lat="43.00627" lon="6.19484">
        <time>2014-05-08T10:15:06.000Z</time>
      </trkpt>
      <trkpt lat="43.00628" lon="6.19472">
        <time>2014-05-08T10:15:11.000Z</time>
      </trkpt>
      <trkpt lat="43.0063" lon="6.19461">
        <time>2014-05-08T10:15:16.000Z</time>
      </trkpt>
      <trkpt lat="43.00633" lon="6.19451">
        <time>2014-05-08T10:15:21.000Z</time>
      </trkpt>
      <trkpt lat="43.00636" lon="6.19441">
        <time>2014-05-08T10:15:26.000Z</time>
      </trkpt>
      <trkpt lat="43.00641" lon="6.19431">
        <time>2014-05-08T10:15:31.000Z</time>
      </trkpt>
      <trkpt lat="43.00644" lon="6.19422">
        <ele>0.06</ele>
        <time>2014-05-08T10:15:36.000Z</time>
      </trkpt>
      <trkpt lat="43.00646" lon="6.19411">
        <ele>0.11</ele>
        <time>2014-05-08T10:15:41.000Z</time>
      </trkpt>
      <trkpt lat="43.00646" lon="6.19399">
        <ele>0.17</ele>
        <time>2014-05-08T10:15:46.000Z</time>
      </trkpt>
      <trkpt lat="43.00645" lon="6.19387">
        <ele>0.22</ele>
        <time>2014-05-08T10:15:51.000Z</time>
      </trkpt>
      <trkpt lat="43.00643" lon="6.19376">
        <ele>0.28</ele>
        <time>2014-05-08T10:15:56.000Z</time>
      </trkpt>
      <trkpt lat="43.00643" lon="6.19365">
        <ele>0.34</ele>
        <time>2014-05-08T10:16:01.000Z</time>
      </trkpt>
      <trkpt lat="43.00643" lon="6.19355">
        <ele>0.26</ele>
        <time>2014-05-08T10:16:06.000Z</time>
      </trkpt>
      <trkpt lat="43.00645" lon="6.19344">
        <ele>0.19</ele>
        <time>2014-05-08T10:16:11.000Z</time>
      </trkpt>
      <trkpt lat="43.00647" lon="6.19334">
        <ele>0.11</ele>
        <time>2014-05-08T10:16:16.000Z</time>
      </trkpt>
      <trkpt lat="43.00652" lon="6.19321">
        <ele>0.08</ele>
        <time>2014-05-08T10:16:21.000Z</time>
      </trkpt>
      <trkpt lat="43.00655" lon="6.19311">
        <ele>0.05</ele>
        <time>2014-05-08T10:16:26.000Z</time>
      </trkpt>
      <trkpt lat="43.00655" lon="6.19303">
        <ele>0.02</ele>
        <time>2014-05-08T10:16:31.000Z</time>
      </trkpt>
      <trkpt lat="43.00657" lon="6.19294">
        <ele>0.01</ele>
        <time>2014-05-08T10:16:36.000Z</time>
      </trkpt>
      <trkpt lat="43.0066" lon="6.19283">
        <ele>0.01</ele>
        <time>2014-05-08T10:16:41.000Z</time>
      </trkpt>
      <trkpt lat="43.00663" lon="6.19273">
        <time>2014-05-08T10:16:46.000Z</time>
      </trkpt>
      <trkpt lat="43.00666" lon="6.19265">
        <time>2014-05-08T10:16:51.000Z</time>
      </trkpt>
      <trkpt lat="43.00668" lon="6.19254">
        <time>2014-05-08T10:16:56.000Z</time>
      </trkpt>
      <trkpt lat="43.00669" lon="6.19239">
        <time>2014-05-08T10:17:01.000Z</time>
      </trkpt>
      <trkpt lat="43.00669" lon="6.19227">
        <time>2014-05-08T10:17:06.000Z</time>
      </trkpt>
      <trkpt lat="43.0067" lon="6.19214">
        <time>2014-05-08T10:17:11.000Z</time>
      </trkpt>
      <trkpt lat="43.00673" lon="6.19203">
        <time>2014-05-08T10:17:16.000Z</time>
      </trkpt>
      <trkpt lat="43.00674" lon="6.19194">
        <time>2014-05-08T10:17:21.000Z</time>
      </trkpt>
      <trkpt lat="43.00676" lon="6.19187">
        <time>2014-05-08T10:17:26.000Z</time>
      </trkpt>
      <trkpt lat="43.00678" lon="6.19178">
        <time>2014-05-08T10:17:31.000Z</time>
      </trkpt>
      <trkpt lat="43.00682" lon="6.19167">
        <time>2014-05-08T10:17:36.000Z</time>
      </trkpt>
      <trkpt lat="43.00683" lon="6.19157">
        <time>2014-05-08T10:17:41.000Z</time>
      </trkpt>
      <trkpt lat="43.00683" lon="6.19146">
        <time>2014-05-08T10:17:46.000Z</time>
      </trkpt>
      <trkpt lat="43.00683" lon="6.19135">
        <time>2014-05-08T10:17:51.000Z</time>
      </trkpt>
      <trkpt lat="43.00684" lon="6.19124">
        <time>2014-05-08T10:17:56.000Z</time>
      </trkpt>
      <trkpt lat="43.00685" lon="6.19116">
        <time>2014-05-08T10:18:01.000Z</time>
      </trkpt>
      <trkpt lat="43.00685" lon="6.19108">
        <time>2014-05-08T10:18:06.000Z</time>
      </trkpt>
      <trkpt lat="43.00686" lon="6.19101">
        <time>2014-05-08T10:18:11.000Z</time>
      </trkpt>
      <trkpt lat="43.00687" lon="6.19093">
        <time>2014-05-08T10:18:16.000Z</time>
      </trkpt>
      <trkpt lat="43.00688" lon="6.19088">
        <time>2014-05-08T10:18:21.000Z</time>
      </trkpt>
      <trkpt lat="43.00689" lon="6.19082">
        <time>2014-05-08T10:18:26.000Z</time>
      </trkpt>
      <trkpt lat="43.00691" lon="6.19073">
        <time>2014-05-08T10:18:31.000Z</time>
      </trkpt>
      <trkpt lat="43.00694" lon="6.19063">
        <time>2014-05-08T10:18:36.000Z</time>
      </trkpt>
      <trkpt lat="43.00698" lon="6.19055">
        <time>2014-05-08T10:18:41.000Z</time>
      </trkpt>
      <trkpt lat="43.00702" lon="6.19045">
        <time>2014-05-08T10:18:46.000Z</time>
      </trkpt>
      <trkpt lat="43.00706" lon="6.19036">
        <time>2014-05-08T10:18:51.000Z</time>
      </trkpt>
      <trkpt lat="43.00709" lon="6.19023">
        <time>2014-05-08T10:18:56.000Z</time>
      </trkpt>
      <trkpt lat="43.0071" lon="6.19012">
        <time>2014-05-08T10:19:01.000Z</time>
      </trkpt>
      <trkpt lat="43.00711" lon="6.19002">
        <time>2014-05-08T10:19:06.000Z</time>
      </trkpt>
      <trkpt lat="43.00713" lon="6.1899">
        <time>2014-05-08T10:19:11.000Z</time>
      </trkpt>
      <trkpt lat="43.00715" lon="6.1898">
        <time>2014-05-08T10:19:16.000Z</time>
      </trkpt>
      <trkpt lat="43.00718" lon="6.18969">
        <time>2014-05-08T10:19:21.000Z</time>
      </trkpt>
      <trkpt lat="43.00721" lon="6.18959">
        <time>2014-05-08T10:19:26.000Z</time>
      </trkpt>
      <trkpt lat="43.00723" lon="6.18953">
        <time>2014-05-08T10:19:31.000Z</time>
      </trkpt>
      <trkpt lat="43.00726" lon="6.18944">
        <time>2014-05-08T10:19:36.000Z</time>
      </trkpt>
      <trkpt lat="43.0073" lon="6.18935">
        <time>2014-05-08T10:19:41.000Z</time>
      </trkpt>
      <trkpt lat="43.00735" lon="6.18926">
        <time>2014-05-08T10:19:46.000Z</time>
      </trkpt>
      <trkpt lat="43.00742" lon="6.18916">
        <time>2014-05-08T10:19:51.000Z</time>
      </trkpt>
      <trkpt lat="43.00748" lon="6.18908">
        <time>2014-05-08T10:19:56.000Z</time>
      </trkpt>
      <trkpt lat="43.00751" lon="6.18899">
        <time>2014-05-08T10:20:01.000Z</time>
      </trkpt>
      <trkpt lat="43.00754" lon="6.18889">
        <time>2014-05-08T10:20:06.000Z</time>
      </trkpt>
      <trkpt lat="43.00756" lon="6.18877">
        <time>2014-05-08T10:20:11.000Z</time>
      </trkpt>
      <trkpt lat="43.00758" lon="6.18866">
        <time>2014-05-08T10:20:16.000Z</time>
      </trkpt>
      <trkpt lat="43.00761" lon="6.18856">
        <time>2014-05-08T10:20:21.000Z</time>
      </trkpt>
      <trkpt lat="43.00764" lon="6.18846">
        <time>2014-05-08T10:20:26.000Z</time>
      </trkpt>
      <trkpt lat="43.00768" lon="6.18837">
        <time>2014-05-08T10:20:31.000Z</time>
      </trkpt>
      <trkpt lat="43.00773" lon="6.18829">
        <time>2014-05-08T10:20:36.000Z</time>
      </trkpt>
      <trkpt lat="43.00778" lon="6.1882">
        <time>2014-05-08T10:20:41.000Z</time>
      </trkpt>
      <trkpt lat="43.00781" lon="6.18809">
        <time>2014-05-08T10:20:46.000Z</time>
      </trkpt>
      <trkpt lat="43.00785" lon="6.18799">
        <time>2014-05-08T10:20:51.000Z</time>
      </trkpt>
      <trkpt lat="43.0079" lon="6.18789">
        <time>2014-05-08T10:20:56.000Z</time>
      </trkpt>
      <trkpt lat="43.00795" lon="6.1878">
        <time>2014-05-08T10:21:01.000Z</time>
      </trkpt>
      <trkpt lat="43.008" lon="6.1877">
        <time>2014-05-08T10:21:06.000Z</time>
      </trkpt>
      <trkpt lat="43.00803" lon="6.18759">
        <time>2014-05-08T10:21:11.000Z</time>
      </trkpt>
      <trkpt lat="43.00804" lon="6.18751">
        <time>2014-05-08T10:21:16.000Z</time>
      </trkpt>
      <trkpt lat="43.00806" lon="6.18739">
        <time>2014-05-08T10:21:21.000Z</time>
      </trkpt>
      <trkpt lat="43.00809" lon="6.18728">
        <time>2014-05-08T10:21:26.000Z</time>
      </trkpt>
      <trkpt lat="43.00814" lon="6.18715">
        <time>2014-05-08T10:21:31.000Z</time>
      </trkpt>
      <trkpt lat="43.00819" lon="6.18706">
        <time>2014-05-08T10:21:36.000Z</time>
      </trkpt>
      <trkpt lat="43.00824" lon="6.18698">
        <time>2014-05-08T10:21:41.000Z</time>
      </trkpt>
      <trkpt lat="43.0083" lon="6.1869">
        <time>2014-05-08T10:21:46.000Z</time>
      </trkpt>
      <trkpt lat="43.00836" lon="6.18682">
        <time>2014-05-08T10:21:51.000Z</time>
      </trkpt>
      <trkpt lat="43.00841" lon="6.18673">
        <time>2014-05-08T10:21:56.000Z</time>
      </trkpt>
      <trkpt lat="43.00845" lon="6.18662">
        <time>2014-05-08T10:22:01.000Z</time>
      </trkpt>
      <trkpt lat="43.00847" lon="6.18651">
        <time>2014-05-08T10:22:06.000Z</time>
      </trkpt>
      <trkpt lat="43.00849" lon="6.1864">
        <time>2014-05-08T10:22:11.000Z</time>
      </trkpt>
      <trkpt lat="43.0085" lon="6.18629">
        <time>2014-05-08T10:22:16.000Z</time>
      </trkpt>
      <trkpt lat="43.00853" lon="6.18619">
        <time>2014-05-08T10:22:21.000Z</time>
      </trkpt>
      <trkpt lat="43.00857" lon="6.18609">
        <ele>0.01</ele>
        <time>2014-05-08T10:22:26.000Z</time>
      </trkpt>
      <trkpt lat="43.00861" lon="6.18598">
        <ele>0.01</ele>
        <time>2014-05-08T10:22:31.000Z</time>
      </trkpt>
      <trkpt lat="43.00865" lon="6.18591">
        <ele>0.01</ele>
        <time>2014-05-08T10:22:36.000Z</time>
      </trkpt>
      <trkpt lat="43.00869" lon="6.18582">
        <ele>0.01</ele>
        <time>2014-05-08T10:22:41.000Z</time>
      </trkpt>
      <trkpt lat="43.00871" lon="6.18571">
        <time>2014-05-08T10:22:46.000Z</time>
      </trkpt>
      <trkpt lat="43.00872" lon="6.18563">
        <time>2014-05-08T10:22:51.000Z</time>
      </trkpt>
      <trkpt lat="43.00872" lon="6.18551">
        <ele>1</ele>
        <time>2014-05-08T10:22:56.000Z</time>
      </trkpt>
      <trkpt lat="43.00872" lon="6.18541">
        <ele>1</ele>
        <time>2014-05-08T10:23:01.000Z</time>
      </trkpt>
      <trkpt lat="43.00874" lon="6.18531">
        <ele>0.12</ele>
        <time>2014-05-08T10:23:06.000Z</time>
      </trkpt>
      <trkpt lat="43.00876" lon="6.18521">
        <ele>0.25</ele>
        <time>2014-05-08T10:23:11.000Z</time>
      </trkpt>
      <trkpt lat="43.00879" lon="6.18511">
        <ele>0.37</ele>
        <time>2014-05-08T10:23:16.000Z</time>
      </trkpt>
      <trkpt lat="43.00882" lon="6.18501">
        <ele>0.47</ele>
        <time>2014-05-08T10:23:21.000Z</time>
      </trkpt>
      <trkpt lat="43.00885" lon="6.18492">
        <ele>0.58</ele>
        <time>2014-05-08T10:23:26.000Z</time>
      </trkpt>
      <trkpt lat="43.00888" lon="6.18481">
        <ele>0.69</ele>
        <time>2014-05-08T10:23:31.000Z</time>
      </trkpt>
      <trkpt lat="43.00889" lon="6.18469">
        <ele>0.65</ele>
        <time>2014-05-08T10:23:36.000Z</time>
      </trkpt>
      <trkpt lat="43.00888" lon="6.1846">
        <ele>0.62</ele>
        <time>2014-05-08T10:23:41.000Z</time>
      </trkpt>
      <trkpt lat="43.00887" lon="6.18449">
        <ele>0.58</ele>
        <time>2014-05-08T10:23:46.000Z</time>
      </trkpt>
      <trkpt lat="43.00885" lon="6.18442">
        <ele>0.45</ele>
        <time>2014-05-08T10:23:51.000Z</time>
      </trkpt>
      <trkpt lat="43.00884" lon="6.18432">
        <ele>0.32</ele>
        <time>2014-05-08T10:23:56.000Z</time>
      </trkpt>
      <trkpt lat="43.00884" lon="6.18422">
        <ele>0.18</ele>
        <time>2014-05-08T10:24:01.000Z</time>
      </trkpt>
      <trkpt lat="43.00885" lon="6.18408">
        <ele>0.12</ele>
        <time>2014-05-08T10:24:06.000Z</time>
      </trkpt>
      <trkpt lat="43.00887" lon="6.18398">
        <ele>0.06</ele>
        <time>2014-05-08T10:24:11.000Z</time>
      </trkpt>
      <trkpt lat="43.00888" lon="6.18389">
        <time>2014-05-08T10:24:16.000Z</time>
      </trkpt>
      <trkpt lat="43.00888" lon="6.18374">
        <time>2014-05-08T10:24:21.000Z</time>
      </trkpt>
      <trkpt lat="43.00886" lon="6.18364">
        <time>2014-05-08T10:24:26.000Z</time>
      </trkpt>
      <trkpt lat="43.00886" lon="6.18353">
        <time>2014-05-08T10:24:31.000Z</time>
      </trkpt>
      <trkpt lat="43.00887" lon="6.18341">
        <time>2014-05-08T10:24:36.000Z</time>
      </trkpt>
      <trkpt lat="43.00889" lon="6.1833">
        <time>2014-05-08T10:24:41.000Z</time>
      </trkpt>
      <trkpt lat="43.00892" lon="6.18319">
        <time>2014-05-08T10:24:46.000Z</time>
      </trkpt>
      <trkpt lat="43.00895" lon="6.18309">
        <time>2014-05-08T10:24:51.000Z</time>
      </trkpt>
      <trkpt lat="43.00898" lon="6.18298">
        <time>2014-05-08T10:24:56.000Z</time>
      </trkpt>
      <trkpt lat="43.009" lon="6.18287">
        <time>2014-05-08T10:25:01.000Z</time>
      </trkpt>
      <trkpt lat="43.009" lon="6.18275">
        <time>2014-05-08T10:25:06.000Z</time>
      </trkpt>
      <trkpt lat="43.009" lon="6.18267">
        <time>2014-05-08T10:25:11.000Z</time>
      </trkpt>
      <trkpt lat="43.00901" lon="6.18255">
        <time>2014-05-08T10:25:16.000Z</time>
      </trkpt>
      <trkpt lat="43.00904" lon="6.18241">
        <time>2014-05-08T10:25:21.000Z</time>
      </trkpt>
      <trkpt lat="43.00908" lon="6.18231">
        <time>2014-05-08T10:25:26.000Z</time>
      </trkpt>
      <trkpt lat="43.00909" lon="6.18219">
        <time>2014-05-08T10:25:31.000Z</time>
      </trkpt>
      <trkpt lat="43.0091" lon="6.18207">
        <ele>0.03</ele>
        <time>2014-05-08T10:25:36.000Z</time>
      </trkpt>
      <trkpt lat="43.0091" lon="6.18196">
        <ele>0.05</ele>
        <time>2014-05-08T10:25:41.000Z</time>
      </trkpt>
      <trkpt lat="43.00911" lon="6.18185">
        <ele>0.08</ele>
        <time>2014-05-08T10:25:46.000Z</time>
      </trkpt>
      <trkpt lat="43.00913" lon="6.18174">
        <ele>0.14</ele>
        <time>2014-05-08T10:25:51.000Z</time>
      </trkpt>
      <trkpt lat="43.00913" lon="6.18165">
        <ele>0.21</ele>
        <time>2014-05-08T10:25:56.000Z</time>
      </trkpt>
      <trkpt lat="43.00913" lon="6.18155">
        <ele>0.28</ele>
        <time>2014-05-08T10:26:01.000Z</time>
      </trkpt>
      <trkpt lat="43.0091" lon="6.18145">
        <ele>0.38</ele>
        <time>2014-05-08T10:26:06.000Z</time>
      </trkpt>
      <trkpt lat="43.00908" lon="6.18134">
        <ele>0.48</ele>
        <time>2014-05-08T10:26:11.000Z</time>
      </trkpt>
      <trkpt lat="43.00907" lon="6.18121">
        <ele>0.58</ele>
        <time>2014-05-08T10:26:16.000Z</time>
      </trkpt>
      <trkpt lat="43.00907" lon="6.18108">
        <ele>0.63</ele>
        <time>2014-05-08T10:26:21.000Z</time>
      </trkpt>
      <trkpt lat="43.00908" lon="6.18099">
        <ele>0.68</ele>
        <time>2014-05-08T10:26:26.000Z</time>
      </trkpt>
      <trkpt lat="43.00908" lon="6.18088">
        <ele>0.73</ele>
        <time>2014-05-08T10:26:31.000Z</time>
      </trkpt>
      <trkpt lat="43.0091" lon="6.18077">
        <ele>0.83</ele>
        <time>2014-05-08T10:26:36.000Z</time>
      </trkpt>
      <trkpt lat="43.00911" lon="6.18069">
        <ele>0.93</ele>
        <time>2014-05-08T10:26:41.000Z</time>
      </trkpt>
      <trkpt lat="43.00909" lon="6.18061">
        <ele>1.03</ele>
        <time>2014-05-08T10:26:46.000Z</time>
      </trkpt>
      <trkpt lat="43.00906" lon="6.18051">
        <ele>1.2</ele>
        <time>2014-05-08T10:26:51.000Z</time>
      </trkpt>
      <trkpt lat="43.00901" lon="6.18042">
        <ele>1.36</ele>
        <time>2014-05-08T10:26:56.000Z</time>
      </trkpt>
      <trkpt lat="43.00898" lon="6.18037">
        <ele>1.53</ele>
        <time>2014-05-08T10:27:01.000Z</time>
      </trkpt>
      <trkpt lat="43.00895" lon="6.18031">
        <ele>1.64</ele>
        <time>2014-05-08T10:27:06.000Z</time>
      </trkpt>
      <trkpt lat="43.00893" lon="6.18027">
        <ele>1.76</ele>
        <time>2014-05-08T10:27:11.000Z</time>
      </trkpt>
      <trkpt lat="43.00893" lon="6.18019">
        <ele>1.87</ele>
        <time>2014-05-08T10:27:16.000Z</time>
      </trkpt>
      <trkpt lat="43.00892" lon="6.18008">
        <ele>1.98</ele>
        <time>2014-05-08T10:27:21.000Z</time>
      </trkpt>
      <trkpt lat="43.00892" lon="6.17997">
        <ele>2.08</ele>
        <time>2014-05-08T10:27:26.000Z</time>
      </trkpt>
      <trkpt lat="43.0089" lon="6.17985">
        <ele>2.19</ele>
        <time>2014-05-08T10:27:31.000Z</time>
      </trkpt>
      <trkpt lat="43.0089" lon="6.17973">
        <ele>2.06</ele>
        <time>2014-05-08T10:27:36.000Z</time>
      </trkpt>
      <trkpt lat="43.00889" lon="6.17961">
        <ele>1.93</ele>
        <time>2014-05-08T10:27:41.000Z</time>
      </trkpt>
      <trkpt lat="43.00889" lon="6.17952">
        <ele>1.81</ele>
        <time>2014-05-08T10:27:46.000Z</time>
      </trkpt>
      <trkpt lat="43.0089" lon="6.17942">
        <ele>1.8</ele>
        <time>2014-05-08T10:27:51.000Z</time>
      </trkpt>
      <trkpt lat="43.00889" lon="6.17931">
        <ele>1.78</ele>
        <time>2014-05-08T10:27:56.000Z</time>
      </trkpt>
      <trkpt lat="43.00885" lon="6.17919">
        <ele>1.77</ele>
        <time>2014-05-08T10:28:01.000Z</time>
      </trkpt>
      <trkpt lat="43.0088" lon="6.17911">
        <ele>1.78</ele>
        <time>2014-05-08T10:28:06.000Z</time>
      </trkpt>
      <trkpt lat="43.00876" lon="6.17907">
        <ele>1.79</ele>
        <time>2014-05-08T10:28:11.000Z</time>
      </trkpt>
      <trkpt lat="43.00873" lon="6.17903">
        <ele>1.8</ele>
        <time>2014-05-08T10:28:16.000Z</time>
      </trkpt>
      <trkpt lat="43.00872" lon="6.17895">
        <ele>1.78</ele>
        <time>2014-05-08T10:28:21.000Z</time>
      </trkpt>
      <trkpt lat="43.00871" lon="6.17885">
        <ele>1.77</ele>
        <time>2014-05-08T10:28:26.000Z</time>
      </trkpt>
      <trkpt lat="43.00869" lon="6.1788">
        <ele>1.76</ele>
        <time>2014-05-08T10:28:31.000Z</time>
      </trkpt>
      <trkpt lat="43.00867" lon="6.17879">
        <ele>1.82</ele>
        <time>2014-05-08T10:28:36.000Z</time>
      </trkpt>
      <trkpt lat="43.00866" lon="6.17879">
        <ele>1.89</ele>
        <time>2014-05-08T10:28:41.000Z</time>
      </trkpt>
      <trkpt lat="43.00864" lon="6.17878">
        <ele>1.96</ele>
        <time>2014-05-08T10:28:46.000Z</time>
      </trkpt>
      <trkpt lat="43.00863" lon="6.17879">
        <ele>1.97</ele>
        <time>2014-05-08T10:28:51.000Z</time>
      </trkpt>
      <trkpt lat="43.00862" lon="6.17878">
        <ele>1.98</ele>
        <time>2014-05-08T10:28:56.000Z</time>
      </trkpt>
      <trkpt lat="43.00861" lon="6.17879">
        <ele>1.99</ele>
        <time>2014-05-08T10:29:01.000Z</time>
      </trkpt>
      <trkpt lat="43.00862" lon="6.17878">
        <ele>1.95</ele>
        <time>2014-05-08T10:29:06.000Z</time>
      </trkpt>
      <trkpt lat="43.00862" lon="6.17878">
        <ele>1.91</ele>
        <time>2014-05-08T10:29:11.000Z</time>
      </trkpt>
      <trkpt lat="43.00862" lon="6.17877">
        <ele>1.87</ele>
        <time>2014-05-08T10:29:16.000Z</time>
      </trkpt>
      <trkpt lat="43.00864" lon="6.17877">
        <ele>1.71</ele>
        <time>2014-05-08T10:29:21.000Z</time>
      </trkpt>
      <trkpt lat="43.00868" lon="6.17877">
        <ele>1.56</ele>
        <time>2014-05-08T10:29:26.000Z</time>
      </trkpt>
      <trkpt lat="43.00871" lon="6.17876">
        <ele>1.41</ele>
        <time>2014-05-08T10:29:31.000Z</time>
      </trkpt>
      <trkpt lat="43.00873" lon="6.17873">
        <ele>1.29</ele>
        <time>2014-05-08T10:29:36.000Z</time>
      </trkpt>
      <trkpt lat="43.00877" lon="6.1787">
        <ele>1.17</ele>
        <time>2014-05-08T10:29:41.000Z</time>
      </trkpt>
      <trkpt lat="43.0088" lon="6.17866">
        <ele>1.05</ele>
        <time>2014-05-08T10:29:46.000Z</time>
      </trkpt>
      <trkpt lat="43.00884" lon="6.1786">
        <ele>0.97</ele>
        <time>2014-05-08T10:29:51.000Z</time>
      </trkpt>
      <trkpt lat="43.00886" lon="6.17853">
        <ele>0.89</ele>
        <time>2014-05-08T10:29:56.000Z</time>
      </trkpt>
      <trkpt lat="43.00888" lon="6.1785">
        <ele>0.81</ele>
        <time>2014-05-08T10:30:01.000Z</time>
      </trkpt>
      <trkpt lat="43.0089" lon="6.17848">
        <ele>0.77</ele>
        <time>2014-05-08T10:30:06.000Z</time>
      </trkpt>
      <trkpt lat="43.00893" lon="6.17848">
        <ele>0.73</ele>
        <time>2014-05-08T10:30:11.000Z</time>
      </trkpt>
      <trkpt lat="43.00895" lon="6.17848">
        <ele>0.7</ele>
        <time>2014-05-08T10:30:16.000Z</time>
      </trkpt>
      <trkpt lat="43.00897" lon="6.17849">
        <ele>0.67</ele>
        <time>2014-05-08T10:30:21.000Z</time>
      </trkpt>
      <trkpt lat="43.009" lon="6.1785">
        <ele>0.65</ele>
        <time>2014-05-08T10:30:26.000Z</time>
      </trkpt>
      <trkpt lat="43.00902" lon="6.17851">
        <ele>0.62</ele>
        <time>2014-05-08T10:30:31.000Z</time>
      </trkpt>
      <trkpt lat="43.00903" lon="6.17852">
        <ele>0.61</ele>
        <time>2014-05-08T10:30:36.000Z</time>
      </trkpt>
      <trkpt lat="43.00904" lon="6.17853">
        <ele>0.6</ele>
        <time>2014-05-08T10:30:41.000Z</time>
      </trkpt>
      <trkpt lat="43.00906" lon="6.17854">
        <ele>0.59</ele>
        <time>2014-05-08T10:30:46.000Z</time>
      </trkpt>
      <trkpt lat="43.00907" lon="6.17855">
        <ele>0.58</ele>
        <time>2014-05-08T10:30:51.000Z</time>
      </trkpt>
      <trkpt lat="43.00908" lon="6.17856">
        <ele>0.57</ele>
        <time>2014-05-08T10:30:56.000Z</time>
      </trkpt>
      <trkpt lat="43.00909" lon="6.17856">
        <ele>0.56</ele>
        <time>2014-05-08T10:31:01.000Z</time>
      </trkpt>
      <trkpt lat="43.00909" lon="6.17858">
        <ele>0.55</ele>
        <time>2014-05-08T10:31:06.000Z</time>
      </trkpt>
      <trkpt lat="43.0091" lon="6.17858">
        <ele>0.54</ele>
        <time>2014-05-08T10:31:11.000Z</time>
      </trkpt>
      <trkpt lat="43.00911" lon="6.17859">
        <ele>0.52</ele>
        <time>2014-05-08T10:31:16.000Z</time>
      </trkpt>
      <trkpt lat="43.00912" lon="6.1786">
        <ele>0.51</ele>
        <time>2014-05-08T10:31:21.000Z</time>
      </trkpt>
      <trkpt lat="43.00913" lon="6.1786">
        <ele>0.5</ele>
        <time>2014-05-08T10:31:26.000Z</time>
      </trkpt>
      <trkpt lat="43.00914" lon="6.1786">
        <ele>0.48</ele>
        <time>2014-05-08T10:31:31.000Z</time>
      </trkpt>
      <trkpt lat="43.00915" lon="6.17861">
        <ele>0.47</ele>
        <time>2014-05-08T10:31:36.000Z</time>
      </trkpt>
      <trkpt lat="43.00916" lon="6.17862">
        <ele>0.45</ele>
        <time>2014-05-08T10:31:41.000Z</time>
      </trkpt>
      <trkpt lat="43.00917" lon="6.17862">
        <ele>0.43</ele>
        <time>2014-05-08T10:31:46.000Z</time>
      </trkpt>
      <trkpt lat="43.00918" lon="6.17863">
        <ele>0.37</ele>
        <time>2014-05-08T10:31:51.000Z</time>
      </trkpt>
      <trkpt lat="43.0092" lon="6.17864">
        <ele>0.31</ele>
        <time>2014-05-08T10:31:56.000Z</time>
      </trkpt>
      <trkpt lat="43.00925" lon="6.17863">
        <ele>0.25</ele>
        <time>2014-05-08T10:32:01.000Z</time>
      </trkpt>
      <trkpt lat="43.00928" lon="6.17862">
        <ele>0.22</ele>
        <time>2014-05-08T10:32:06.000Z</time>
      </trkpt>
      <trkpt lat="43.00929" lon="6.17858">
        <ele>0.19</ele>
        <time>2014-05-08T10:32:11.000Z</time>
      </trkpt>
      <trkpt lat="43.0093" lon="6.17852">
        <ele>0.16</ele>
        <time>2014-05-08T10:32:16.000Z</time>
      </trkpt>
      <trkpt lat="43.0093" lon="6.17843">
        <ele>0.14</ele>
        <time>2014-05-08T10:32:21.000Z</time>
      </trkpt>
      <trkpt lat="43.0093" lon="6.17832">
        <ele>0.11</ele>
        <time>2014-05-08T10:32:26.000Z</time>
      </trkpt>
      <trkpt lat="43.0093" lon="6.1782">
        <ele>0.09</ele>
        <time>2014-05-08T10:32:31.000Z</time>
      </trkpt>
      <trkpt lat="43.00929" lon="6.17809">
        <ele>0.06</ele>
        <time>2014-05-08T10:32:36.000Z</time>
      </trkpt>
      <trkpt lat="43.00928" lon="6.17798">
        <ele>0.03</ele>
        <time>2014-05-08T10:32:41.000Z</time>
      </trkpt>
      <trkpt lat="43.00927" lon="6.17788">
        <ele>0.01</ele>
        <time>2014-05-08T10:32:46.000Z</time>
      </trkpt>
      <trkpt lat="43.00926" lon="6.17777">
        <time>2014-05-08T10:32:51.000Z</time>
      </trkpt>
      <trkpt lat="43.00925" lon="6.17768">
        <time>2014-05-08T10:32:56.000Z</time>
      </trkpt>
      <trkpt lat="43.00924" lon="6.17756">
        <time>2014-05-08T10:33:01.000Z</time>
      </trkpt>
      <trkpt lat="43.00922" lon="6.17745">
        <time>2014-05-08T10:33:06.000Z</time>
      </trkpt>
      <trkpt lat="43.00921" lon="6.17731">
        <time>2014-05-08T10:33:11.000Z</time>
      </trkpt>
      <trkpt lat="43.00921" lon="6.17719">
        <time>2014-05-08T10:33:16.000Z</time>
      </trkpt>
      <trkpt lat="43.0092" lon="6.17707">
        <time>2014-05-08T10:33:21.000Z</time>
      </trkpt>
      <trkpt lat="43.0092" lon="6.17695">
        <time>2014-05-08T10:33:26.000Z</time>
      </trkpt>
      <trkpt lat="43.00919" lon="6.17683">
        <time>2014-05-08T10:33:31.000Z</time>
      </trkpt>
      <trkpt lat="43.00919" lon="6.17671">
        <time>2014-05-08T10:33:36.000Z</time>
      </trkpt>
      <trkpt lat="43.00917" lon="6.1766">
        <time>2014-05-08T10:33:41.000Z</time>
      </trkpt>
      <trkpt lat="43.00916" lon="6.17649">
        <time>2014-05-08T10:33:46.000Z</time>
      </trkpt>
      <trkpt lat="43.00915" lon="6.17637">
        <time>2014-05-08T10:33:51.000Z</time>
      </trkpt>
      <trkpt lat="43.00915" lon="6.17624">
        <time>2014-05-08T10:33:56.000Z</time>
      </trkpt>
      <trkpt lat="43.00914" lon="6.17612">
        <time>2014-05-08T10:34:01.000Z</time>
      </trkpt>
      <trkpt lat="43.00914" lon="6.17599">
        <time>2014-05-08T10:34:06.000Z</time>
      </trkpt>
      <trkpt lat="43.00915" lon="6.17587">
        <time>2014-05-08T10:34:11.000Z</time>
      </trkpt>
      <trkpt lat="43.00917" lon="6.17576">
        <time>2014-05-08T10:34:16.000Z</time>
      </trkpt>
      <trkpt lat="43.00919" lon="6.17564">
        <time>2014-05-08T10:34:21.000Z</time>
      </trkpt>
      <trkpt lat="43.00921" lon="6.17549">
        <time>2014-05-08T10:34:26.000Z</time>
      </trkpt>
      <trkpt lat="43.00923" lon="6.17537">
        <time>2014-05-08T10:34:31.000Z</time>
      </trkpt>
      <trkpt lat="43.00924" lon="6.17524">
        <time>2014-05-08T10:34:36.000Z</time>
      </trkpt>
      <trkpt lat="43.00925" lon="6.17512">
        <time>2014-05-08T10:34:41.000Z</time>
      </trkpt>
      <trkpt lat="43.00926" lon="6.17499">
        <time>2014-05-08T10:34:46.000Z</time>
      </trkpt>
      <trkpt lat="43.00927" lon="6.17487">
        <time>2014-05-08T10:34:51.000Z</time>
      </trkpt>
      <trkpt lat="43.00927" lon="6.17475">
        <time>2014-05-08T10:34:56.000Z</time>
      </trkpt>
      <trkpt lat="43.00927" lon="6.17464">
        <time>2014-05-08T10:35:01.000Z</time>
      </trkpt>
      <trkpt lat="43.00927" lon="6.17453">
        <time>2014-05-08T10:35:06.000Z</time>
      </trkpt>
      <trkpt lat="43.00927" lon="6.17442">
        <time>2014-05-08T10:35:11.000Z</time>
      </trkpt>
      <trkpt lat="43.00925" lon="6.17431">
        <time>2014-05-08T10:35:16.000Z</time>
      </trkpt>
      <trkpt lat="43.00924" lon="6.17419">
        <time>2014-05-08T10:35:21.000Z</time>
      </trkpt>
      <trkpt lat="43.00923" lon="6.17407">
        <time>2014-05-08T10:35:26.000Z</time>
      </trkpt>
      <trkpt lat="43.00922" lon="6.17398">
        <time>2014-05-08T10:35:31.000Z</time>
      </trkpt>
      <trkpt lat="43.00922" lon="6.17388">
        <time>2014-05-08T10:35:36.000Z</time>
      </trkpt>
      <trkpt lat="43.00924" lon="6.17377">
        <time>2014-05-08T10:35:41.000Z</time>
      </trkpt>
      <trkpt lat="43.00926" lon="6.17362">
        <time>2014-05-08T10:35:46.000Z</time>
      </trkpt>
      <trkpt lat="43.00928" lon="6.17352">
        <time>2014-05-08T10:35:51.000Z</time>
      </trkpt>
      <trkpt lat="43.00929" lon="6.17337">
        <time>2014-05-08T10:35:56.000Z</time>
      </trkpt>
      <trkpt lat="43.00929" lon="6.17325">
        <time>2014-05-08T10:36:01.000Z</time>
      </trkpt>
      <trkpt lat="43.00928" lon="6.17312">
        <time>2014-05-08T10:36:06.000Z</time>
      </trkpt>
      <trkpt lat="43.00928" lon="6.173">
        <time>2014-05-08T10:36:11.000Z</time>
      </trkpt>
      <trkpt lat="43.00927" lon="6.17287">
        <time>2014-05-08T10:36:16.000Z</time>
      </trkpt>
      <trkpt lat="43.00926" lon="6.17275">
        <ele>1</ele>
        <time>2014-05-08T10:36:21.000Z</time>
      </trkpt>
      <trkpt lat="43.00925" lon="6.17267">
        <ele>1</ele>
        <time>2014-05-08T10:36:26.000Z</time>
      </trkpt>
      <trkpt lat="43.00926" lon="6.17259">
        <ele>1</ele>
        <time>2014-05-08T10:36:31.000Z</time>
      </trkpt>
      <trkpt lat="43.00927" lon="6.17254">
        <ele>1</ele>
        <time>2014-05-08T10:36:36.000Z</time>
      </trkpt>
      <trkpt lat="43.00927" lon="6.17251">
        <ele>1</ele>
        <time>2014-05-08T10:36:41.000Z</time>
      </trkpt>
      <trkpt lat="43.00927" lon="6.17247">
        <ele>1</ele>
        <time>2014-05-08T10:36:46.000Z</time>
      </trkpt>
      <trkpt lat="43.00927" lon="6.17243">
        <ele>1</ele>
        <time>2014-05-08T10:36:51.000Z</time>
      </trkpt>
      <trkpt lat="43.00928" lon="6.17238">
        <ele>1</ele>
        <time>2014-05-08T10:36:56.000Z</time>
      </trkpt>
      <trkpt lat="43.00929" lon="6.17231">
        <ele>1</ele>
        <time>2014-05-08T10:37:01.000Z</time>
      </trkpt>
      <trkpt lat="43.0093" lon="6.17225">
        <ele>1</ele>
        <time>2014-05-08T10:37:06.000Z</time>
      </trkpt>
      <trkpt lat="43.00931" lon="6.17218">
        <ele>1</ele>
        <time>2014-05-08T10:37:11.000Z</time>
      </trkpt>
      <trkpt lat="43.00932" lon="6.17212">
        <ele>1</ele>
        <time>2014-05-08T10:37:16.000Z</time>
      </trkpt>
      <trkpt lat="43.00933" lon="6.17205">
        <ele>1</ele>
        <time>2014-05-08T10:37:21.000Z</time>
      </trkpt>
      <trkpt lat="43.00933" lon="6.17197">
        <ele>1</ele>
        <time>2014-05-08T10:37:26.000Z</time>
      </trkpt>
      <trkpt lat="43.00934" lon="6.1719">
        <time>2014-05-08T10:37:31.000Z</time>
      </trkpt>
      <trkpt lat="43.00935" lon="6.17183">
        <time>2014-05-08T10:37:36.000Z</time>
      </trkpt>
      <trkpt lat="43.00937" lon="6.17177">
        <time>2014-05-08T10:37:41.000Z</time>
      </trkpt>
      <trkpt lat="43.0094" lon="6.17172">
        <time>2014-05-08T10:37:46.000Z</time>
      </trkpt>
      <trkpt lat="43.00944" lon="6.17163">
        <time>2014-05-08T10:37:51.000Z</time>
      </trkpt>
      <trkpt lat="43.00949" lon="6.17154">
        <time>2014-05-08T10:37:56.000Z</time>
      </trkpt>
      <trkpt lat="43.00954" lon="6.17145">
        <time>2014-05-08T10:38:01.000Z</time>
      </trkpt>
      <trkpt lat="43.00958" lon="6.17137">
        <time>2014-05-08T10:38:06.000Z</time>
      </trkpt>
      <trkpt lat="43.00963" lon="6.17127">
        <time>2014-05-08T10:38:11.000Z</time>
      </trkpt>
      <trkpt lat="43.0097" lon="6.17117">
        <time>2014-05-08T10:38:16.000Z</time>
      </trkpt>
      <trkpt lat="43.00977" lon="6.17105">
        <time>2014-05-08T10:38:21.000Z</time>
      </trkpt>
      <trkpt lat="43.00983" lon="6.17095">
        <time>2014-05-08T10:38:26.000Z</time>
      </trkpt>
      <trkpt lat="43.00989" lon="6.17085">
        <time>2014-05-08T10:38:31.000Z</time>
      </trkpt>
      <trkpt lat="43.00995" lon="6.17075">
        <time>2014-05-08T10:38:36.000Z</time>
      </trkpt>
      <trkpt lat="43.01001" lon="6.17065">
        <time>2014-05-08T10:38:41.000Z</time>
      </trkpt>
      <trkpt lat="43.01007" lon="6.17055">
        <time>2014-05-08T10:38:46.000Z</time>
      </trkpt>
      <trkpt lat="43.01013" lon="6.17044">
        <time>2014-05-08T10:38:51.000Z</time>
      </trkpt>
      <trkpt lat="43.01018" lon="6.17033">
        <time>2014-05-08T10:38:56.000Z</time>
      </trkpt>
      <trkpt lat="43.01025" lon="6.17022">
        <time>2014-05-08T10:39:01.000Z</time>
      </trkpt>
      <trkpt lat="43.0103" lon="6.17011">
        <time>2014-05-08T10:39:06.000Z</time>
      </trkpt>
      <trkpt lat="43.01036" lon="6.17">
        <time>2014-05-08T10:39:11.000Z</time>
      </trkpt>
      <trkpt lat="43.01042" lon="6.16989">
        <time>2014-05-08T10:39:16.000Z</time>
      </trkpt>
      <trkpt lat="43.01048" lon="6.16978">
        <time>2014-05-08T10:39:21.000Z</time>
      </trkpt>
      <trkpt lat="43.01053" lon="6.1697">
        <time>2014-05-08T10:39:26.000Z</time>
      </trkpt>
      <trkpt lat="43.01058" lon="6.16959">
        <time>2014-05-08T10:39:31.000Z</time>
      </trkpt>
      <trkpt lat="43.01065" lon="6.16946">
        <time>2014-05-08T10:39:36.000Z</time>
      </trkpt>
      <trkpt lat="43.01071" lon="6.16935">
        <time>2014-05-08T10:39:41.000Z</time>
      </trkpt>
      <trkpt lat="43.01076" lon="6.16924">
        <time>2014-05-08T10:39:46.000Z</time>
      </trkpt>
      <trkpt lat="43.01082" lon="6.16913">
        <time>2014-05-08T10:39:51.000Z</time>
      </trkpt>
      <trkpt lat="43.01088" lon="6.16902">
        <time>2014-05-08T10:39:56.000Z</time>
      </trkpt>
      <trkpt lat="43.01093" lon="6.16891">
        <time>2014-05-08T10:40:01.000Z</time>
      </trkpt>
      <trkpt lat="43.01099" lon="6.16879">
        <time>2014-05-08T10:40:06.000Z</time>
      </trkpt>
      <trkpt lat="43.01105" lon="6.16867">
        <time>2014-05-08T10:40:11.000Z</time>
      </trkpt>
      <trkpt lat="43.0111" lon="6.16855">
        <time>2014-05-08T10:40:16.000Z</time>
      </trkpt>
      <trkpt lat="43.01115" lon="6.16844">
        <time>2014-05-08T10:40:21.000Z</time>
      </trkpt>
      <trkpt lat="43.0112" lon="6.16832">
        <time>2014-05-08T10:40:26.000Z</time>
      </trkpt>
      <trkpt lat="43.01126" lon="6.16822">
        <time>2014-05-08T10:40:31.000Z</time>
      </trkpt>
      <trkpt lat="43.01132" lon="6.1681">
        <time>2014-05-08T10:40:36.000Z</time>
      </trkpt>
      <trkpt lat="43.01136" lon="6.16801">
        <time>2014-05-08T10:40:41.000Z</time>
      </trkpt>
      <trkpt lat="43.01142" lon="6.16789">
        <time>2014-05-08T10:40:46.000Z</time>
      </trkpt>
      <trkpt lat="43.01148" lon="6.16777">
        <time>2014-05-08T10:40:51.000Z</time>
      </trkpt>
      <trkpt lat="43.01155" lon="6.16764">
        <time>2014-05-08T10:40:56.000Z</time>
      </trkpt>
      <trkpt lat="43.01161" lon="6.16751">
        <time>2014-05-08T10:41:01.000Z</time>
      </trkpt>
      <trkpt lat="43.01166" lon="6.16739">
        <time>2014-05-08T10:41:06.000Z</time>
      </trkpt>
      <trkpt lat="43.01172" lon="6.16727">
        <time>2014-05-08T10:41:11.000Z</time>
      </trkpt>
      <trkpt lat="43.01177" lon="6.16715">
        <time>2014-05-08T10:41:16.000Z</time>
      </trkpt>
      <trkpt lat="43.01183" lon="6.16704">
        <time>2014-05-08T10:41:21.000Z</time>
      </trkpt>
      <trkpt lat="43.0119" lon="6.16693">
        <time>2014-05-08T10:41:26.000Z</time>
      </trkpt>
      <trkpt lat="43.01197" lon="6.16683">
        <time>2014-05-08T10:41:31.000Z</time>
      </trkpt>
      <trkpt lat="43.01204" lon="6.16674">
        <time>2014-05-08T10:41:36.000Z</time>
      </trkpt>
      <trkpt lat="43.01211" lon="6.16664">
        <time>2014-05-08T10:41:41.000Z</time>
      </trkpt>
      <trkpt lat="43.01218" lon="6.16653">
        <time>2014-05-08T10:41:46.000Z</time>
      </trkpt>
      <trkpt lat="43.01224" lon="6.16641">
        <time>2014-05-08T10:41:51.000Z</time>
      </trkpt>
      <trkpt lat="43.0123" lon="6.1663">
        <time>2014-05-08T10:41:56.000Z</time>
      </trkpt>
      <trkpt lat="43.01235" lon="6.16622">
        <time>2014-05-08T10:42:01.000Z</time>
      </trkpt>
      <trkpt lat="43.01241" lon="6.16612">
        <time>2014-05-08T10:42:06.000Z</time>
      </trkpt>
      <trkpt lat="43.01248" lon="6.16598">
        <time>2014-05-08T10:42:11.000Z</time>
      </trkpt>
      <trkpt lat="43.01254" lon="6.16585">
        <time>2014-05-08T10:42:16.000Z</time>
      </trkpt>
      <trkpt lat="43.01258" lon="6.16572">
        <time>2014-05-08T10:42:21.000Z</time>
      </trkpt>
      <trkpt lat="43.01263" lon="6.1656">
        <time>2014-05-08T10:42:26.000Z</time>
      </trkpt>
      <trkpt lat="43.01267" lon="6.16547">
        <time>2014-05-08T10:42:31.000Z</time>
      </trkpt>
      <trkpt lat="43.01273" lon="6.16534">
        <time>2014-05-08T10:42:36.000Z</time>
      </trkpt>
      <trkpt lat="43.01278" lon="6.16522">
        <time>2014-05-08T10:42:41.000Z</time>
      </trkpt>
      <trkpt lat="43.01284" lon="6.1651">
        <time>2014-05-08T10:42:46.000Z</time>
      </trkpt>
      <trkpt lat="43.0129" lon="6.16499">
        <time>2014-05-08T10:42:51.000Z</time>
      </trkpt>
      <trkpt lat="43.01295" lon="6.16488">
        <time>2014-05-08T10:42:56.000Z</time>
      </trkpt>
      <trkpt lat="43.01301" lon="6.16477">
        <time>2014-05-08T10:43:01.000Z</time>
      </trkpt>
      <trkpt lat="43.01306" lon="6.16465">
        <time>2014-05-08T10:43:06.000Z</time>
      </trkpt>
      <trkpt lat="43.01312" lon="6.16452">
        <time>2014-05-08T10:43:11.000Z</time>
      </trkpt>
      <trkpt lat="43.01317" lon="6.16442">
        <time>2014-05-08T10:43:16.000Z</time>
      </trkpt>
      <trkpt lat="43.01323" lon="6.1643">
        <time>2014-05-08T10:43:21.000Z</time>
      </trkpt>
      <trkpt lat="43.01329" lon="6.1642">
        <time>2014-05-08T10:43:26.000Z</time>
      </trkpt>
      <trkpt lat="43.01335" lon="6.16406">
        <time>2014-05-08T10:43:31.000Z</time>
      </trkpt>
      <trkpt lat="43.01341" lon="6.16395">
        <time>2014-05-08T10:43:36.000Z</time>
      </trkpt>
      <trkpt lat="43.01346" lon="6.16385">
        <time>2014-05-08T10:43:41.000Z</time>
      </trkpt>
      <trkpt lat="43.01352" lon="6.16373">
        <time>2014-05-08T10:43:46.000Z</time>
      </trkpt>
      <trkpt lat="43.01357" lon="6.16362">
        <time>2014-05-08T10:43:51.000Z</time>
      </trkpt>
      <trkpt lat="43.01361" lon="6.16352">
        <time>2014-05-08T10:43:56.000Z</time>
      </trkpt>
      <trkpt lat="43.01367" lon="6.16338">
        <time>2014-05-08T10:44:01.000Z</time>
      </trkpt>
      <trkpt lat="43.01372" lon="6.16327">
        <time>2014-05-08T10:44:06.000Z</time>
      </trkpt>
      <trkpt lat="43.01376" lon="6.16315">
        <time>2014-05-08T10:44:11.000Z</time>
      </trkpt>
      <trkpt lat="43.01381" lon="6.16303">
        <time>2014-05-08T10:44:16.000Z</time>
      </trkpt>
      <trkpt lat="43.01386" lon="6.16292">
        <time>2014-05-08T10:44:21.000Z</time>
      </trkpt>
      <trkpt lat="43.0139" lon="6.16282">
        <time>2014-05-08T10:44:26.000Z</time>
      </trkpt>
      <trkpt lat="43.01395" lon="6.16271">
        <time>2014-05-08T10:44:31.000Z</time>
      </trkpt>
      <trkpt lat="43.014" lon="6.16262">
        <time>2014-05-08T10:44:36.000Z</time>
      </trkpt>
      <trkpt lat="43.01405" lon="6.16251">
        <time>2014-05-08T10:44:41.000Z</time>
      </trkpt>
      <trkpt lat="43.01412" lon="6.16237">
        <time>2014-05-08T10:44:46.000Z</time>
      </trkpt>
      <trkpt lat="43.01413" lon="6.16235">
        <time>2014-05-08T10:44:51.000Z</time>
      </trkpt>
      <trkpt lat="43.01424" lon="6.16216">
        <time>2014-05-08T10:44:56.000Z</time>
      </trkpt>
      <trkpt lat="43.01421" lon="6.16224">
        <time>2014-05-08T10:45:01.000Z</time>
      </trkpt>
      <trkpt lat="43.01424" lon="6.1622">
        <time>2014-05-08T10:45:06.000Z</time>
      </trkpt>
      <trkpt lat="43.01426" lon="6.16216">
        <time>2014-05-08T10:45:11.000Z</time>
      </trkpt>
      <trkpt lat="43.01428" lon="6.16211">
        <time>2014-05-08T10:45:16.000Z</time>
      </trkpt>
      <trkpt lat="43.01431" lon="6.16208">
        <time>2014-05-08T10:45:21.000Z</time>
      </trkpt>
      <trkpt lat="43.01432" lon="6.16207">
        <time>2014-05-08T10:45:26.000Z</time>
      </trkpt>
      <trkpt lat="43.01433" lon="6.16203">
        <time>2014-05-08T10:45:31.000Z</time>
      </trkpt>
      <trkpt lat="43.01433" lon="6.16197">
        <time>2014-05-08T10:45:36.000Z</time>
      </trkpt>
      <trkpt lat="43.01435" lon="6.16192">
        <time>2014-05-08T10:45:41.000Z</time>
      </trkpt>
      <trkpt lat="43.01437" lon="6.16185">
        <time>2014-05-08T10:45:46.000Z</time>
      </trkpt>
      <trkpt lat="43.01438" lon="6.16178">
        <time>2014-05-08T10:45:51.000Z</time>
      </trkpt>
      <trkpt lat="43.0144" lon="6.1617">
        <time>2014-05-08T10:45:56.000Z</time>
      </trkpt>
      <trkpt lat="43.01441" lon="6.16164">
        <time>2014-05-08T10:46:01.000Z</time>
      </trkpt>
      <trkpt lat="43.01445" lon="6.16153">
        <time>2014-05-08T10:46:06.000Z</time>
      </trkpt>
      <trkpt lat="43.01447" lon="6.16147">
        <time>2014-05-08T10:46:11.000Z</time>
      </trkpt>
      <trkpt lat="43.01447" lon="6.16147">
        <time>2014-05-08T10:46:16.000Z</time>
      </trkpt>
      <trkpt lat="43.01449" lon="6.16126">
        <time>2014-05-08T10:46:21.000Z</time>
      </trkpt>
      <trkpt lat="43.01451" lon="6.16131">
        <time>2014-05-08T10:46:26.000Z</time>
      </trkpt>
      <trkpt lat="43.01453" lon="6.16129">
        <time>2014-05-08T10:46:31.000Z</time>
      </trkpt>
      <trkpt lat="43.01456" lon="6.16118">
        <time>2014-05-08T10:46:36.000Z</time>
      </trkpt>
      <trkpt lat="43.01458" lon="6.16105">
        <time>2014-05-08T10:46:41.000Z</time>
      </trkpt>
      <trkpt lat="43.01461" lon="6.16092">
        <time>2014-05-08T10:46:46.000Z</time>
      </trkpt>
      <trkpt lat="43.01463" lon="6.1608">
        <time>2014-05-08T10:46:51.000Z</time>
      </trkpt>
      <trkpt lat="43.01466" lon="6.16066">
        <time>2014-05-08T10:46:56.000Z</time>
      </trkpt>
      <trkpt lat="43.01469" lon="6.16054">
        <time>2014-05-08T10:47:01.000Z</time>
      </trkpt>
      <trkpt lat="43.01472" lon="6.16042">
        <time>2014-05-08T10:47:06.000Z</time>
      </trkpt>
      <trkpt lat="43.01475" lon="6.16031">
        <time>2014-05-08T10:47:11.000Z</time>
      </trkpt>
      <trkpt lat="43.01478" lon="6.16018">
        <time>2014-05-08T10:47:16.000Z</time>
      </trkpt>
      <trkpt lat="43.01482" lon="6.16003">
        <time>2014-05-08T10:47:21.000Z</time>
      </trkpt>
      <trkpt lat="43.01485" lon="6.15994">
        <time>2014-05-08T10:47:26.000Z</time>
      </trkpt>
      <trkpt lat="43.0149" lon="6.15979">
        <time>2014-05-08T10:47:31.000Z</time>
      </trkpt>
      <trkpt lat="43.01494" lon="6.15968">
        <time>2014-05-08T10:47:36.000Z</time>
      </trkpt>
      <trkpt lat="43.01499" lon="6.15956">
        <time>2014-05-08T10:47:41.000Z</time>
      </trkpt>
      <trkpt lat="43.01504" lon="6.15944">
        <time>2014-05-08T10:47:46.000Z</time>
      </trkpt>
      <trkpt lat="43.01509" lon="6.15932">
        <time>2014-05-08T10:47:51.000Z</time>
      </trkpt>
      <trkpt lat="43.01513" lon="6.1592">
        <time>2014-05-08T10:47:56.000Z</time>
      </trkpt>
      <trkpt lat="43.01517" lon="6.15909">
        <time>2014-05-08T10:48:01.000Z</time>
      </trkpt>
      <trkpt lat="43.01522" lon="6.15897">
        <time>2014-05-08T10:48:06.000Z</time>
      </trkpt>
      <trkpt lat="43.01526" lon="6.15886">
        <time>2014-05-08T10:48:11.000Z</time>
      </trkpt>
      <trkpt lat="43.0153" lon="6.15874">
        <time>2014-05-08T10:48:16.000Z</time>
      </trkpt>
      <trkpt lat="43.01535" lon="6.15863">
        <time>2014-05-08T10:48:21.000Z</time>
      </trkpt>
      <trkpt lat="43.01539" lon="6.15854">
        <time>2014-05-08T10:48:26.000Z</time>
      </trkpt>
      <trkpt lat="43.01544" lon="6.15841">
        <time>2014-05-08T10:48:31.000Z</time>
      </trkpt>
      <trkpt lat="43.0155" lon="6.1583">
        <time>2014-05-08T10:48:36.000Z</time>
      </trkpt>
      <trkpt lat="43.01557" lon="6.15817">
        <time>2014-05-08T10:48:41.000Z</time>
      </trkpt>
      <trkpt lat="43.01563" lon="6.15806">
        <time>2014-05-08T10:48:46.000Z</time>
      </trkpt>
      <trkpt lat="43.0157" lon="6.15797">
        <time>2014-05-08T10:48:51.000Z</time>
      </trkpt>
      <trkpt lat="43.01576" lon="6.15787">
        <time>2014-05-08T10:48:56.000Z</time>
      </trkpt>
      <trkpt lat="43.01582" lon="6.15776">
        <time>2014-05-08T10:49:01.000Z</time>
      </trkpt>
      <trkpt lat="43.01587" lon="6.15765">
        <time>2014-05-08T10:49:06.000Z</time>
      </trkpt>
      <trkpt lat="43.01592" lon="6.15755">
        <time>2014-05-08T10:49:11.000Z</time>
      </trkpt>
      <trkpt lat="43.01598" lon="6.15744">
        <time>2014-05-08T10:49:16.000Z</time>
      </trkpt>
      <trkpt lat="43.01605" lon="6.15734">
        <time>2014-05-08T10:49:21.000Z</time>
      </trkpt>
      <trkpt lat="43.01611" lon="6.15724">
        <time>2014-05-08T10:49:26.000Z</time>
      </trkpt>
      <trkpt lat="43.01617" lon="6.15713">
        <time>2014-05-08T10:49:31.000Z</time>
      </trkpt>
      <trkpt lat="43.01622" lon="6.15703">
        <time>2014-05-08T10:49:36.000Z</time>
      </trkpt>
      <trkpt lat="43.01628" lon="6.15692">
        <time>2014-05-08T10:49:41.000Z</time>
      </trkpt>
      <trkpt lat="43.01633" lon="6.15685">
        <time>2014-05-08T10:49:46.000Z</time>
      </trkpt>
      <trkpt lat="43.01639" lon="6.15675">
        <time>2014-05-08T10:49:51.000Z</time>
      </trkpt>
      <trkpt lat="43.01646" lon="6.15663">
        <time>2014-05-08T10:49:56.000Z</time>
      </trkpt>
      <trkpt lat="43.01652" lon="6.15651">
        <time>2014-05-08T10:50:01.000Z</time>
      </trkpt>
      <trkpt lat="43.01657" lon="6.1564">
        <time>2014-05-08T10:50:06.000Z</time>
      </trkpt>
      <trkpt lat="43.01663" lon="6.15629">
        <time>2014-05-08T10:50:11.000Z</time>
      </trkpt>
      <trkpt lat="43.01668" lon="6.15618">
        <time>2014-05-08T10:50:16.000Z</time>
      </trkpt>
      <trkpt lat="43.01675" lon="6.15607">
        <time>2014-05-08T10:50:21.000Z</time>
      </trkpt>
      <trkpt lat="43.01681" lon="6.15596">
        <time>2014-05-08T10:50:26.000Z</time>
      </trkpt>
      <trkpt lat="43.01686" lon="6.15586">
        <time>2014-05-08T10:50:31.000Z</time>
      </trkpt>
      <trkpt lat="43.01691" lon="6.15575">
        <time>2014-05-08T10:50:36.000Z</time>
      </trkpt>
      <trkpt lat="43.01696" lon="6.15563">
        <time>2014-05-08T10:50:41.000Z</time>
      </trkpt>
      <trkpt lat="43.01702" lon="6.15552">
        <time>2014-05-08T10:50:46.000Z</time>
      </trkpt>
      <trkpt lat="43.01706" lon="6.15542">
        <time>2014-05-08T10:50:51.000Z</time>
      </trkpt>
      <trkpt lat="43.01712" lon="6.1553">
        <time>2014-05-08T10:50:56.000Z</time>
      </trkpt>
      <trkpt lat="43.01716" lon="6.1552">
        <time>2014-05-08T10:51:01.000Z</time>
      </trkpt>
      <trkpt lat="43.01721" lon="6.1551">
        <time>2014-05-08T10:51:06.000Z</time>
      </trkpt>
      <trkpt lat="43.01726" lon="6.15501">
        <time>2014-05-08T10:51:11.000Z</time>
      </trkpt>
      <trkpt lat="43.01733" lon="6.15489">
        <time>2014-05-08T10:51:16.000Z</time>
      </trkpt>
      <trkpt lat="43.01737" lon="6.15481">
        <time>2014-05-08T10:51:21.000Z</time>
      </trkpt>
      <trkpt lat="43.01743" lon="6.15468">
        <time>2014-05-08T10:51:26.000Z</time>
      </trkpt>
      <trkpt lat="43.01748" lon="6.15459">
        <time>2014-05-08T10:51:31.000Z</time>
      </trkpt>
      <trkpt lat="43.01754" lon="6.15445">
        <time>2014-05-08T10:51:36.000Z</time>
      </trkpt>
      <trkpt lat="43.01759" lon="6.15433">
        <time>2014-05-08T10:51:41.000Z</time>
      </trkpt>
      <trkpt lat="43.01764" lon="6.15422">
        <time>2014-05-08T10:51:46.000Z</time>
      </trkpt>
      <trkpt lat="43.01769" lon="6.15411">
        <time>2014-05-08T10:51:51.000Z</time>
      </trkpt>
      <trkpt lat="43.01774" lon="6.15401">
        <time>2014-05-08T10:51:56.000Z</time>
      </trkpt>
      <trkpt lat="43.01779" lon="6.15389">
        <time>2014-05-08T10:52:01.000Z</time>
      </trkpt>
      <trkpt lat="43.01783" lon="6.15378">
        <time>2014-05-08T10:52:06.000Z</time>
      </trkpt>
      <trkpt lat="43.01786" lon="6.15366">
        <time>2014-05-08T10:52:11.000Z</time>
      </trkpt>
      <trkpt lat="43.0179" lon="6.15355">
        <time>2014-05-08T10:52:16.000Z</time>
      </trkpt>
      <trkpt lat="43.01794" lon="6.15346">
        <time>2014-05-08T10:52:21.000Z</time>
      </trkpt>
      <trkpt lat="43.018" lon="6.15334">
        <time>2014-05-08T10:52:26.000Z</time>
      </trkpt>
      <trkpt lat="43.01806" lon="6.15321">
        <time>2014-05-08T10:52:31.000Z</time>
      </trkpt>
      <trkpt lat="43.0181" lon="6.1531">
        <time>2014-05-08T10:52:36.000Z</time>
      </trkpt>
      <trkpt lat="43.01815" lon="6.15298">
        <time>2014-05-08T10:52:41.000Z</time>
      </trkpt>
      <trkpt lat="43.01819" lon="6.15287">
        <time>2014-05-08T10:52:46.000Z</time>
      </trkpt>
      <trkpt lat="43.01825" lon="6.15276">
        <time>2014-05-08T10:52:51.000Z</time>
      </trkpt>
      <trkpt lat="43.0183" lon="6.15265">
        <time>2014-05-08T10:52:56.000Z</time>
      </trkpt>
      <trkpt lat="43.01835" lon="6.15255">
        <time>2014-05-08T10:53:01.000Z</time>
      </trkpt>
      <trkpt lat="43.01839" lon="6.15244">
        <time>2014-05-08T10:53:06.000Z</time>
      </trkpt>
      <trkpt lat="43.01844" lon="6.15232">
        <time>2014-05-08T10:53:11.000Z</time>
      </trkpt>
      <trkpt lat="43.01849" lon="6.1522">
        <time>2014-05-08T10:53:16.000Z</time>
      </trkpt>
      <trkpt lat="43.01854" lon="6.15209">
        <time>2014-05-08T10:53:21.000Z</time>
      </trkpt>
      <trkpt lat="43.01858" lon="6.15199">
        <time>2014-05-08T10:53:26.000Z</time>
      </trkpt>
      <trkpt lat="43.01863" lon="6.15188">
        <time>2014-05-08T10:53:31.000Z</time>
      </trkpt>
      <trkpt lat="43.01867" lon="6.15179">
        <time>2014-05-08T10:53:36.000Z</time>
      </trkpt>
      <trkpt lat="43.01873" lon="6.15168">
        <time>2014-05-08T10:53:41.000Z</time>
      </trkpt>
      <trkpt lat="43.01878" lon="6.15157">
        <time>2014-05-08T10:53:46.000Z</time>
      </trkpt>
      <trkpt lat="43.01884" lon="6.15144">
        <time>2014-05-08T10:53:51.000Z</time>
      </trkpt>
      <trkpt lat="43.01889" lon="6.15134">
        <time>2014-05-08T10:53:56.000Z</time>
      </trkpt>
      <trkpt lat="43.01893" lon="6.15123">
        <time>2014-05-08T10:54:01.000Z</time>
      </trkpt>
      <trkpt lat="43.01898" lon="6.15111">
        <time>2014-05-08T10:54:06.000Z</time>
      </trkpt>
      <trkpt lat="43.01902" lon="6.15099">
        <time>2014-05-08T10:54:11.000Z</time>
      </trkpt>
      <trkpt lat="43.01907" lon="6.15088">
        <time>2014-05-08T10:54:16.000Z</time>
      </trkpt>
      <trkpt lat="43.01911" lon="6.15077">
        <time>2014-05-08T10:54:21.000Z</time>
      </trkpt>
      <trkpt lat="43.01916" lon="6.15067">
        <time>2014-05-08T10:54:26.000Z</time>
      </trkpt>
      <trkpt lat="43.01921" lon="6.15057">
        <time>2014-05-08T10:54:31.000Z</time>
      </trkpt>
      <trkpt lat="43.01925" lon="6.15046">
        <time>2014-05-08T10:54:36.000Z</time>
      </trkpt>
      <trkpt lat="43.01929" lon="6.15035">
        <time>2014-05-08T10:54:41.000Z</time>
      </trkpt>
      <trkpt lat="43.01934" lon="6.15024">
        <time>2014-05-08T10:54:46.000Z</time>
      </trkpt>
      <trkpt lat="43.01939" lon="6.15012">
        <time>2014-05-08T10:54:51.000Z</time>
      </trkpt>
      <trkpt lat="43.01943" lon="6.15004">
        <time>2014-05-08T10:54:56.000Z</time>
      </trkpt>
      <trkpt lat="43.01948" lon="6.14994">
        <time>2014-05-08T10:55:01.000Z</time>
      </trkpt>
      <trkpt lat="43.01954" lon="6.1498">
        <time>2014-05-08T10:55:06.000Z</time>
      </trkpt>
      <trkpt lat="43.0196" lon="6.14969">
        <time>2014-05-08T10:55:11.000Z</time>
      </trkpt>
      <trkpt lat="43.01965" lon="6.14959">
        <time>2014-05-08T10:55:16.000Z</time>
      </trkpt>
      <trkpt lat="43.01969" lon="6.14948">
        <time>2014-05-08T10:55:21.000Z</time>
      </trkpt>
      <trkpt lat="43.01973" lon="6.14939">
        <time>2014-05-08T10:55:26.000Z</time>
      </trkpt>
      <trkpt lat="43.01977" lon="6.14933">
        <time>2014-05-08T10:55:31.000Z</time>
      </trkpt>
      <trkpt lat="43.0198" lon="6.14928">
        <time>2014-05-08T10:55:36.000Z</time>
      </trkpt>
      <trkpt lat="43.01984" lon="6.14922">
        <time>2014-05-08T10:55:41.000Z</time>
      </trkpt>
      <trkpt lat="43.01989" lon="6.14914">
        <time>2014-05-08T10:55:46.000Z</time>
      </trkpt>
      <trkpt lat="43.01994" lon="6.14902">
        <time>2014-05-08T10:55:51.000Z</time>
      </trkpt>
      <trkpt lat="43.02" lon="6.14891">
        <time>2014-05-08T10:55:56.000Z</time>
      </trkpt>
      <trkpt lat="43.02006" lon="6.1488">
        <time>2014-05-08T10:56:01.000Z</time>
      </trkpt>
      <trkpt lat="43.02012" lon="6.14867">
        <time>2014-05-08T10:56:06.000Z</time>
      </trkpt>
      <trkpt lat="43.02016" lon="6.14858">
        <time>2014-05-08T10:56:11.000Z</time>
      </trkpt>
      <trkpt lat="43.02021" lon="6.14846">
        <time>2014-05-08T10:56:16.000Z</time>
      </trkpt>
      <trkpt lat="43.02025" lon="6.14835">
        <time>2014-05-08T10:56:21.000Z</time>
      </trkpt>
      <trkpt lat="43.02029" lon="6.1482">
        <time>2014-05-08T10:56:26.000Z</time>
      </trkpt>
      <trkpt lat="43.02032" lon="6.1481">
        <time>2014-05-08T10:56:31.000Z</time>
      </trkpt>
      <trkpt lat="43.02037" lon="6.14797">
        <time>2014-05-08T10:56:36.000Z</time>
      </trkpt>
      <trkpt lat="43.02039" lon="6.14784">
        <time>2014-05-08T10:56:41.000Z</time>
      </trkpt>
      <trkpt lat="43.02042" lon="6.14772">
        <time>2014-05-08T10:56:46.000Z</time>
      </trkpt>
      <trkpt lat="43.02047" lon="6.14762">
        <time>2014-05-08T10:56:51.000Z</time>
      </trkpt>
      <trkpt lat="43.02053" lon="6.14753">
        <time>2014-05-08T10:56:56.000Z</time>
      </trkpt>
      <trkpt lat="43.0206" lon="6.14745">
        <time>2014-05-08T10:57:01.000Z</time>
      </trkpt>
      <trkpt lat="43.02066" lon="6.14734">
        <time>2014-05-08T10:57:06.000Z</time>
      </trkpt>
      <trkpt lat="43.0207" lon="6.14726">
        <time>2014-05-08T10:57:11.000Z</time>
      </trkpt>
      <trkpt lat="43.02073" lon="6.14719">
        <time>2014-05-08T10:57:16.000Z</time>
      </trkpt>
      <trkpt lat="43.02075" lon="6.14715">
        <time>2014-05-08T10:57:21.000Z</time>
      </trkpt>
      <trkpt lat="43.02078" lon="6.14712">
        <time>2014-05-08T10:57:26.000Z</time>
      </trkpt>
      <trkpt lat="43.02081" lon="6.14709">
        <time>2014-05-08T10:57:31.000Z</time>
      </trkpt>
      <trkpt lat="43.02087" lon="6.14706">
        <time>2014-05-08T10:57:36.000Z</time>
      </trkpt>
      <trkpt lat="43.02093" lon="6.14702">
        <time>2014-05-08T10:57:41.000Z</time>
      </trkpt>
      <trkpt lat="43.02101" lon="6.14695">
        <time>2014-05-08T10:57:46.000Z</time>
      </trkpt>
      <trkpt lat="43.02109" lon="6.14684">
        <time>2014-05-08T10:57:51.000Z</time>
      </trkpt>
      <trkpt lat="43.02117" lon="6.14673">
        <time>2014-05-08T10:57:56.000Z</time>
      </trkpt>
      <trkpt lat="43.02123" lon="6.14661">
        <time>2014-05-08T10:58:01.000Z</time>
      </trkpt>
      <trkpt lat="43.02129" lon="6.14651">
        <time>2014-05-08T10:58:06.000Z</time>
      </trkpt>
      <trkpt lat="43.02136" lon="6.14642">
        <time>2014-05-08T10:58:11.000Z</time>
      </trkpt>
      <trkpt lat="43.02146" lon="6.14636">
        <time>2014-05-08T10:58:16.000Z</time>
      </trkpt>
      <trkpt lat="43.02156" lon="6.14631">
        <time>2014-05-08T10:58:21.000Z</time>
      </trkpt>
      <trkpt lat="43.02166" lon="6.14629">
        <time>2014-05-08T10:58:26.000Z</time>
      </trkpt>
      <trkpt lat="43.02175" lon="6.14628">
        <time>2014-05-08T10:58:31.000Z</time>
      </trkpt>
      <trkpt lat="43.02184" lon="6.14627">
        <time>2014-05-08T10:58:36.000Z</time>
      </trkpt>
      <trkpt lat="43.02194" lon="6.14624">
        <time>2014-05-08T10:58:41.000Z</time>
      </trkpt>
      <trkpt lat="43.02202" lon="6.14622">
        <time>2014-05-08T10:58:46.000Z</time>
      </trkpt>
      <trkpt lat="43.02212" lon="6.14617">
        <time>2014-05-08T10:58:51.000Z</time>
      </trkpt>
      <trkpt lat="43.02222" lon="6.14611">
        <time>2014-05-08T10:58:56.000Z</time>
      </trkpt>
      <trkpt lat="43.02233" lon="6.14602">
        <time>2014-05-08T10:59:01.000Z</time>
      </trkpt>
      <trkpt lat="43.02241" lon="6.14595">
        <time>2014-05-08T10:59:06.000Z</time>
      </trkpt>
      <trkpt lat="43.02247" lon="6.14588">
        <time>2014-05-08T10:59:11.000Z</time>
      </trkpt>
      <trkpt lat="43.02255" lon="6.14578">
        <time>2014-05-08T10:59:16.000Z</time>
      </trkpt>
      <trkpt lat="43.02261" lon="6.1457">
        <time>2014-05-08T10:59:21.000Z</time>
      </trkpt>
      <trkpt lat="43.02267" lon="6.14561">
        <time>2014-05-08T10:59:26.000Z</time>
      </trkpt>
      <trkpt lat="43.02272" lon="6.14555">
        <time>2014-05-08T10:59:31.000Z</time>
      </trkpt>
      <trkpt lat="43.0228" lon="6.14546">
        <time>2014-05-08T10:59:36.000Z</time>
      </trkpt>
      <trkpt lat="43.02287" lon="6.14536">
        <time>2014-05-08T10:59:41.000Z</time>
      </trkpt>
      <trkpt lat="43.02293" lon="6.14526">
        <time>2014-05-08T10:59:46.000Z</time>
      </trkpt>
      <trkpt lat="43.02299" lon="6.14515">
        <time>2014-05-08T10:59:51.000Z</time>
      </trkpt>
      <trkpt lat="43.02304" lon="6.14503">
        <time>2014-05-08T10:59:56.000Z</time>
      </trkpt>
      <trkpt lat="43.02309" lon="6.14491">
        <time>2014-05-08T11:00:01.000Z</time>
      </trkpt>
      <trkpt lat="43.02314" lon="6.14481">
        <time>2014-05-08T11:00:06.000Z</time>
      </trkpt>
      <trkpt lat="43.02319" lon="6.1447">
        <time>2014-05-08T11:00:11.000Z</time>
      </trkpt>
      <trkpt lat="43.02322" lon="6.14463">
        <time>2014-05-08T11:00:16.000Z</time>
      </trkpt>
      <trkpt lat="43.0233" lon="6.14454">
        <time>2014-05-08T11:00:21.000Z</time>
      </trkpt>
      <trkpt lat="43.02328" lon="6.14455">
        <time>2014-05-08T11:00:26.000Z</time>
      </trkpt>
      <trkpt lat="43.02331" lon="6.14447">
        <time>2014-05-08T11:00:31.000Z</time>
      </trkpt>
      <trkpt lat="43.02334" lon="6.14435">
        <time>2014-05-08T11:00:36.000Z</time>
      </trkpt>
      <trkpt lat="43.02339" lon="6.14423">
        <time>2014-05-08T11:00:41.000Z</time>
      </trkpt>
      <trkpt lat="43.02345" lon="6.14414">
        <time>2014-05-08T11:00:46.000Z</time>
      </trkpt>
      <trkpt lat="43.02354" lon="6.14407">
        <time>2014-05-08T11:00:51.000Z</time>
      </trkpt>
      <trkpt lat="43.02361" lon="6.14399">
        <time>2014-05-08T11:00:56.000Z</time>
      </trkpt>
      <trkpt lat="43.02369" lon="6.14389">
        <time>2014-05-08T11:01:01.000Z</time>
      </trkpt>
      <trkpt lat="43.02376" lon="6.14378">
        <time>2014-05-08T11:01:06.000Z</time>
      </trkpt>
      <trkpt lat="43.02383" lon="6.14368">
        <time>2014-05-08T11:01:11.000Z</time>
      </trkpt>
      <trkpt lat="43.02389" lon="6.14357">
        <time>2014-05-08T11:01:16.000Z</time>
      </trkpt>
      <trkpt lat="43.02393" lon="6.14347">
        <time>2014-05-08T11:01:21.000Z</time>
      </trkpt>
      <trkpt lat="43.02399" lon="6.14337">
        <time>2014-05-08T11:01:26.000Z</time>
      </trkpt>
      <trkpt lat="43.02407" lon="6.14328">
        <time>2014-05-08T11:01:31.000Z</time>
      </trkpt>
      <trkpt lat="43.02417" lon="6.14321">
        <time>2014-05-08T11:01:36.000Z</time>
      </trkpt>
      <trkpt lat="43.02427" lon="6.14314">
        <time>2014-05-08T11:01:41.000Z</time>
      </trkpt>
      <trkpt lat="43.02436" lon="6.14308">
        <time>2014-05-08T11:01:46.000Z</time>
      </trkpt>
      <trkpt lat="43.02444" lon="6.14298">
        <time>2014-05-08T11:01:51.000Z</time>
      </trkpt>
      <trkpt lat="43.02452" lon="6.1429">
        <time>2014-05-08T11:01:56.000Z</time>
      </trkpt>
      <trkpt lat="43.0246" lon="6.14282">
        <time>2014-05-08T11:02:01.000Z</time>
      </trkpt>
      <trkpt lat="43.02467" lon="6.14273">
        <time>2014-05-08T11:02:06.000Z</time>
      </trkpt>
      <trkpt lat="43.02475" lon="6.14264">
        <time>2014-05-08T11:02:11.000Z</time>
      </trkpt>
      <trkpt lat="43.02482" lon="6.14256">
        <time>2014-05-08T11:02:16.000Z</time>
      </trkpt>
      <trkpt lat="43.02489" lon="6.14248">
        <time>2014-05-08T11:02:21.000Z</time>
      </trkpt>
      <trkpt lat="43.02496" lon="6.14238">
        <time>2014-05-08T11:02:26.000Z</time>
      </trkpt>
      <trkpt lat="43.02502" lon="6.14229">
        <time>2014-05-08T11:02:31.000Z</time>
      </trkpt>
      <trkpt lat="43.02508" lon="6.1422">
        <time>2014-05-08T11:02:36.000Z</time>
      </trkpt>
      <trkpt lat="43.02513" lon="6.14212">
        <time>2014-05-08T11:02:41.000Z</time>
      </trkpt>
      <trkpt lat="43.02518" lon="6.14201">
        <time>2014-05-08T11:02:46.000Z</time>
      </trkpt>
      <trkpt lat="43.02524" lon="6.14187">
        <time>2014-05-08T11:02:51.000Z</time>
      </trkpt>
      <trkpt lat="43.02529" lon="6.14175">
        <time>2014-05-08T11:02:56.000Z</time>
      </trkpt>
      <trkpt lat="43.02534" lon="6.14164">
        <time>2014-05-08T11:03:01.000Z</time>
      </trkpt>
      <trkpt lat="43.02538" lon="6.14153">
        <time>2014-05-08T11:03:06.000Z</time>
      </trkpt>
      <trkpt lat="43.02543" lon="6.14141">
        <time>2014-05-08T11:03:11.000Z</time>
      </trkpt>
      <trkpt lat="43.02547" lon="6.14129">
        <time>2014-05-08T11:03:16.000Z</time>
      </trkpt>
      <trkpt lat="43.02551" lon="6.14118">
        <time>2014-05-08T11:03:21.000Z</time>
      </trkpt>
      <trkpt lat="43.02555" lon="6.14106">
        <time>2014-05-08T11:03:26.000Z</time>
      </trkpt>
      <trkpt lat="43.0256" lon="6.14095">
        <time>2014-05-08T11:03:31.000Z</time>
      </trkpt>
      <trkpt lat="43.02564" lon="6.14084">
        <time>2014-05-08T11:03:36.000Z</time>
      </trkpt>
      <trkpt lat="43.02569" lon="6.14075">
        <time>2014-05-08T11:03:41.000Z</time>
      </trkpt>
      <trkpt lat="43.02574" lon="6.14065">
        <time>2014-05-08T11:03:46.000Z</time>
      </trkpt>
      <trkpt lat="43.02578" lon="6.14056">
        <time>2014-05-08T11:03:51.000Z</time>
      </trkpt>
      <trkpt lat="43.02583" lon="6.1405">
        <time>2014-05-08T11:03:56.000Z</time>
      </trkpt>
      <trkpt lat="43.0259" lon="6.14041">
        <time>2014-05-08T11:04:01.000Z</time>
      </trkpt>
      <trkpt lat="43.02596" lon="6.14033">
        <time>2014-05-08T11:04:06.000Z</time>
      </trkpt>
      <trkpt lat="43.02604" lon="6.14022">
        <time>2014-05-08T11:04:11.000Z</time>
      </trkpt>
      <trkpt lat="43.0261" lon="6.14011">
        <time>2014-05-08T11:04:16.000Z</time>
      </trkpt>
      <trkpt lat="43.02616" lon="6.14001">
        <time>2014-05-08T11:04:21.000Z</time>
      </trkpt>
      <trkpt lat="43.02621" lon="6.13989">
        <time>2014-05-08T11:04:26.000Z</time>
      </trkpt>
      <trkpt lat="43.02626" lon="6.13978">
        <time>2014-05-08T11:04:31.000Z</time>
      </trkpt>
      <trkpt lat="43.02631" lon="6.13968">
        <time>2014-05-08T11:04:36.000Z</time>
      </trkpt>
      <trkpt lat="43.02636" lon="6.13957">
        <time>2014-05-08T11:04:41.000Z</time>
      </trkpt>
      <trkpt lat="43.02642" lon="6.13947">
        <time>2014-05-08T11:04:46.000Z</time>
      </trkpt>
      <trkpt lat="43.02647" lon="6.13938">
        <time>2014-05-08T11:04:51.000Z</time>
      </trkpt>
      <trkpt lat="43.02653" lon="6.13932">
        <time>2014-05-08T11:04:56.000Z</time>
      </trkpt>
      <trkpt lat="43.02661" lon="6.13927">
        <time>2014-05-08T11:05:01.000Z</time>
      </trkpt>
      <trkpt lat="43.02671" lon="6.13926">
        <time>2014-05-08T11:05:06.000Z</time>
      </trkpt>
      <trkpt lat="43.02681" lon="6.13929">
        <time>2014-05-08T11:05:11.000Z</time>
      </trkpt>
      <trkpt lat="43.02687" lon="6.13931">
        <time>2014-05-08T11:05:16.000Z</time>
      </trkpt>
      <trkpt lat="43.02687" lon="6.13931">
        <time>2014-05-08T11:05:21.000Z</time>
      </trkpt>
      <trkpt lat="43.02711" lon="6.13932">
        <time>2014-05-08T11:05:26.000Z</time>
      </trkpt>
      <trkpt lat="43.02694" lon="6.13934">
        <time>2014-05-08T11:05:31.000Z</time>
      </trkpt>
      <trkpt lat="43.02698" lon="6.13937">
        <time>2014-05-08T11:05:36.000Z</time>
      </trkpt>
      <trkpt lat="43.02702" lon="6.13935">
        <time>2014-05-08T11:05:41.000Z</time>
      </trkpt>
      <trkpt lat="43.02709" lon="6.1393">
        <time>2014-05-08T11:05:46.000Z</time>
      </trkpt>
      <trkpt lat="43.02718" lon="6.13925">
        <time>2014-05-08T11:05:51.000Z</time>
      </trkpt>
      <trkpt lat="43.02725" lon="6.13921">
        <time>2014-05-08T11:05:56.000Z</time>
      </trkpt>
      <trkpt lat="43.02735" lon="6.13913">
        <time>2014-05-08T11:06:01.000Z</time>
      </trkpt>
      <trkpt lat="43.02744" lon="6.13907">
        <time>2014-05-08T11:06:06.000Z</time>
      </trkpt>
      <trkpt lat="43.02752" lon="6.139">
        <time>2014-05-08T11:06:11.000Z</time>
      </trkpt>
      <trkpt lat="43.0276" lon="6.13892">
        <time>2014-05-08T11:06:16.000Z</time>
      </trkpt>
      <trkpt lat="43.02768" lon="6.13883">
        <time>2014-05-08T11:06:21.000Z</time>
      </trkpt>
      <trkpt lat="43.02776" lon="6.13874">
        <time>2014-05-08T11:06:26.000Z</time>
      </trkpt>
      <trkpt lat="43.02781" lon="6.13867">
        <time>2014-05-08T11:06:31.000Z</time>
      </trkpt>
      <trkpt lat="43.02788" lon="6.13857">
        <time>2014-05-08T11:06:36.000Z</time>
      </trkpt>
      <trkpt lat="43.02795" lon="6.13847">
        <time>2014-05-08T11:06:41.000Z</time>
      </trkpt>
      <trkpt lat="43.02802" lon="6.13835">
        <time>2014-05-08T11:06:46.000Z</time>
      </trkpt>
      <trkpt lat="43.02809" lon="6.13825">
        <time>2014-05-08T11:06:51.000Z</time>
      </trkpt>
      <trkpt lat="43.02815" lon="6.13815">
        <time>2014-05-08T11:06:56.000Z</time>
      </trkpt>
      <trkpt lat="43.0282" lon="6.13804">
        <time>2014-05-08T11:07:01.000Z</time>
      </trkpt>
      <trkpt lat="43.02826" lon="6.13794">
        <time>2014-05-08T11:07:06.000Z</time>
      </trkpt>
      <trkpt lat="43.02831" lon="6.13783">
        <time>2014-05-08T11:07:11.000Z</time>
      </trkpt>
      <trkpt lat="43.02836" lon="6.13773">
        <time>2014-05-08T11:07:16.000Z</time>
      </trkpt>
      <trkpt lat="43.02841" lon="6.13763">
        <time>2014-05-08T11:07:21.000Z</time>
      </trkpt>
      <trkpt lat="43.02847" lon="6.13752">
        <time>2014-05-08T11:07:26.000Z</time>
      </trkpt>
      <trkpt lat="43.02853" lon="6.13744">
        <time>2014-05-08T11:07:31.000Z</time>
      </trkpt>
      <trkpt lat="43.02858" lon="6.13734">
        <time>2014-05-08T11:07:36.000Z</time>
      </trkpt>
      <trkpt lat="43.02863" lon="6.13724">
        <time>2014-05-08T11:07:41.000Z</time>
      </trkpt>
      <trkpt lat="43.02867" lon="6.13714">
        <time>2014-05-08T11:07:46.000Z</time>
      </trkpt>
      <trkpt lat="43.02871" lon="6.13706">
        <time>2014-05-08T11:07:51.000Z</time>
      </trkpt>
      <trkpt lat="43.02874" lon="6.13697">
        <time>2014-05-08T11:07:56.000Z</time>
      </trkpt>
      <trkpt lat="43.02874" lon="6.13697">
        <time>2014-05-08T11:08:01.000Z</time>
      </trkpt>
      <trkpt lat="43.02876" lon="6.13684">
        <time>2014-05-08T11:08:06.000Z</time>
      </trkpt>
      <trkpt lat="43.02879" lon="6.13688">
        <time>2014-05-08T11:08:11.000Z</time>
      </trkpt>
      <trkpt lat="43.02881" lon="6.13688">
        <time>2014-05-08T11:08:16.000Z</time>
      </trkpt>
      <trkpt lat="43.02884" lon="6.13687">
        <time>2014-05-08T11:08:21.000Z</time>
      </trkpt>
      <trkpt lat="43.0289" lon="6.13681">
        <time>2014-05-08T11:08:26.000Z</time>
      </trkpt>
      <trkpt lat="43.02897" lon="6.13674">
        <time>2014-05-08T11:08:31.000Z</time>
      </trkpt>
      <trkpt lat="43.02903" lon="6.13666">
        <time>2014-05-08T11:08:36.000Z</time>
      </trkpt>
      <trkpt lat="43.02911" lon="6.13655">
        <time>2014-05-08T11:08:41.000Z</time>
      </trkpt>
      <trkpt lat="43.02918" lon="6.13646">
        <time>2014-05-08T11:08:46.000Z</time>
      </trkpt>
      <trkpt lat="43.02924" lon="6.13636">
        <time>2014-05-08T11:08:51.000Z</time>
      </trkpt>
      <trkpt lat="43.0293" lon="6.13627">
        <time>2014-05-08T11:08:56.000Z</time>
      </trkpt>
      <trkpt lat="43.02938" lon="6.13618">
        <time>2014-05-08T11:09:01.000Z</time>
      </trkpt>
      <trkpt lat="43.02936" lon="6.13615">
        <time>2014-05-08T11:09:06.000Z</time>
      </trkpt>
      <trkpt lat="43.02936" lon="6.13618">
        <time>2014-05-08T11:09:11.000Z</time>
      </trkpt>
      <trkpt lat="43.02938" lon="6.13619">
        <time>2014-05-08T11:09:16.000Z</time>
      </trkpt>
      <trkpt lat="43.02941" lon="6.13617">
        <time>2014-05-08T11:09:21.000Z</time>
      </trkpt>
      <trkpt lat="43.02945" lon="6.13612">
        <time>2014-05-08T11:09:26.000Z</time>
      </trkpt>
      <trkpt lat="43.02947" lon="6.13609">
        <time>2014-05-08T11:09:31.000Z</time>
      </trkpt>
      <trkpt lat="43.02949" lon="6.13604">
        <time>2014-05-08T11:09:36.000Z</time>
      </trkpt>
      <trkpt lat="43.02953" lon="6.13595">
        <time>2014-05-08T11:09:41.000Z</time>
      </trkpt>
      <trkpt lat="43.02957" lon="6.13586">
        <time>2014-05-08T11:09:46.000Z</time>
      </trkpt>
      <trkpt lat="43.02962" lon="6.13576">
        <time>2014-05-08T11:09:51.000Z</time>
      </trkpt>
      <trkpt lat="43.02967" lon="6.13566">
        <time>2014-05-08T11:09:56.000Z</time>
      </trkpt>
      <trkpt lat="43.02971" lon="6.13555">
        <time>2014-05-08T11:10:01.000Z</time>
      </trkpt>
      <trkpt lat="43.02976" lon="6.13544">
        <time>2014-05-08T11:10:06.000Z</time>
      </trkpt>
      <trkpt lat="43.02981" lon="6.13533">
        <time>2014-05-08T11:10:11.000Z</time>
      </trkpt>
      <trkpt lat="43.02984" lon="6.13522">
        <time>2014-05-08T11:10:16.000Z</time>
      </trkpt>
      <trkpt lat="43.02988" lon="6.13511">
        <time>2014-05-08T11:10:21.000Z</time>
      </trkpt>
      <trkpt lat="43.02991" lon="6.13502">
        <time>2014-05-08T11:10:26.000Z</time>
      </trkpt>
      <trkpt lat="43.02994" lon="6.13489">
        <time>2014-05-08T11:10:31.000Z</time>
      </trkpt>
      <trkpt lat="43.02997" lon="6.13477">
        <time>2014-05-08T11:10:36.000Z</time>
      </trkpt>
      <trkpt lat="43.03002" lon="6.13464">
        <time>2014-05-08T11:10:41.000Z</time>
      </trkpt>
      <trkpt lat="43.03006" lon="6.13454">
        <time>2014-05-08T11:10:46.000Z</time>
      </trkpt>
      <trkpt lat="43.03011" lon="6.13443">
        <time>2014-05-08T11:10:51.000Z</time>
      </trkpt>
      <trkpt lat="43.03015" lon="6.13432">
        <time>2014-05-08T11:10:56.000Z</time>
      </trkpt>
      <trkpt lat="43.03018" lon="6.1342">
        <time>2014-05-08T11:11:01.000Z</time>
      </trkpt>
      <trkpt lat="43.03023" lon="6.13409">
        <time>2014-05-08T11:11:06.000Z</time>
      </trkpt>
      <trkpt lat="43.03026" lon="6.13399">
        <time>2014-05-08T11:11:11.000Z</time>
      </trkpt>
      <trkpt lat="43.03031" lon="6.13388">
        <time>2014-05-08T11:11:16.000Z</time>
      </trkpt>
      <trkpt lat="43.03034" lon="6.1338">
        <time>2014-05-08T11:11:21.000Z</time>
      </trkpt>
      <trkpt lat="43.03038" lon="6.13373">
        <time>2014-05-08T11:11:26.000Z</time>
      </trkpt>
      <trkpt lat="43.03043" lon="6.13365">
        <time>2014-05-08T11:11:31.000Z</time>
      </trkpt>
      <trkpt lat="43.03048" lon="6.13356">
        <time>2014-05-08T11:11:36.000Z</time>
      </trkpt>
      <trkpt lat="43.03053" lon="6.13347">
        <time>2014-05-08T11:11:41.000Z</time>
      </trkpt>
      <trkpt lat="43.03057" lon="6.13339">
        <time>2014-05-08T11:11:46.000Z</time>
      </trkpt>
      <trkpt lat="43.03064" lon="6.13329">
        <time>2014-05-08T11:11:51.000Z</time>
      </trkpt>
      <trkpt lat="43.03071" lon="6.13318">
        <time>2014-05-08T11:11:56.000Z</time>
      </trkpt>
      <trkpt lat="43.03078" lon="6.13307">
        <time>2014-05-08T11:12:01.000Z</time>
      </trkpt>
      <trkpt lat="43.03084" lon="6.13299">
        <time>2014-05-08T11:12:06.000Z</time>
      </trkpt>
      <trkpt lat="43.03091" lon="6.1329">
        <time>2014-05-08T11:12:11.000Z</time>
      </trkpt>
      <trkpt lat="43.03098" lon="6.13281">
        <time>2014-05-08T11:12:16.000Z</time>
      </trkpt>
      <trkpt lat="43.03101" lon="6.13277">
        <time>2014-05-08T11:12:21.000Z</time>
      </trkpt>
      <trkpt lat="43.03109" lon="6.13269">
        <time>2014-05-08T11:12:26.000Z</time>
      </trkpt>
      <trkpt lat="43.03107" lon="6.13271">
        <time>2014-05-08T11:12:31.000Z</time>
      </trkpt>
      <trkpt lat="43.03114" lon="6.13271">
        <time>2014-05-08T11:12:36.000Z</time>
      </trkpt>
      <trkpt lat="43.0312" lon="6.13269">
        <time>2014-05-08T11:12:41.000Z</time>
      </trkpt>
      <trkpt lat="43.03128" lon="6.13266">
        <time>2014-05-08T11:12:46.000Z</time>
      </trkpt>
      <trkpt lat="43.03137" lon="6.13262">
        <time>2014-05-08T11:12:51.000Z</time>
      </trkpt>
      <trkpt lat="43.03146" lon="6.13256">
        <time>2014-05-08T11:12:56.000Z</time>
      </trkpt>
      <trkpt lat="43.03152" lon="6.13252">
        <time>2014-05-08T11:13:01.000Z</time>
      </trkpt>
      <trkpt lat="43.0316" lon="6.13248">
        <time>2014-05-08T11:13:06.000Z</time>
      </trkpt>
      <trkpt lat="43.03168" lon="6.13242">
        <time>2014-05-08T11:13:11.000Z</time>
      </trkpt>
      <trkpt lat="43.03178" lon="6.13234">
        <time>2014-05-08T11:13:16.000Z</time>
      </trkpt>
      <trkpt lat="43.03186" lon="6.13227">
        <time>2014-05-08T11:13:21.000Z</time>
      </trkpt>
      <trkpt lat="43.03195" lon="6.1322">
        <time>2014-05-08T11:13:26.000Z</time>
      </trkpt>
      <trkpt lat="43.03202" lon="6.13214">
        <time>2014-05-08T11:13:31.000Z</time>
      </trkpt>
      <trkpt lat="43.0321" lon="6.13207">
        <time>2014-05-08T11:13:36.000Z</time>
      </trkpt>
      <trkpt lat="43.03218" lon="6.13201">
        <time>2014-05-08T11:13:41.000Z</time>
      </trkpt>
      <trkpt lat="43.03225" lon="6.13196">
        <time>2014-05-08T11:13:46.000Z</time>
      </trkpt>
      <trkpt lat="43.03233" lon="6.13187">
        <time>2014-05-08T11:13:51.000Z</time>
      </trkpt>
      <trkpt lat="43.03241" lon="6.1318">
        <time>2014-05-08T11:13:56.000Z</time>
      </trkpt>
      <trkpt lat="43.03249" lon="6.13174">
        <time>2014-05-08T11:14:01.000Z</time>
      </trkpt>
      <trkpt lat="43.03256" lon="6.13167">
        <time>2014-05-08T11:14:06.000Z</time>
      </trkpt>
      <trkpt lat="43.03262" lon="6.1316">
        <time>2014-05-08T11:14:11.000Z</time>
      </trkpt>
      <trkpt lat="43.03267" lon="6.13154">
        <time>2014-05-08T11:14:16.000Z</time>
      </trkpt>
      <trkpt lat="43.03274" lon="6.13146">
        <time>2014-05-08T11:14:21.000Z</time>
      </trkpt>
      <trkpt lat="43.03281" lon="6.13136">
        <time>2014-05-08T11:14:26.000Z</time>
      </trkpt>
      <trkpt lat="43.03289" lon="6.13125">
        <time>2014-05-08T11:14:31.000Z</time>
      </trkpt>
      <trkpt lat="43.03295" lon="6.13118">
        <time>2014-05-08T11:14:36.000Z</time>
      </trkpt>
      <trkpt lat="43.03302" lon="6.1311">
        <time>2014-05-08T11:14:41.000Z</time>
      </trkpt>
      <trkpt lat="43.03307" lon="6.13103">
        <time>2014-05-08T11:14:46.000Z</time>
      </trkpt>
      <trkpt lat="43.03314" lon="6.13097">
        <time>2014-05-08T11:14:51.000Z</time>
      </trkpt>
      <trkpt lat="43.03318" lon="6.13091">
        <time>2014-05-08T11:14:56.000Z</time>
      </trkpt>
      <trkpt lat="43.03324" lon="6.13083">
        <time>2014-05-08T11:15:01.000Z</time>
      </trkpt>
      <trkpt lat="43.03331" lon="6.13073">
        <time>2014-05-08T11:15:06.000Z</time>
      </trkpt>
      <trkpt lat="43.03337" lon="6.13063">
        <time>2014-05-08T11:15:11.000Z</time>
      </trkpt>
      <trkpt lat="43.03343" lon="6.13054">
        <time>2014-05-08T11:15:16.000Z</time>
      </trkpt>
      <trkpt lat="43.0335" lon="6.13045">
        <time>2014-05-08T11:15:21.000Z</time>
      </trkpt>
      <trkpt lat="43.03357" lon="6.13037">
        <time>2014-05-08T11:15:26.000Z</time>
      </trkpt>
      <trkpt lat="43.03364" lon="6.13031">
        <time>2014-05-08T11:15:31.000Z</time>
      </trkpt>
      <trkpt lat="43.03369" lon="6.13024">
        <time>2014-05-08T11:15:36.000Z</time>
      </trkpt>
      <trkpt lat="43.03376" lon="6.13018">
        <time>2014-05-08T11:15:41.000Z</time>
      </trkpt>
      <trkpt lat="43.03383" lon="6.13012">
        <time>2014-05-08T11:15:46.000Z</time>
      </trkpt>
      <trkpt lat="43.03391" lon="6.13005">
        <time>2014-05-08T11:15:51.000Z</time>
      </trkpt>
      <trkpt lat="43.03398" lon="6.12998">
        <time>2014-05-08T11:15:56.000Z</time>
      </trkpt>
      <trkpt lat="43.03406" lon="6.12991">
        <time>2014-05-08T11:16:01.000Z</time>
      </trkpt>
      <trkpt lat="43.03413" lon="6.12985">
        <ele>0.38</ele>
        <time>2014-05-08T11:16:06.000Z</time>
      </trkpt>
      <trkpt lat="43.03419" lon="6.12977">
        <ele>0.77</ele>
        <time>2014-05-08T11:16:11.000Z</time>
      </trkpt>
      <trkpt lat="43.03426" lon="6.12969">
        <ele>1.15</ele>
        <time>2014-05-08T11:16:16.000Z</time>
      </trkpt>
      <trkpt lat="43.0343" lon="6.1296">
        <ele>1.28</ele>
        <time>2014-05-08T11:16:21.000Z</time>
      </trkpt>
      <trkpt lat="43.03434" lon="6.12949">
        <ele>1.4</ele>
        <time>2014-05-08T11:16:26.000Z</time>
      </trkpt>
      <trkpt lat="43.03438" lon="6.12939">
        <ele>1.53</ele>
        <time>2014-05-08T11:16:31.000Z</time>
      </trkpt>
      <trkpt lat="43.03441" lon="6.12928">
        <ele>1.55</ele>
        <time>2014-05-08T11:16:36.000Z</time>
      </trkpt>
      <trkpt lat="43.03443" lon="6.12917">
        <ele>1.57</ele>
        <time>2014-05-08T11:16:41.000Z</time>
      </trkpt>
      <trkpt lat="43.03446" lon="6.12911">
        <ele>1.59</ele>
        <time>2014-05-08T11:16:46.000Z</time>
      </trkpt>
      <trkpt lat="43.03448" lon="6.12907">
        <ele>1.65</ele>
        <time>2014-05-08T11:16:51.000Z</time>
      </trkpt>
      <trkpt lat="43.03449" lon="6.12903">
        <ele>1.72</ele>
        <time>2014-05-08T11:16:56.000Z</time>
      </trkpt>
      <trkpt lat="43.03453" lon="6.129">
        <ele>1.78</ele>
        <time>2014-05-08T11:17:01.000Z</time>
      </trkpt>
      <trkpt lat="43.03456" lon="6.12894">
        <ele>1.78</ele>
        <time>2014-05-08T11:17:06.000Z</time>
      </trkpt>
      <trkpt lat="43.0346" lon="6.1289">
        <ele>1.79</ele>
        <time>2014-05-08T11:17:11.000Z</time>
      </trkpt>
      <trkpt lat="43.03463" lon="6.12885">
        <ele>1.8</ele>
        <time>2014-05-08T11:17:16.000Z</time>
      </trkpt>
      <trkpt lat="43.03468" lon="6.12875">
        <ele>1.77</ele>
        <time>2014-05-08T11:17:21.000Z</time>
      </trkpt>
      <trkpt lat="43.03471" lon="6.12867">
        <ele>1.74</ele>
        <time>2014-05-08T11:17:26.000Z</time>
      </trkpt>
      <trkpt lat="43.03475" lon="6.1286">
        <ele>1.71</ele>
        <time>2014-05-08T11:17:31.000Z</time>
      </trkpt>
      <trkpt lat="43.03482" lon="6.12855">
        <ele>2.06</ele>
        <time>2014-05-08T11:17:36.000Z</time>
      </trkpt>
      <trkpt lat="43.03491" lon="6.12848">
        <ele>2.41</ele>
        <time>2014-05-08T11:17:41.000Z</time>
      </trkpt>
      <trkpt lat="43.03498" lon="6.12841">
        <ele>2.76</ele>
        <time>2014-05-08T11:17:46.000Z</time>
      </trkpt>
      <trkpt lat="43.03506" lon="6.12832">
        <ele>2.81</ele>
        <time>2014-05-08T11:17:51.000Z</time>
      </trkpt>
      <trkpt lat="43.03512" lon="6.12823">
        <ele>2.85</ele>
        <time>2014-05-08T11:17:56.000Z</time>
      </trkpt>
      <trkpt lat="43.03518" lon="6.12815">
        <ele>2.9</ele>
        <time>2014-05-08T11:18:01.000Z</time>
      </trkpt>
      <trkpt lat="43.03526" lon="6.12807">
        <ele>2.71</ele>
        <time>2014-05-08T11:18:06.000Z</time>
      </trkpt>
      <trkpt lat="43.03532" lon="6.12801">
        <ele>2.51</ele>
        <time>2014-05-08T11:18:11.000Z</time>
      </trkpt>
      <trkpt lat="43.03539" lon="6.12793">
        <ele>2.32</ele>
        <time>2014-05-08T11:18:16.000Z</time>
      </trkpt>
      <trkpt lat="43.03546" lon="6.12783">
        <ele>2.31</ele>
        <time>2014-05-08T11:18:21.000Z</time>
      </trkpt>
      <trkpt lat="43.03554" lon="6.12773">
        <ele>2.3</ele>
        <time>2014-05-08T11:18:26.000Z</time>
      </trkpt>
      <trkpt lat="43.0356" lon="6.12766">
        <ele>2.28</ele>
        <time>2014-05-08T11:18:31.000Z</time>
      </trkpt>
      <trkpt lat="43.03566" lon="6.1276">
        <ele>2.5</ele>
        <time>2014-05-08T11:18:36.000Z</time>
      </trkpt>
      <trkpt lat="43.0357" lon="6.12755">
        <ele>2.71</ele>
        <time>2014-05-08T11:18:41.000Z</time>
      </trkpt>
      <trkpt lat="43.03573" lon="6.12748">
        <ele>2.93</ele>
        <time>2014-05-08T11:18:46.000Z</time>
      </trkpt>
      <trkpt lat="43.03574" lon="6.12736">
        <ele>2.96</ele>
        <time>2014-05-08T11:18:51.000Z</time>
      </trkpt>
      <trkpt lat="43.03576" lon="6.12726">
        <ele>2.99</ele>
        <time>2014-05-08T11:18:56.000Z</time>
      </trkpt>
      <trkpt lat="43.03577" lon="6.12716">
        <ele>3.01</ele>
        <time>2014-05-08T11:19:01.000Z</time>
      </trkpt>
      <trkpt lat="43.03577" lon="6.12707">
        <ele>3.17</ele>
        <time>2014-05-08T11:19:06.000Z</time>
      </trkpt>
      <trkpt lat="43.03576" lon="6.127">
        <ele>3.32</ele>
        <time>2014-05-08T11:19:11.000Z</time>
      </trkpt>
      <trkpt lat="43.03576" lon="6.12693">
        <ele>3.47</ele>
        <time>2014-05-08T11:19:16.000Z</time>
      </trkpt>
      <trkpt lat="43.03578" lon="6.12687">
        <ele>3.47</ele>
        <time>2014-05-08T11:19:21.000Z</time>
      </trkpt>
      <trkpt lat="43.03579" lon="6.12681">
        <ele>3.47</ele>
        <time>2014-05-08T11:19:26.000Z</time>
      </trkpt>
      <trkpt lat="43.03581" lon="6.12681">
        <ele>3.47</ele>
        <time>2014-05-08T11:19:31.000Z</time>
      </trkpt>
    </trkseg>
  </trk>
</gpx>